<?xml version='1.0' encoding='UTF-8'?><gpx version="1.1" creator="JPX - https://github.com/jenetics/jpx" xmlns="http://www.topografix.com/GPX/1/1"><trk><trkseg><trkpt lat="44.2706833" lon="9.422175"><ele>11.0</ele><time>2026-04-04T13:55:34.653Z</time></trkpt><trkpt lat="44.270645" lon="9.4222667"><ele>11.0</ele><time>2026-04-04T13:55:36.653Z</time></trkpt><trkpt lat="44.2706017" lon="9.4223967"><ele>11.0</ele><time>2026-04-04T13:55:38.653Z</time></trkpt><trkpt lat="44.2705533" lon="9.4225367"><ele>11.0</ele><time>2026-04-04T13:55:40.654Z</time></trkpt><trkpt lat="44.2705183" lon="9.422615"><ele>11.0</ele><time>2026-04-04T13:55:41.653Z</time></trkpt><trkpt lat="44.2704517" lon="9.4227733"><ele>11.142857142857142</ele><time>2026-04-04T13:55:43.653Z</time></trkpt><trkpt lat="44.2704167" lon="9.422865"><ele>11.285714285714285</ele><time>2026-04-04T13:55:44.653Z</time></trkpt><trkpt lat="44.2703783" lon="9.4229567"><ele>11.428571428571427</ele><time>2026-04-04T13:55:45.653Z</time></trkpt><trkpt lat="44.2703517" lon="9.423055"><ele>11.571428571428571</ele><time>2026-04-04T13:55:46.653Z</time></trkpt><trkpt lat="44.2703267" lon="9.423155"><ele>11.714285714285714</ele><time>2026-04-04T13:55:47.654Z</time></trkpt><trkpt lat="44.270295" lon="9.4232467"><ele>11.857142857142856</ele><time>2026-04-04T13:55:48.654Z</time></trkpt><trkpt lat="44.2702667" lon="9.4233267"><ele>12.0</ele><time>2026-04-04T13:55:49.653Z</time></trkpt><trkpt lat="44.2702233" lon="9.4234883"><ele>12.0</ele><time>2026-04-04T13:55:51.654Z</time></trkpt><trkpt lat="44.2701967" lon="9.4235783"><ele>12.0</ele><time>2026-04-04T13:55:52.653Z</time></trkpt><trkpt lat="44.270155" lon="9.4236783"><ele>12.0</ele><time>2026-04-04T13:55:53.654Z</time></trkpt><trkpt lat="44.27011" lon="9.42378"><ele>12.0</ele><time>2026-04-04T13:55:54.653Z</time></trkpt><trkpt lat="44.2700667" lon="9.4238833"><ele>12.0</ele><time>2026-04-04T13:55:55.653Z</time></trkpt><trkpt lat="44.2700183" lon="9.4239983"><ele>12.0</ele><time>2026-04-04T13:55:56.653Z</time></trkpt><trkpt lat="44.2699683" lon="9.4241317"><ele>12.0</ele><time>2026-04-04T13:55:57.653Z</time></trkpt><trkpt lat="44.2699167" lon="9.4242717"><ele>12.0</ele><time>2026-04-04T13:55:58.653Z</time></trkpt><trkpt lat="44.2698633" lon="9.42442"><ele>12.0</ele><time>2026-04-04T13:55:59.654Z</time></trkpt><trkpt lat="44.2698083" lon="9.42457"><ele>12.0</ele><time>2026-04-04T13:56:00.653Z</time></trkpt><trkpt lat="44.2697533" lon="9.4247183"><ele>12.0</ele><time>2026-04-04T13:56:01.654Z</time></trkpt><trkpt lat="44.2696967" lon="9.4248567"><ele>12.0</ele><time>2026-04-04T13:56:02.653Z</time></trkpt><trkpt lat="44.2696467" lon="9.4249967"><ele>12.0</ele><time>2026-04-04T13:56:03.654Z</time></trkpt><trkpt lat="44.2696" lon="9.4251367"><ele>12.0</ele><time>2026-04-04T13:56:04.653Z</time></trkpt><trkpt lat="44.2695533" lon="9.42526"><ele>12.0</ele><time>2026-04-04T13:56:05.653Z</time></trkpt><trkpt lat="44.2695183" lon="9.4253733"><ele>11.833333333333334</ele><time>2026-04-04T13:56:06.653Z</time></trkpt><trkpt lat="44.2694833" lon="9.4254817"><ele>11.666666666666666</ele><time>2026-04-04T13:56:07.653Z</time></trkpt><trkpt lat="44.2694533" lon="9.425565"><ele>11.5</ele><time>2026-04-04T13:56:08.654Z</time></trkpt><trkpt lat="44.269415" lon="9.4256383"><ele>11.333333333333332</ele><time>2026-04-04T13:56:09.653Z</time></trkpt><trkpt lat="44.2694083" lon="9.4257617"><ele>11.166666666666666</ele><time>2026-04-04T13:56:11.654Z</time></trkpt><trkpt lat="44.2695" lon="9.4258517"><ele>11.0</ele><time>2026-04-04T13:56:13.653Z</time></trkpt><trkpt lat="44.2695717" lon="9.425895"><ele>11.0</ele><time>2026-04-04T13:56:14.654Z</time></trkpt><trkpt lat="44.2696533" lon="9.4259317"><ele>11.0</ele><time>2026-04-04T13:56:15.654Z</time></trkpt><trkpt lat="44.269735" lon="9.4259567"><ele>11.0</ele><time>2026-04-04T13:56:16.653Z</time></trkpt><trkpt lat="44.2698383" lon="9.4259683"><ele>11.0</ele><time>2026-04-04T13:56:17.654Z</time></trkpt><trkpt lat="44.2699383" lon="9.425975"><ele>11.0</ele><time>2026-04-04T13:56:18.654Z</time></trkpt><trkpt lat="44.2700267" lon="9.425985"><ele>11.166666666666666</ele><time>2026-04-04T13:56:19.654Z</time></trkpt><trkpt lat="44.270105" lon="9.426"><ele>11.333333333333332</ele><time>2026-04-04T13:56:20.654Z</time></trkpt><trkpt lat="44.270175" lon="9.42602"><ele>11.5</ele><time>2026-04-04T13:56:21.654Z</time></trkpt><trkpt lat="44.270275" lon="9.4261083"><ele>11.666666666666666</ele><time>2026-04-04T13:56:23.653Z</time></trkpt><trkpt lat="44.270325" lon="9.4261717"><ele>11.833333333333334</ele><time>2026-04-04T13:56:24.653Z</time></trkpt><trkpt lat="44.270345" lon="9.4263017"><ele>12.0</ele><time>2026-04-04T13:56:25.653Z</time></trkpt><trkpt lat="44.2703283" lon="9.42646"><ele>12.399999999999999</ele><time>2026-04-04T13:56:26.654Z</time></trkpt><trkpt lat="44.2703067" lon="9.426615"><ele>12.799999999999999</ele><time>2026-04-04T13:56:27.653Z</time></trkpt><trkpt lat="44.2702983" lon="9.4267467"><ele>13.2</ele><time>2026-04-04T13:56:28.653Z</time></trkpt><trkpt lat="44.2702933" lon="9.42689"><ele>13.6</ele><time>2026-04-04T13:56:29.653Z</time></trkpt><trkpt lat="44.27029" lon="9.42703"><ele>14.0</ele><time>2026-04-04T13:56:30.653Z</time></trkpt><trkpt lat="44.27029" lon="9.4271683"><ele>14.2</ele><time>2026-04-04T13:56:31.653Z</time></trkpt><trkpt lat="44.2703017" lon="9.427305"><ele>14.399999999999999</ele><time>2026-04-04T13:56:32.653Z</time></trkpt><trkpt lat="44.270315" lon="9.4274433"><ele>14.6</ele><time>2026-04-04T13:56:33.652Z</time></trkpt><trkpt lat="44.2703267" lon="9.4275867"><ele>14.8</ele><time>2026-04-04T13:56:34.652Z</time></trkpt><trkpt lat="44.2703367" lon="9.4277417"><ele>15.0</ele><time>2026-04-04T13:56:35.652Z</time></trkpt><trkpt lat="44.2703467" lon="9.4279"><ele>15.2</ele><time>2026-04-04T13:56:36.652Z</time></trkpt><trkpt lat="44.270355" lon="9.4280667"><ele>15.4</ele><time>2026-04-04T13:56:37.652Z</time></trkpt><trkpt lat="44.270365" lon="9.4282217"><ele>15.600000000000001</ele><time>2026-04-04T13:56:38.652Z</time></trkpt><trkpt lat="44.2703783" lon="9.4283633"><ele>15.8</ele><time>2026-04-04T13:56:39.652Z</time></trkpt><trkpt lat="44.2703917" lon="9.42851"><ele>16.0</ele><time>2026-04-04T13:56:40.652Z</time></trkpt><trkpt lat="44.2703983" lon="9.428655"><ele>16.0</ele><time>2026-04-04T13:56:41.652Z</time></trkpt><trkpt lat="44.2703967" lon="9.4287883"><ele>16.0</ele><time>2026-04-04T13:56:42.653Z</time></trkpt><trkpt lat="44.2703983" lon="9.428915"><ele>16.0</ele><time>2026-04-04T13:56:43.652Z</time></trkpt><trkpt lat="44.2703967" lon="9.429035"><ele>16.0</ele><time>2026-04-04T13:56:44.653Z</time></trkpt><trkpt lat="44.2704067" lon="9.4291367"><ele>16.0</ele><time>2026-04-04T13:56:45.653Z</time></trkpt><trkpt lat="44.2704117" lon="9.429285"><ele>15.833333333333332</ele><time>2026-04-04T13:56:47.653Z</time></trkpt><trkpt lat="44.2704017" lon="9.4293817"><ele>15.666666666666666</ele><time>2026-04-04T13:56:49.653Z</time></trkpt><trkpt lat="44.270405" lon="9.4294867"><ele>15.5</ele><time>2026-04-04T13:57:06.652Z</time></trkpt><trkpt lat="44.2704083" lon="9.4296583"><ele>15.333333333333332</ele><time>2026-04-04T13:57:08.652Z</time></trkpt><trkpt lat="44.2704067" lon="9.42977"><ele>15.166666666666666</ele><time>2026-04-04T13:57:09.652Z</time></trkpt><trkpt lat="44.2704083" lon="9.4298933"><ele>15.0</ele><time>2026-04-04T13:57:10.652Z</time></trkpt><trkpt lat="44.2704117" lon="9.4300233"><ele>14.4</ele><time>2026-04-04T13:57:11.652Z</time></trkpt><trkpt lat="44.2704183" lon="9.4301633"><ele>13.8</ele><time>2026-04-04T13:57:12.652Z</time></trkpt><trkpt lat="44.2704267" lon="9.4303133"><ele>13.2</ele><time>2026-04-04T13:57:13.652Z</time></trkpt><trkpt lat="44.2704367" lon="9.4304617"><ele>12.6</ele><time>2026-04-04T13:57:14.652Z</time></trkpt><trkpt lat="44.2704517" lon="9.4306067"><ele>12.0</ele><time>2026-04-04T13:57:15.652Z</time></trkpt><trkpt lat="44.2704583" lon="9.430725"><ele>12.0</ele><time>2026-04-04T13:57:16.652Z</time></trkpt><trkpt lat="44.27047" lon="9.4308533"><ele>12.0</ele><time>2026-04-04T13:57:17.652Z</time></trkpt><trkpt lat="44.2704783" lon="9.4309917"><ele>12.0</ele><time>2026-04-04T13:57:18.652Z</time></trkpt><trkpt lat="44.27048" lon="9.4311283"><ele>12.0</ele><time>2026-04-04T13:57:19.652Z</time></trkpt><trkpt lat="44.2704833" lon="9.4312617"><ele>12.0</ele><time>2026-04-04T13:57:20.652Z</time></trkpt><trkpt lat="44.270485" lon="9.4313917"><ele>12.0</ele><time>2026-04-04T13:57:21.652Z</time></trkpt><trkpt lat="44.2704883" lon="9.43152"><ele>12.0</ele><time>2026-04-04T13:57:22.652Z</time></trkpt><trkpt lat="44.2704967" lon="9.43165"><ele>12.0</ele><time>2026-04-04T13:57:23.652Z</time></trkpt><trkpt lat="44.2705017" lon="9.4317733"><ele>12.0</ele><time>2026-04-04T13:57:24.652Z</time></trkpt><trkpt lat="44.2705033" lon="9.4318917"><ele>12.0</ele><time>2026-04-04T13:57:25.653Z</time></trkpt><trkpt lat="44.2704967" lon="9.4320033"><ele>12.0</ele><time>2026-04-04T13:57:26.652Z</time></trkpt><trkpt lat="44.270505" lon="9.4321233"><ele>12.0</ele><time>2026-04-04T13:57:27.652Z</time></trkpt><trkpt lat="44.2705233" lon="9.4322633"><ele>12.0</ele><time>2026-04-04T13:57:28.652Z</time></trkpt><trkpt lat="44.2705383" lon="9.4324067"><ele>12.0</ele><time>2026-04-04T13:57:29.652Z</time></trkpt><trkpt lat="44.27054" lon="9.4325583"><ele>12.0</ele><time>2026-04-04T13:57:30.652Z</time></trkpt><trkpt lat="44.270545" lon="9.4327117"><ele>12.0</ele><time>2026-04-04T13:57:31.652Z</time></trkpt><trkpt lat="44.2705583" lon="9.432865"><ele>12.25</ele><time>2026-04-04T13:57:32.652Z</time></trkpt><trkpt lat="44.2705717" lon="9.4330267"><ele>12.5</ele><time>2026-04-04T13:57:33.652Z</time></trkpt><trkpt lat="44.2705883" lon="9.4331917"><ele>12.75</ele><time>2026-04-04T13:57:34.652Z</time></trkpt><trkpt lat="44.27061" lon="9.433355"><ele>13.0</ele><time>2026-04-04T13:57:35.652Z</time></trkpt><trkpt lat="44.2706283" lon="9.4335117"><ele>15.2</ele><time>2026-04-04T13:57:36.652Z</time></trkpt><trkpt lat="44.270645" lon="9.43367"><ele>17.4</ele><time>2026-04-04T13:57:37.652Z</time></trkpt><trkpt lat="44.2706633" lon="9.4338233"><ele>19.599999999999998</ele><time>2026-04-04T13:57:38.652Z</time></trkpt><trkpt lat="44.27068" lon="9.4339683"><ele>21.8</ele><time>2026-04-04T13:57:39.652Z</time></trkpt><trkpt lat="44.2707017" lon="9.434105"><ele>24.0</ele><time>2026-04-04T13:57:40.652Z</time></trkpt><trkpt lat="44.27072" lon="9.4342267"><ele>24.0</ele><time>2026-04-04T13:57:41.652Z</time></trkpt><trkpt lat="44.270735" lon="9.434345"><ele>24.0</ele><time>2026-04-04T13:57:42.652Z</time></trkpt><trkpt lat="44.2707517" lon="9.4344567"><ele>24.0</ele><time>2026-04-04T13:57:43.652Z</time></trkpt><trkpt lat="44.2707733" lon="9.4345733"><ele>24.0</ele><time>2026-04-04T13:57:44.653Z</time></trkpt><trkpt lat="44.2708033" lon="9.4346867"><ele>24.0</ele><time>2026-04-04T13:57:45.652Z</time></trkpt><trkpt lat="44.2708467" lon="9.4347933"><ele>24.0</ele><time>2026-04-04T13:57:46.652Z</time></trkpt><trkpt lat="44.2709017" lon="9.4349067"><ele>24.0</ele><time>2026-04-04T13:57:47.653Z</time></trkpt><trkpt lat="44.2709567" lon="9.435015"><ele>24.0</ele><time>2026-04-04T13:57:48.652Z</time></trkpt><trkpt lat="44.271015" lon="9.4351333"><ele>24.0</ele><time>2026-04-04T13:57:49.652Z</time></trkpt><trkpt lat="44.2710783" lon="9.4352583"><ele>24.0</ele><time>2026-04-04T13:57:50.652Z</time></trkpt><trkpt lat="44.2711417" lon="9.4353883"><ele>24.0</ele><time>2026-04-04T13:57:51.652Z</time></trkpt><trkpt lat="44.2712083" lon="9.4355233"><ele>23.0</ele><time>2026-04-04T13:57:52.652Z</time></trkpt><trkpt lat="44.271275" lon="9.4356583"><ele>22.0</ele><time>2026-04-04T13:57:53.652Z</time></trkpt><trkpt lat="44.2713383" lon="9.4357933"><ele>21.0</ele><time>2026-04-04T13:57:54.653Z</time></trkpt><trkpt lat="44.2713917" lon="9.4359233"><ele>20.0</ele><time>2026-04-04T13:57:55.652Z</time></trkpt><trkpt lat="44.271435" lon="9.43605"><ele>19.0</ele><time>2026-04-04T13:57:56.652Z</time></trkpt><trkpt lat="44.2714633" lon="9.4361783"><ele>19.799999999999997</ele><time>2026-04-04T13:57:57.652Z</time></trkpt><trkpt lat="44.2714783" lon="9.4363117"><ele>20.599999999999998</ele><time>2026-04-04T13:57:58.652Z</time></trkpt><trkpt lat="44.27149" lon="9.436465"><ele>21.4</ele><time>2026-04-04T13:57:59.653Z</time></trkpt><trkpt lat="44.2714933" lon="9.4366217"><ele>22.2</ele><time>2026-04-04T13:58:00.653Z</time></trkpt><trkpt lat="44.271495" lon="9.4367867"><ele>23.0</ele><time>2026-04-04T13:58:01.652Z</time></trkpt><trkpt lat="44.2714883" lon="9.436945"><ele>23.0</ele><time>2026-04-04T13:58:02.653Z</time></trkpt><trkpt lat="44.2714833" lon="9.4371033"><ele>23.0</ele><time>2026-04-04T13:58:03.652Z</time></trkpt><trkpt lat="44.2714817" lon="9.437255"><ele>23.0</ele><time>2026-04-04T13:58:04.652Z</time></trkpt><trkpt lat="44.27149" lon="9.437405"><ele>23.0</ele><time>2026-04-04T13:58:05.652Z</time></trkpt><trkpt lat="44.271485" lon="9.4375533"><ele>23.0</ele><time>2026-04-04T13:58:06.652Z</time></trkpt><trkpt lat="44.2714667" lon="9.437705"><ele>22.4</ele><time>2026-04-04T13:58:07.652Z</time></trkpt><trkpt lat="44.2714333" lon="9.4378517"><ele>21.799999999999997</ele><time>2026-04-04T13:58:08.653Z</time></trkpt><trkpt lat="44.2713983" lon="9.4380033"><ele>21.2</ele><time>2026-04-04T13:58:09.652Z</time></trkpt><trkpt lat="44.27136" lon="9.43815"><ele>20.6</ele><time>2026-04-04T13:58:10.652Z</time></trkpt><trkpt lat="44.271325" lon="9.4382933"><ele>20.0</ele><time>2026-04-04T13:58:11.653Z</time></trkpt><trkpt lat="44.2712883" lon="9.4384433"><ele>20.0</ele><time>2026-04-04T13:58:12.652Z</time></trkpt><trkpt lat="44.271255" lon="9.4385967"><ele>20.0</ele><time>2026-04-04T13:58:13.652Z</time></trkpt><trkpt lat="44.2712167" lon="9.4387483"><ele>20.0</ele><time>2026-04-04T13:58:14.652Z</time></trkpt><trkpt lat="44.27118" lon="9.4388883"><ele>20.0</ele><time>2026-04-04T13:58:15.653Z</time></trkpt><trkpt lat="44.271145" lon="9.43903"><ele>20.0</ele><time>2026-04-04T13:58:16.652Z</time></trkpt><trkpt lat="44.271105" lon="9.439175"><ele>21.2</ele><time>2026-04-04T13:58:17.652Z</time></trkpt><trkpt lat="44.2710583" lon="9.4393133"><ele>22.4</ele><time>2026-04-04T13:58:18.652Z</time></trkpt><trkpt lat="44.2710033" lon="9.43944"><ele>23.6</ele><time>2026-04-04T13:58:19.652Z</time></trkpt><trkpt lat="44.2709367" lon="9.4395633"><ele>24.8</ele><time>2026-04-04T13:58:20.652Z</time></trkpt><trkpt lat="44.27086" lon="9.43968"><ele>26.0</ele><time>2026-04-04T13:58:21.653Z</time></trkpt><trkpt lat="44.2707867" lon="9.439795"><ele>27.0</ele><time>2026-04-04T13:58:22.652Z</time></trkpt><trkpt lat="44.270715" lon="9.4399083"><ele>28.0</ele><time>2026-04-04T13:58:23.653Z</time></trkpt><trkpt lat="44.2706467" lon="9.4400217"><ele>29.0</ele><time>2026-04-04T13:58:24.653Z</time></trkpt><trkpt lat="44.2705817" lon="9.4401333"><ele>30.0</ele><time>2026-04-04T13:58:25.652Z</time></trkpt><trkpt lat="44.270515" lon="9.4402467"><ele>31.0</ele><time>2026-04-04T13:58:26.653Z</time></trkpt><trkpt lat="44.2704617" lon="9.440365"><ele>28.8</ele><time>2026-04-04T13:58:27.652Z</time></trkpt><trkpt lat="44.2704183" lon="9.4404867"><ele>26.6</ele><time>2026-04-04T13:58:28.652Z</time></trkpt><trkpt lat="44.270395" lon="9.4406317"><ele>24.4</ele><time>2026-04-04T13:58:29.652Z</time></trkpt><trkpt lat="44.2704" lon="9.44078"><ele>22.2</ele><time>2026-04-04T13:58:30.652Z</time></trkpt><trkpt lat="44.2704233" lon="9.44093"><ele>20.0</ele><time>2026-04-04T13:58:31.652Z</time></trkpt><trkpt lat="44.2704533" lon="9.4410783"><ele>20.0</ele><time>2026-04-04T13:58:32.653Z</time></trkpt><trkpt lat="44.2704883" lon="9.4412283"><ele>20.0</ele><time>2026-04-04T13:58:33.652Z</time></trkpt><trkpt lat="44.2705233" lon="9.4413733"><ele>20.0</ele><time>2026-04-04T13:58:34.652Z</time></trkpt><trkpt lat="44.27057" lon="9.4415283"><ele>20.0</ele><time>2026-04-04T13:58:35.653Z</time></trkpt><trkpt lat="44.270625" lon="9.4416767"><ele>21.2</ele><time>2026-04-04T13:58:36.653Z</time></trkpt><trkpt lat="44.2706817" lon="9.4418217"><ele>22.4</ele><time>2026-04-04T13:58:37.652Z</time></trkpt><trkpt lat="44.2707367" lon="9.44196"><ele>23.6</ele><time>2026-04-04T13:58:38.653Z</time></trkpt><trkpt lat="44.2707867" lon="9.4420917"><ele>24.8</ele><time>2026-04-04T13:58:39.652Z</time></trkpt><trkpt lat="44.2708267" lon="9.44223"><ele>26.0</ele><time>2026-04-04T13:58:40.653Z</time></trkpt><trkpt lat="44.2708533" lon="9.4423767"><ele>26.0</ele><time>2026-04-04T13:58:41.652Z</time></trkpt><trkpt lat="44.2708583" lon="9.4425267"><ele>26.0</ele><time>2026-04-04T13:58:42.653Z</time></trkpt><trkpt lat="44.2708583" lon="9.4426817"><ele>26.0</ele><time>2026-04-04T13:58:43.652Z</time></trkpt><trkpt lat="44.2708533" lon="9.44283"><ele>26.0</ele><time>2026-04-04T13:58:44.652Z</time></trkpt><trkpt lat="44.2708383" lon="9.4429817"><ele>26.0</ele><time>2026-04-04T13:58:45.652Z</time></trkpt><trkpt lat="44.2708117" lon="9.4431333"><ele>26.75</ele><time>2026-04-04T13:58:46.652Z</time></trkpt><trkpt lat="44.2707967" lon="9.443285"><ele>27.5</ele><time>2026-04-04T13:58:47.652Z</time></trkpt><trkpt lat="44.2707933" lon="9.4434417"><ele>28.25</ele><time>2026-04-04T13:58:48.652Z</time></trkpt><trkpt lat="44.2707983" lon="9.443605"><ele>29.0</ele><time>2026-04-04T13:58:49.652Z</time></trkpt><trkpt lat="44.2708067" lon="9.4437633"><ele>28.799999999999997</ele><time>2026-04-04T13:58:50.652Z</time></trkpt><trkpt lat="44.270825" lon="9.4439133"><ele>28.599999999999998</ele><time>2026-04-04T13:58:51.652Z</time></trkpt><trkpt lat="44.270845" lon="9.4440667"><ele>28.4</ele><time>2026-04-04T13:58:52.652Z</time></trkpt><trkpt lat="44.27088" lon="9.444215"><ele>28.2</ele><time>2026-04-04T13:58:53.653Z</time></trkpt><trkpt lat="44.27092" lon="9.4443583"><ele>28.0</ele><time>2026-04-04T13:58:54.653Z</time></trkpt><trkpt lat="44.2709733" lon="9.444495"><ele>28.0</ele><time>2026-04-04T13:58:55.653Z</time></trkpt><trkpt lat="44.2710333" lon="9.4446267"><ele>27.999999999999996</ele><time>2026-04-04T13:58:56.653Z</time></trkpt><trkpt lat="44.2710917" lon="9.4447533"><ele>27.999999999999996</ele><time>2026-04-04T13:58:57.653Z</time></trkpt><trkpt lat="44.271155" lon="9.44488"><ele>28.0</ele><time>2026-04-04T13:58:58.652Z</time></trkpt><trkpt lat="44.2712283" lon="9.4449967"><ele>28.0</ele><time>2026-04-04T13:58:59.652Z</time></trkpt><trkpt lat="44.2713" lon="9.445105"><ele>28.5</ele><time>2026-04-04T13:59:00.653Z</time></trkpt><trkpt lat="44.2713733" lon="9.4452183"><ele>29.0</ele><time>2026-04-04T13:59:01.652Z</time></trkpt><trkpt lat="44.2714417" lon="9.4453417"><ele>29.5</ele><time>2026-04-04T13:59:02.652Z</time></trkpt><trkpt lat="44.2715067" lon="9.44547"><ele>30.0</ele><time>2026-04-04T13:59:03.653Z</time></trkpt><trkpt lat="44.2715833" lon="9.4456083"><ele>30.0</ele><time>2026-04-04T13:59:04.653Z</time></trkpt><trkpt lat="44.271665" lon="9.4457333"><ele>30.0</ele><time>2026-04-04T13:59:05.653Z</time></trkpt><trkpt lat="44.2717417" lon="9.4458567"><ele>30.0</ele><time>2026-04-04T13:59:06.652Z</time></trkpt><trkpt lat="44.2718283" lon="9.4459733"><ele>30.0</ele><time>2026-04-04T13:59:07.652Z</time></trkpt><trkpt lat="44.271915" lon="9.4460867"><ele>30.0</ele><time>2026-04-04T13:59:08.653Z</time></trkpt><trkpt lat="44.2719983" lon="9.4462067"><ele>30.0</ele><time>2026-04-04T13:59:09.652Z</time></trkpt><trkpt lat="44.2720583" lon="9.4463417"><ele>30.0</ele><time>2026-04-04T13:59:10.652Z</time></trkpt><trkpt lat="44.2721067" lon="9.4464867"><ele>30.0</ele><time>2026-04-04T13:59:11.652Z</time></trkpt><trkpt lat="44.2721283" lon="9.446645"><ele>28.5</ele><time>2026-04-04T13:59:12.653Z</time></trkpt><trkpt lat="44.2721533" lon="9.4468083"><ele>27.0</ele><time>2026-04-04T13:59:13.653Z</time></trkpt><trkpt lat="44.2721817" lon="9.4469717"><ele>25.5</ele><time>2026-04-04T13:59:14.652Z</time></trkpt><trkpt lat="44.2722117" lon="9.447135"><ele>24.0</ele><time>2026-04-04T13:59:15.652Z</time></trkpt><trkpt lat="44.2722417" lon="9.4472917"><ele>23.5</ele><time>2026-04-04T13:59:16.652Z</time></trkpt><trkpt lat="44.2722667" lon="9.4474583"><ele>23.0</ele><time>2026-04-04T13:59:17.653Z</time></trkpt><trkpt lat="44.2722883" lon="9.44762"><ele>22.5</ele><time>2026-04-04T13:59:18.652Z</time></trkpt><trkpt lat="44.2723167" lon="9.447775"><ele>22.0</ele><time>2026-04-04T13:59:19.652Z</time></trkpt><trkpt lat="44.2723383" lon="9.44793"><ele>22.8</ele><time>2026-04-04T13:59:20.652Z</time></trkpt><trkpt lat="44.2723617" lon="9.4480883"><ele>23.6</ele><time>2026-04-04T13:59:21.652Z</time></trkpt><trkpt lat="44.27239" lon="9.448245"><ele>24.400000000000002</ele><time>2026-04-04T13:59:22.652Z</time></trkpt><trkpt lat="44.2724117" lon="9.44839"><ele>25.200000000000003</ele><time>2026-04-04T13:59:23.652Z</time></trkpt><trkpt lat="44.27242" lon="9.4485267"><ele>26.0</ele><time>2026-04-04T13:59:24.653Z</time></trkpt><trkpt lat="44.2724283" lon="9.4486717"><ele>25.8</ele><time>2026-04-04T13:59:25.652Z</time></trkpt><trkpt lat="44.2724433" lon="9.44882"><ele>25.6</ele><time>2026-04-04T13:59:26.652Z</time></trkpt><trkpt lat="44.2724617" lon="9.4489683"><ele>25.4</ele><time>2026-04-04T13:59:27.653Z</time></trkpt><trkpt lat="44.2724717" lon="9.4491133"><ele>25.2</ele><time>2026-04-04T13:59:28.653Z</time></trkpt><trkpt lat="44.27249" lon="9.449255"><ele>25.0</ele><time>2026-04-04T13:59:29.652Z</time></trkpt><trkpt lat="44.2725067" lon="9.44939"><ele>25.0</ele><time>2026-04-04T13:59:30.652Z</time></trkpt><trkpt lat="44.27253" lon="9.4495283"><ele>25.0</ele><time>2026-04-04T13:59:31.652Z</time></trkpt><trkpt lat="44.2725617" lon="9.449665"><ele>25.0</ele><time>2026-04-04T13:59:32.653Z</time></trkpt><trkpt lat="44.2726117" lon="9.44981"><ele>25.0</ele><time>2026-04-04T13:59:33.653Z</time></trkpt><trkpt lat="44.2726667" lon="9.44995"><ele>25.0</ele><time>2026-04-04T13:59:34.652Z</time></trkpt><trkpt lat="44.2727217" lon="9.4500883"><ele>25.0</ele><time>2026-04-04T13:59:35.652Z</time></trkpt><trkpt lat="44.2727783" lon="9.4502317"><ele>25.0</ele><time>2026-04-04T13:59:36.652Z</time></trkpt><trkpt lat="44.2728283" lon="9.4503683"><ele>25.0</ele><time>2026-04-04T13:59:37.652Z</time></trkpt><trkpt lat="44.2728767" lon="9.4505067"><ele>25.0</ele><time>2026-04-04T13:59:38.652Z</time></trkpt><trkpt lat="44.2729333" lon="9.4506533"><ele>25.0</ele><time>2026-04-04T13:59:39.653Z</time></trkpt><trkpt lat="44.2729933" lon="9.4507933"><ele>25.0</ele><time>2026-04-04T13:59:40.652Z</time></trkpt><trkpt lat="44.273045" lon="9.45093"><ele>25.0</ele><time>2026-04-04T13:59:41.652Z</time></trkpt><trkpt lat="44.2730983" lon="9.4510717"><ele>25.0</ele><time>2026-04-04T13:59:42.652Z</time></trkpt><trkpt lat="44.27315" lon="9.45121"><ele>26.2</ele><time>2026-04-04T13:59:43.652Z</time></trkpt><trkpt lat="44.2732017" lon="9.4513433"><ele>27.4</ele><time>2026-04-04T13:59:44.652Z</time></trkpt><trkpt lat="44.2732483" lon="9.4514833"><ele>28.6</ele><time>2026-04-04T13:59:45.653Z</time></trkpt><trkpt lat="44.2732883" lon="9.4516167"><ele>29.8</ele><time>2026-04-04T13:59:46.652Z</time></trkpt><trkpt lat="44.2733267" lon="9.4517533"><ele>31.0</ele><time>2026-04-04T13:59:47.652Z</time></trkpt><trkpt lat="44.2733667" lon="9.4518883"><ele>31.0</ele><time>2026-04-04T13:59:48.653Z</time></trkpt><trkpt lat="44.2734117" lon="9.45202"><ele>31.0</ele><time>2026-04-04T13:59:49.652Z</time></trkpt><trkpt lat="44.273465" lon="9.4521417"><ele>31.0</ele><time>2026-04-04T13:59:50.652Z</time></trkpt><trkpt lat="44.2735283" lon="9.452255"><ele>31.0</ele><time>2026-04-04T13:59:51.652Z</time></trkpt><trkpt lat="44.2736" lon="9.452335"><ele>31.0</ele><time>2026-04-04T13:59:52.652Z</time></trkpt><trkpt lat="44.2736833" lon="9.4524033"><ele>31.0</ele><time>2026-04-04T13:59:53.652Z</time></trkpt><trkpt lat="44.2737667" lon="9.4524767"><ele>31.0</ele><time>2026-04-04T13:59:54.652Z</time></trkpt><trkpt lat="44.2738367" lon="9.4525633"><ele>31.0</ele><time>2026-04-04T13:59:55.653Z</time></trkpt><trkpt lat="44.2738883" lon="9.4526683"><ele>31.0</ele><time>2026-04-04T13:59:56.652Z</time></trkpt><trkpt lat="44.2739233" lon="9.4527967"><ele>31.0</ele><time>2026-04-04T13:59:57.652Z</time></trkpt><trkpt lat="44.2739517" lon="9.45293"><ele>30.833333333333336</ele><time>2026-04-04T13:59:58.652Z</time></trkpt><trkpt lat="44.27398" lon="9.4530633"><ele>30.666666666666668</ele><time>2026-04-04T13:59:59.652Z</time></trkpt><trkpt lat="44.2740033" lon="9.453195"><ele>30.5</ele><time>2026-04-04T14:00:00.653Z</time></trkpt><trkpt lat="44.2740283" lon="9.4532983"><ele>30.333333333333336</ele><time>2026-04-04T14:00:01.652Z</time></trkpt><trkpt lat="44.27405" lon="9.4534"><ele>30.166666666666668</ele><time>2026-04-04T14:00:02.652Z</time></trkpt><trkpt lat="44.2740767" lon="9.453505"><ele>30.0</ele><time>2026-04-04T14:00:03.652Z</time></trkpt><trkpt lat="44.2740967" lon="9.45361"><ele>30.0</ele><time>2026-04-04T14:00:04.653Z</time></trkpt><trkpt lat="44.27412" lon="9.4537167"><ele>30.0</ele><time>2026-04-04T14:00:05.652Z</time></trkpt><trkpt lat="44.2741433" lon="9.45381"><ele>30.0</ele><time>2026-04-04T14:00:06.652Z</time></trkpt><trkpt lat="44.274165" lon="9.4539067"><ele>30.0</ele><time>2026-04-04T14:00:07.652Z</time></trkpt><trkpt lat="44.2741883" lon="9.4540017"><ele>30.0</ele><time>2026-04-04T14:00:08.652Z</time></trkpt><trkpt lat="44.2742183" lon="9.4541017"><ele>30.0</ele><time>2026-04-04T14:00:09.652Z</time></trkpt><trkpt lat="44.2742567" lon="9.4542033"><ele>30.4</ele><time>2026-04-04T14:00:10.652Z</time></trkpt><trkpt lat="44.2743117" lon="9.4543083"><ele>30.8</ele><time>2026-04-04T14:00:11.652Z</time></trkpt><trkpt lat="44.27436" lon="9.4544233"><ele>31.200000000000003</ele><time>2026-04-04T14:00:12.652Z</time></trkpt><trkpt lat="44.2744117" lon="9.4545433"><ele>31.6</ele><time>2026-04-04T14:00:13.653Z</time></trkpt><trkpt lat="44.27448" lon="9.4546717"><ele>32.0</ele><time>2026-04-04T14:00:14.652Z</time></trkpt><trkpt lat="44.27454" lon="9.4548017"><ele>32.0</ele><time>2026-04-04T14:00:15.652Z</time></trkpt><trkpt lat="44.2746017" lon="9.4549367"><ele>32.0</ele><time>2026-04-04T14:00:16.653Z</time></trkpt><trkpt lat="44.27466" lon="9.4550733"><ele>32.0</ele><time>2026-04-04T14:00:17.653Z</time></trkpt><trkpt lat="44.2747067" lon="9.45522"><ele>32.0</ele><time>2026-04-04T14:00:18.652Z</time></trkpt><trkpt lat="44.2747417" lon="9.4553767"><ele>31.75</ele><time>2026-04-04T14:00:19.653Z</time></trkpt><trkpt lat="44.2747683" lon="9.4555417"><ele>31.5</ele><time>2026-04-04T14:00:20.652Z</time></trkpt><trkpt lat="44.2747883" lon="9.45571"><ele>31.25</ele><time>2026-04-04T14:00:21.653Z</time></trkpt><trkpt lat="44.274805" lon="9.4558833"><ele>31.0</ele><time>2026-04-04T14:00:22.652Z</time></trkpt><trkpt lat="44.2748133" lon="9.4560583"><ele>33.25</ele><time>2026-04-04T14:00:23.652Z</time></trkpt><trkpt lat="44.274805" lon="9.4562283"><ele>35.5</ele><time>2026-04-04T14:00:24.653Z</time></trkpt><trkpt lat="44.274795" lon="9.4564017"><ele>37.75</ele><time>2026-04-04T14:00:25.653Z</time></trkpt><trkpt lat="44.2747867" lon="9.4565717"><ele>40.0</ele><time>2026-04-04T14:00:26.652Z</time></trkpt><trkpt lat="44.274785" lon="9.4567333"><ele>40.0</ele><time>2026-04-04T14:00:27.652Z</time></trkpt><trkpt lat="44.2747867" lon="9.4568983"><ele>40.0</ele><time>2026-04-04T14:00:28.653Z</time></trkpt><trkpt lat="44.2748033" lon="9.4570683"><ele>40.0</ele><time>2026-04-04T14:00:29.653Z</time></trkpt><trkpt lat="44.2748267" lon="9.4572417"><ele>40.0</ele><time>2026-04-04T14:00:30.652Z</time></trkpt><trkpt lat="44.2748533" lon="9.4574083"><ele>39.5</ele><time>2026-04-04T14:00:31.652Z</time></trkpt><trkpt lat="44.2748767" lon="9.4575667"><ele>39.0</ele><time>2026-04-04T14:00:32.652Z</time></trkpt><trkpt lat="44.2749133" lon="9.4577217"><ele>38.5</ele><time>2026-04-04T14:00:33.652Z</time></trkpt><trkpt lat="44.27495" lon="9.457885"><ele>38.0</ele><time>2026-04-04T14:00:34.652Z</time></trkpt><trkpt lat="44.27498" lon="9.45805"><ele>38.0</ele><time>2026-04-04T14:00:35.652Z</time></trkpt><trkpt lat="44.2749967" lon="9.4582133"><ele>38.0</ele><time>2026-04-04T14:00:36.652Z</time></trkpt><trkpt lat="44.2749967" lon="9.4583783"><ele>38.0</ele><time>2026-04-04T14:00:37.652Z</time></trkpt><trkpt lat="44.2749867" lon="9.4585333"><ele>38.0</ele><time>2026-04-04T14:00:38.652Z</time></trkpt><trkpt lat="44.2749767" lon="9.45869"><ele>38.0</ele><time>2026-04-04T14:00:39.652Z</time></trkpt><trkpt lat="44.274965" lon="9.4588533"><ele>38.0</ele><time>2026-04-04T14:00:40.653Z</time></trkpt><trkpt lat="44.2749617" lon="9.4590233"><ele>38.0</ele><time>2026-04-04T14:00:41.653Z</time></trkpt><trkpt lat="44.274965" lon="9.4591833"><ele>38.0</ele><time>2026-04-04T14:00:42.652Z</time></trkpt><trkpt lat="44.2749667" lon="9.4593533"><ele>38.0</ele><time>2026-04-04T14:00:43.653Z</time></trkpt><trkpt lat="44.2749767" lon="9.459525"><ele>38.0</ele><time>2026-04-04T14:00:44.652Z</time></trkpt><trkpt lat="44.274995" lon="9.4596983"><ele>38.0</ele><time>2026-04-04T14:00:45.652Z</time></trkpt><trkpt lat="44.2750167" lon="9.4598717"><ele>38.0</ele><time>2026-04-04T14:00:46.652Z</time></trkpt><trkpt lat="44.2750367" lon="9.4600483"><ele>38.0</ele><time>2026-04-04T14:00:47.652Z</time></trkpt><trkpt lat="44.275065" lon="9.4602317"><ele>38.0</ele><time>2026-04-04T14:00:48.653Z</time></trkpt><trkpt lat="44.275085" lon="9.4604083"><ele>38.0</ele><time>2026-04-04T14:00:49.653Z</time></trkpt><trkpt lat="44.2751083" lon="9.460585"><ele>38.0</ele><time>2026-04-04T14:00:50.652Z</time></trkpt><trkpt lat="44.2751183" lon="9.4607567"><ele>37.75</ele><time>2026-04-04T14:00:51.652Z</time></trkpt><trkpt lat="44.2751433" lon="9.460935"><ele>37.5</ele><time>2026-04-04T14:00:52.653Z</time></trkpt><trkpt lat="44.27517" lon="9.461115"><ele>37.25</ele><time>2026-04-04T14:00:53.652Z</time></trkpt><trkpt lat="44.2751883" lon="9.461295"><ele>37.0</ele><time>2026-04-04T14:00:54.652Z</time></trkpt><trkpt lat="44.2752017" lon="9.4614733"><ele>37.25</ele><time>2026-04-04T14:00:55.652Z</time></trkpt><trkpt lat="44.2752117" lon="9.461655"><ele>37.5</ele><time>2026-04-04T14:00:56.652Z</time></trkpt><trkpt lat="44.27522" lon="9.46182"><ele>37.75</ele><time>2026-04-04T14:00:57.652Z</time></trkpt><trkpt lat="44.2752267" lon="9.4619817"><ele>38.0</ele><time>2026-04-04T14:00:58.653Z</time></trkpt><trkpt lat="44.2752183" lon="9.4621283"><ele>38.0</ele><time>2026-04-04T14:00:59.652Z</time></trkpt><trkpt lat="44.2752083" lon="9.4622733"><ele>38.0</ele><time>2026-04-04T14:01:00.652Z</time></trkpt><trkpt lat="44.2752167" lon="9.462425"><ele>38.0</ele><time>2026-04-04T14:01:01.652Z</time></trkpt><trkpt lat="44.275225" lon="9.4625833"><ele>38.0</ele><time>2026-04-04T14:01:02.653Z</time></trkpt><trkpt lat="44.27523" lon="9.4627583"><ele>38.0</ele><time>2026-04-04T14:01:03.652Z</time></trkpt><trkpt lat="44.275235" lon="9.4629333"><ele>38.0</ele><time>2026-04-04T14:01:04.653Z</time></trkpt><trkpt lat="44.275235" lon="9.4631083"><ele>38.0</ele><time>2026-04-04T14:01:05.652Z</time></trkpt><trkpt lat="44.2752383" lon="9.4632833"><ele>38.0</ele><time>2026-04-04T14:01:06.652Z</time></trkpt><trkpt lat="44.2752533" lon="9.46346"><ele>38.25</ele><time>2026-04-04T14:01:07.652Z</time></trkpt><trkpt lat="44.27527" lon="9.4636283"><ele>38.5</ele><time>2026-04-04T14:01:08.652Z</time></trkpt><trkpt lat="44.2752817" lon="9.4638033"><ele>38.75</ele><time>2026-04-04T14:01:09.652Z</time></trkpt><trkpt lat="44.2753017" lon="9.4639817"><ele>39.0</ele><time>2026-04-04T14:01:10.652Z</time></trkpt><trkpt lat="44.27532" lon="9.4641617"><ele>39.0</ele><time>2026-04-04T14:01:11.652Z</time></trkpt><trkpt lat="44.2753367" lon="9.46434"><ele>39.0</ele><time>2026-04-04T14:01:12.652Z</time></trkpt><trkpt lat="44.2753467" lon="9.4645167"><ele>39.0</ele><time>2026-04-04T14:01:13.652Z</time></trkpt><trkpt lat="44.2753567" lon="9.4646917"><ele>39.0</ele><time>2026-04-04T14:01:14.653Z</time></trkpt><trkpt lat="44.27537" lon="9.4648733"><ele>39.0</ele><time>2026-04-04T14:01:15.652Z</time></trkpt><trkpt lat="44.2753867" lon="9.46504"><ele>39.0</ele><time>2026-04-04T14:01:16.652Z</time></trkpt><trkpt lat="44.275385" lon="9.4652067"><ele>39.0</ele><time>2026-04-04T14:01:17.652Z</time></trkpt><trkpt lat="44.27536" lon="9.4653717"><ele>39.0</ele><time>2026-04-04T14:01:18.652Z</time></trkpt><trkpt lat="44.2753117" lon="9.46553"><ele>40.5</ele><time>2026-04-04T14:01:19.652Z</time></trkpt><trkpt lat="44.2752633" lon="9.4656833"><ele>42.0</ele><time>2026-04-04T14:01:20.652Z</time></trkpt><trkpt lat="44.2752017" lon="9.46584"><ele>43.5</ele><time>2026-04-04T14:01:21.652Z</time></trkpt><trkpt lat="44.27513" lon="9.465995"><ele>45.0</ele><time>2026-04-04T14:01:22.653Z</time></trkpt><trkpt lat="44.2750767" lon="9.466155"><ele>45.5</ele><time>2026-04-04T14:01:23.652Z</time></trkpt><trkpt lat="44.27504" lon="9.4663283"><ele>46.0</ele><time>2026-04-04T14:01:24.652Z</time></trkpt><trkpt lat="44.275015" lon="9.4665017"><ele>46.5</ele><time>2026-04-04T14:01:25.652Z</time></trkpt><trkpt lat="44.2750017" lon="9.4666767"><ele>47.0</ele><time>2026-04-04T14:01:26.652Z</time></trkpt><trkpt lat="44.2750017" lon="9.4668667"><ele>47.0</ele><time>2026-04-04T14:01:27.653Z</time></trkpt><trkpt lat="44.2750133" lon="9.4670583"><ele>47.0</ele><time>2026-04-04T14:01:28.652Z</time></trkpt><trkpt lat="44.275025" lon="9.4672467"><ele>47.0</ele><time>2026-04-04T14:01:29.653Z</time></trkpt><trkpt lat="44.2750283" lon="9.46742"><ele>47.0</ele><time>2026-04-04T14:01:30.652Z</time></trkpt><trkpt lat="44.2750083" lon="9.4675917"><ele>47.5</ele><time>2026-04-04T14:01:31.653Z</time></trkpt><trkpt lat="44.274955" lon="9.467745"><ele>48.0</ele><time>2026-04-04T14:01:32.652Z</time></trkpt><trkpt lat="44.2748833" lon="9.467885"><ele>48.5</ele><time>2026-04-04T14:01:33.652Z</time></trkpt><trkpt lat="44.2747983" lon="9.468015"><ele>49.0</ele><time>2026-04-04T14:01:34.652Z</time></trkpt><trkpt lat="44.2747233" lon="9.4681417"><ele>47.800000000000004</ele><time>2026-04-04T14:01:35.652Z</time></trkpt><trkpt lat="44.2746533" lon="9.4682767"><ele>46.6</ele><time>2026-04-04T14:01:36.652Z</time></trkpt><trkpt lat="44.2746" lon="9.46841"><ele>45.4</ele><time>2026-04-04T14:01:37.652Z</time></trkpt><trkpt lat="44.2745717" lon="9.4685533"><ele>44.2</ele><time>2026-04-04T14:01:38.651Z</time></trkpt><trkpt lat="44.274565" lon="9.4686983"><ele>43.0</ele><time>2026-04-04T14:01:39.652Z</time></trkpt><trkpt lat="44.27459" lon="9.4688383"><ele>43.0</ele><time>2026-04-04T14:01:40.651Z</time></trkpt><trkpt lat="44.27464" lon="9.4689683"><ele>43.0</ele><time>2026-04-04T14:01:41.651Z</time></trkpt><trkpt lat="44.2747167" lon="9.4690733"><ele>43.0</ele><time>2026-04-04T14:01:42.651Z</time></trkpt><trkpt lat="44.2747917" lon="9.4691483"><ele>43.0</ele><time>2026-04-04T14:01:43.651Z</time></trkpt><trkpt lat="44.2748683" lon="9.4691933"><ele>43.0</ele><time>2026-04-04T14:01:44.651Z</time></trkpt><trkpt lat="44.274945" lon="9.469225"><ele>45.4</ele><time>2026-04-04T14:01:45.651Z</time></trkpt><trkpt lat="44.2750083" lon="9.46924"><ele>47.8</ele><time>2026-04-04T14:01:46.652Z</time></trkpt><trkpt lat="44.2751183" lon="9.469205"><ele>50.2</ele><time>2026-04-04T14:01:48.651Z</time></trkpt><trkpt lat="44.275225" lon="9.4691633"><ele>52.6</ele><time>2026-04-04T14:01:50.651Z</time></trkpt><trkpt lat="44.2752917" lon="9.4691833"><ele>55.0</ele><time>2026-04-04T14:01:51.651Z</time></trkpt><trkpt lat="44.2753917" lon="9.469235"><ele>55.0</ele><time>2026-04-04T14:01:53.651Z</time></trkpt><trkpt lat="44.275495" lon="9.4692517"><ele>55.0</ele><time>2026-04-04T14:02:55.652Z</time></trkpt><trkpt lat="44.2755633" lon="9.4692667"><ele>55.0</ele><time>2026-04-04T14:02:56.651Z</time></trkpt><trkpt lat="44.275685" lon="9.4692683"><ele>55.0</ele><time>2026-04-04T14:02:58.651Z</time></trkpt><trkpt lat="44.275765" lon="9.46925"><ele>55.0</ele><time>2026-04-04T14:02:59.651Z</time></trkpt><trkpt lat="44.275855" lon="9.469205"><ele>56.0</ele><time>2026-04-04T14:03:00.651Z</time></trkpt><trkpt lat="44.2759433" lon="9.4691333"><ele>57.0</ele><time>2026-04-04T14:03:01.652Z</time></trkpt><trkpt lat="44.2760317" lon="9.4690383"><ele>58.0</ele><time>2026-04-04T14:03:02.651Z</time></trkpt><trkpt lat="44.2761333" lon="9.468955"><ele>59.0</ele><time>2026-04-04T14:03:03.651Z</time></trkpt><trkpt lat="44.2762417" lon="9.4688933"><ele>60.0</ele><time>2026-04-04T14:03:04.651Z</time></trkpt><trkpt lat="44.2763567" lon="9.4688467"><ele>60.25</ele><time>2026-04-04T14:03:05.651Z</time></trkpt><trkpt lat="44.276475" lon="9.4688283"><ele>60.5</ele><time>2026-04-04T14:03:06.651Z</time></trkpt><trkpt lat="44.2765983" lon="9.4688517"><ele>60.75</ele><time>2026-04-04T14:03:07.651Z</time></trkpt><trkpt lat="44.2767133" lon="9.4688967"><ele>61.0</ele><time>2026-04-04T14:03:08.651Z</time></trkpt><trkpt lat="44.2768217" lon="9.46898"><ele>61.0</ele><time>2026-04-04T14:03:09.651Z</time></trkpt><trkpt lat="44.27692" lon="9.4690667"><ele>61.0</ele><time>2026-04-04T14:03:10.652Z</time></trkpt><trkpt lat="44.2770283" lon="9.46913"><ele>61.0</ele><time>2026-04-04T14:03:11.651Z</time></trkpt><trkpt lat="44.2771433" lon="9.469145"><ele>61.0</ele><time>2026-04-04T14:03:12.652Z</time></trkpt><trkpt lat="44.2772533" lon="9.469105"><ele>62.75</ele><time>2026-04-04T14:03:13.651Z</time></trkpt><trkpt lat="44.2773617" lon="9.4690167"><ele>64.5</ele><time>2026-04-04T14:03:14.651Z</time></trkpt><trkpt lat="44.2774717" lon="9.4689267"><ele>66.25</ele><time>2026-04-04T14:03:15.651Z</time></trkpt><trkpt lat="44.2775833" lon="9.46889"><ele>68.0</ele><time>2026-04-04T14:03:16.651Z</time></trkpt><trkpt lat="44.2777017" lon="9.4688933"><ele>68.0</ele><time>2026-04-04T14:03:17.651Z</time></trkpt><trkpt lat="44.2778267" lon="9.4689017"><ele>68.0</ele><time>2026-04-04T14:03:18.651Z</time></trkpt><trkpt lat="44.2779533" lon="9.468895"><ele>68.0</ele><time>2026-04-04T14:03:19.651Z</time></trkpt><trkpt lat="44.27807" lon="9.4689"><ele>68.0</ele><time>2026-04-04T14:03:20.651Z</time></trkpt><trkpt lat="44.2781633" lon="9.4689417"><ele>72.4</ele><time>2026-04-04T14:03:21.651Z</time></trkpt><trkpt lat="44.2782217" lon="9.4690367"><ele>76.8</ele><time>2026-04-04T14:03:22.651Z</time></trkpt><trkpt lat="44.27827" lon="9.4691533"><ele>81.2</ele><time>2026-04-04T14:03:23.651Z</time></trkpt><trkpt lat="44.2783433" lon="9.4692667"><ele>85.6</ele><time>2026-04-04T14:03:24.652Z</time></trkpt><trkpt lat="44.27844" lon="9.46936"><ele>90.0</ele><time>2026-04-04T14:03:25.651Z</time></trkpt><trkpt lat="44.2785533" lon="9.4694233"><ele>90.0</ele><time>2026-04-04T14:03:26.651Z</time></trkpt><trkpt lat="44.2786783" lon="9.46945"><ele>90.0</ele><time>2026-04-04T14:03:27.651Z</time></trkpt><trkpt lat="44.278805" lon="9.4694367"><ele>90.0</ele><time>2026-04-04T14:03:28.651Z</time></trkpt><trkpt lat="44.2789367" lon="9.4693883"><ele>90.0</ele><time>2026-04-04T14:03:29.652Z</time></trkpt><trkpt lat="44.2790633" lon="9.4693067"><ele>92.25</ele><time>2026-04-04T14:03:30.652Z</time></trkpt><trkpt lat="44.27919" lon="9.4692117"><ele>94.5</ele><time>2026-04-04T14:03:31.651Z</time></trkpt><trkpt lat="44.2793117" lon="9.4691317"><ele>96.75</ele><time>2026-04-04T14:03:32.651Z</time></trkpt><trkpt lat="44.2794217" lon="9.46907"><ele>99.0</ele><time>2026-04-04T14:03:33.651Z</time></trkpt><trkpt lat="44.2795367" lon="9.46903"><ele>99.0</ele><time>2026-04-04T14:03:34.652Z</time></trkpt><trkpt lat="44.2796583" lon="9.4690033"><ele>99.0</ele><time>2026-04-04T14:03:35.651Z</time></trkpt><trkpt lat="44.2797733" lon="9.46895"><ele>99.0</ele><time>2026-04-04T14:03:36.652Z</time></trkpt><trkpt lat="44.27987" lon="9.4688733"><ele>99.0</ele><time>2026-04-04T14:03:37.652Z</time></trkpt><trkpt lat="44.2799533" lon="9.4688117"><ele>99.2</ele><time>2026-04-04T14:03:38.651Z</time></trkpt><trkpt lat="44.2800333" lon="9.4688033"><ele>99.4</ele><time>2026-04-04T14:03:39.651Z</time></trkpt><trkpt lat="44.28011" lon="9.4688567"><ele>99.6</ele><time>2026-04-04T14:03:40.651Z</time></trkpt><trkpt lat="44.2801767" lon="9.4689517"><ele>99.8</ele><time>2026-04-04T14:03:41.651Z</time></trkpt><trkpt lat="44.2802567" lon="9.469045"><ele>100.0</ele><time>2026-04-04T14:03:42.652Z</time></trkpt><trkpt lat="44.2803533" lon="9.4691117"><ele>100.0</ele><time>2026-04-04T14:03:43.652Z</time></trkpt><trkpt lat="44.2804683" lon="9.4691683"><ele>100.0</ele><time>2026-04-04T14:03:44.651Z</time></trkpt><trkpt lat="44.2805883" lon="9.4692117"><ele>100.0</ele><time>2026-04-04T14:03:45.652Z</time></trkpt><trkpt lat="44.28072" lon="9.4692417"><ele>100.0</ele><time>2026-04-04T14:03:46.652Z</time></trkpt><trkpt lat="44.2808617" lon="9.4692733"><ele>103.5</ele><time>2026-04-04T14:03:47.651Z</time></trkpt><trkpt lat="44.2810017" lon="9.4692733"><ele>107.0</ele><time>2026-04-04T14:03:48.651Z</time></trkpt><trkpt lat="44.2811317" lon="9.46926"><ele>110.5</ele><time>2026-04-04T14:03:49.651Z</time></trkpt><trkpt lat="44.2812483" lon="9.46923"><ele>114.0</ele><time>2026-04-04T14:03:50.651Z</time></trkpt><trkpt lat="44.2813533" lon="9.4691783"><ele>112.25</ele><time>2026-04-04T14:03:51.651Z</time></trkpt><trkpt lat="44.28146" lon="9.4690883"><ele>110.5</ele><time>2026-04-04T14:03:52.651Z</time></trkpt><trkpt lat="44.2815633" lon="9.468975"><ele>108.75</ele><time>2026-04-04T14:03:53.652Z</time></trkpt><trkpt lat="44.28166" lon="9.468855"><ele>107.0</ele><time>2026-04-04T14:03:54.651Z</time></trkpt><trkpt lat="44.2817583" lon="9.468735"><ele>116.25</ele><time>2026-04-04T14:03:55.652Z</time></trkpt><trkpt lat="44.2818533" lon="9.468615"><ele>125.5</ele><time>2026-04-04T14:03:56.651Z</time></trkpt><trkpt lat="44.2819367" lon="9.4684967"><ele>134.75</ele><time>2026-04-04T14:03:57.651Z</time></trkpt><trkpt lat="44.281995" lon="9.4683583"><ele>144.0</ele><time>2026-04-04T14:03:58.652Z</time></trkpt><trkpt lat="44.2820367" lon="9.4682167"><ele>144.0</ele><time>2026-04-04T14:03:59.652Z</time></trkpt><trkpt lat="44.2820783" lon="9.468095"><ele>144.0</ele><time>2026-04-04T14:04:00.651Z</time></trkpt><trkpt lat="44.28214" lon="9.4680133"><ele>144.0</ele><time>2026-04-04T14:04:01.651Z</time></trkpt><trkpt lat="44.2822167" lon="9.4679767"><ele>144.0</ele><time>2026-04-04T14:04:02.651Z</time></trkpt><trkpt lat="44.2823083" lon="9.4679717"><ele>144.0</ele><time>2026-04-04T14:04:03.651Z</time></trkpt><trkpt lat="44.282405" lon="9.46796"><ele>146.0</ele><time>2026-04-04T14:04:04.651Z</time></trkpt><trkpt lat="44.2825067" lon="9.4679"><ele>148.0</ele><time>2026-04-04T14:04:05.651Z</time></trkpt><trkpt lat="44.2826067" lon="9.467795"><ele>150.0</ele><time>2026-04-04T14:04:06.651Z</time></trkpt><trkpt lat="44.28271" lon="9.46768"><ele>152.0</ele><time>2026-04-04T14:04:07.652Z</time></trkpt><trkpt lat="44.2828183" lon="9.4675717"><ele>152.0</ele><time>2026-04-04T14:04:08.651Z</time></trkpt><trkpt lat="44.2829267" lon="9.4674883"><ele>152.0</ele><time>2026-04-04T14:04:09.651Z</time></trkpt><trkpt lat="44.2830317" lon="9.4674433"><ele>152.0</ele><time>2026-04-04T14:04:10.651Z</time></trkpt><trkpt lat="44.2831283" lon="9.4674333"><ele>152.0</ele><time>2026-04-04T14:04:11.652Z</time></trkpt><trkpt lat="44.2832083" lon="9.4674783"><ele>152.0</ele><time>2026-04-04T14:04:12.652Z</time></trkpt><trkpt lat="44.2832583" lon="9.4675633"><ele>153.2</ele><time>2026-04-04T14:04:13.651Z</time></trkpt><trkpt lat="44.2833" lon="9.467695"><ele>154.39999999999998</ele><time>2026-04-04T14:04:14.651Z</time></trkpt><trkpt lat="44.28334" lon="9.46784"><ele>155.60000000000002</ele><time>2026-04-04T14:04:15.651Z</time></trkpt><trkpt lat="44.28339" lon="9.467985"><ele>156.8</ele><time>2026-04-04T14:04:16.651Z</time></trkpt><trkpt lat="44.2834633" lon="9.4681167"><ele>158.0</ele><time>2026-04-04T14:04:17.651Z</time></trkpt><trkpt lat="44.2835433" lon="9.46824"><ele>159.5</ele><time>2026-04-04T14:04:18.651Z</time></trkpt><trkpt lat="44.2836467" lon="9.4683367"><ele>161.0</ele><time>2026-04-04T14:04:19.652Z</time></trkpt><trkpt lat="44.2837667" lon="9.4684067"><ele>162.5</ele><time>2026-04-04T14:04:20.651Z</time></trkpt><trkpt lat="44.2839" lon="9.4684717"><ele>164.0</ele><time>2026-04-04T14:04:21.651Z</time></trkpt><trkpt lat="44.2840417" lon="9.4685283"><ele>164.0</ele><time>2026-04-04T14:04:22.651Z</time></trkpt><trkpt lat="44.2841817" lon="9.4685733"><ele>164.0</ele><time>2026-04-04T14:04:23.651Z</time></trkpt><trkpt lat="44.2843267" lon="9.4685917"><ele>164.0</ele><time>2026-04-04T14:04:24.651Z</time></trkpt><trkpt lat="44.2844617" lon="9.468595"><ele>164.0</ele><time>2026-04-04T14:04:25.651Z</time></trkpt><trkpt lat="44.284585" lon="9.4685967"><ele>164.0</ele><time>2026-04-04T14:04:26.652Z</time></trkpt><trkpt lat="44.2846883" lon="9.4686133"><ele>164.0</ele><time>2026-04-04T14:04:27.651Z</time></trkpt><trkpt lat="44.2847717" lon="9.4686667"><ele>164.0</ele><time>2026-04-04T14:04:28.651Z</time></trkpt><trkpt lat="44.28484" lon="9.4687717"><ele>164.0</ele><time>2026-04-04T14:04:29.651Z</time></trkpt><trkpt lat="44.2848867" lon="9.4689117"><ele>164.0</ele><time>2026-04-04T14:04:30.651Z</time></trkpt><trkpt lat="44.2849183" lon="9.4690617"><ele>164.2</ele><time>2026-04-04T14:04:31.651Z</time></trkpt><trkpt lat="44.2849333" lon="9.469225"><ele>164.39999999999998</ele><time>2026-04-04T14:04:32.651Z</time></trkpt><trkpt lat="44.2849283" lon="9.46938"><ele>164.6</ele><time>2026-04-04T14:04:33.651Z</time></trkpt><trkpt lat="44.2849167" lon="9.4695267"><ele>164.8</ele><time>2026-04-04T14:04:34.651Z</time></trkpt><trkpt lat="44.2849317" lon="9.4696667"><ele>165.0</ele><time>2026-04-04T14:04:35.651Z</time></trkpt><trkpt lat="44.2849733" lon="9.4698083"><ele>166.0</ele><time>2026-04-04T14:04:36.651Z</time></trkpt><trkpt lat="44.2850333" lon="9.4699367"><ele>167.0</ele><time>2026-04-04T14:04:37.651Z</time></trkpt><trkpt lat="44.2850767" lon="9.4700567"><ele>168.0</ele><time>2026-04-04T14:04:38.652Z</time></trkpt><trkpt lat="44.2850917" lon="9.4701883"><ele>169.0</ele><time>2026-04-04T14:04:39.651Z</time></trkpt><trkpt lat="44.2850783" lon="9.47033"><ele>170.0</ele><time>2026-04-04T14:04:40.651Z</time></trkpt><trkpt lat="44.2850317" lon="9.4704667"><ele>170.0</ele><time>2026-04-04T14:04:41.652Z</time></trkpt><trkpt lat="44.2849717" lon="9.470595"><ele>170.0</ele><time>2026-04-04T14:04:42.651Z</time></trkpt><trkpt lat="44.28492" lon="9.4707117"><ele>170.0</ele><time>2026-04-04T14:04:43.651Z</time></trkpt><trkpt lat="44.2848733" lon="9.4708217"><ele>170.0</ele><time>2026-04-04T14:04:44.652Z</time></trkpt><trkpt lat="44.2848417" lon="9.4709317"><ele>170.0</ele><time>2026-04-04T14:04:45.651Z</time></trkpt><trkpt lat="44.2848467" lon="9.4710467"><ele>170.0</ele><time>2026-04-04T14:04:46.652Z</time></trkpt><trkpt lat="44.2849017" lon="9.4711567"><ele>170.0</ele><time>2026-04-04T14:04:47.652Z</time></trkpt><trkpt lat="44.284975" lon="9.4712633"><ele>170.0</ele><time>2026-04-04T14:04:48.651Z</time></trkpt><trkpt lat="44.28506" lon="9.4713717"><ele>170.0</ele><time>2026-04-04T14:04:49.651Z</time></trkpt><trkpt lat="44.2851683" lon="9.4714683"><ele>170.0</ele><time>2026-04-04T14:04:50.651Z</time></trkpt><trkpt lat="44.2852833" lon="9.471555"><ele>168.25</ele><time>2026-04-04T14:04:51.651Z</time></trkpt><trkpt lat="44.2854117" lon="9.4716283"><ele>166.5</ele><time>2026-04-04T14:04:52.652Z</time></trkpt><trkpt lat="44.2855433" lon="9.4717"><ele>164.75</ele><time>2026-04-04T14:04:53.651Z</time></trkpt><trkpt lat="44.2856583" lon="9.4717883"><ele>163.0</ele><time>2026-04-04T14:04:54.652Z</time></trkpt><trkpt lat="44.285755" lon="9.4719017"><ele>163.0</ele><time>2026-04-04T14:04:55.651Z</time></trkpt><trkpt lat="44.2858633" lon="9.4720133"><ele>163.0</ele><time>2026-04-04T14:04:56.652Z</time></trkpt><trkpt lat="44.285985" lon="9.4721"><ele>163.0</ele><time>2026-04-04T14:04:57.652Z</time></trkpt><trkpt lat="44.2861183" lon="9.4721617"><ele>163.0</ele><time>2026-04-04T14:04:58.652Z</time></trkpt><trkpt lat="44.28626" lon="9.472215"><ele>163.0</ele><time>2026-04-04T14:04:59.651Z</time></trkpt><trkpt lat="44.2863917" lon="9.47227"><ele>163.0</ele><time>2026-04-04T14:05:00.652Z</time></trkpt><trkpt lat="44.2865167" lon="9.4723333"><ele>163.0</ele><time>2026-04-04T14:05:01.651Z</time></trkpt><trkpt lat="44.2866317" lon="9.4724133"><ele>163.0</ele><time>2026-04-04T14:05:02.651Z</time></trkpt><trkpt lat="44.2867383" lon="9.472515"><ele>169.0</ele><time>2026-04-04T14:05:03.651Z</time></trkpt><trkpt lat="44.286835" lon="9.4726317"><ele>175.0</ele><time>2026-04-04T14:05:04.652Z</time></trkpt><trkpt lat="44.28695" lon="9.47273"><ele>181.0</ele><time>2026-04-04T14:05:05.651Z</time></trkpt><trkpt lat="44.2870733" lon="9.4728017"><ele>187.0</ele><time>2026-04-04T14:05:06.651Z</time></trkpt><trkpt lat="44.2871983" lon="9.4728383"><ele>192.25</ele><time>2026-04-04T14:05:07.652Z</time></trkpt><trkpt lat="44.2873217" lon="9.472835"><ele>197.5</ele><time>2026-04-04T14:05:08.652Z</time></trkpt><trkpt lat="44.2874483" lon="9.47279"><ele>202.75</ele><time>2026-04-04T14:05:09.651Z</time></trkpt><trkpt lat="44.2875733" lon="9.472725"><ele>208.0</ele><time>2026-04-04T14:05:10.651Z</time></trkpt><trkpt lat="44.2876983" lon="9.4726333"><ele>208.0</ele><time>2026-04-04T14:05:11.651Z</time></trkpt><trkpt lat="44.2878283" lon="9.4725233"><ele>208.0</ele><time>2026-04-04T14:05:12.651Z</time></trkpt><trkpt lat="44.2879433" lon="9.4723983"><ele>208.0</ele><time>2026-04-04T14:05:13.651Z</time></trkpt><trkpt lat="44.288035" lon="9.4722567"><ele>208.0</ele><time>2026-04-04T14:05:14.651Z</time></trkpt><trkpt lat="44.28811" lon="9.47211"><ele>210.75</ele><time>2026-04-04T14:05:15.651Z</time></trkpt><trkpt lat="44.2881833" lon="9.4719767"><ele>213.5</ele><time>2026-04-04T14:05:16.651Z</time></trkpt><trkpt lat="44.28828" lon="9.471855"><ele>216.25</ele><time>2026-04-04T14:05:17.651Z</time></trkpt><trkpt lat="44.288385" lon="9.4717533"><ele>219.0</ele><time>2026-04-04T14:05:18.651Z</time></trkpt><trkpt lat="44.288495" lon="9.4716483"><ele>219.0</ele><time>2026-04-04T14:05:19.652Z</time></trkpt><trkpt lat="44.2886067" lon="9.4715317"><ele>219.0</ele><time>2026-04-04T14:05:20.651Z</time></trkpt><trkpt lat="44.288705" lon="9.4714233"><ele>219.0</ele><time>2026-04-04T14:05:21.651Z</time></trkpt><trkpt lat="44.288795" lon="9.4713183"><ele>219.0</ele><time>2026-04-04T14:05:22.652Z</time></trkpt><trkpt lat="44.2888783" lon="9.4712267"><ele>220.5</ele><time>2026-04-04T14:05:23.652Z</time></trkpt><trkpt lat="44.2889533" lon="9.4711633"><ele>222.0</ele><time>2026-04-04T14:05:24.652Z</time></trkpt><trkpt lat="44.2890267" lon="9.4711517"><ele>223.5</ele><time>2026-04-04T14:05:25.651Z</time></trkpt><trkpt lat="44.2890917" lon="9.4712"><ele>225.0</ele><time>2026-04-04T14:05:26.652Z</time></trkpt><trkpt lat="44.289145" lon="9.471285"><ele>226.5</ele><time>2026-04-04T14:05:27.651Z</time></trkpt><trkpt lat="44.2891817" lon="9.4714233"><ele>228.0</ele><time>2026-04-04T14:05:28.651Z</time></trkpt><trkpt lat="44.2892083" lon="9.471575"><ele>228.0</ele><time>2026-04-04T14:05:29.651Z</time></trkpt><trkpt lat="44.2892533" lon="9.4717333"><ele>228.0</ele><time>2026-04-04T14:05:30.651Z</time></trkpt><trkpt lat="44.2892867" lon="9.4718983"><ele>228.0</ele><time>2026-04-04T14:05:31.651Z</time></trkpt><trkpt lat="44.2893133" lon="9.47208"><ele>228.0</ele><time>2026-04-04T14:05:32.651Z</time></trkpt><trkpt lat="44.2893267" lon="9.4722583"><ele>224.25</ele><time>2026-04-04T14:05:33.651Z</time></trkpt><trkpt lat="44.289335" lon="9.472435"><ele>220.5</ele><time>2026-04-04T14:05:34.651Z</time></trkpt><trkpt lat="44.289355" lon="9.4725883"><ele>216.75</ele><time>2026-04-04T14:05:35.651Z</time></trkpt><trkpt lat="44.2893933" lon="9.4727383"><ele>213.0</ele><time>2026-04-04T14:05:36.652Z</time></trkpt><trkpt lat="44.2894583" lon="9.47288"><ele>210.0</ele><time>2026-04-04T14:05:37.651Z</time></trkpt><trkpt lat="44.289545" lon="9.47301"><ele>207.0</ele><time>2026-04-04T14:05:38.651Z</time></trkpt><trkpt lat="44.289645" lon="9.4731433"><ele>204.0</ele><time>2026-04-04T14:05:39.651Z</time></trkpt><trkpt lat="44.2897317" lon="9.47329"><ele>201.0</ele><time>2026-04-04T14:05:40.651Z</time></trkpt><trkpt lat="44.2898117" lon="9.4734317"><ele>206.0</ele><time>2026-04-04T14:05:41.651Z</time></trkpt><trkpt lat="44.2898933" lon="9.47357"><ele>211.0</ele><time>2026-04-04T14:05:42.652Z</time></trkpt><trkpt lat="44.2899833" lon="9.4736917"><ele>216.0</ele><time>2026-04-04T14:05:43.651Z</time></trkpt><trkpt lat="44.2900983" lon="9.47379"><ele>221.0</ele><time>2026-04-04T14:05:44.652Z</time></trkpt><trkpt lat="44.29022" lon="9.4738583"><ele>221.0</ele><time>2026-04-04T14:05:45.651Z</time></trkpt><trkpt lat="44.29032" lon="9.47392"><ele>221.00000000000003</ele><time>2026-04-04T14:05:46.651Z</time></trkpt><trkpt lat="44.290395" lon="9.4739917"><ele>221.00000000000003</ele><time>2026-04-04T14:05:47.65Z</time></trkpt><trkpt lat="44.290435" lon="9.4740917"><ele>221.0</ele><time>2026-04-04T14:05:48.651Z</time></trkpt><trkpt lat="44.2904533" lon="9.47421"><ele>221.0</ele><time>2026-04-04T14:05:49.65Z</time></trkpt><trkpt lat="44.29048" lon="9.4743217"><ele>221.0</ele><time>2026-04-04T14:05:50.651Z</time></trkpt><trkpt lat="44.2905233" lon="9.4744083"><ele>221.00000000000003</ele><time>2026-04-04T14:05:51.65Z</time></trkpt><trkpt lat="44.2906033" lon="9.474475"><ele>221.00000000000003</ele><time>2026-04-04T14:05:52.65Z</time></trkpt><trkpt lat="44.290715" lon="9.474525"><ele>221.0</ele><time>2026-04-04T14:05:53.651Z</time></trkpt><trkpt lat="44.2908367" lon="9.47458"><ele>221.0</ele><time>2026-04-04T14:05:54.65Z</time></trkpt><trkpt lat="44.290945" lon="9.4746533"><ele>222.8</ele><time>2026-04-04T14:05:55.65Z</time></trkpt><trkpt lat="44.2910467" lon="9.474745"><ele>224.60000000000002</ele><time>2026-04-04T14:05:56.65Z</time></trkpt><trkpt lat="44.2911233" lon="9.47484"><ele>226.4</ele><time>2026-04-04T14:05:57.651Z</time></trkpt><trkpt lat="44.2911617" lon="9.4749517"><ele>228.2</ele><time>2026-04-04T14:05:58.65Z</time></trkpt><trkpt lat="44.29116" lon="9.4750783"><ele>230.0</ele><time>2026-04-04T14:05:59.65Z</time></trkpt><trkpt lat="44.2911367" lon="9.4751983"><ele>230.0</ele><time>2026-04-04T14:06:00.65Z</time></trkpt><trkpt lat="44.2910983" lon="9.475325"><ele>230.0</ele><time>2026-04-04T14:06:01.65Z</time></trkpt><trkpt lat="44.2910633" lon="9.4754667"><ele>230.0</ele><time>2026-04-04T14:06:02.65Z</time></trkpt><trkpt lat="44.2910483" lon="9.4756333"><ele>230.0</ele><time>2026-04-04T14:06:03.65Z</time></trkpt><trkpt lat="44.2910617" lon="9.475805"><ele>229.0</ele><time>2026-04-04T14:06:04.65Z</time></trkpt><trkpt lat="44.2911083" lon="9.4759717"><ele>228.0</ele><time>2026-04-04T14:06:05.65Z</time></trkpt><trkpt lat="44.2911717" lon="9.476135"><ele>227.0</ele><time>2026-04-04T14:06:06.65Z</time></trkpt><trkpt lat="44.2912433" lon="9.47631"><ele>226.0</ele><time>2026-04-04T14:06:07.65Z</time></trkpt><trkpt lat="44.291305" lon="9.4765017"><ele>223.66666666666666</ele><time>2026-04-04T14:06:08.65Z</time></trkpt><trkpt lat="44.2913767" lon="9.4766867"><ele>221.33333333333331</ele><time>2026-04-04T14:06:09.65Z</time></trkpt><trkpt lat="44.2914583" lon="9.4768667"><ele>219.0</ele><time>2026-04-04T14:06:10.651Z</time></trkpt><trkpt lat="44.2915433" lon="9.4770433"><ele>224.75</ele><time>2026-04-04T14:06:11.651Z</time></trkpt><trkpt lat="44.2916333" lon="9.47721"><ele>230.5</ele><time>2026-04-04T14:06:12.65Z</time></trkpt><trkpt lat="44.29171" lon="9.47736"><ele>236.25</ele><time>2026-04-04T14:06:13.651Z</time></trkpt><trkpt lat="44.2917817" lon="9.4774867"><ele>242.0</ele><time>2026-04-04T14:06:14.65Z</time></trkpt><trkpt lat="44.2918667" lon="9.4775667"><ele>242.0</ele><time>2026-04-04T14:06:15.651Z</time></trkpt><trkpt lat="44.29197" lon="9.477605"><ele>242.0</ele><time>2026-04-04T14:06:16.65Z</time></trkpt><trkpt lat="44.2920817" lon="9.4776083"><ele>242.0</ele><time>2026-04-04T14:06:17.65Z</time></trkpt><trkpt lat="44.2922033" lon="9.4776017"><ele>242.0</ele><time>2026-04-04T14:06:18.65Z</time></trkpt><trkpt lat="44.2923233" lon="9.47759"><ele>244.0</ele><time>2026-04-04T14:06:19.65Z</time></trkpt><trkpt lat="44.29244" lon="9.47757"><ele>246.0</ele><time>2026-04-04T14:06:20.65Z</time></trkpt><trkpt lat="44.2925283" lon="9.4775183"><ele>248.0</ele><time>2026-04-04T14:06:21.65Z</time></trkpt><trkpt lat="44.2926033" lon="9.4774383"><ele>250.0</ele><time>2026-04-04T14:06:22.65Z</time></trkpt><trkpt lat="44.2926733" lon="9.47736"><ele>252.0</ele><time>2026-04-04T14:06:23.651Z</time></trkpt><trkpt lat="44.2927383" lon="9.4772933"><ele>252.0</ele><time>2026-04-04T14:06:24.65Z</time></trkpt><trkpt lat="44.2928133" lon="9.477315"><ele>252.0</ele><time>2026-04-04T14:06:25.65Z</time></trkpt><trkpt lat="44.2928867" lon="9.47739"><ele>252.0</ele><time>2026-04-04T14:06:26.651Z</time></trkpt><trkpt lat="44.2929683" lon="9.477495"><ele>252.0</ele><time>2026-04-04T14:06:27.65Z</time></trkpt><trkpt lat="44.2930683" lon="9.477595"><ele>252.0</ele><time>2026-04-04T14:06:28.651Z</time></trkpt><trkpt lat="44.29317" lon="9.477685"><ele>255.2</ele><time>2026-04-04T14:06:29.65Z</time></trkpt><trkpt lat="44.293255" lon="9.4777333"><ele>258.4</ele><time>2026-04-04T14:06:30.65Z</time></trkpt><trkpt lat="44.2933517" lon="9.4777383"><ele>261.6</ele><time>2026-04-04T14:06:31.65Z</time></trkpt><trkpt lat="44.2934583" lon="9.4777083"><ele>264.8</ele><time>2026-04-04T14:06:32.651Z</time></trkpt><trkpt lat="44.2935717" lon="9.47767"><ele>268.0</ele><time>2026-04-04T14:06:33.65Z</time></trkpt><trkpt lat="44.29369" lon="9.4776333"><ele>268.0</ele><time>2026-04-04T14:06:34.65Z</time></trkpt><trkpt lat="44.2938233" lon="9.4776067"><ele>268.0</ele><time>2026-04-04T14:06:35.651Z</time></trkpt><trkpt lat="44.2939667" lon="9.4775867"><ele>268.0</ele><time>2026-04-04T14:06:36.65Z</time></trkpt><trkpt lat="44.2941133" lon="9.477575"><ele>268.0</ele><time>2026-04-04T14:06:37.65Z</time></trkpt><trkpt lat="44.2942567" lon="9.4775683"><ele>269.75</ele><time>2026-04-04T14:06:38.65Z</time></trkpt><trkpt lat="44.2944033" lon="9.4775667"><ele>271.5</ele><time>2026-04-04T14:06:39.65Z</time></trkpt><trkpt lat="44.2945467" lon="9.4775767"><ele>273.25</ele><time>2026-04-04T14:06:40.65Z</time></trkpt><trkpt lat="44.2946883" lon="9.4776033"><ele>275.0</ele><time>2026-04-04T14:06:41.65Z</time></trkpt><trkpt lat="44.2948283" lon="9.47764"><ele>277.5</ele><time>2026-04-04T14:06:42.65Z</time></trkpt><trkpt lat="44.29496" lon="9.4776767"><ele>280.0</ele><time>2026-04-04T14:06:43.65Z</time></trkpt><trkpt lat="44.29509" lon="9.4776833"><ele>282.5</ele><time>2026-04-04T14:06:44.65Z</time></trkpt><trkpt lat="44.2952367" lon="9.4776633"><ele>285.0</ele><time>2026-04-04T14:06:45.65Z</time></trkpt><trkpt lat="44.295385" lon="9.477625"><ele>285.0</ele><time>2026-04-04T14:06:46.65Z</time></trkpt><trkpt lat="44.2955367" lon="9.4775817"><ele>285.0</ele><time>2026-04-04T14:06:47.651Z</time></trkpt><trkpt lat="44.2956867" lon="9.4775417"><ele>285.0</ele><time>2026-04-04T14:06:48.65Z</time></trkpt><trkpt lat="44.2958367" lon="9.4774917"><ele>285.0</ele><time>2026-04-04T14:06:49.65Z</time></trkpt><trkpt lat="44.2959983" lon="9.4774467"><ele>285.0</ele><time>2026-04-04T14:06:50.65Z</time></trkpt><trkpt lat="44.2961517" lon="9.4774033"><ele>285.0</ele><time>2026-04-04T14:06:51.65Z</time></trkpt><trkpt lat="44.2963067" lon="9.4773633"><ele>284.3333333333333</ele><time>2026-04-04T14:06:52.651Z</time></trkpt><trkpt lat="44.2964567" lon="9.4773267"><ele>283.66666666666663</ele><time>2026-04-04T14:06:53.65Z</time></trkpt><trkpt lat="44.296615" lon="9.4772867"><ele>283.0</ele><time>2026-04-04T14:06:54.65Z</time></trkpt><trkpt lat="44.296765" lon="9.4772417"><ele>283.0</ele><time>2026-04-04T14:06:55.65Z</time></trkpt><trkpt lat="44.2969017" lon="9.4772133"><ele>283.0</ele><time>2026-04-04T14:06:56.65Z</time></trkpt><trkpt lat="44.2970317" lon="9.4772033"><ele>283.0</ele><time>2026-04-04T14:06:57.65Z</time></trkpt><trkpt lat="44.2971533" lon="9.4772"><ele>283.0</ele><time>2026-04-04T14:06:58.65Z</time></trkpt><trkpt lat="44.2972683" lon="9.4772"><ele>285.0</ele><time>2026-04-04T14:06:59.651Z</time></trkpt><trkpt lat="44.2973633" lon="9.4772167"><ele>287.0</ele><time>2026-04-04T14:07:00.65Z</time></trkpt><trkpt lat="44.2974517" lon="9.4772633"><ele>289.0</ele><time>2026-04-04T14:07:01.65Z</time></trkpt><trkpt lat="44.2975467" lon="9.4773333"><ele>291.0</ele><time>2026-04-04T14:07:02.65Z</time></trkpt><trkpt lat="44.2976483" lon="9.477405"><ele>293.0</ele><time>2026-04-04T14:07:03.65Z</time></trkpt><trkpt lat="44.2977517" lon="9.47749"><ele>293.0</ele><time>2026-04-04T14:07:04.65Z</time></trkpt><trkpt lat="44.2978617" lon="9.4775733"><ele>293.0</ele><time>2026-04-04T14:07:05.65Z</time></trkpt><trkpt lat="44.2979717" lon="9.477655"><ele>293.0</ele><time>2026-04-04T14:07:06.65Z</time></trkpt><trkpt lat="44.2980833" lon="9.4777367"><ele>293.0</ele><time>2026-04-04T14:07:07.65Z</time></trkpt><trkpt lat="44.2981883" lon="9.477815"><ele>292.0</ele><time>2026-04-04T14:07:08.65Z</time></trkpt><trkpt lat="44.2982983" lon="9.47789"><ele>291.0</ele><time>2026-04-04T14:07:09.651Z</time></trkpt><trkpt lat="44.2984" lon="9.4779633"><ele>290.0</ele><time>2026-04-04T14:07:10.65Z</time></trkpt><trkpt lat="44.2984933" lon="9.478025"><ele>289.0</ele><time>2026-04-04T14:07:11.65Z</time></trkpt><trkpt lat="44.298585" lon="9.4780683"><ele>288.0</ele><time>2026-04-04T14:07:12.651Z</time></trkpt><trkpt lat="44.2986783" lon="9.4781017"><ele>288.0</ele><time>2026-04-04T14:07:13.651Z</time></trkpt><trkpt lat="44.2987767" lon="9.4781017"><ele>288.0</ele><time>2026-04-04T14:07:14.651Z</time></trkpt><trkpt lat="44.2988683" lon="9.4780983"><ele>288.0</ele><time>2026-04-04T14:07:15.65Z</time></trkpt><trkpt lat="44.2989583" lon="9.4781033"><ele>288.0</ele><time>2026-04-04T14:07:16.65Z</time></trkpt><trkpt lat="44.2990417" lon="9.4781383"><ele>288.0</ele><time>2026-04-04T14:07:17.65Z</time></trkpt><trkpt lat="44.2991" lon="9.478205"><ele>288.0</ele><time>2026-04-04T14:07:18.651Z</time></trkpt><trkpt lat="44.2991567" lon="9.4782933"><ele>288.6666666666667</ele><time>2026-04-04T14:07:19.651Z</time></trkpt><trkpt lat="44.299215" lon="9.4783933"><ele>289.3333333333333</ele><time>2026-04-04T14:07:20.65Z</time></trkpt><trkpt lat="44.2992683" lon="9.4784867"><ele>290.0</ele><time>2026-04-04T14:07:21.65Z</time></trkpt><trkpt lat="44.299305" lon="9.4785867"><ele>290.66666666666663</ele><time>2026-04-04T14:07:22.65Z</time></trkpt><trkpt lat="44.2993217" lon="9.4787017"><ele>291.3333333333333</ele><time>2026-04-04T14:07:23.65Z</time></trkpt><trkpt lat="44.2993183" lon="9.4788283"><ele>292.0</ele><time>2026-04-04T14:07:24.65Z</time></trkpt><trkpt lat="44.299305" lon="9.4789633"><ele>292.0</ele><time>2026-04-04T14:07:25.65Z</time></trkpt><trkpt lat="44.2992983" lon="9.4791"><ele>292.0</ele><time>2026-04-04T14:07:26.651Z</time></trkpt><trkpt lat="44.2992883" lon="9.479235"><ele>292.0</ele><time>2026-04-04T14:07:27.651Z</time></trkpt><trkpt lat="44.2992683" lon="9.4793533"><ele>292.0</ele><time>2026-04-04T14:07:28.65Z</time></trkpt><trkpt lat="44.2992633" lon="9.4794633"><ele>292.0</ele><time>2026-04-04T14:07:29.651Z</time></trkpt><trkpt lat="44.2992617" lon="9.4795633"><ele>292.0</ele><time>2026-04-04T14:07:30.651Z</time></trkpt><trkpt lat="44.2992533" lon="9.4796533"><ele>293.2</ele><time>2026-04-04T14:07:31.65Z</time></trkpt><trkpt lat="44.29922" lon="9.4798117"><ele>294.4</ele><time>2026-04-04T14:07:33.65Z</time></trkpt><trkpt lat="44.2991583" lon="9.4799517"><ele>295.6</ele><time>2026-04-04T14:07:35.65Z</time></trkpt><trkpt lat="44.2990933" lon="9.4800517"><ele>296.8</ele><time>2026-04-04T14:07:37.65Z</time></trkpt><trkpt lat="44.2990683" lon="9.48015"><ele>298.0</ele><time>2026-04-04T14:07:40.65Z</time></trkpt><trkpt lat="44.299115" lon="9.48021"><ele>298.0</ele><time>2026-04-04T14:07:42.65Z</time></trkpt><trkpt lat="44.2992067" lon="9.4802933"><ele>298.0</ele><time>2026-04-04T14:07:44.651Z</time></trkpt><trkpt lat="44.2993017" lon="9.4804"><ele>298.0</ele><time>2026-04-04T14:07:46.65Z</time></trkpt><trkpt lat="44.29936" lon="9.48044"><ele>298.0</ele><time>2026-04-04T14:07:47.65Z</time></trkpt><trkpt lat="44.299485" lon="9.48044"><ele>298.0</ele><time>2026-04-04T14:07:49.65Z</time></trkpt><trkpt lat="44.2995467" lon="9.4803783"><ele>298.0</ele><time>2026-04-04T14:07:50.65Z</time></trkpt><trkpt lat="44.299595" lon="9.4802933"><ele>298.0</ele><time>2026-04-04T14:07:51.65Z</time></trkpt><trkpt lat="44.2996533" lon="9.4802333"><ele>298.0</ele><time>2026-04-04T14:07:52.65Z</time></trkpt><trkpt lat="44.2997167" lon="9.4802183"><ele>298.0</ele><time>2026-04-04T14:07:53.65Z</time></trkpt><trkpt lat="44.29978" lon="9.4802467"><ele>298.0</ele><time>2026-04-04T14:07:54.651Z</time></trkpt><trkpt lat="44.2998467" lon="9.480305"><ele>298.0</ele><time>2026-04-04T14:07:55.65Z</time></trkpt><trkpt lat="44.2999317" lon="9.480375"><ele>299.66666666666663</ele><time>2026-04-04T14:07:56.65Z</time></trkpt><trkpt lat="44.2999917" lon="9.4804417"><ele>301.3333333333333</ele><time>2026-04-04T14:07:57.65Z</time></trkpt><trkpt lat="44.30004" lon="9.4805267"><ele>303.0</ele><time>2026-04-04T14:07:58.65Z</time></trkpt><trkpt lat="44.3000667" lon="9.480635"><ele>304.6666666666667</ele><time>2026-04-04T14:07:59.65Z</time></trkpt><trkpt lat="44.3000917" lon="9.4807567"><ele>306.33333333333337</ele><time>2026-04-04T14:08:00.65Z</time></trkpt><trkpt lat="44.3001083" lon="9.4808767"><ele>308.0</ele><time>2026-04-04T14:08:01.65Z</time></trkpt><trkpt lat="44.3001217" lon="9.4809967"><ele>308.0</ele><time>2026-04-04T14:08:02.651Z</time></trkpt><trkpt lat="44.30014" lon="9.4811033"><ele>308.0</ele><time>2026-04-04T14:08:03.65Z</time></trkpt><trkpt lat="44.300175" lon="9.4811933"><ele>308.0</ele><time>2026-04-04T14:08:04.65Z</time></trkpt><trkpt lat="44.30021" lon="9.481275"><ele>308.0</ele><time>2026-04-04T14:08:05.651Z</time></trkpt><trkpt lat="44.30024" lon="9.481365"><ele>308.0</ele><time>2026-04-04T14:08:06.651Z</time></trkpt><trkpt lat="44.300255" lon="9.481455"><ele>308.0</ele><time>2026-04-04T14:08:07.651Z</time></trkpt><trkpt lat="44.3002467" lon="9.4815517"><ele>308.0</ele><time>2026-04-04T14:08:08.65Z</time></trkpt><trkpt lat="44.3002317" lon="9.481665"><ele>308.0</ele><time>2026-04-04T14:08:09.65Z</time></trkpt><trkpt lat="44.3002233" lon="9.4817933"><ele>308.0</ele><time>2026-04-04T14:08:10.65Z</time></trkpt><trkpt lat="44.3002267" lon="9.4819167"><ele>308.0</ele><time>2026-04-04T14:08:11.65Z</time></trkpt><trkpt lat="44.3002283" lon="9.4820483"><ele>308.0</ele><time>2026-04-04T14:08:12.65Z</time></trkpt><trkpt lat="44.3002183" lon="9.4821767"><ele>308.0</ele><time>2026-04-04T14:08:13.65Z</time></trkpt><trkpt lat="44.300185" lon="9.4823"><ele>310.6</ele><time>2026-04-04T14:08:14.65Z</time></trkpt><trkpt lat="44.3001333" lon="9.482415"><ele>313.20000000000005</ele><time>2026-04-04T14:08:15.65Z</time></trkpt><trkpt lat="44.3000683" lon="9.482515"><ele>315.8</ele><time>2026-04-04T14:08:16.65Z</time></trkpt><trkpt lat="44.2999917" lon="9.4826"><ele>318.40000000000003</ele><time>2026-04-04T14:08:17.65Z</time></trkpt><trkpt lat="44.299915" lon="9.4826833"><ele>321.0</ele><time>2026-04-04T14:08:18.651Z</time></trkpt><trkpt lat="44.2998617" lon="9.4827733"><ele>321.0</ele><time>2026-04-04T14:08:19.65Z</time></trkpt><trkpt lat="44.2998317" lon="9.4828733"><ele>321.0</ele><time>2026-04-04T14:08:20.65Z</time></trkpt><trkpt lat="44.2998233" lon="9.4829917"><ele>321.0</ele><time>2026-04-04T14:08:21.65Z</time></trkpt><trkpt lat="44.2998333" lon="9.4831233"><ele>321.0</ele><time>2026-04-04T14:08:22.65Z</time></trkpt><trkpt lat="44.2998483" lon="9.48325"><ele>321.0</ele><time>2026-04-04T14:08:23.65Z</time></trkpt><trkpt lat="44.2998967" lon="9.48338"><ele>320.6</ele><time>2026-04-04T14:08:24.65Z</time></trkpt><trkpt lat="44.29997" lon="9.4835083"><ele>320.20000000000005</ele><time>2026-04-04T14:08:25.65Z</time></trkpt><trkpt lat="44.3000533" lon="9.4836267"><ele>319.79999999999995</ele><time>2026-04-04T14:08:26.65Z</time></trkpt><trkpt lat="44.3001317" lon="9.48373"><ele>319.4</ele><time>2026-04-04T14:08:27.65Z</time></trkpt><trkpt lat="44.3002133" lon="9.483805"><ele>319.0</ele><time>2026-04-04T14:08:28.651Z</time></trkpt><trkpt lat="44.3002867" lon="9.48385"><ele>319.0</ele><time>2026-04-04T14:08:29.651Z</time></trkpt><trkpt lat="44.3003583" lon="9.48386"><ele>319.0</ele><time>2026-04-04T14:08:30.65Z</time></trkpt><trkpt lat="44.3004333" lon="9.4838367"><ele>319.0</ele><time>2026-04-04T14:08:31.651Z</time></trkpt><trkpt lat="44.3005083" lon="9.4837733"><ele>319.0</ele><time>2026-04-04T14:08:32.65Z</time></trkpt><trkpt lat="44.300585" lon="9.4836867"><ele>319.0</ele><time>2026-04-04T14:08:33.651Z</time></trkpt><trkpt lat="44.3006783" lon="9.4836017"><ele>319.0</ele><time>2026-04-04T14:08:34.65Z</time></trkpt><trkpt lat="44.3007767" lon="9.4835133"><ele>323.2</ele><time>2026-04-04T14:08:35.65Z</time></trkpt><trkpt lat="44.3008717" lon="9.48343"><ele>327.4</ele><time>2026-04-04T14:08:36.65Z</time></trkpt><trkpt lat="44.3009717" lon="9.4833467"><ele>331.6</ele><time>2026-04-04T14:08:37.65Z</time></trkpt><trkpt lat="44.301055" lon="9.4832517"><ele>335.8</ele><time>2026-04-04T14:08:38.65Z</time></trkpt><trkpt lat="44.3011267" lon="9.4831467"><ele>340.0</ele><time>2026-04-04T14:08:39.651Z</time></trkpt><trkpt lat="44.3011967" lon="9.4830617"><ele>340.0</ele><time>2026-04-04T14:08:40.65Z</time></trkpt><trkpt lat="44.3012867" lon="9.483015"><ele>340.0</ele><time>2026-04-04T14:08:41.65Z</time></trkpt><trkpt lat="44.3013833" lon="9.4830033"><ele>340.0</ele><time>2026-04-04T14:08:42.651Z</time></trkpt><trkpt lat="44.3014733" lon="9.483015"><ele>340.0</ele><time>2026-04-04T14:08:43.651Z</time></trkpt><trkpt lat="44.3015667" lon="9.4830567"><ele>340.0</ele><time>2026-04-04T14:08:44.65Z</time></trkpt><trkpt lat="44.3016533" lon="9.4831167"><ele>339.66666666666663</ele><time>2026-04-04T14:08:45.651Z</time></trkpt><trkpt lat="44.3017233" lon="9.4831867"><ele>339.3333333333333</ele><time>2026-04-04T14:08:46.65Z</time></trkpt><trkpt lat="44.30177" lon="9.4832567"><ele>339.0</ele><time>2026-04-04T14:08:47.65Z</time></trkpt><trkpt lat="44.3018283" lon="9.483375"><ele>338.6666666666667</ele><time>2026-04-04T14:08:49.65Z</time></trkpt><trkpt lat="44.3019067" lon="9.483355"><ele>338.33333333333337</ele><time>2026-04-04T14:08:52.65Z</time></trkpt><trkpt lat="44.3019717" lon="9.48332"><ele>338.0</ele><time>2026-04-04T14:08:55.65Z</time></trkpt><trkpt lat="44.3019083" lon="9.4832533"><ele>338.0</ele><time>2026-04-04T14:12:37.649Z</time></trkpt><trkpt lat="44.3018767" lon="9.4831517"><ele>338.0</ele><time>2026-04-04T14:12:39.65Z</time></trkpt><trkpt lat="44.3018367" lon="9.4830117"><ele>338.0</ele><time>2026-04-04T14:12:41.649Z</time></trkpt><trkpt lat="44.3017883" lon="9.4828867"><ele>338.0</ele><time>2026-04-04T14:12:43.65Z</time></trkpt><trkpt lat="44.3017067" lon="9.4827717"><ele>338.0</ele><time>2026-04-04T14:12:45.649Z</time></trkpt><trkpt lat="44.301605" lon="9.4827"><ele>339.6666666666667</ele><time>2026-04-04T14:12:47.649Z</time></trkpt><trkpt lat="44.3015" lon="9.4826567"><ele>341.33333333333337</ele><time>2026-04-04T14:12:49.649Z</time></trkpt><trkpt lat="44.3014017" lon="9.4826333"><ele>343.0</ele><time>2026-04-04T14:12:51.649Z</time></trkpt><trkpt lat="44.30131" lon="9.48263"><ele>344.6666666666667</ele><time>2026-04-04T14:12:53.649Z</time></trkpt><trkpt lat="44.3012467" lon="9.4826217"><ele>346.3333333333333</ele><time>2026-04-04T14:12:55.649Z</time></trkpt><trkpt lat="44.3011733" lon="9.482595"><ele>348.0</ele><time>2026-04-04T14:14:02.648Z</time></trkpt><trkpt lat="44.301075" lon="9.4826"><ele>348.0</ele><time>2026-04-04T14:14:54.649Z</time></trkpt><trkpt lat="44.3011517" lon="9.4825817"><ele>348.0</ele><time>2026-04-04T14:15:12.648Z</time></trkpt><trkpt lat="44.3012333" lon="9.4826133"><ele>348.0</ele><time>2026-04-04T14:15:14.648Z</time></trkpt><trkpt lat="44.3013217" lon="9.4826283"><ele>348.0</ele><time>2026-04-04T14:15:16.649Z</time></trkpt><trkpt lat="44.30143" lon="9.4826483"><ele>348.0</ele><time>2026-04-04T14:15:18.649Z</time></trkpt><trkpt lat="44.3014917" lon="9.4826683"><ele>348.0</ele><time>2026-04-04T14:15:19.649Z</time></trkpt><trkpt lat="44.3015533" lon="9.4826867"><ele>349.59999999999997</ele><time>2026-04-04T14:15:20.648Z</time></trkpt><trkpt lat="44.3016667" lon="9.4827517"><ele>351.2</ele><time>2026-04-04T14:15:22.649Z</time></trkpt><trkpt lat="44.301745" lon="9.4828467"><ele>352.8</ele><time>2026-04-04T14:15:24.648Z</time></trkpt><trkpt lat="44.3018067" lon="9.4829433"><ele>354.4</ele><time>2026-04-04T14:15:26.648Z</time></trkpt><trkpt lat="44.301845" lon="9.4830583"><ele>356.0</ele><time>2026-04-04T14:15:28.649Z</time></trkpt><trkpt lat="44.3018783" lon="9.4831717"><ele>356.1666666666667</ele><time>2026-04-04T14:15:30.648Z</time></trkpt><trkpt lat="44.30191" lon="9.48326"><ele>356.33333333333337</ele><time>2026-04-04T14:15:32.648Z</time></trkpt><trkpt lat="44.3019583" lon="9.4833333"><ele>356.5</ele><time>2026-04-04T14:15:35.648Z</time></trkpt><trkpt lat="44.302025" lon="9.4833617"><ele>356.6666666666667</ele><time>2026-04-04T14:15:39.649Z</time></trkpt><trkpt lat="44.3020883" lon="9.4833367"><ele>356.8333333333333</ele><time>2026-04-04T14:15:42.648Z</time></trkpt><trkpt lat="44.3021767" lon="9.4832817"><ele>357.0</ele><time>2026-04-04T14:16:04.649Z</time></trkpt><trkpt lat="44.30228" lon="9.4832233"><ele>357.0</ele><time>2026-04-04T14:16:06.648Z</time></trkpt><trkpt lat="44.3023917" lon="9.4831683"><ele>357.0</ele><time>2026-04-04T14:16:08.649Z</time></trkpt><trkpt lat="44.30249" lon="9.4831433"><ele>357.0</ele><time>2026-04-04T14:16:10.649Z</time></trkpt><trkpt lat="44.3025767" lon="9.483175"><ele>357.0</ele><time>2026-04-04T14:16:12.648Z</time></trkpt><trkpt lat="44.3026383" lon="9.483275"><ele>357.0</ele><time>2026-04-04T14:16:14.649Z</time></trkpt><trkpt lat="44.30265" lon="9.4834217"><ele>357.0</ele><time>2026-04-04T14:16:16.649Z</time></trkpt><trkpt lat="44.302665" lon="9.483565"><ele>357.0</ele><time>2026-04-04T14:16:18.648Z</time></trkpt><trkpt lat="44.3027033" lon="9.483635"><ele>357.0</ele><time>2026-04-04T14:16:19.649Z</time></trkpt><trkpt lat="44.3027617" lon="9.4837033"><ele>357.0</ele><time>2026-04-04T14:16:20.648Z</time></trkpt><trkpt lat="44.302825" lon="9.4837683"><ele>357.0</ele><time>2026-04-04T14:16:21.648Z</time></trkpt><trkpt lat="44.3028867" lon="9.4838033"><ele>357.0</ele><time>2026-04-04T14:16:22.648Z</time></trkpt><trkpt lat="44.3029517" lon="9.4838433"><ele>359.75</ele><time>2026-04-04T14:16:23.649Z</time></trkpt><trkpt lat="44.3030667" lon="9.4839017"><ele>362.5</ele><time>2026-04-04T14:16:25.648Z</time></trkpt><trkpt lat="44.30318" lon="9.4839417"><ele>365.25</ele><time>2026-04-04T14:16:27.648Z</time></trkpt><trkpt lat="44.3032767" lon="9.4839783"><ele>368.0</ele><time>2026-04-04T14:16:29.648Z</time></trkpt><trkpt lat="44.3033783" lon="9.4840433"><ele>368.0</ele><time>2026-04-04T14:16:31.648Z</time></trkpt><trkpt lat="44.3034733" lon="9.4841317"><ele>368.0</ele><time>2026-04-04T14:16:33.649Z</time></trkpt><trkpt lat="44.303525" lon="9.4841983"><ele>368.0</ele><time>2026-04-04T14:16:34.648Z</time></trkpt><trkpt lat="44.3035817" lon="9.484335"><ele>368.0</ele><time>2026-04-04T14:16:36.649Z</time></trkpt><trkpt lat="44.303575" lon="9.4844717"><ele>368.0</ele><time>2026-04-04T14:16:38.649Z</time></trkpt><trkpt lat="44.3035" lon="9.4845867"><ele>368.8571428571429</ele><time>2026-04-04T14:16:40.648Z</time></trkpt><trkpt lat="44.30344" lon="9.4846417"><ele>369.71428571428567</ele><time>2026-04-04T14:16:41.649Z</time></trkpt><trkpt lat="44.303365" lon="9.48469"><ele>370.57142857142856</ele><time>2026-04-04T14:16:42.648Z</time></trkpt><trkpt lat="44.3032967" lon="9.4847383"><ele>371.42857142857144</ele><time>2026-04-04T14:16:43.649Z</time></trkpt><trkpt lat="44.3032317" lon="9.4847867"><ele>372.28571428571433</ele><time>2026-04-04T14:16:44.649Z</time></trkpt><trkpt lat="44.303175" lon="9.4848367"><ele>373.1428571428571</ele><time>2026-04-04T14:16:45.648Z</time></trkpt><trkpt lat="44.3031267" lon="9.4848967"><ele>374.0</ele><time>2026-04-04T14:16:46.648Z</time></trkpt><trkpt lat="44.3030833" lon="9.4849617"><ele>372.0</ele><time>2026-04-04T14:16:47.648Z</time></trkpt><trkpt lat="44.3030367" lon="9.4850333"><ele>370.0</ele><time>2026-04-04T14:16:48.649Z</time></trkpt><trkpt lat="44.3029883" lon="9.4851033"><ele>368.0</ele><time>2026-04-04T14:16:49.648Z</time></trkpt><trkpt lat="44.30295" lon="9.48518"><ele>366.0</ele><time>2026-04-04T14:16:50.648Z</time></trkpt><trkpt lat="44.30292" lon="9.4852633"><ele>364.0</ele><time>2026-04-04T14:16:51.649Z</time></trkpt><trkpt lat="44.302895" lon="9.4853467"><ele>362.0</ele><time>2026-04-04T14:16:52.648Z</time></trkpt><trkpt lat="44.3028733" lon="9.485435"><ele>360.0</ele><time>2026-04-04T14:16:53.648Z</time></trkpt><trkpt lat="44.3028367" lon="9.4855967"><ele>360.0</ele><time>2026-04-04T14:16:55.648Z</time></trkpt><trkpt lat="44.3028133" lon="9.4856817"><ele>360.0</ele><time>2026-04-04T14:16:56.648Z</time></trkpt><trkpt lat="44.3027883" lon="9.4857867"><ele>360.0</ele><time>2026-04-04T14:16:57.648Z</time></trkpt><trkpt lat="44.3027617" lon="9.4858883"><ele>360.0</ele><time>2026-04-04T14:16:58.648Z</time></trkpt><trkpt lat="44.3027383" lon="9.4859817"><ele>360.0</ele><time>2026-04-04T14:16:59.648Z</time></trkpt><trkpt lat="44.30271" lon="9.4860683"><ele>360.0</ele><time>2026-04-04T14:17:00.649Z</time></trkpt><trkpt lat="44.30267" lon="9.486205"><ele>360.0</ele><time>2026-04-04T14:17:02.648Z</time></trkpt><trkpt lat="44.3027033" lon="9.4862983"><ele>360.0</ele><time>2026-04-04T14:17:04.649Z</time></trkpt><trkpt lat="44.3027933" lon="9.4863317"><ele>360.0</ele><time>2026-04-04T14:17:06.649Z</time></trkpt><trkpt lat="44.3028717" lon="9.4862467"><ele>360.0</ele><time>2026-04-04T14:17:08.648Z</time></trkpt><trkpt lat="44.30291" lon="9.4861533"><ele>360.0</ele><time>2026-04-04T14:17:09.649Z</time></trkpt><trkpt lat="44.3029467" lon="9.4860333"><ele>360.0</ele><time>2026-04-04T14:17:10.649Z</time></trkpt><trkpt lat="44.3029867" lon="9.48592"><ele>360.0</ele><time>2026-04-04T14:17:11.649Z</time></trkpt><trkpt lat="44.3030183" lon="9.4858117"><ele>360.0</ele><time>2026-04-04T14:17:12.649Z</time></trkpt><trkpt lat="44.3030567" lon="9.4857217"><ele>360.0</ele><time>2026-04-04T14:17:13.648Z</time></trkpt><trkpt lat="44.3031083" lon="9.4856567"><ele>360.0</ele><time>2026-04-04T14:17:14.649Z</time></trkpt><trkpt lat="44.3031567" lon="9.4855967"><ele>360.0</ele><time>2026-04-04T14:17:15.648Z</time></trkpt><trkpt lat="44.3032083" lon="9.485545"><ele>360.0</ele><time>2026-04-04T14:17:16.648Z</time></trkpt><trkpt lat="44.3032717" lon="9.48549"><ele>360.0</ele><time>2026-04-04T14:17:17.647Z</time></trkpt><trkpt lat="44.303345" lon="9.485445"><ele>362.8</ele><time>2026-04-04T14:17:18.647Z</time></trkpt><trkpt lat="44.303425" lon="9.4854017"><ele>365.6</ele><time>2026-04-04T14:17:19.648Z</time></trkpt><trkpt lat="44.3035" lon="9.48537"><ele>368.4</ele><time>2026-04-04T14:17:20.647Z</time></trkpt><trkpt lat="44.3035633" lon="9.48533"><ele>371.2</ele><time>2026-04-04T14:17:21.647Z</time></trkpt><trkpt lat="44.30366" lon="9.48525"><ele>374.0</ele><time>2026-04-04T14:17:23.647Z</time></trkpt><trkpt lat="44.3037533" lon="9.485165"><ele>374.0</ele><time>2026-04-04T14:17:25.647Z</time></trkpt><trkpt lat="44.30381" lon="9.4851267"><ele>374.0</ele><time>2026-04-04T14:17:26.648Z</time></trkpt><trkpt lat="44.3039283" lon="9.485065"><ele>374.0</ele><time>2026-04-04T14:17:28.647Z</time></trkpt><trkpt lat="44.3040067" lon="9.4850333"><ele>374.0</ele><time>2026-04-04T14:17:29.648Z</time></trkpt><trkpt lat="44.30409" lon="9.48501"><ele>374.0</ele><time>2026-04-04T14:17:30.647Z</time></trkpt><trkpt lat="44.30417" lon="9.4849733"><ele>374.0</ele><time>2026-04-04T14:17:31.648Z</time></trkpt><trkpt lat="44.30425" lon="9.4849383"><ele>378.1666666666667</ele><time>2026-04-04T14:17:32.647Z</time></trkpt><trkpt lat="44.3043167" lon="9.4848967"><ele>382.33333333333337</ele><time>2026-04-04T14:17:33.648Z</time></trkpt><trkpt lat="44.3043767" lon="9.4848533"><ele>386.5</ele><time>2026-04-04T14:17:34.647Z</time></trkpt><trkpt lat="44.304475" lon="9.4847417"><ele>390.6666666666667</ele><time>2026-04-04T14:17:36.647Z</time></trkpt><trkpt lat="44.3045267" lon="9.4846833"><ele>394.8333333333333</ele><time>2026-04-04T14:17:37.647Z</time></trkpt><trkpt lat="44.3046233" lon="9.4846333"><ele>399.0</ele><time>2026-04-04T14:17:39.647Z</time></trkpt><trkpt lat="44.3047117" lon="9.4846867"><ele>399.0</ele><time>2026-04-04T14:17:41.647Z</time></trkpt><trkpt lat="44.30476" lon="9.4848317"><ele>399.0</ele><time>2026-04-04T14:17:43.647Z</time></trkpt><trkpt lat="44.304755" lon="9.4849217"><ele>399.0</ele><time>2026-04-04T14:17:44.648Z</time></trkpt><trkpt lat="44.3046867" lon="9.4850617"><ele>399.0</ele><time>2026-04-04T14:17:46.648Z</time></trkpt><trkpt lat="44.3046333" lon="9.4851333"><ele>399.0</ele><time>2026-04-04T14:17:47.648Z</time></trkpt><trkpt lat="44.3045767" lon="9.4852217"><ele>399.0</ele><time>2026-04-04T14:17:48.647Z</time></trkpt><trkpt lat="44.3045233" lon="9.4853233"><ele>399.0</ele><time>2026-04-04T14:17:49.647Z</time></trkpt><trkpt lat="44.3044817" lon="9.4854233"><ele>399.0</ele><time>2026-04-04T14:17:50.647Z</time></trkpt><trkpt lat="44.3044583" lon="9.4855133"><ele>399.0</ele><time>2026-04-04T14:17:51.647Z</time></trkpt><trkpt lat="44.3044567" lon="9.485665"><ele>399.0</ele><time>2026-04-04T14:17:53.647Z</time></trkpt><trkpt lat="44.3044833" lon="9.4857483"><ele>399.0</ele><time>2026-04-04T14:17:54.648Z</time></trkpt><trkpt lat="44.3045183" lon="9.4858283"><ele>400.2</ele><time>2026-04-04T14:17:55.647Z</time></trkpt><trkpt lat="44.3045767" lon="9.4858867"><ele>401.4</ele><time>2026-04-04T14:17:56.647Z</time></trkpt><trkpt lat="44.30464" lon="9.4859083"><ele>402.6</ele><time>2026-04-04T14:17:57.647Z</time></trkpt><trkpt lat="44.3047483" lon="9.4858583"><ele>403.8</ele><time>2026-04-04T14:17:59.647Z</time></trkpt><trkpt lat="44.3048133" lon="9.4857"><ele>405.0</ele><time>2026-04-04T14:18:01.647Z</time></trkpt><trkpt lat="44.30483" lon="9.4856067"><ele>407.4</ele><time>2026-04-04T14:18:02.647Z</time></trkpt><trkpt lat="44.3049033" lon="9.4854983"><ele>409.8</ele><time>2026-04-04T14:18:04.647Z</time></trkpt><trkpt lat="44.30501" lon="9.485445"><ele>412.20000000000005</ele><time>2026-04-04T14:18:06.647Z</time></trkpt><trkpt lat="44.3051233" lon="9.4854167"><ele>414.6</ele><time>2026-04-04T14:18:08.647Z</time></trkpt><trkpt lat="44.30522" lon="9.4853817"><ele>417.0</ele><time>2026-04-04T14:18:10.648Z</time></trkpt><trkpt lat="44.3053017" lon="9.485365"><ele>417.0</ele><time>2026-04-04T14:18:12.648Z</time></trkpt><trkpt lat="44.3053883" lon="9.4853333"><ele>417.0</ele><time>2026-04-04T14:18:14.647Z</time></trkpt><trkpt lat="44.3054817" lon="9.4852683"><ele>417.0</ele><time>2026-04-04T14:18:16.647Z</time></trkpt><trkpt lat="44.3055633" lon="9.48517"><ele>417.0</ele><time>2026-04-04T14:18:18.647Z</time></trkpt><trkpt lat="44.3056383" lon="9.4850567"><ele>417.0</ele><time>2026-04-04T14:18:20.648Z</time></trkpt><trkpt lat="44.3057183" lon="9.48495"><ele>421.20000000000005</ele><time>2026-04-04T14:18:22.648Z</time></trkpt><trkpt lat="44.305805" lon="9.484885"><ele>425.4</ele><time>2026-04-04T14:18:24.647Z</time></trkpt><trkpt lat="44.3059117" lon="9.484835"><ele>429.59999999999997</ele><time>2026-04-04T14:18:26.648Z</time></trkpt><trkpt lat="44.306015" lon="9.4847617"><ele>433.79999999999995</ele><time>2026-04-04T14:18:28.647Z</time></trkpt><trkpt lat="44.3061083" lon="9.4846767"><ele>438.0</ele><time>2026-04-04T14:18:30.647Z</time></trkpt><trkpt lat="44.306195" lon="9.48461"><ele>438.0</ele><time>2026-04-04T14:18:32.648Z</time></trkpt><trkpt lat="44.306285" lon="9.48462"><ele>438.0</ele><time>2026-04-04T14:18:34.648Z</time></trkpt><trkpt lat="44.306345" lon="9.484705"><ele>438.0</ele><time>2026-04-04T14:18:36.647Z</time></trkpt><trkpt lat="44.3063317" lon="9.4848183"><ele>438.0</ele><time>2026-04-04T14:18:39.647Z</time></trkpt><trkpt lat="44.3062433" lon="9.48491"><ele>438.0</ele><time>2026-04-04T14:18:41.647Z</time></trkpt><trkpt lat="44.3061833" lon="9.4849433"><ele>438.0</ele><time>2026-04-04T14:18:42.648Z</time></trkpt><trkpt lat="44.306105" lon="9.4849667"><ele>438.0</ele><time>2026-04-04T14:18:43.647Z</time></trkpt><trkpt lat="44.30602" lon="9.4849967"><ele>438.0</ele><time>2026-04-04T14:18:44.647Z</time></trkpt><trkpt lat="44.3059467" lon="9.4850433"><ele>438.0</ele><time>2026-04-04T14:18:45.647Z</time></trkpt><trkpt lat="44.3058767" lon="9.485115"><ele>438.0</ele><time>2026-04-04T14:18:46.647Z</time></trkpt><trkpt lat="44.3058183" lon="9.4851983"><ele>438.0</ele><time>2026-04-04T14:18:47.647Z</time></trkpt><trkpt lat="44.305775" lon="9.4852967"><ele>438.0</ele><time>2026-04-04T14:18:48.647Z</time></trkpt><trkpt lat="44.30574" lon="9.4853967"><ele>440.8333333333333</ele><time>2026-04-04T14:18:49.648Z</time></trkpt><trkpt lat="44.3057267" lon="9.4855783"><ele>443.66666666666663</ele><time>2026-04-04T14:18:51.648Z</time></trkpt><trkpt lat="44.3057383" lon="9.4856783"><ele>446.5</ele><time>2026-04-04T14:18:52.647Z</time></trkpt><trkpt lat="44.305755" lon="9.48577"><ele>449.3333333333333</ele><time>2026-04-04T14:18:53.648Z</time></trkpt><trkpt lat="44.30576" lon="9.48586"><ele>452.16666666666663</ele><time>2026-04-04T14:18:54.648Z</time></trkpt><trkpt lat="44.3057633" lon="9.48596"><ele>455.0</ele><time>2026-04-04T14:18:55.647Z</time></trkpt><trkpt lat="44.3057517" lon="9.4860633"><ele>455.0</ele><time>2026-04-04T14:18:56.647Z</time></trkpt><trkpt lat="44.305735" lon="9.4861717"><ele>455.0</ele><time>2026-04-04T14:18:57.648Z</time></trkpt><trkpt lat="44.3057167" lon="9.4862733"><ele>455.0</ele><time>2026-04-04T14:18:58.647Z</time></trkpt><trkpt lat="44.3057" lon="9.4863783"><ele>455.0</ele><time>2026-04-04T14:18:59.647Z</time></trkpt><trkpt lat="44.30568" lon="9.486485"><ele>455.0</ele><time>2026-04-04T14:19:00.647Z</time></trkpt><trkpt lat="44.3056633" lon="9.4865783"><ele>455.0</ele><time>2026-04-04T14:19:01.647Z</time></trkpt><trkpt lat="44.3056533" lon="9.4866683"><ele>455.0</ele><time>2026-04-04T14:19:02.647Z</time></trkpt><trkpt lat="44.3056517" lon="9.4868217"><ele>457.4</ele><time>2026-04-04T14:19:04.647Z</time></trkpt><trkpt lat="44.3056467" lon="9.4869767"><ele>459.8</ele><time>2026-04-04T14:19:06.648Z</time></trkpt><trkpt lat="44.3056317" lon="9.4871233"><ele>462.20000000000005</ele><time>2026-04-04T14:19:08.647Z</time></trkpt><trkpt lat="44.3056367" lon="9.4872583"><ele>464.6</ele><time>2026-04-04T14:19:10.647Z</time></trkpt><trkpt lat="44.3057033" lon="9.487365"><ele>467.0</ele><time>2026-04-04T14:19:12.647Z</time></trkpt><trkpt lat="44.3058017" lon="9.48746"><ele>467.0</ele><time>2026-04-04T14:19:14.647Z</time></trkpt><trkpt lat="44.3058983" lon="9.4875417"><ele>467.00000000000006</ele><time>2026-04-04T14:19:16.647Z</time></trkpt><trkpt lat="44.30594" lon="9.4876433"><ele>467.00000000000006</ele><time>2026-04-04T14:19:18.647Z</time></trkpt><trkpt lat="44.3059667" lon="9.4877733"><ele>467.0</ele><time>2026-04-04T14:19:20.647Z</time></trkpt><trkpt lat="44.3059983" lon="9.4879117"><ele>467.0</ele><time>2026-04-04T14:19:22.647Z</time></trkpt><trkpt lat="44.3060583" lon="9.4880367"><ele>467.0</ele><time>2026-04-04T14:19:24.647Z</time></trkpt><trkpt lat="44.3061267" lon="9.488155"><ele>467.00000000000006</ele><time>2026-04-04T14:19:26.647Z</time></trkpt><trkpt lat="44.3061967" lon="9.488275"><ele>467.00000000000006</ele><time>2026-04-04T14:19:28.648Z</time></trkpt><trkpt lat="44.30626" lon="9.488395"><ele>467.0</ele><time>2026-04-04T14:19:30.647Z</time></trkpt><trkpt lat="44.3063283" lon="9.488495"><ele>467.0</ele><time>2026-04-04T14:19:32.647Z</time></trkpt><trkpt lat="44.306425" lon="9.4885183"><ele>467.0</ele><time>2026-04-04T14:19:34.647Z</time></trkpt><trkpt lat="44.3064717" lon="9.4884233"><ele>467.00000000000006</ele><time>2026-04-04T14:19:36.647Z</time></trkpt><trkpt lat="44.30645" lon="9.4882817"><ele>467.00000000000006</ele><time>2026-04-04T14:19:38.647Z</time></trkpt><trkpt lat="44.3063983" lon="9.488145"><ele>467.0</ele><time>2026-04-04T14:19:40.647Z</time></trkpt><trkpt lat="44.3063917" lon="9.4880283"><ele>467.0</ele><time>2026-04-04T14:19:42.647Z</time></trkpt><trkpt lat="44.306435" lon="9.4879067"><ele>474.0</ele><time>2026-04-04T14:19:44.647Z</time></trkpt><trkpt lat="44.3064933" lon="9.48778"><ele>481.00000000000006</ele><time>2026-04-04T14:19:46.647Z</time></trkpt><trkpt lat="44.3065283" lon="9.4876483"><ele>488.00000000000006</ele><time>2026-04-04T14:19:48.647Z</time></trkpt><trkpt lat="44.306525" lon="9.4875033"><ele>495.0</ele><time>2026-04-04T14:19:50.647Z</time></trkpt><trkpt lat="44.3064883" lon="9.48737"><ele>502.0</ele><time>2026-04-04T14:19:52.648Z</time></trkpt><trkpt lat="44.3064633" lon="9.4872167"><ele>502.00000000000006</ele><time>2026-04-04T14:19:54.648Z</time></trkpt><trkpt lat="44.3064717" lon="9.4871217"><ele>502.0</ele><time>2026-04-04T14:19:55.647Z</time></trkpt><trkpt lat="44.3064983" lon="9.4870083"><ele>502.0</ele><time>2026-04-04T14:19:56.648Z</time></trkpt><trkpt lat="44.306525" lon="9.486905"><ele>502.0</ele><time>2026-04-04T14:19:57.648Z</time></trkpt><trkpt lat="44.3065583" lon="9.4868233"><ele>502.00000000000006</ele><time>2026-04-04T14:19:58.648Z</time></trkpt><trkpt lat="44.30663" lon="9.48669"><ele>502.0</ele><time>2026-04-04T14:20:00.648Z</time></trkpt><trkpt lat="44.306675" lon="9.4866117"><ele>502.40000000000003</ele><time>2026-04-04T14:20:01.647Z</time></trkpt><trkpt lat="44.3067233" lon="9.4865283"><ele>502.80000000000007</ele><time>2026-04-04T14:20:02.648Z</time></trkpt><trkpt lat="44.306765" lon="9.4864567"><ele>503.2</ele><time>2026-04-04T14:20:03.647Z</time></trkpt><trkpt lat="44.306845" lon="9.4863583"><ele>503.6</ele><time>2026-04-04T14:20:05.647Z</time></trkpt><trkpt lat="44.306945" lon="9.4863217"><ele>504.0</ele><time>2026-04-04T14:20:07.647Z</time></trkpt><trkpt lat="44.30703" lon="9.486415"><ele>504.0</ele><time>2026-04-04T14:20:09.647Z</time></trkpt><trkpt lat="44.307055" lon="9.4865"><ele>504.0</ele><time>2026-04-04T14:20:10.647Z</time></trkpt><trkpt lat="44.3070567" lon="9.4866067"><ele>504.0</ele><time>2026-04-04T14:20:11.648Z</time></trkpt><trkpt lat="44.3070367" lon="9.4867067"><ele>504.0</ele><time>2026-04-04T14:20:12.647Z</time></trkpt><trkpt lat="44.3070083" lon="9.4868017"><ele>504.0</ele><time>2026-04-04T14:20:13.648Z</time></trkpt><trkpt lat="44.3069783" lon="9.486895"><ele>504.0</ele><time>2026-04-04T14:20:14.647Z</time></trkpt><trkpt lat="44.3069633" lon="9.4870567"><ele>503.6</ele><time>2026-04-04T14:20:16.647Z</time></trkpt><trkpt lat="44.30701" lon="9.487205"><ele>503.2</ele><time>2026-04-04T14:20:18.647Z</time></trkpt><trkpt lat="44.3070617" lon="9.487275"><ele>502.80000000000007</ele><time>2026-04-04T14:20:19.648Z</time></trkpt><trkpt lat="44.3071367" lon="9.4873533"><ele>502.40000000000003</ele><time>2026-04-04T14:20:20.647Z</time></trkpt><trkpt lat="44.3072067" lon="9.4874417"><ele>502.0</ele><time>2026-04-04T14:20:21.648Z</time></trkpt><trkpt lat="44.3072767" lon="9.487535"><ele>505.83333333333337</ele><time>2026-04-04T14:20:22.647Z</time></trkpt><trkpt lat="44.307335" lon="9.4876117"><ele>509.6666666666667</ele><time>2026-04-04T14:20:23.648Z</time></trkpt><trkpt lat="44.3074483" lon="9.4876633"><ele>513.5</ele><time>2026-04-04T14:20:25.647Z</time></trkpt><trkpt lat="44.30751" lon="9.48763"><ele>517.3333333333334</ele><time>2026-04-04T14:20:26.647Z</time></trkpt><trkpt lat="44.30755" lon="9.4875617"><ele>521.1666666666666</ele><time>2026-04-04T14:20:27.648Z</time></trkpt><trkpt lat="44.3075617" lon="9.4874717"><ele>525.0</ele><time>2026-04-04T14:20:28.647Z</time></trkpt><trkpt lat="44.3075983" lon="9.4873133"><ele>525.0</ele><time>2026-04-04T14:20:30.647Z</time></trkpt><trkpt lat="44.3076717" lon="9.4872"><ele>525.0</ele><time>2026-04-04T14:20:32.647Z</time></trkpt><trkpt lat="44.3077817" lon="9.48711"><ele>525.0</ele><time>2026-04-04T14:20:34.647Z</time></trkpt><trkpt lat="44.3078367" lon="9.48705"><ele>525.0</ele><time>2026-04-04T14:20:35.648Z</time></trkpt><trkpt lat="44.3078883" lon="9.486985"><ele>525.0</ele><time>2026-04-04T14:20:36.647Z</time></trkpt><trkpt lat="44.307935" lon="9.4869183"><ele>525.0</ele><time>2026-04-04T14:20:37.647Z</time></trkpt><trkpt lat="44.307985" lon="9.4868383"><ele>524.2</ele><time>2026-04-04T14:20:38.648Z</time></trkpt><trkpt lat="44.3080367" lon="9.4867417"><ele>523.4</ele><time>2026-04-04T14:20:39.647Z</time></trkpt><trkpt lat="44.3080867" lon="9.4866467"><ele>522.6</ele><time>2026-04-04T14:20:40.647Z</time></trkpt><trkpt lat="44.3081333" lon="9.4865767"><ele>521.8</ele><time>2026-04-04T14:20:41.647Z</time></trkpt><trkpt lat="44.3082183" lon="9.486495"><ele>521.0</ele><time>2026-04-04T14:20:43.648Z</time></trkpt><trkpt lat="44.3083033" lon="9.4864017"><ele>522.6666666666666</ele><time>2026-04-04T14:20:45.647Z</time></trkpt><trkpt lat="44.3083617" lon="9.486355"><ele>524.3333333333333</ele><time>2026-04-04T14:20:46.647Z</time></trkpt><trkpt lat="44.3084417" lon="9.4863067"><ele>526.0</ele><time>2026-04-04T14:20:47.647Z</time></trkpt><trkpt lat="44.3085233" lon="9.4862733"><ele>527.6666666666666</ele><time>2026-04-04T14:20:48.647Z</time></trkpt><trkpt lat="44.30859" lon="9.486255"><ele>529.3333333333334</ele><time>2026-04-04T14:20:49.648Z</time></trkpt><trkpt lat="44.3087017" lon="9.486245"><ele>531.0</ele><time>2026-04-04T14:20:51.647Z</time></trkpt><trkpt lat="44.3087967" lon="9.4863067"><ele>532.6</ele><time>2026-04-04T14:20:53.648Z</time></trkpt><trkpt lat="44.308825" lon="9.4864483"><ele>534.2</ele><time>2026-04-04T14:20:55.648Z</time></trkpt><trkpt lat="44.3087283" lon="9.4865617"><ele>535.8</ele><time>2026-04-04T14:20:57.647Z</time></trkpt><trkpt lat="44.3086517" lon="9.4866067"><ele>537.4</ele><time>2026-04-04T14:20:58.647Z</time></trkpt><trkpt lat="44.3085717" lon="9.4866667"><ele>539.0</ele><time>2026-04-04T14:20:59.647Z</time></trkpt><trkpt lat="44.30851" lon="9.4867083"><ele>539.0</ele><time>2026-04-04T14:21:00.646Z</time></trkpt><trkpt lat="44.308455" lon="9.486825"><ele>539.0</ele><time>2026-04-04T14:21:02.647Z</time></trkpt><trkpt lat="44.3084883" lon="9.4869367"><ele>539.0</ele><time>2026-04-04T14:21:04.646Z</time></trkpt><trkpt lat="44.3085933" lon="9.4869333"><ele>539.0</ele><time>2026-04-04T14:21:06.646Z</time></trkpt><trkpt lat="44.30866" lon="9.4868667"><ele>539.0</ele><time>2026-04-04T14:21:07.647Z</time></trkpt><trkpt lat="44.3087317" lon="9.4867817"><ele>539.0</ele><time>2026-04-04T14:21:08.646Z</time></trkpt><trkpt lat="44.308795" lon="9.4867333"><ele>539.0</ele><time>2026-04-04T14:21:09.646Z</time></trkpt><trkpt lat="44.30886" lon="9.4867233"><ele>539.0</ele><time>2026-04-04T14:21:10.646Z</time></trkpt><trkpt lat="44.308925" lon="9.4867433"><ele>539.0</ele><time>2026-04-04T14:21:11.647Z</time></trkpt><trkpt lat="44.3089883" lon="9.4867933"><ele>539.0</ele><time>2026-04-04T14:21:12.647Z</time></trkpt><trkpt lat="44.3090583" lon="9.486855"><ele>539.0</ele><time>2026-04-04T14:21:13.646Z</time></trkpt><trkpt lat="44.309135" lon="9.486895"><ele>539.0</ele><time>2026-04-04T14:21:14.647Z</time></trkpt><trkpt lat="44.3092083" lon="9.48692"><ele>540.6666666666666</ele><time>2026-04-04T14:21:15.646Z</time></trkpt><trkpt lat="44.309285" lon="9.48694"><ele>542.3333333333333</ele><time>2026-04-04T14:21:16.646Z</time></trkpt><trkpt lat="44.30936" lon="9.4869483"><ele>544.0</ele><time>2026-04-04T14:21:17.646Z</time></trkpt><trkpt lat="44.3094383" lon="9.4869367"><ele>545.6666666666666</ele><time>2026-04-04T14:21:18.646Z</time></trkpt><trkpt lat="44.3095167" lon="9.4869217"><ele>547.3333333333334</ele><time>2026-04-04T14:21:19.647Z</time></trkpt><trkpt lat="44.3095933" lon="9.4869333"><ele>549.0</ele><time>2026-04-04T14:21:20.646Z</time></trkpt><trkpt lat="44.3096583" lon="9.4869533"><ele>549.0</ele><time>2026-04-04T14:21:21.646Z</time></trkpt><trkpt lat="44.3097767" lon="9.4870283"><ele>557.0</ele><time>2026-04-04T14:21:23.646Z</time></trkpt><trkpt lat="44.3098617" lon="9.4871217"><ele>557.0</ele><time>2026-04-04T14:21:25.646Z</time></trkpt></trkseg><trkseg><trkpt lat="44.3099833" lon="9.48722"><ele>557.0</ele><time>2026-04-04T14:40:23.649Z</time></trkpt><trkpt lat="44.3101" lon="9.4872617"><ele>557.0</ele><time>2026-04-04T14:40:25.649Z</time></trkpt><trkpt lat="44.3101733" lon="9.48727"><ele>557.0</ele><time>2026-04-04T14:40:26.649Z</time></trkpt><trkpt lat="44.3102583" lon="9.4872667"><ele>557.0</ele><time>2026-04-04T14:40:27.649Z</time></trkpt><trkpt lat="44.31035" lon="9.487265"><ele>557.0</ele><time>2026-04-04T14:40:28.649Z</time></trkpt><trkpt lat="44.31045" lon="9.4872717"><ele>557.0</ele><time>2026-04-04T14:40:29.65Z</time></trkpt><trkpt lat="44.3105483" lon="9.487285"><ele>557.0</ele><time>2026-04-04T14:40:30.649Z</time></trkpt><trkpt lat="44.3106483" lon="9.4872983"><ele>557.0</ele><time>2026-04-04T14:40:31.649Z</time></trkpt><trkpt lat="44.3107333" lon="9.4873167"><ele>557.0</ele><time>2026-04-04T14:40:32.65Z</time></trkpt><trkpt lat="44.3108017" lon="9.4873583"><ele>557.0</ele><time>2026-04-04T14:40:33.65Z</time></trkpt><trkpt lat="44.3108717" lon="9.4874217"><ele>557.0</ele><time>2026-04-04T14:40:35.649Z</time></trkpt><trkpt lat="44.3109233" lon="9.487585"><ele>557.8333333333333</ele><time>2026-04-04T14:40:51.649Z</time></trkpt><trkpt lat="44.3109717" lon="9.4877367"><ele>558.6666666666666</ele><time>2026-04-04T14:40:53.649Z</time></trkpt><trkpt lat="44.311005" lon="9.4878117"><ele>559.5</ele><time>2026-04-04T14:40:54.649Z</time></trkpt><trkpt lat="44.3110467" lon="9.48789"><ele>560.3333333333334</ele><time>2026-04-04T14:40:55.649Z</time></trkpt><trkpt lat="44.3110867" lon="9.487965"><ele>561.1666666666667</ele><time>2026-04-04T14:40:56.649Z</time></trkpt><trkpt lat="44.31116" lon="9.4880817"><ele>562.0</ele><time>2026-04-04T14:40:58.65Z</time></trkpt><trkpt lat="44.3112167" lon="9.4881933"><ele>562.0</ele><time>2026-04-04T14:41:00.65Z</time></trkpt><trkpt lat="44.3113067" lon="9.488275"><ele>562.0</ele><time>2026-04-04T14:41:02.649Z</time></trkpt><trkpt lat="44.3113683" lon="9.4882933"><ele>562.0</ele><time>2026-04-04T14:41:03.649Z</time></trkpt><trkpt lat="44.3114417" lon="9.4883017"><ele>562.0</ele><time>2026-04-04T14:41:04.65Z</time></trkpt><trkpt lat="44.311525" lon="9.4882967"><ele>562.0</ele><time>2026-04-04T14:41:05.649Z</time></trkpt><trkpt lat="44.3116117" lon="9.4882933"><ele>562.0</ele><time>2026-04-04T14:41:06.649Z</time></trkpt><trkpt lat="44.311675" lon="9.488305"><ele>563.1666666666667</ele><time>2026-04-04T14:41:07.65Z</time></trkpt><trkpt lat="44.3117683" lon="9.4883767"><ele>564.3333333333334</ele><time>2026-04-04T14:41:09.65Z</time></trkpt><trkpt lat="44.311815" lon="9.4885217"><ele>565.5</ele><time>2026-04-04T14:41:11.649Z</time></trkpt><trkpt lat="44.311825" lon="9.48861"><ele>566.6666666666666</ele><time>2026-04-04T14:41:12.649Z</time></trkpt><trkpt lat="44.3118267" lon="9.4887067"><ele>567.8333333333333</ele><time>2026-04-04T14:41:13.65Z</time></trkpt><trkpt lat="44.3118283" lon="9.4888167"><ele>569.0</ele><time>2026-04-04T14:41:14.649Z</time></trkpt><trkpt lat="44.3118183" lon="9.4889367"><ele>569.4285714285714</ele><time>2026-04-04T14:41:15.649Z</time></trkpt><trkpt lat="44.3118" lon="9.4890483"><ele>569.8571428571429</ele><time>2026-04-04T14:41:16.65Z</time></trkpt><trkpt lat="44.31178" lon="9.4891517"><ele>570.2857142857142</ele><time>2026-04-04T14:41:17.65Z</time></trkpt><trkpt lat="44.3117583" lon="9.4892433"><ele>570.7142857142858</ele><time>2026-04-04T14:41:18.649Z</time></trkpt><trkpt lat="44.311735" lon="9.4893367"><ele>571.1428571428571</ele><time>2026-04-04T14:41:19.65Z</time></trkpt><trkpt lat="44.311715" lon="9.48943"><ele>571.5714285714286</ele><time>2026-04-04T14:41:20.649Z</time></trkpt><trkpt lat="44.3117017" lon="9.4895167"><ele>572.0</ele><time>2026-04-04T14:41:21.65Z</time></trkpt><trkpt lat="44.3117333" lon="9.4896667"><ele>571.9999999999999</ele><time>2026-04-04T14:41:23.649Z</time></trkpt><trkpt lat="44.31178" lon="9.4897333"><ele>572.0</ele><time>2026-04-04T14:41:24.649Z</time></trkpt><trkpt lat="44.3118333" lon="9.4897967"><ele>572.0</ele><time>2026-04-04T14:41:25.649Z</time></trkpt><trkpt lat="44.3118917" lon="9.48987"><ele>572.0</ele><time>2026-04-04T14:41:26.649Z</time></trkpt><trkpt lat="44.31194" lon="9.489945"><ele>572.0</ele><time>2026-04-04T14:41:27.649Z</time></trkpt><trkpt lat="44.311995" lon="9.4900183"><ele>571.9999999999999</ele><time>2026-04-04T14:41:28.649Z</time></trkpt><trkpt lat="44.3120467" lon="9.490075"><ele>572.0</ele><time>2026-04-04T14:41:29.649Z</time></trkpt><trkpt lat="44.3121683" lon="9.4901333"><ele>574.2</ele><time>2026-04-04T14:41:31.649Z</time></trkpt><trkpt lat="44.312245" lon="9.4901517"><ele>576.4000000000001</ele><time>2026-04-04T14:41:32.649Z</time></trkpt><trkpt lat="44.3123133" lon="9.4901733"><ele>578.5999999999999</ele><time>2026-04-04T14:41:33.649Z</time></trkpt><trkpt lat="44.3124067" lon="9.4902517"><ele>580.8</ele><time>2026-04-04T14:41:35.649Z</time></trkpt><trkpt lat="44.3125017" lon="9.4903717"><ele>583.0</ele><time>2026-04-04T14:41:37.649Z</time></trkpt><trkpt lat="44.31255" lon="9.490445"><ele>583.0</ele><time>2026-04-04T14:41:38.65Z</time></trkpt><trkpt lat="44.3126017" lon="9.49051"><ele>583.0</ele><time>2026-04-04T14:41:39.649Z</time></trkpt><trkpt lat="44.312665" lon="9.49062"><ele>583.0</ele><time>2026-04-04T14:41:41.65Z</time></trkpt><trkpt lat="44.3126983" lon="9.4908017"><ele>583.0</ele><time>2026-04-04T14:41:43.65Z</time></trkpt><trkpt lat="44.3127083" lon="9.4909117"><ele>583.0</ele><time>2026-04-04T14:41:44.649Z</time></trkpt><trkpt lat="44.3127133" lon="9.4910233"><ele>583.0</ele><time>2026-04-04T14:41:45.649Z</time></trkpt><trkpt lat="44.3127117" lon="9.4911317"><ele>583.0</ele><time>2026-04-04T14:41:46.65Z</time></trkpt><trkpt lat="44.3127217" lon="9.491245"><ele>583.0</ele><time>2026-04-04T14:41:47.649Z</time></trkpt><trkpt lat="44.3127367" lon="9.4913433"><ele>583.0</ele><time>2026-04-04T14:41:48.649Z</time></trkpt><trkpt lat="44.3127483" lon="9.4914867"><ele>583.0</ele><time>2026-04-04T14:41:50.65Z</time></trkpt><trkpt lat="44.3127" lon="9.4916"><ele>583.0</ele><time>2026-04-04T14:41:53.649Z</time></trkpt><trkpt lat="44.3126067" lon="9.4916267"><ele>584.1999999999999</ele><time>2026-04-04T14:41:55.65Z</time></trkpt><trkpt lat="44.312495" lon="9.4916917"><ele>585.4</ele><time>2026-04-04T14:41:57.649Z</time></trkpt><trkpt lat="44.312445" lon="9.4917567"><ele>586.5999999999999</ele><time>2026-04-04T14:41:58.649Z</time></trkpt><trkpt lat="44.3123933" lon="9.4918433"><ele>587.8</ele><time>2026-04-04T14:41:59.65Z</time></trkpt><trkpt lat="44.312345" lon="9.491935"><ele>589.0</ele><time>2026-04-04T14:42:00.649Z</time></trkpt><trkpt lat="44.3122933" lon="9.4920567"><ele>590.6666666666667</ele><time>2026-04-04T14:42:02.649Z</time></trkpt><trkpt lat="44.3123" lon="9.4921733"><ele>592.3333333333334</ele><time>2026-04-04T14:42:04.649Z</time></trkpt><trkpt lat="44.3123467" lon="9.4923117"><ele>594.0</ele><time>2026-04-04T14:42:06.65Z</time></trkpt><trkpt lat="44.3123733" lon="9.4923967"><ele>595.6666666666666</ele><time>2026-04-04T14:42:07.649Z</time></trkpt><trkpt lat="44.3123983" lon="9.492495"><ele>597.3333333333333</ele><time>2026-04-04T14:42:08.65Z</time></trkpt><trkpt lat="44.3124233" lon="9.492605"><ele>599.0</ele><time>2026-04-04T14:42:09.65Z</time></trkpt><trkpt lat="44.3124383" lon="9.4926967"><ele>599.0</ele><time>2026-04-04T14:42:10.649Z</time></trkpt><trkpt lat="44.312445" lon="9.4928383"><ele>599.0</ele><time>2026-04-04T14:42:12.649Z</time></trkpt><trkpt lat="44.312415" lon="9.4929833"><ele>599.0</ele><time>2026-04-04T14:42:14.65Z</time></trkpt><trkpt lat="44.3124167" lon="9.49308"><ele>599.0</ele><time>2026-04-04T14:42:15.649Z</time></trkpt><trkpt lat="44.3124283" lon="9.49318"><ele>599.0</ele><time>2026-04-04T14:42:16.649Z</time></trkpt><trkpt lat="44.31245" lon="9.4932717"><ele>599.0</ele><time>2026-04-04T14:42:17.649Z</time></trkpt><trkpt lat="44.31248" lon="9.493355"><ele>600.2</ele><time>2026-04-04T14:42:18.649Z</time></trkpt><trkpt lat="44.3125167" lon="9.4934317"><ele>601.4</ele><time>2026-04-04T14:42:19.65Z</time></trkpt><trkpt lat="44.31258" lon="9.4935767"><ele>602.6</ele><time>2026-04-04T14:42:21.65Z</time></trkpt><trkpt lat="44.3126283" lon="9.493705"><ele>603.8</ele><time>2026-04-04T14:42:23.649Z</time></trkpt><trkpt lat="44.3126933" lon="9.4938433"><ele>605.0</ele><time>2026-04-04T14:42:25.65Z</time></trkpt><trkpt lat="44.31276" lon="9.4939483"><ele>607.6</ele><time>2026-04-04T14:42:27.649Z</time></trkpt><trkpt lat="44.3127433" lon="9.49406"><ele>610.2</ele><time>2026-04-04T14:42:44.649Z</time></trkpt><trkpt lat="44.31265" lon="9.494135"><ele>612.8</ele><time>2026-04-04T14:42:46.649Z</time></trkpt><trkpt lat="44.312535" lon="9.494145"><ele>615.4</ele><time>2026-04-04T14:42:48.65Z</time></trkpt><trkpt lat="44.312465" lon="9.4941367"><ele>618.0</ele><time>2026-04-04T14:42:49.65Z</time></trkpt><trkpt lat="44.312375" lon="9.4941383"><ele>618.0</ele><time>2026-04-04T14:42:50.649Z</time></trkpt><trkpt lat="44.3122833" lon="9.4941267"><ele>618.0</ele><time>2026-04-04T14:42:51.649Z</time></trkpt><trkpt lat="44.312185" lon="9.4941183"><ele>618.0</ele><time>2026-04-04T14:42:52.649Z</time></trkpt><trkpt lat="44.3120917" lon="9.4941183"><ele>618.0</ele><time>2026-04-04T14:42:53.649Z</time></trkpt><trkpt lat="44.3119967" lon="9.4941167"><ele>618.0</ele><time>2026-04-04T14:42:54.65Z</time></trkpt><trkpt lat="44.3119083" lon="9.494125"><ele>617.6666666666666</ele><time>2026-04-04T14:42:55.649Z</time></trkpt><trkpt lat="44.3118367" lon="9.4941417"><ele>617.3333333333334</ele><time>2026-04-04T14:42:56.649Z</time></trkpt><trkpt lat="44.311765" lon="9.4941833"><ele>617.0</ele><time>2026-04-04T14:42:57.649Z</time></trkpt><trkpt lat="44.3117083" lon="9.4942367"><ele>616.6666666666667</ele><time>2026-04-04T14:42:58.65Z</time></trkpt><trkpt lat="44.3116517" lon="9.49431"><ele>616.3333333333334</ele><time>2026-04-04T14:42:59.65Z</time></trkpt><trkpt lat="44.3115967" lon="9.4943967"><ele>616.0</ele><time>2026-04-04T14:43:00.65Z</time></trkpt><trkpt lat="44.3115433" lon="9.4944833"><ele>616.0</ele><time>2026-04-04T14:43:01.649Z</time></trkpt><trkpt lat="44.31149" lon="9.4945583"><ele>616.0</ele><time>2026-04-04T14:43:02.649Z</time></trkpt><trkpt lat="44.311425" lon="9.49463"><ele>616.0</ele><time>2026-04-04T14:43:03.649Z</time></trkpt><trkpt lat="44.31137" lon="9.4947033"><ele>616.0</ele><time>2026-04-04T14:43:04.649Z</time></trkpt><trkpt lat="44.311315" lon="9.4947583"><ele>616.0</ele><time>2026-04-04T14:43:05.649Z</time></trkpt><trkpt lat="44.3112483" lon="9.494795"><ele>616.0</ele><time>2026-04-04T14:43:06.65Z</time></trkpt><trkpt lat="44.3111833" lon="9.4948333"><ele>616.0</ele><time>2026-04-04T14:43:07.65Z</time></trkpt><trkpt lat="44.31108" lon="9.49487"><ele>618.8</ele><time>2026-04-04T14:43:09.65Z</time></trkpt><trkpt lat="44.3109917" lon="9.4948117"><ele>621.6</ele><time>2026-04-04T14:43:11.649Z</time></trkpt><trkpt lat="44.310895" lon="9.494735"><ele>624.4</ele><time>2026-04-04T14:43:13.65Z</time></trkpt><trkpt lat="44.3107833" lon="9.4947417"><ele>627.2</ele><time>2026-04-04T14:43:15.649Z</time></trkpt><trkpt lat="44.310715" lon="9.494795"><ele>630.0</ele><time>2026-04-04T14:43:17.649Z</time></trkpt><trkpt lat="44.31066" lon="9.4948717"><ele>630.0</ele><time>2026-04-04T14:43:21.65Z</time></trkpt><trkpt lat="44.3106117" lon="9.4949317"><ele>630.0</ele><time>2026-04-04T14:43:23.649Z</time></trkpt><trkpt lat="44.3105217" lon="9.4950433"><ele>630.0</ele><time>2026-04-04T14:43:25.65Z</time></trkpt><trkpt lat="44.3104617" lon="9.4951133"><ele>630.0</ele><time>2026-04-04T14:43:26.649Z</time></trkpt><trkpt lat="44.3103917" lon="9.4951967"><ele>630.0</ele><time>2026-04-04T14:43:27.649Z</time></trkpt><trkpt lat="44.31032" lon="9.4952933"><ele>629.0</ele><time>2026-04-04T14:43:28.65Z</time></trkpt><trkpt lat="44.3102517" lon="9.4953817"><ele>628.0</ele><time>2026-04-04T14:43:29.649Z</time></trkpt><trkpt lat="44.3102017" lon="9.4954667"><ele>627.0</ele><time>2026-04-04T14:43:30.649Z</time></trkpt><trkpt lat="44.31016" lon="9.4955617"><ele>626.0</ele><time>2026-04-04T14:43:31.649Z</time></trkpt><trkpt lat="44.3101217" lon="9.4956533"><ele>625.0</ele><time>2026-04-04T14:43:32.649Z</time></trkpt><trkpt lat="44.3100833" lon="9.4957383"><ele>624.0</ele><time>2026-04-04T14:43:33.649Z</time></trkpt><trkpt lat="44.310055" lon="9.4958233"><ele>626.4</ele><time>2026-04-04T14:43:34.649Z</time></trkpt><trkpt lat="44.3099983" lon="9.4959867"><ele>628.8</ele><time>2026-04-04T14:43:36.65Z</time></trkpt><trkpt lat="44.3099583" lon="9.4960917"><ele>631.2</ele><time>2026-04-04T14:43:37.65Z</time></trkpt><trkpt lat="44.3099233" lon="9.4962017"><ele>633.6</ele><time>2026-04-04T14:43:38.649Z</time></trkpt><trkpt lat="44.3098867" lon="9.49631"><ele>636.0</ele><time>2026-04-04T14:43:39.65Z</time></trkpt><trkpt lat="44.30985" lon="9.496415"><ele>635.0</ele><time>2026-04-04T14:43:40.649Z</time></trkpt><trkpt lat="44.3098067" lon="9.49652"><ele>634.0</ele><time>2026-04-04T14:43:41.65Z</time></trkpt><trkpt lat="44.3097533" lon="9.49662"><ele>633.0</ele><time>2026-04-04T14:43:42.649Z</time></trkpt><trkpt lat="44.3097017" lon="9.4967117"><ele>632.0</ele><time>2026-04-04T14:43:43.648Z</time></trkpt><trkpt lat="44.3096683" lon="9.4968167"><ele>631.0</ele><time>2026-04-04T14:43:44.648Z</time></trkpt><trkpt lat="44.309655" lon="9.4969317"><ele>630.0</ele><time>2026-04-04T14:43:45.648Z</time></trkpt><trkpt lat="44.3096567" lon="9.497065"><ele>631.0</ele><time>2026-04-04T14:43:46.648Z</time></trkpt><trkpt lat="44.3096767" lon="9.4971817"><ele>632.0</ele><time>2026-04-04T14:43:47.648Z</time></trkpt><trkpt lat="44.3097117" lon="9.4972817"><ele>633.0</ele><time>2026-04-04T14:43:48.648Z</time></trkpt><trkpt lat="44.3097583" lon="9.4973683"><ele>634.0</ele><time>2026-04-04T14:43:49.648Z</time></trkpt><trkpt lat="44.3098117" lon="9.4974233"><ele>635.0</ele><time>2026-04-04T14:43:50.648Z</time></trkpt><trkpt lat="44.3098917" lon="9.4974567"><ele>636.0</ele><time>2026-04-04T14:43:51.648Z</time></trkpt><trkpt lat="44.3099883" lon="9.4974467"><ele>638.0</ele><time>2026-04-04T14:43:52.648Z</time></trkpt><trkpt lat="44.3100833" lon="9.4974383"><ele>640.0</ele><time>2026-04-04T14:43:53.648Z</time></trkpt><trkpt lat="44.31017" lon="9.49744"><ele>642.0</ele><time>2026-04-04T14:43:54.648Z</time></trkpt><trkpt lat="44.3102517" lon="9.4974517"><ele>644.0</ele><time>2026-04-04T14:43:55.648Z</time></trkpt><trkpt lat="44.31033" lon="9.4974967"><ele>646.0</ele><time>2026-04-04T14:43:56.648Z</time></trkpt><trkpt lat="44.3103967" lon="9.497545"><ele>648.0</ele><time>2026-04-04T14:43:57.648Z</time></trkpt><trkpt lat="44.3104933" lon="9.497605"><ele>648.0</ele><time>2026-04-04T14:43:59.648Z</time></trkpt><trkpt lat="44.3105583" lon="9.4975083"><ele>648.0</ele><time>2026-04-04T14:44:01.649Z</time></trkpt><trkpt lat="44.3105383" lon="9.49736"><ele>648.0</ele><time>2026-04-04T14:44:03.648Z</time></trkpt><trkpt lat="44.3105067" lon="9.4972783"><ele>648.0</ele><time>2026-04-04T14:44:04.648Z</time></trkpt><trkpt lat="44.310485" lon="9.497175"><ele>648.0</ele><time>2026-04-04T14:44:05.648Z</time></trkpt><trkpt lat="44.31047" lon="9.49705"><ele>648.0</ele><time>2026-04-04T14:44:06.649Z</time></trkpt><trkpt lat="44.310465" lon="9.4969167"><ele>647.8333333333334</ele><time>2026-04-04T14:44:07.648Z</time></trkpt><trkpt lat="44.3104767" lon="9.4967967"><ele>647.6666666666666</ele><time>2026-04-04T14:44:08.648Z</time></trkpt><trkpt lat="44.310505" lon="9.4966917"><ele>647.5</ele><time>2026-04-04T14:44:09.648Z</time></trkpt><trkpt lat="44.310545" lon="9.4965983"><ele>647.3333333333333</ele><time>2026-04-04T14:44:10.648Z</time></trkpt><trkpt lat="44.31059" lon="9.4965267"><ele>647.1666666666666</ele><time>2026-04-04T14:44:11.648Z</time></trkpt><trkpt lat="44.3106933" lon="9.496455"><ele>647.0</ele><time>2026-04-04T14:44:13.649Z</time></trkpt><trkpt lat="44.31077" lon="9.49651"><ele>649.8333333333333</ele><time>2026-04-04T14:44:15.648Z</time></trkpt><trkpt lat="44.3107717" lon="9.4966367"><ele>652.6666666666666</ele><time>2026-04-04T14:44:17.648Z</time></trkpt><trkpt lat="44.3107633" lon="9.4967317"><ele>655.5</ele><time>2026-04-04T14:44:18.648Z</time></trkpt><trkpt lat="44.3107633" lon="9.49684"><ele>658.3333333333334</ele><time>2026-04-04T14:44:19.649Z</time></trkpt><trkpt lat="44.3107767" lon="9.49694"><ele>661.1666666666667</ele><time>2026-04-04T14:44:20.648Z</time></trkpt><trkpt lat="44.3108067" lon="9.4970317"><ele>664.0</ele><time>2026-04-04T14:44:21.648Z</time></trkpt><trkpt lat="44.3108567" lon="9.4971183"><ele>664.0</ele><time>2026-04-04T14:44:22.648Z</time></trkpt><trkpt lat="44.3109317" lon="9.49719"><ele>664.0</ele><time>2026-04-04T14:44:23.648Z</time></trkpt><trkpt lat="44.311025" lon="9.49724"><ele>664.0</ele><time>2026-04-04T14:44:24.648Z</time></trkpt><trkpt lat="44.311115" lon="9.4972683"><ele>664.0</ele><time>2026-04-04T14:44:25.649Z</time></trkpt><trkpt lat="44.3111817" lon="9.4972883"><ele>664.0</ele><time>2026-04-04T14:44:26.648Z</time></trkpt><trkpt lat="44.31128" lon="9.4973983"><ele>664.0</ele><time>2026-04-04T14:44:28.648Z</time></trkpt><trkpt lat="44.3113267" lon="9.4974833"><ele>664.0</ele><time>2026-04-04T14:44:29.648Z</time></trkpt><trkpt lat="44.3113817" lon="9.497575"><ele>664.0</ele><time>2026-04-04T14:44:30.648Z</time></trkpt><trkpt lat="44.311435" lon="9.4976567"><ele>664.0</ele><time>2026-04-04T14:44:31.648Z</time></trkpt><trkpt lat="44.3114933" lon="9.4977683"><ele>664.0</ele><time>2026-04-04T14:44:33.649Z</time></trkpt><trkpt lat="44.3114867" lon="9.49788"><ele>664.0</ele><time>2026-04-04T14:44:36.648Z</time></trkpt><trkpt lat="44.3114883" lon="9.498"><ele>666.8333333333334</ele><time>2026-04-04T14:44:38.648Z</time></trkpt><trkpt lat="44.3115033" lon="9.4981733"><ele>669.6666666666667</ele><time>2026-04-04T14:44:40.648Z</time></trkpt><trkpt lat="44.311515" lon="9.498275"><ele>672.5</ele><time>2026-04-04T14:44:41.648Z</time></trkpt><trkpt lat="44.311525" lon="9.4983883"><ele>675.3333333333334</ele><time>2026-04-04T14:44:42.649Z</time></trkpt><trkpt lat="44.3115317" lon="9.498505"><ele>678.1666666666666</ele><time>2026-04-04T14:44:43.648Z</time></trkpt><trkpt lat="44.3115517" lon="9.4986017"><ele>681.0</ele><time>2026-04-04T14:44:44.648Z</time></trkpt><trkpt lat="44.31164" lon="9.4986917"><ele>681.0</ele><time>2026-04-04T14:44:46.648Z</time></trkpt><trkpt lat="44.31176" lon="9.4986933"><ele>681.0</ele><time>2026-04-04T14:44:48.648Z</time></trkpt><trkpt lat="44.311835" lon="9.498705"><ele>681.0</ele><time>2026-04-04T14:44:49.648Z</time></trkpt><trkpt lat="44.3119233" lon="9.4987383"><ele>681.0</ele><time>2026-04-04T14:44:50.649Z</time></trkpt><trkpt lat="44.3119983" lon="9.4987917"><ele>681.0</ele><time>2026-04-04T14:44:51.649Z</time></trkpt><trkpt lat="44.3120633" lon="9.49886"><ele>681.8</ele><time>2026-04-04T14:44:52.648Z</time></trkpt><trkpt lat="44.312125" lon="9.4989267"><ele>682.5999999999999</ele><time>2026-04-04T14:44:53.648Z</time></trkpt><trkpt lat="44.3121867" lon="9.499"><ele>683.4</ele><time>2026-04-04T14:44:54.648Z</time></trkpt><trkpt lat="44.3122417" lon="9.4990683"><ele>684.2</ele><time>2026-04-04T14:44:55.648Z</time></trkpt><trkpt lat="44.312355" lon="9.49911"><ele>685.0</ele><time>2026-04-04T14:44:57.648Z</time></trkpt><trkpt lat="44.3124683" lon="9.4991267"><ele>687.5</ele><time>2026-04-04T14:44:59.648Z</time></trkpt><trkpt lat="44.3125317" lon="9.4991233"><ele>690.0</ele><time>2026-04-04T14:45:00.648Z</time></trkpt><trkpt lat="44.3126067" lon="9.4991383"><ele>692.5</ele><time>2026-04-04T14:45:01.648Z</time></trkpt><trkpt lat="44.312685" lon="9.4991517"><ele>695.0</ele><time>2026-04-04T14:45:02.648Z</time></trkpt><trkpt lat="44.3127667" lon="9.4991567"><ele>697.5</ele><time>2026-04-04T14:45:03.648Z</time></trkpt><trkpt lat="44.31284" lon="9.4991817"><ele>700.0</ele><time>2026-04-04T14:45:04.648Z</time></trkpt><trkpt lat="44.3129467" lon="9.4992133"><ele>700.0</ele><time>2026-04-04T14:45:06.649Z</time></trkpt><trkpt lat="44.3130283" lon="9.49927"><ele>700.0</ele><time>2026-04-04T14:45:08.648Z</time></trkpt><trkpt lat="44.3130333" lon="9.4993683"><ele>700.0</ele><time>2026-04-04T14:45:10.648Z</time></trkpt><trkpt lat="44.3129867" lon="9.4994583"><ele>700.0</ele><time>2026-04-04T14:45:12.648Z</time></trkpt><trkpt lat="44.3128933" lon="9.4995333"><ele>700.0</ele><time>2026-04-04T14:45:14.649Z</time></trkpt><trkpt lat="44.3128533" lon="9.4996067"><ele>700.0</ele><time>2026-04-04T14:45:16.648Z</time></trkpt><trkpt lat="44.31282" lon="9.499695"><ele>702.0</ele><time>2026-04-04T14:46:05.648Z</time></trkpt><trkpt lat="44.31275" lon="9.4998483"><ele>704.0</ele><time>2026-04-04T14:46:07.648Z</time></trkpt><trkpt lat="44.312715" lon="9.499935"><ele>706.0</ele><time>2026-04-04T14:46:08.649Z</time></trkpt><trkpt lat="44.31267" lon="9.5000283"><ele>708.0</ele><time>2026-04-04T14:46:09.649Z</time></trkpt><trkpt lat="44.3126267" lon="9.5001183"><ele>710.0</ele><time>2026-04-04T14:46:10.648Z</time></trkpt><trkpt lat="44.3125383" lon="9.5002283"><ele>710.0</ele><time>2026-04-04T14:46:12.649Z</time></trkpt><trkpt lat="44.312475" lon="9.5002567"><ele>710.0</ele><time>2026-04-04T14:46:13.649Z</time></trkpt><trkpt lat="44.3124083" lon="9.5003017"><ele>710.0</ele><time>2026-04-04T14:46:14.649Z</time></trkpt><trkpt lat="44.3123367" lon="9.5003467"><ele>710.0</ele><time>2026-04-04T14:46:15.648Z</time></trkpt><trkpt lat="44.3122633" lon="9.5004133"><ele>710.0</ele><time>2026-04-04T14:46:16.649Z</time></trkpt><trkpt lat="44.31218" lon="9.5004833"><ele>710.0</ele><time>2026-04-04T14:46:17.648Z</time></trkpt><trkpt lat="44.31211" lon="9.5005633"><ele>711.8</ele><time>2026-04-04T14:46:18.648Z</time></trkpt><trkpt lat="44.3120433" lon="9.5006617"><ele>713.6</ele><time>2026-04-04T14:46:19.648Z</time></trkpt><trkpt lat="44.31198" lon="9.5007517"><ele>715.4000000000001</ele><time>2026-04-04T14:46:20.648Z</time></trkpt><trkpt lat="44.3119067" lon="9.5008483"><ele>717.2</ele><time>2026-04-04T14:46:21.649Z</time></trkpt><trkpt lat="44.3118233" lon="9.500935"><ele>719.0</ele><time>2026-04-04T14:46:22.649Z</time></trkpt><trkpt lat="44.3117517" lon="9.50103"><ele>719.0</ele><time>2026-04-04T14:46:23.648Z</time></trkpt><trkpt lat="44.311695" lon="9.5011167"><ele>719.0</ele><time>2026-04-04T14:46:24.648Z</time></trkpt><trkpt lat="44.31165" lon="9.5011933"><ele>719.0</ele><time>2026-04-04T14:46:25.649Z</time></trkpt><trkpt lat="44.3115433" lon="9.5012517"><ele>719.0</ele><time>2026-04-04T14:46:27.649Z</time></trkpt><trkpt lat="44.3114067" lon="9.5012367"><ele>719.0</ele><time>2026-04-04T14:46:29.648Z</time></trkpt><trkpt lat="44.3113167" lon="9.5012267"><ele>717.8000000000001</ele><time>2026-04-04T14:46:30.648Z</time></trkpt><trkpt lat="44.3112383" lon="9.50123"><ele>716.6</ele><time>2026-04-04T14:46:31.648Z</time></trkpt><trkpt lat="44.3111417" lon="9.50123"><ele>715.4</ele><time>2026-04-04T14:46:33.648Z</time></trkpt><trkpt lat="44.311035" lon="9.5012767"><ele>714.2</ele><time>2026-04-04T14:46:35.648Z</time></trkpt><trkpt lat="44.3109583" lon="9.501335"><ele>713.0</ele><time>2026-04-04T14:46:36.648Z</time></trkpt><trkpt lat="44.3108867" lon="9.5014167"><ele>716.1666666666666</ele><time>2026-04-04T14:46:37.648Z</time></trkpt><trkpt lat="44.3108217" lon="9.501515"><ele>719.3333333333333</ele><time>2026-04-04T14:46:38.648Z</time></trkpt><trkpt lat="44.310775" lon="9.501615"><ele>722.5</ele><time>2026-04-04T14:46:39.648Z</time></trkpt><trkpt lat="44.3107483" lon="9.5017017"><ele>725.6666666666666</ele><time>2026-04-04T14:46:40.648Z</time></trkpt><trkpt lat="44.310735" lon="9.501815"><ele>728.8333333333334</ele><time>2026-04-04T14:46:41.648Z</time></trkpt><trkpt lat="44.3107167" lon="9.5019433"><ele>732.0</ele><time>2026-04-04T14:46:42.648Z</time></trkpt><trkpt lat="44.3106917" lon="9.5020767"><ele>730.2</ele><time>2026-04-04T14:46:43.648Z</time></trkpt><trkpt lat="44.310655" lon="9.5022033"><ele>728.4000000000001</ele><time>2026-04-04T14:46:44.649Z</time></trkpt><trkpt lat="44.3106133" lon="9.50233"><ele>726.5999999999999</ele><time>2026-04-04T14:46:45.648Z</time></trkpt><trkpt lat="44.31057" lon="9.502435"><ele>724.8</ele><time>2026-04-04T14:46:46.648Z</time></trkpt><trkpt lat="44.3105367" lon="9.50252"><ele>723.0</ele><time>2026-04-04T14:46:47.648Z</time></trkpt><trkpt lat="44.310485" lon="9.5026517"><ele>723.0</ele><time>2026-04-04T14:46:49.649Z</time></trkpt><trkpt lat="44.3105067" lon="9.5027733"><ele>723.0</ele><time>2026-04-04T14:46:51.649Z</time></trkpt><trkpt lat="44.3106" lon="9.5027917"><ele>723.0</ele><time>2026-04-04T14:46:53.649Z</time></trkpt><trkpt lat="44.31066" lon="9.5027617"><ele>723.0</ele><time>2026-04-04T14:46:54.648Z</time></trkpt><trkpt lat="44.3107283" lon="9.5027367"><ele>723.0</ele><time>2026-04-04T14:46:55.649Z</time></trkpt><trkpt lat="44.3108067" lon="9.5027117"><ele>723.0</ele><time>2026-04-04T14:46:56.648Z</time></trkpt><trkpt lat="44.3109017" lon="9.5026883"><ele>727.4</ele><time>2026-04-04T14:46:57.649Z</time></trkpt><trkpt lat="44.3109967" lon="9.5026617"><ele>731.8</ele><time>2026-04-04T14:46:58.649Z</time></trkpt><trkpt lat="44.3110933" lon="9.5026433"><ele>736.2</ele><time>2026-04-04T14:46:59.648Z</time></trkpt><trkpt lat="44.3111867" lon="9.5026217"><ele>740.6</ele><time>2026-04-04T14:47:00.648Z</time></trkpt><trkpt lat="44.3112617" lon="9.5026033"><ele>745.0</ele><time>2026-04-04T14:47:01.648Z</time></trkpt><trkpt lat="44.3113483" lon="9.502565"><ele>745.0</ele><time>2026-04-04T14:47:03.648Z</time></trkpt><trkpt lat="44.311445" lon="9.50254"><ele>745.0</ele><time>2026-04-04T14:47:05.648Z</time></trkpt><trkpt lat="44.311535" lon="9.5025883"><ele>745.0</ele><time>2026-04-04T14:47:07.649Z</time></trkpt><trkpt lat="44.311535" lon="9.5027183"><ele>745.0</ele><time>2026-04-04T14:47:09.649Z</time></trkpt><trkpt lat="44.3114333" lon="9.5028333"><ele>745.0</ele><time>2026-04-04T14:47:11.648Z</time></trkpt><trkpt lat="44.3113667" lon="9.5029083"><ele>748.6</ele><time>2026-04-04T14:47:12.649Z</time></trkpt><trkpt lat="44.3112983" lon="9.5030017"><ele>752.2</ele><time>2026-04-04T14:47:13.647Z</time></trkpt><trkpt lat="44.3112317" lon="9.5030967"><ele>755.8</ele><time>2026-04-04T14:47:14.647Z</time></trkpt><trkpt lat="44.31117" lon="9.5031683"><ele>759.4</ele><time>2026-04-04T14:47:15.647Z</time></trkpt><trkpt lat="44.3111217" lon="9.5032383"><ele>763.0</ele><time>2026-04-04T14:47:16.647Z</time></trkpt><trkpt lat="44.311015" lon="9.503335"><ele>763.0</ele><time>2026-04-04T14:47:18.648Z</time></trkpt><trkpt lat="44.3109033" lon="9.5034083"><ele>763.0</ele><time>2026-04-04T14:47:20.647Z</time></trkpt><trkpt lat="44.3107983" lon="9.5034933"><ele>763.0</ele><time>2026-04-04T14:47:22.648Z</time></trkpt><trkpt lat="44.3107533" lon="9.503635"><ele>763.0</ele><time>2026-04-04T14:47:24.647Z</time></trkpt><trkpt lat="44.3107617" lon="9.5037317"><ele>763.0</ele><time>2026-04-04T14:47:25.647Z</time></trkpt><trkpt lat="44.3107983" lon="9.50383"><ele>764.5</ele><time>2026-04-04T14:47:26.647Z</time></trkpt><trkpt lat="44.3108483" lon="9.5039367"><ele>766.0</ele><time>2026-04-04T14:47:27.647Z</time></trkpt><trkpt lat="44.3109033" lon="9.5040317"><ele>767.5</ele><time>2026-04-04T14:47:28.647Z</time></trkpt><trkpt lat="44.3109667" lon="9.5041"><ele>769.0</ele><time>2026-04-04T14:47:29.647Z</time></trkpt><trkpt lat="44.311045" lon="9.5041317"><ele>770.4999999999999</ele><time>2026-04-04T14:47:30.648Z</time></trkpt><trkpt lat="44.31113" lon="9.504165"><ele>772.0</ele><time>2026-04-04T14:47:31.647Z</time></trkpt><trkpt lat="44.3112017" lon="9.5042233"><ele>772.0</ele><time>2026-04-04T14:47:32.648Z</time></trkpt><trkpt lat="44.3112767" lon="9.5043"><ele>772.0</ele><time>2026-04-04T14:47:33.648Z</time></trkpt><trkpt lat="44.311355" lon="9.5043983"><ele>772.0</ele><time>2026-04-04T14:47:34.648Z</time></trkpt><trkpt lat="44.3114317" lon="9.5045083"><ele>772.0</ele><time>2026-04-04T14:47:35.647Z</time></trkpt><trkpt lat="44.3115083" lon="9.50462"><ele>772.0</ele><time>2026-04-04T14:47:36.647Z</time></trkpt><trkpt lat="44.3115767" lon="9.504735"><ele>774.2</ele><time>2026-04-04T14:47:37.647Z</time></trkpt><trkpt lat="44.3116467" lon="9.504855"><ele>776.4000000000001</ele><time>2026-04-04T14:47:38.647Z</time></trkpt><trkpt lat="44.3117117" lon="9.5049783"><ele>778.5999999999999</ele><time>2026-04-04T14:47:39.648Z</time></trkpt><trkpt lat="44.311775" lon="9.5051117"><ele>780.8</ele><time>2026-04-04T14:47:40.647Z</time></trkpt><trkpt lat="44.3118167" lon="9.5052367"><ele>783.0</ele><time>2026-04-04T14:47:41.647Z</time></trkpt><trkpt lat="44.311835" lon="9.5053483"><ele>782.5999999999999</ele><time>2026-04-04T14:47:42.647Z</time></trkpt><trkpt lat="44.311865" lon="9.50549"><ele>782.1999999999999</ele><time>2026-04-04T14:47:43.647Z</time></trkpt><trkpt lat="44.3118867" lon="9.5056483"><ele>781.8</ele><time>2026-04-04T14:47:44.647Z</time></trkpt><trkpt lat="44.31192" lon="9.5057783"><ele>781.4</ele><time>2026-04-04T14:47:45.647Z</time></trkpt><trkpt lat="44.3119567" lon="9.505905"><ele>781.0</ele><time>2026-04-04T14:47:46.647Z</time></trkpt><trkpt lat="44.3120033" lon="9.5060217"><ele>781.0</ele><time>2026-04-04T14:47:47.647Z</time></trkpt><trkpt lat="44.31205" lon="9.50613"><ele>781.0</ele><time>2026-04-04T14:47:48.647Z</time></trkpt><trkpt lat="44.3121117" lon="9.5062317"><ele>781.0</ele><time>2026-04-04T14:47:49.648Z</time></trkpt><trkpt lat="44.3121883" lon="9.5063167"><ele>781.0</ele><time>2026-04-04T14:47:50.648Z</time></trkpt><trkpt lat="44.3122783" lon="9.5063883"><ele>781.0</ele><time>2026-04-04T14:47:51.647Z</time></trkpt><trkpt lat="44.3123567" lon="9.5064633"><ele>784.0</ele><time>2026-04-04T14:47:52.648Z</time></trkpt><trkpt lat="44.31244" lon="9.5065367"><ele>787.0</ele><time>2026-04-04T14:47:53.647Z</time></trkpt><trkpt lat="44.312535" lon="9.5066167"><ele>790.0</ele><time>2026-04-04T14:47:54.647Z</time></trkpt><trkpt lat="44.3126283" lon="9.5067083"><ele>793.0</ele><time>2026-04-04T14:47:55.647Z</time></trkpt><trkpt lat="44.31272" lon="9.5068"><ele>796.0</ele><time>2026-04-04T14:47:56.647Z</time></trkpt><trkpt lat="44.3128033" lon="9.506895"><ele>795.9999999999999</ele><time>2026-04-04T14:47:57.647Z</time></trkpt><trkpt lat="44.3128733" lon="9.506995"><ele>796.0</ele><time>2026-04-04T14:47:58.647Z</time></trkpt><trkpt lat="44.31293" lon="9.50709"><ele>796.0</ele><time>2026-04-04T14:47:59.648Z</time></trkpt><trkpt lat="44.3129867" lon="9.5071817"><ele>796.0</ele><time>2026-04-04T14:48:00.648Z</time></trkpt><trkpt lat="44.3130367" lon="9.5072717"><ele>795.9999999999999</ele><time>2026-04-04T14:48:01.647Z</time></trkpt><trkpt lat="44.3130883" lon="9.507345"><ele>796.0</ele><time>2026-04-04T14:48:02.648Z</time></trkpt><trkpt lat="44.313135" lon="9.5074117"><ele>798.1666666666666</ele><time>2026-04-04T14:48:03.647Z</time></trkpt><trkpt lat="44.3132467" lon="9.5074917"><ele>800.3333333333333</ele><time>2026-04-04T14:48:05.647Z</time></trkpt><trkpt lat="44.3133183" lon="9.5075083"><ele>802.5</ele><time>2026-04-04T14:48:06.647Z</time></trkpt><trkpt lat="44.3133933" lon="9.507525"><ele>804.6666666666667</ele><time>2026-04-04T14:48:07.648Z</time></trkpt><trkpt lat="44.3134667" lon="9.5075533"><ele>806.8333333333334</ele><time>2026-04-04T14:48:08.647Z</time></trkpt><trkpt lat="44.31353" lon="9.5075767"><ele>809.0</ele><time>2026-04-04T14:48:09.648Z</time></trkpt><trkpt lat="44.3135917" lon="9.507625"><ele>809.0</ele><time>2026-04-04T14:48:10.647Z</time></trkpt><trkpt lat="44.3136683" lon="9.50776"><ele>809.0</ele><time>2026-04-04T14:48:12.648Z</time></trkpt><trkpt lat="44.3136967" lon="9.50784"><ele>809.0</ele><time>2026-04-04T14:48:13.647Z</time></trkpt><trkpt lat="44.313725" lon="9.508035"><ele>809.0</ele><time>2026-04-04T14:48:15.647Z</time></trkpt><trkpt lat="44.3137317" lon="9.5081717"><ele>809.0</ele><time>2026-04-04T14:48:16.647Z</time></trkpt><trkpt lat="44.3137333" lon="9.5083183"><ele>808.6666666666667</ele><time>2026-04-04T14:48:17.647Z</time></trkpt><trkpt lat="44.3137267" lon="9.50846"><ele>808.3333333333334</ele><time>2026-04-04T14:48:18.647Z</time></trkpt><trkpt lat="44.3137283" lon="9.5085733"><ele>808.0</ele><time>2026-04-04T14:48:19.648Z</time></trkpt><trkpt lat="44.3137317" lon="9.508665"><ele>807.6666666666667</ele><time>2026-04-04T14:48:20.647Z</time></trkpt><trkpt lat="44.3137167" lon="9.5087833"><ele>807.3333333333334</ele><time>2026-04-04T14:48:22.648Z</time></trkpt><trkpt lat="44.3136617" lon="9.5088883"><ele>807.0</ele><time>2026-04-04T14:48:24.647Z</time></trkpt><trkpt lat="44.3136" lon="9.5090317"><ele>808.6666666666666</ele><time>2026-04-04T14:48:26.647Z</time></trkpt><trkpt lat="44.313545" lon="9.509125"><ele>810.3333333333333</ele><time>2026-04-04T14:48:28.648Z</time></trkpt><trkpt lat="44.31352" lon="9.5092083"><ele>812.0</ele><time>2026-04-04T14:48:49.647Z</time></trkpt><trkpt lat="44.31345" lon="9.5093367"><ele>813.6666666666666</ele><time>2026-04-04T14:48:51.648Z</time></trkpt><trkpt lat="44.3133967" lon="9.509415"><ele>815.3333333333333</ele><time>2026-04-04T14:48:52.647Z</time></trkpt><trkpt lat="44.3133433" lon="9.5094983"><ele>817.0</ele><time>2026-04-04T14:48:53.647Z</time></trkpt><trkpt lat="44.313305" lon="9.5095767"><ele>818.8</ele><time>2026-04-04T14:48:54.647Z</time></trkpt><trkpt lat="44.3132683" lon="9.5097567"><ele>820.6</ele><time>2026-04-04T14:48:56.647Z</time></trkpt><trkpt lat="44.3132783" lon="9.5098583"><ele>822.4</ele><time>2026-04-04T14:48:57.647Z</time></trkpt><trkpt lat="44.313315" lon="9.5099783"><ele>824.1999999999999</ele><time>2026-04-04T14:48:58.647Z</time></trkpt><trkpt lat="44.3133567" lon="9.5100933"><ele>826.0</ele><time>2026-04-04T14:48:59.647Z</time></trkpt><trkpt lat="44.3133967" lon="9.5102"><ele>826.0</ele><time>2026-04-04T14:49:00.647Z</time></trkpt><trkpt lat="44.31343" lon="9.5103083"><ele>826.0</ele><time>2026-04-04T14:49:01.647Z</time></trkpt><trkpt lat="44.3134467" lon="9.5104167"><ele>826.0</ele><time>2026-04-04T14:49:02.647Z</time></trkpt><trkpt lat="44.3134567" lon="9.51052"><ele>826.0</ele><time>2026-04-04T14:49:03.647Z</time></trkpt><trkpt lat="44.313465" lon="9.5106133"><ele>826.0</ele><time>2026-04-04T14:49:04.647Z</time></trkpt><trkpt lat="44.3134733" lon="9.51071"><ele>826.0</ele><time>2026-04-04T14:49:05.647Z</time></trkpt><trkpt lat="44.3134767" lon="9.510805"><ele>826.0</ele><time>2026-04-04T14:49:06.647Z</time></trkpt><trkpt lat="44.313475" lon="9.5109817"><ele>826.4999999999999</ele><time>2026-04-04T14:49:08.647Z</time></trkpt><trkpt lat="44.3134917" lon="9.51114"><ele>827.0</ele><time>2026-04-04T14:49:10.648Z</time></trkpt><trkpt lat="44.31347" lon="9.51129"><ele>827.5</ele><time>2026-04-04T14:49:12.648Z</time></trkpt><trkpt lat="44.3134317" lon="9.511375"><ele>828.0</ele><time>2026-04-04T14:49:13.647Z</time></trkpt><trkpt lat="44.31338" lon="9.51145"><ele>828.4999999999999</ele><time>2026-04-04T14:49:14.647Z</time></trkpt><trkpt lat="44.3133167" lon="9.51151"><ele>829.0</ele><time>2026-04-04T14:49:15.647Z</time></trkpt><trkpt lat="44.3132667" lon="9.5115867"><ele>831.0</ele><time>2026-04-04T14:49:16.647Z</time></trkpt><trkpt lat="44.313215" lon="9.511755"><ele>833.0</ele><time>2026-04-04T14:49:18.647Z</time></trkpt><trkpt lat="44.31324" lon="9.5119267"><ele>835.0</ele><time>2026-04-04T14:49:20.648Z</time></trkpt><trkpt lat="44.3132617" lon="9.5120233"><ele>837.0</ele><time>2026-04-04T14:49:21.648Z</time></trkpt><trkpt lat="44.3132833" lon="9.5121383"><ele>839.0</ele><time>2026-04-04T14:49:22.648Z</time></trkpt><trkpt lat="44.3132983" lon="9.5122617"><ele>840.6666666666667</ele><time>2026-04-04T14:49:23.648Z</time></trkpt><trkpt lat="44.3133167" lon="9.51238"><ele>842.3333333333334</ele><time>2026-04-04T14:49:24.648Z</time></trkpt><trkpt lat="44.3133483" lon="9.5124767"><ele>844.0</ele><time>2026-04-04T14:49:25.647Z</time></trkpt><trkpt lat="44.3133917" lon="9.5125683"><ele>845.6666666666667</ele><time>2026-04-04T14:49:26.647Z</time></trkpt><trkpt lat="44.3134483" lon="9.5126633"><ele>847.3333333333334</ele><time>2026-04-04T14:49:27.647Z</time></trkpt><trkpt lat="44.3134983" lon="9.5127433"><ele>849.0</ele><time>2026-04-04T14:49:28.647Z</time></trkpt><trkpt lat="44.3135467" lon="9.5128083"><ele>849.0</ele><time>2026-04-04T14:49:29.647Z</time></trkpt><trkpt lat="44.3136033" lon="9.5129"><ele>849.0</ele><time>2026-04-04T14:49:32.647Z</time></trkpt><trkpt lat="44.313685" lon="9.51297"><ele>849.0</ele><time>2026-04-04T14:49:34.648Z</time></trkpt><trkpt lat="44.3137867" lon="9.5130083"><ele>849.0</ele><time>2026-04-04T14:49:36.647Z</time></trkpt><trkpt lat="44.31386" lon="9.5129267"><ele>849.0</ele><time>2026-04-04T14:49:38.647Z</time></trkpt><trkpt lat="44.313875" lon="9.5127817"><ele>849.0</ele><time>2026-04-04T14:49:40.647Z</time></trkpt><trkpt lat="44.31387" lon="9.512675"><ele>849.0</ele><time>2026-04-04T14:49:41.647Z</time></trkpt><trkpt lat="44.313855" lon="9.5125533"><ele>849.0</ele><time>2026-04-04T14:49:42.647Z</time></trkpt><trkpt lat="44.3138333" lon="9.5124133"><ele>849.0</ele><time>2026-04-04T14:49:43.647Z</time></trkpt><trkpt lat="44.3138067" lon="9.5122883"><ele>849.0</ele><time>2026-04-04T14:49:44.647Z</time></trkpt><trkpt lat="44.3138333" lon="9.51213"><ele>847.3333333333334</ele><time>2026-04-04T14:49:46.647Z</time></trkpt><trkpt lat="44.3138833" lon="9.5120633"><ele>845.6666666666667</ele><time>2026-04-04T14:49:47.647Z</time></trkpt><trkpt lat="44.3139533" lon="9.5120067"><ele>844.0</ele><time>2026-04-04T14:49:48.647Z</time></trkpt><trkpt lat="44.3140183" lon="9.5119633"><ele>842.3333333333334</ele><time>2026-04-04T14:49:49.647Z</time></trkpt><trkpt lat="44.314085" lon="9.5119033"><ele>840.6666666666667</ele><time>2026-04-04T14:49:50.647Z</time></trkpt><trkpt lat="44.3141517" lon="9.5118167"><ele>839.0</ele><time>2026-04-04T14:49:51.647Z</time></trkpt><trkpt lat="44.3142167" lon="9.5117083"><ele>842.8000000000001</ele><time>2026-04-04T14:49:52.647Z</time></trkpt><trkpt lat="44.31429" lon="9.5115783"><ele>846.6</ele><time>2026-04-04T14:49:53.647Z</time></trkpt><trkpt lat="44.3143417" lon="9.5114283"><ele>850.4</ele><time>2026-04-04T14:49:54.647Z</time></trkpt><trkpt lat="44.3143867" lon="9.5113033"><ele>854.2</ele><time>2026-04-04T14:49:55.647Z</time></trkpt><trkpt lat="44.3144283" lon="9.51119"><ele>858.0</ele><time>2026-04-04T14:49:56.648Z</time></trkpt><trkpt lat="44.314475" lon="9.5110833"><ele>858.0</ele><time>2026-04-04T14:49:57.647Z</time></trkpt><trkpt lat="44.3145283" lon="9.51098"><ele>858.0</ele><time>2026-04-04T14:49:58.647Z</time></trkpt><trkpt lat="44.31459" lon="9.51089"><ele>858.0</ele><time>2026-04-04T14:49:59.647Z</time></trkpt><trkpt lat="44.314655" lon="9.510795"><ele>858.0</ele><time>2026-04-04T14:50:00.647Z</time></trkpt><trkpt lat="44.3147167" lon="9.5107033"><ele>858.0</ele><time>2026-04-04T14:50:01.647Z</time></trkpt><trkpt lat="44.314775" lon="9.5106183"><ele>858.0</ele><time>2026-04-04T14:50:02.647Z</time></trkpt><trkpt lat="44.314835" lon="9.510545"><ele>860.5</ele><time>2026-04-04T14:50:03.648Z</time></trkpt><trkpt lat="44.314885" lon="9.5104683"><ele>863.0</ele><time>2026-04-04T14:50:04.648Z</time></trkpt><trkpt lat="44.314935" lon="9.5103883"><ele>865.5</ele><time>2026-04-04T14:50:05.648Z</time></trkpt><trkpt lat="44.3149833" lon="9.5103167"><ele>868.0</ele><time>2026-04-04T14:50:06.647Z</time></trkpt><trkpt lat="44.315025" lon="9.5102183"><ele>870.5</ele><time>2026-04-04T14:50:07.647Z</time></trkpt><trkpt lat="44.3150617" lon="9.5101183"><ele>873.0</ele><time>2026-04-04T14:50:08.647Z</time></trkpt><trkpt lat="44.3151133" lon="9.5099933"><ele>873.0</ele><time>2026-04-04T14:50:09.647Z</time></trkpt><trkpt lat="44.31517" lon="9.509835"><ele>873.0</ele><time>2026-04-04T14:50:10.647Z</time></trkpt><trkpt lat="44.3152383" lon="9.5096783"><ele>873.0</ele><time>2026-04-04T14:50:11.647Z</time></trkpt><trkpt lat="44.3152967" lon="9.50954"><ele>873.0</ele><time>2026-04-04T14:50:12.647Z</time></trkpt><trkpt lat="44.3153533" lon="9.5094383"><ele>871.1666666666666</ele><time>2026-04-04T14:50:13.647Z</time></trkpt><trkpt lat="44.315415" lon="9.5093433"><ele>869.3333333333333</ele><time>2026-04-04T14:50:14.648Z</time></trkpt><trkpt lat="44.3154867" lon="9.50928"><ele>867.5</ele><time>2026-04-04T14:50:15.648Z</time></trkpt><trkpt lat="44.3155517" lon="9.5092033"><ele>865.6666666666666</ele><time>2026-04-04T14:50:16.647Z</time></trkpt><trkpt lat="44.3156033" lon="9.50913"><ele>863.8333333333333</ele><time>2026-04-04T14:50:17.648Z</time></trkpt><trkpt lat="44.3156383" lon="9.509055"><ele>862.0</ele><time>2026-04-04T14:50:18.647Z</time></trkpt><trkpt lat="44.3156783" lon="9.5089433"><ele>862.8</ele><time>2026-04-04T14:50:20.647Z</time></trkpt><trkpt lat="44.3156683" lon="9.50879"><ele>863.6</ele><time>2026-04-04T14:50:22.647Z</time></trkpt><trkpt lat="44.315635" lon="9.5086883"><ele>864.3999999999999</ele><time>2026-04-04T14:50:23.647Z</time></trkpt><trkpt lat="44.3155833" lon="9.5085767"><ele>865.1999999999999</ele><time>2026-04-04T14:50:24.647Z</time></trkpt><trkpt lat="44.315505" lon="9.5084617"><ele>866.0</ele><time>2026-04-04T14:50:25.647Z</time></trkpt><trkpt lat="44.3154317" lon="9.5083583"><ele>866.0</ele><time>2026-04-04T14:50:26.648Z</time></trkpt><trkpt lat="44.3153817" lon="9.508275"><ele>865.9999999999999</ele><time>2026-04-04T14:50:27.647Z</time></trkpt><trkpt lat="44.3153433" lon="9.5081767"><ele>865.9999999999999</ele><time>2026-04-04T14:50:29.648Z</time></trkpt><trkpt lat="44.315345" lon="9.5079817"><ele>866.0</ele><time>2026-04-04T14:50:31.647Z</time></trkpt><trkpt lat="44.3153417" lon="9.5078333"><ele>866.0</ele><time>2026-04-04T14:50:32.647Z</time></trkpt><trkpt lat="44.315345" lon="9.5076717"><ele>867.0</ele><time>2026-04-04T14:50:33.647Z</time></trkpt><trkpt lat="44.3153417" lon="9.5075083"><ele>867.9999999999999</ele><time>2026-04-04T14:50:34.647Z</time></trkpt><trkpt lat="44.31533" lon="9.5073567"><ele>868.9999999999999</ele><time>2026-04-04T14:50:35.647Z</time></trkpt><trkpt lat="44.3153117" lon="9.5072283"><ele>870.0</ele><time>2026-04-04T14:50:36.647Z</time></trkpt><trkpt lat="44.31529" lon="9.507125"><ele>871.0</ele><time>2026-04-04T14:50:37.647Z</time></trkpt><trkpt lat="44.3152667" lon="9.50703"><ele>872.5999999999999</ele><time>2026-04-04T14:50:38.648Z</time></trkpt><trkpt lat="44.3152167" lon="9.50691"><ele>874.1999999999999</ele><time>2026-04-04T14:50:40.648Z</time></trkpt><trkpt lat="44.3151283" lon="9.5068317"><ele>875.8000000000001</ele><time>2026-04-04T14:50:42.648Z</time></trkpt><trkpt lat="44.3150217" lon="9.5067833"><ele>877.4000000000001</ele><time>2026-04-04T14:50:44.647Z</time></trkpt><trkpt lat="44.3149367" lon="9.5067133"><ele>879.0</ele><time>2026-04-04T14:50:46.647Z</time></trkpt><trkpt lat="44.3149083" lon="9.5065667"><ele>879.0</ele><time>2026-04-04T14:50:48.646Z</time></trkpt><trkpt lat="44.31492" lon="9.50648"><ele>879.0</ele><time>2026-04-04T14:50:49.646Z</time></trkpt><trkpt lat="44.3149417" lon="9.50639"><ele>879.0</ele><time>2026-04-04T14:50:50.646Z</time></trkpt><trkpt lat="44.3149617" lon="9.5063017"><ele>879.0</ele><time>2026-04-04T14:50:51.646Z</time></trkpt><trkpt lat="44.3149783" lon="9.5062133"><ele>879.0</ele><time>2026-04-04T14:50:52.646Z</time></trkpt><trkpt lat="44.31499" lon="9.5061267"><ele>879.0</ele><time>2026-04-04T14:50:53.646Z</time></trkpt><trkpt lat="44.3150183" lon="9.505965"><ele>879.0</ele><time>2026-04-04T14:50:55.646Z</time></trkpt><trkpt lat="44.31505" lon="9.505845"><ele>879.4000000000001</ele><time>2026-04-04T14:50:57.647Z</time></trkpt><trkpt lat="44.3150817" lon="9.505745"><ele>879.8000000000001</ele><time>2026-04-04T14:51:00.646Z</time></trkpt><trkpt lat="44.3151467" lon="9.50572"><ele>880.1999999999999</ele><time>2026-04-04T14:51:15.646Z</time></trkpt><trkpt lat="44.315265" lon="9.5057567"><ele>880.5999999999999</ele><time>2026-04-04T14:51:17.646Z</time></trkpt><trkpt lat="44.3153667" lon="9.5058583"><ele>881.0</ele><time>2026-04-04T14:51:19.646Z</time></trkpt><trkpt lat="44.3154117" lon="9.5059317"><ele>881.0</ele><time>2026-04-04T14:51:20.647Z</time></trkpt><trkpt lat="44.3154433" lon="9.5060183"><ele>880.9999999999999</ele><time>2026-04-04T14:51:21.646Z</time></trkpt><trkpt lat="44.3154667" lon="9.50611"><ele>880.9999999999999</ele><time>2026-04-04T14:51:22.646Z</time></trkpt><trkpt lat="44.31552" lon="9.5062433"><ele>881.0</ele><time>2026-04-04T14:51:24.646Z</time></trkpt><trkpt lat="44.315585" lon="9.5063633"><ele>881.0</ele><time>2026-04-04T14:51:26.646Z</time></trkpt><trkpt lat="44.3156867" lon="9.506455"><ele>884.1999999999999</ele><time>2026-04-04T14:51:28.646Z</time></trkpt><trkpt lat="44.3157933" lon="9.5065133"><ele>887.3999999999999</ele><time>2026-04-04T14:51:30.646Z</time></trkpt><trkpt lat="44.3159017" lon="9.5065633"><ele>890.6</ele><time>2026-04-04T14:51:32.647Z</time></trkpt><trkpt lat="44.3159883" lon="9.50663"><ele>893.8</ele><time>2026-04-04T14:51:34.646Z</time></trkpt><trkpt lat="44.3160817" lon="9.5066933"><ele>897.0</ele><time>2026-04-04T14:51:36.646Z</time></trkpt><trkpt lat="44.31618" lon="9.50676"><ele>897.0</ele><time>2026-04-04T14:51:38.646Z</time></trkpt><trkpt lat="44.316275" lon="9.5068167"><ele>897.0</ele><time>2026-04-04T14:51:40.646Z</time></trkpt><trkpt lat="44.3163933" lon="9.5068483"><ele>897.0</ele><time>2026-04-04T14:51:42.646Z</time></trkpt><trkpt lat="44.3165167" lon="9.50683"><ele>897.0</ele><time>2026-04-04T14:51:44.646Z</time></trkpt><trkpt lat="44.3165833" lon="9.50683"><ele>897.0</ele><time>2026-04-04T14:51:45.647Z</time></trkpt><trkpt lat="44.31665" lon="9.5068367"><ele>898.3333333333334</ele><time>2026-04-04T14:51:46.647Z</time></trkpt><trkpt lat="44.3167167" lon="9.5068467"><ele>899.6666666666667</ele><time>2026-04-04T14:51:47.647Z</time></trkpt><trkpt lat="44.3168267" lon="9.5068467"><ele>901.0</ele><time>2026-04-04T14:51:49.646Z</time></trkpt><trkpt lat="44.3169433" lon="9.50682"><ele>902.3333333333334</ele><time>2026-04-04T14:51:51.646Z</time></trkpt><trkpt lat="44.31701" lon="9.506805"><ele>903.6666666666667</ele><time>2026-04-04T14:51:52.646Z</time></trkpt><trkpt lat="44.3170833" lon="9.5067833"><ele>905.0</ele><time>2026-04-04T14:51:53.646Z</time></trkpt><trkpt lat="44.317155" lon="9.506755"><ele>907.0000000000001</ele><time>2026-04-04T14:51:54.646Z</time></trkpt><trkpt lat="44.3172667" lon="9.5067033"><ele>909.0</ele><time>2026-04-04T14:51:56.647Z</time></trkpt><trkpt lat="44.3173233" lon="9.5066567"><ele>911.0</ele><time>2026-04-04T14:51:57.646Z</time></trkpt><trkpt lat="44.3173867" lon="9.5066083"><ele>913.0</ele><time>2026-04-04T14:51:58.646Z</time></trkpt><trkpt lat="44.3174467" lon="9.5065667"><ele>915.0000000000001</ele><time>2026-04-04T14:51:59.647Z</time></trkpt><trkpt lat="44.317515" lon="9.50654"><ele>917.0</ele><time>2026-04-04T14:52:00.646Z</time></trkpt><trkpt lat="44.3175783" lon="9.50653"><ele>917.0</ele><time>2026-04-04T14:52:01.646Z</time></trkpt><trkpt lat="44.3176983" lon="9.5065217"><ele>917.0</ele><time>2026-04-04T14:52:03.647Z</time></trkpt><trkpt lat="44.3177617" lon="9.50652"><ele>917.0</ele><time>2026-04-04T14:52:04.646Z</time></trkpt><trkpt lat="44.3178783" lon="9.50653"><ele>917.0</ele><time>2026-04-04T14:52:06.647Z</time></trkpt><trkpt lat="44.3179433" lon="9.5065467"><ele>917.0</ele><time>2026-04-04T14:52:07.646Z</time></trkpt><trkpt lat="44.3180367" lon="9.5065883"><ele>917.3333333333334</ele><time>2026-04-04T14:52:09.646Z</time></trkpt><trkpt lat="44.3181017" lon="9.506615"><ele>917.6666666666667</ele><time>2026-04-04T14:52:11.647Z</time></trkpt><trkpt lat="44.3181817" lon="9.50662"><ele>918.0</ele><time>2026-04-04T14:52:13.646Z</time></trkpt><trkpt lat="44.3182533" lon="9.5066167"><ele>918.3333333333333</ele><time>2026-04-04T14:52:15.646Z</time></trkpt><trkpt lat="44.31833" lon="9.5066317"><ele>918.6666666666666</ele><time>2026-04-04T14:52:18.647Z</time></trkpt><trkpt lat="44.3183967" lon="9.5066433"><ele>919.0</ele><time>2026-04-04T14:52:20.646Z</time></trkpt><trkpt lat="44.31849" lon="9.5066367"><ele>919.0</ele><time>2026-04-04T14:52:22.646Z</time></trkpt><trkpt lat="44.3185967" lon="9.5066433"><ele>919.0000000000001</ele><time>2026-04-04T14:52:24.647Z</time></trkpt><trkpt lat="44.3186833" lon="9.506695"><ele>919.0000000000001</ele><time>2026-04-04T14:52:26.647Z</time></trkpt><trkpt lat="44.3187983" lon="9.50672"><ele>919.0</ele><time>2026-04-04T14:52:28.646Z</time></trkpt><trkpt lat="44.3188617" lon="9.5067233"><ele>919.0</ele><time>2026-04-04T14:52:29.646Z</time></trkpt><trkpt lat="44.31895" lon="9.50667"><ele>918.0</ele><time>2026-04-04T14:52:31.646Z</time></trkpt><trkpt lat="44.3190233" lon="9.5065983"><ele>917.0000000000001</ele><time>2026-04-04T14:52:33.646Z</time></trkpt><trkpt lat="44.319125" lon="9.5065033"><ele>916.0000000000001</ele><time>2026-04-04T14:52:35.647Z</time></trkpt><trkpt lat="44.31918" lon="9.5064183"><ele>915.0</ele><time>2026-04-04T14:52:36.646Z</time></trkpt><trkpt lat="44.3192333" lon="9.5063033"><ele>914.0</ele><time>2026-04-04T14:52:37.646Z</time></trkpt><trkpt lat="44.3192817" lon="9.5061783"><ele>914.0000000000001</ele><time>2026-04-04T14:52:38.646Z</time></trkpt><trkpt lat="44.3193317" lon="9.506055"><ele>914.0</ele><time>2026-04-04T14:52:39.646Z</time></trkpt><trkpt lat="44.3193633" lon="9.50594"><ele>914.0</ele><time>2026-04-04T14:52:40.647Z</time></trkpt><trkpt lat="44.3193817" lon="9.5058267"><ele>914.0</ele><time>2026-04-04T14:52:41.647Z</time></trkpt><trkpt lat="44.31939" lon="9.5057217"><ele>914.0000000000001</ele><time>2026-04-04T14:52:42.646Z</time></trkpt><trkpt lat="44.31939" lon="9.5056133"><ele>914.0</ele><time>2026-04-04T14:52:43.646Z</time></trkpt><trkpt lat="44.3193767" lon="9.5055117"><ele>913.5000000000001</ele><time>2026-04-04T14:52:44.646Z</time></trkpt><trkpt lat="44.319355" lon="9.5054067"><ele>913.0</ele><time>2026-04-04T14:52:45.646Z</time></trkpt><trkpt lat="44.31933" lon="9.505305"><ele>912.5</ele><time>2026-04-04T14:52:46.646Z</time></trkpt><trkpt lat="44.3193033" lon="9.5052117"><ele>912.0</ele><time>2026-04-04T14:52:47.646Z</time></trkpt><trkpt lat="44.31927" lon="9.505045"><ele>911.5000000000001</ele><time>2026-04-04T14:52:49.646Z</time></trkpt><trkpt lat="44.3192733" lon="9.5049267"><ele>911.0</ele><time>2026-04-04T14:52:51.646Z</time></trkpt><trkpt lat="44.3193017" lon="9.504845"><ele>911.0000000000001</ele><time>2026-04-04T14:52:53.646Z</time></trkpt><trkpt lat="44.3193583" lon="9.5047917"><ele>911.0</ele><time>2026-04-04T14:54:55.645Z</time></trkpt><trkpt lat="44.319465" lon="9.5047217"><ele>911.0</ele><time>2026-04-04T14:54:57.645Z</time></trkpt><trkpt lat="44.31953" lon="9.5046817"><ele>911.0</ele><time>2026-04-04T14:54:58.645Z</time></trkpt><trkpt lat="44.3196033" lon="9.50464"><ele>911.0000000000001</ele><time>2026-04-04T14:54:59.645Z</time></trkpt><trkpt lat="44.3196783" lon="9.504605"><ele>911.0</ele><time>2026-04-04T14:55:00.645Z</time></trkpt><trkpt lat="44.31975" lon="9.5045817"><ele>910.0000000000001</ele><time>2026-04-04T14:55:01.645Z</time></trkpt><trkpt lat="44.3198283" lon="9.5045633"><ele>909.0</ele><time>2026-04-04T14:55:02.645Z</time></trkpt><trkpt lat="44.3199033" lon="9.5045533"><ele>908.0</ele><time>2026-04-04T14:55:03.646Z</time></trkpt><trkpt lat="44.31998" lon="9.5045467"><ele>907.0</ele><time>2026-04-04T14:55:04.645Z</time></trkpt><trkpt lat="44.3200667" lon="9.504545"><ele>906.0000000000001</ele><time>2026-04-04T14:55:05.646Z</time></trkpt><trkpt lat="44.32016" lon="9.5045233"><ele>905.0</ele><time>2026-04-04T14:55:06.645Z</time></trkpt><trkpt lat="44.32026" lon="9.50449"><ele>905.0</ele><time>2026-04-04T14:55:07.646Z</time></trkpt><trkpt lat="44.32037" lon="9.5044417"><ele>905.0</ele><time>2026-04-04T14:55:08.645Z</time></trkpt><trkpt lat="44.320475" lon="9.5044"><ele>905.0</ele><time>2026-04-04T14:55:09.645Z</time></trkpt><trkpt lat="44.3205567" lon="9.5043717"><ele>905.0</ele><time>2026-04-04T14:55:10.646Z</time></trkpt><trkpt lat="44.320635" lon="9.5043317"><ele>905.0</ele><time>2026-04-04T14:55:11.645Z</time></trkpt><trkpt lat="44.3207083" lon="9.5042567"><ele>906.4</ele><time>2026-04-04T14:55:12.646Z</time></trkpt><trkpt lat="44.320785" lon="9.5041717"><ele>907.8</ele><time>2026-04-04T14:55:13.645Z</time></trkpt><trkpt lat="44.32086" lon="9.5040883"><ele>909.2</ele><time>2026-04-04T14:55:14.645Z</time></trkpt><trkpt lat="44.3209433" lon="9.5040133"><ele>910.6</ele><time>2026-04-04T14:55:15.645Z</time></trkpt><trkpt lat="44.3210233" lon="9.503955"><ele>912.0</ele><time>2026-04-04T14:55:16.646Z</time></trkpt><trkpt lat="44.3211033" lon="9.5039183"><ele>912.0</ele><time>2026-04-04T14:55:17.645Z</time></trkpt><trkpt lat="44.3211867" lon="9.5038833"><ele>912.0</ele><time>2026-04-04T14:55:18.645Z</time></trkpt><trkpt lat="44.3212717" lon="9.50384"><ele>912.0</ele><time>2026-04-04T14:55:19.645Z</time></trkpt><trkpt lat="44.32134" lon="9.5038017"><ele>912.0</ele><time>2026-04-04T14:55:20.645Z</time></trkpt><trkpt lat="44.3214467" lon="9.5037583"><ele>912.0</ele><time>2026-04-04T14:55:22.645Z</time></trkpt><trkpt lat="44.3215483" lon="9.5037683"><ele>912.6666666666666</ele><time>2026-04-04T14:55:24.646Z</time></trkpt><trkpt lat="44.321655" lon="9.5038467"><ele>913.3333333333333</ele><time>2026-04-04T14:55:26.646Z</time></trkpt><trkpt lat="44.321705" lon="9.5039267"><ele>914.0</ele><time>2026-04-04T14:55:27.645Z</time></trkpt><trkpt lat="44.3217483" lon="9.50401"><ele>914.6666666666666</ele><time>2026-04-04T14:55:28.646Z</time></trkpt><trkpt lat="44.321785" lon="9.5040917"><ele>915.3333333333333</ele><time>2026-04-04T14:55:29.645Z</time></trkpt><trkpt lat="44.3218667" lon="9.5041717"><ele>916.0</ele><time>2026-04-04T14:55:31.645Z</time></trkpt><trkpt lat="44.32198" lon="9.504125"><ele>916.0</ele><time>2026-04-04T14:55:33.645Z</time></trkpt><trkpt lat="44.3220533" lon="9.5040383"><ele>915.9999999999999</ele><time>2026-04-04T14:55:34.645Z</time></trkpt><trkpt lat="44.3221033" lon="9.50394"><ele>915.9999999999999</ele><time>2026-04-04T14:55:35.646Z</time></trkpt><trkpt lat="44.3221567" lon="9.503825"><ele>916.0</ele><time>2026-04-04T14:55:36.646Z</time></trkpt><trkpt lat="44.3222117" lon="9.5037083"><ele>916.0</ele><time>2026-04-04T14:55:37.646Z</time></trkpt><trkpt lat="44.3222583" lon="9.5036117"><ele>913.0</ele><time>2026-04-04T14:55:38.646Z</time></trkpt><trkpt lat="44.3222967" lon="9.5035317"><ele>909.9999999999999</ele><time>2026-04-04T14:55:39.645Z</time></trkpt><trkpt lat="44.3223683" lon="9.5034233"><ele>906.9999999999999</ele><time>2026-04-04T14:55:41.645Z</time></trkpt><trkpt lat="44.3224567" lon="9.5033683"><ele>904.0</ele><time>2026-04-04T14:55:43.646Z</time></trkpt><trkpt lat="44.3225717" lon="9.5033817"><ele>901.0</ele><time>2026-04-04T14:55:45.645Z</time></trkpt><trkpt lat="44.32264" lon="9.5033933"><ele>900.9999999999999</ele><time>2026-04-04T14:55:46.645Z</time></trkpt><trkpt lat="44.3227067" lon="9.5033917"><ele>901.0</ele><time>2026-04-04T14:55:47.646Z</time></trkpt><trkpt lat="44.3228083" lon="9.5033083"><ele>901.0</ele><time>2026-04-04T14:55:49.645Z</time></trkpt><trkpt lat="44.3228733" lon="9.50327"><ele>901.0</ele><time>2026-04-04T14:55:50.645Z</time></trkpt><trkpt lat="44.3229483" lon="9.5032433"><ele>900.9999999999999</ele><time>2026-04-04T14:55:51.645Z</time></trkpt><trkpt lat="44.32305" lon="9.5032383"><ele>901.0</ele><time>2026-04-04T14:55:52.645Z</time></trkpt><trkpt lat="44.3231367" lon="9.50324"><ele>901.3333333333333</ele><time>2026-04-04T14:55:53.646Z</time></trkpt><trkpt lat="44.3232067" lon="9.5032583"><ele>901.6666666666666</ele><time>2026-04-04T14:55:54.646Z</time></trkpt><trkpt lat="44.3232767" lon="9.5032983"><ele>902.0</ele><time>2026-04-04T14:55:55.645Z</time></trkpt><trkpt lat="44.3233483" lon="9.5033467"><ele>902.3333333333333</ele><time>2026-04-04T14:55:56.645Z</time></trkpt><trkpt lat="44.3234433" lon="9.503385"><ele>902.6666666666666</ele><time>2026-04-04T14:55:58.645Z</time></trkpt><trkpt lat="44.3235333" lon="9.5033283"><ele>903.0</ele><time>2026-04-04T14:56:00.645Z</time></trkpt><trkpt lat="44.3235883" lon="9.5032683"><ele>903.0</ele><time>2026-04-04T14:56:01.646Z</time></trkpt><trkpt lat="44.323635" lon="9.503205"><ele>903.0</ele><time>2026-04-04T14:56:02.645Z</time></trkpt><trkpt lat="44.323685" lon="9.5030917"><ele>903.0</ele><time>2026-04-04T14:56:04.646Z</time></trkpt><trkpt lat="44.3237433" lon="9.5030067"><ele>903.0</ele><time>2026-04-04T14:56:22.645Z</time></trkpt><trkpt lat="44.3238183" lon="9.502935"><ele>903.0</ele><time>2026-04-04T14:56:24.645Z</time></trkpt><trkpt lat="44.3239133" lon="9.5028567"><ele>903.0</ele><time>2026-04-04T14:56:26.645Z</time></trkpt><trkpt lat="44.323975" lon="9.50282"><ele>903.8333333333334</ele><time>2026-04-04T14:56:27.646Z</time></trkpt><trkpt lat="44.3240333" lon="9.5027867"><ele>904.6666666666667</ele><time>2026-04-04T14:56:28.646Z</time></trkpt><trkpt lat="44.3241267" lon="9.5027517"><ele>905.5</ele><time>2026-04-04T14:56:30.645Z</time></trkpt><trkpt lat="44.3242067" lon="9.5027417"><ele>906.3333333333334</ele><time>2026-04-04T14:56:32.645Z</time></trkpt><trkpt lat="44.32427" lon="9.5027317"><ele>907.1666666666667</ele><time>2026-04-04T14:56:34.645Z</time></trkpt><trkpt lat="44.3243533" lon="9.50276"><ele>908.0</ele><time>2026-04-04T14:56:37.645Z</time></trkpt><trkpt lat="44.32442" lon="9.5027867"><ele>908.0000000000001</ele><time>2026-04-04T14:56:40.645Z</time></trkpt><trkpt lat="44.3244717" lon="9.5027133"><ele>908.0</ele><time>2026-04-04T14:56:45.645Z</time></trkpt><trkpt lat="44.3244217" lon="9.5026383"><ele>908.0</ele><time>2026-04-04T14:58:27.644Z</time></trkpt><trkpt lat="44.3243233" lon="9.502645"><ele>908.0</ele><time>2026-04-04T14:58:29.645Z</time></trkpt><trkpt lat="44.3242367" lon="9.50262"><ele>908.0000000000001</ele><time>2026-04-04T14:58:31.644Z</time></trkpt><trkpt lat="44.32415" lon="9.5026317"><ele>908.0</ele><time>2026-04-04T14:58:34.644Z</time></trkpt><trkpt lat="44.3240867" lon="9.5026583"><ele>908.0</ele><time>2026-04-04T14:58:37.644Z</time></trkpt><trkpt lat="44.3239717" lon="9.5027483"><ele>908.0</ele><time>2026-04-04T15:07:40.651Z</time></trkpt><trkpt lat="44.3238833" lon="9.5029017"><ele>908.0</ele><time>2026-04-04T15:07:45.652Z</time></trkpt><trkpt lat="44.3238333" lon="9.50296"><ele>908.0</ele><time>2026-04-04T15:07:47.651Z</time></trkpt><trkpt lat="44.3237567" lon="9.5030083"><ele>908.0</ele><time>2026-04-04T15:07:50.651Z</time></trkpt><trkpt lat="44.3236883" lon="9.5029283"><ele>906.0</ele><time>2026-04-04T15:08:13.651Z</time></trkpt><trkpt lat="44.32363" lon="9.5027633"><ele>904.0</ele><time>2026-04-04T15:08:17.651Z</time></trkpt><trkpt lat="44.323565" lon="9.5025667"><ele>902.0</ele><time>2026-04-04T15:08:20.652Z</time></trkpt><trkpt lat="44.3235383" lon="9.5024317"><ele>900.0</ele><time>2026-04-04T15:08:22.651Z</time></trkpt><trkpt lat="44.32347" lon="9.502285"><ele>900.0</ele><time>2026-04-04T15:08:25.651Z</time></trkpt><trkpt lat="44.3233533" lon="9.5022467"><ele>900.0</ele><time>2026-04-04T15:08:28.652Z</time></trkpt><trkpt lat="44.3232283" lon="9.50222"><ele>900.0</ele><time>2026-04-04T15:08:31.652Z</time></trkpt><trkpt lat="44.3230317" lon="9.502165"><ele>900.0</ele><time>2026-04-04T15:08:35.652Z</time></trkpt><trkpt lat="44.32288" lon="9.502055"><ele>897.75</ele><time>2026-04-04T15:08:38.652Z</time></trkpt><trkpt lat="44.32276" lon="9.5019667"><ele>895.5</ele><time>2026-04-04T15:08:41.651Z</time></trkpt><trkpt lat="44.322685" lon="9.5019167"><ele>893.25</ele><time>2026-04-04T15:08:43.652Z</time></trkpt><trkpt lat="44.3225083" lon="9.5018283"><ele>891.0</ele><time>2026-04-04T15:08:47.651Z</time></trkpt><trkpt lat="44.32242" lon="9.501745"><ele>891.0</ele><time>2026-04-04T15:08:50.651Z</time></trkpt><trkpt lat="44.32237" lon="9.5016817"><ele>891.0</ele><time>2026-04-04T15:08:58.651Z</time></trkpt><trkpt lat="44.3223417" lon="9.5015867"><ele>891.0</ele><time>2026-04-04T15:09:00.651Z</time></trkpt><trkpt lat="44.3223033" lon="9.501385"><ele>891.0</ele><time>2026-04-04T15:09:03.652Z</time></trkpt><trkpt lat="44.3222967" lon="9.5011017"><ele>891.5</ele><time>2026-04-04T15:09:06.652Z</time></trkpt><trkpt lat="44.3223067" lon="9.5010083"><ele>892.0</ele><time>2026-04-04T15:09:07.651Z</time></trkpt><trkpt lat="44.3223533" lon="9.50078"><ele>892.5</ele><time>2026-04-04T15:09:10.651Z</time></trkpt><trkpt lat="44.32245" lon="9.5005233"><ele>893.0</ele><time>2026-04-04T15:09:13.651Z</time></trkpt><trkpt lat="44.322475" lon="9.5004167"><ele>890.3333333333334</ele><time>2026-04-04T15:09:14.651Z</time></trkpt><trkpt lat="44.322515" lon="9.500175"><ele>887.6666666666667</ele><time>2026-04-04T15:09:16.652Z</time></trkpt><trkpt lat="44.3225583" lon="9.4998517"><ele>885.0</ele><time>2026-04-04T15:09:19.651Z</time></trkpt><trkpt lat="44.322615" lon="9.4996183"><ele>883.5</ele><time>2026-04-04T15:09:22.651Z</time></trkpt><trkpt lat="44.32266" lon="9.4993583"><ele>882.0</ele><time>2026-04-04T15:09:26.651Z</time></trkpt><trkpt lat="44.322675" lon="9.499255"><ele>880.5</ele><time>2026-04-04T15:09:29.651Z</time></trkpt><trkpt lat="44.322705" lon="9.4991433"><ele>879.0</ele><time>2026-04-04T15:09:45.651Z</time></trkpt><trkpt lat="44.3227517" lon="9.4990083"><ele>879.0</ele><time>2026-04-04T15:09:47.65Z</time></trkpt><trkpt lat="44.322765" lon="9.498855"><ele>879.0000000000001</ele><time>2026-04-04T15:09:49.651Z</time></trkpt><trkpt lat="44.3227917" lon="9.4986967"><ele>879.0000000000001</ele><time>2026-04-04T15:09:51.65Z</time></trkpt><trkpt lat="44.322815" lon="9.4985617"><ele>879.0</ele><time>2026-04-04T15:09:53.65Z</time></trkpt><trkpt lat="44.3228117" lon="9.49842"><ele>879.0</ele><time>2026-04-04T15:09:55.65Z</time></trkpt><trkpt lat="44.3227817" lon="9.498245"><ele>878.8333333333334</ele><time>2026-04-04T15:09:57.65Z</time></trkpt><trkpt lat="44.32276" lon="9.4981517"><ele>878.6666666666667</ele><time>2026-04-04T15:09:58.651Z</time></trkpt><trkpt lat="44.32274" lon="9.4980667"><ele>878.5</ele><time>2026-04-04T15:09:59.65Z</time></trkpt><trkpt lat="44.32273" lon="9.4979717"><ele>878.3333333333334</ele><time>2026-04-04T15:10:00.651Z</time></trkpt><trkpt lat="44.3227217" lon="9.49779"><ele>878.1666666666667</ele><time>2026-04-04T15:10:02.65Z</time></trkpt><trkpt lat="44.3227333" lon="9.4976717"><ele>878.0</ele><time>2026-04-04T15:10:03.65Z</time></trkpt><trkpt lat="44.3227533" lon="9.4975233"><ele>878.0000000000001</ele><time>2026-04-04T15:10:04.651Z</time></trkpt><trkpt lat="44.3227733" lon="9.4973817"><ele>878.0</ele><time>2026-04-04T15:10:05.65Z</time></trkpt><trkpt lat="44.322785" lon="9.4972583"><ele>878.0</ele><time>2026-04-04T15:10:06.65Z</time></trkpt><trkpt lat="44.3227967" lon="9.49715"><ele>878.0</ele><time>2026-04-04T15:10:07.65Z</time></trkpt><trkpt lat="44.3228117" lon="9.4970617"><ele>878.0000000000001</ele><time>2026-04-04T15:10:08.651Z</time></trkpt><trkpt lat="44.3228233" lon="9.4969683"><ele>878.0</ele><time>2026-04-04T15:10:09.65Z</time></trkpt><trkpt lat="44.3228417" lon="9.4968767"><ele>876.4</ele><time>2026-04-04T15:10:10.65Z</time></trkpt><trkpt lat="44.3228667" lon="9.4967183"><ele>874.8</ele><time>2026-04-04T15:10:12.65Z</time></trkpt><trkpt lat="44.322885" lon="9.4965983"><ele>873.2</ele><time>2026-04-04T15:10:14.651Z</time></trkpt><trkpt lat="44.322905" lon="9.496475"><ele>871.6</ele><time>2026-04-04T15:10:16.65Z</time></trkpt><trkpt lat="44.322925" lon="9.49634"><ele>870.0</ele><time>2026-04-04T15:10:18.65Z</time></trkpt><trkpt lat="44.3229483" lon="9.4961867"><ele>867.6</ele><time>2026-04-04T15:10:20.651Z</time></trkpt><trkpt lat="44.3229833" lon="9.49605"><ele>865.2</ele><time>2026-04-04T15:10:22.65Z</time></trkpt><trkpt lat="44.323035" lon="9.4958983"><ele>862.8</ele><time>2026-04-04T15:10:24.65Z</time></trkpt><trkpt lat="44.3230717" lon="9.4957483"><ele>860.4</ele><time>2026-04-04T15:10:26.65Z</time></trkpt><trkpt lat="44.32308" lon="9.4956267"><ele>858.0</ele><time>2026-04-04T15:10:28.65Z</time></trkpt><trkpt lat="44.323045" lon="9.4955217"><ele>857.8</ele><time>2026-04-04T15:10:30.651Z</time></trkpt><trkpt lat="44.3230067" lon="9.49537"><ele>857.5999999999999</ele><time>2026-04-04T15:10:32.65Z</time></trkpt><trkpt lat="44.322995" lon="9.4952"><ele>857.4000000000001</ele><time>2026-04-04T15:10:34.651Z</time></trkpt><trkpt lat="44.3229933" lon="9.495055"><ele>857.2</ele><time>2026-04-04T15:10:36.65Z</time></trkpt><trkpt lat="44.3229633" lon="9.494935"><ele>857.0</ele><time>2026-04-04T15:10:38.65Z</time></trkpt><trkpt lat="44.3228967" lon="9.49484"><ele>857.0</ele><time>2026-04-04T15:10:40.65Z</time></trkpt><trkpt lat="44.322825" lon="9.4947267"><ele>857.0</ele><time>2026-04-04T15:10:42.651Z</time></trkpt><trkpt lat="44.32279" lon="9.4945867"><ele>857.0</ele><time>2026-04-04T15:10:44.65Z</time></trkpt><trkpt lat="44.3227983" lon="9.4944817"><ele>857.0</ele><time>2026-04-04T15:10:46.65Z</time></trkpt><trkpt lat="44.3227967" lon="9.4943783"><ele>857.0</ele><time>2026-04-04T15:10:49.651Z</time></trkpt><trkpt lat="44.3227067" lon="9.4943567"><ele>858.8</ele><time>2026-04-04T15:10:52.65Z</time></trkpt><trkpt lat="44.322615" lon="9.49436"><ele>860.6</ele><time>2026-04-04T15:10:54.65Z</time></trkpt><trkpt lat="44.3225117" lon="9.4943167"><ele>862.3999999999999</ele><time>2026-04-04T15:10:56.65Z</time></trkpt><trkpt lat="44.3224167" lon="9.494245"><ele>864.1999999999999</ele><time>2026-04-04T15:10:58.65Z</time></trkpt><trkpt lat="44.3223383" lon="9.494155"><ele>866.0</ele><time>2026-04-04T15:11:00.65Z</time></trkpt><trkpt lat="44.322295" lon="9.4940433"><ele>866.0</ele><time>2026-04-04T15:11:02.65Z</time></trkpt><trkpt lat="44.3222383" lon="9.4939367"><ele>865.9999999999999</ele><time>2026-04-04T15:11:04.651Z</time></trkpt><trkpt lat="44.3221817" lon="9.4938033"><ele>865.9999999999999</ele><time>2026-04-04T15:11:06.65Z</time></trkpt><trkpt lat="44.3221633" lon="9.4936383"><ele>866.0</ele><time>2026-04-04T15:11:08.651Z</time></trkpt><trkpt lat="44.3221683" lon="9.4935383"><ele>866.0</ele><time>2026-04-04T15:11:09.651Z</time></trkpt><trkpt lat="44.3221733" lon="9.4934433"><ele>863.5000000000001</ele><time>2026-04-04T15:11:10.65Z</time></trkpt><trkpt lat="44.322185" lon="9.4933483"><ele>861.0</ele><time>2026-04-04T15:11:11.65Z</time></trkpt><trkpt lat="44.32218" lon="9.493205"><ele>858.5</ele><time>2026-04-04T15:11:13.65Z</time></trkpt><trkpt lat="44.3221367" lon="9.49304"><ele>856.0</ele><time>2026-04-04T15:11:15.65Z</time></trkpt><trkpt lat="44.322095" lon="9.49295"><ele>853.5000000000001</ele><time>2026-04-04T15:11:16.651Z</time></trkpt><trkpt lat="44.3220533" lon="9.492875"><ele>851.0</ele><time>2026-04-04T15:11:17.65Z</time></trkpt><trkpt lat="44.321985" lon="9.4927583"><ele>851.0000000000001</ele><time>2026-04-04T15:11:19.65Z</time></trkpt><trkpt lat="44.3219367" lon="9.4926767"><ele>851.0</ele><time>2026-04-04T15:11:21.65Z</time></trkpt><trkpt lat="44.32189" lon="9.49257"><ele>851.0</ele><time>2026-04-04T15:11:23.65Z</time></trkpt><trkpt lat="44.3218217" lon="9.4924517"><ele>851.0</ele><time>2026-04-04T15:11:25.65Z</time></trkpt><trkpt lat="44.3217617" lon="9.4923717"><ele>851.0000000000001</ele><time>2026-04-04T15:11:27.65Z</time></trkpt><trkpt lat="44.3217267" lon="9.4922667"><ele>851.0</ele><time>2026-04-04T15:11:29.651Z</time></trkpt><trkpt lat="44.32169" lon="9.4921617"><ele>853.0</ele><time>2026-04-04T15:11:31.65Z</time></trkpt><trkpt lat="44.3216417" lon="9.4920333"><ele>855.0</ele><time>2026-04-04T15:11:33.65Z</time></trkpt><trkpt lat="44.3215967" lon="9.4918783"><ele>856.9999999999999</ele><time>2026-04-04T15:11:35.65Z</time></trkpt><trkpt lat="44.32155" lon="9.49173"><ele>859.0</ele><time>2026-04-04T15:11:37.651Z</time></trkpt><trkpt lat="44.321525" lon="9.491645"><ele>861.0</ele><time>2026-04-04T15:11:38.65Z</time></trkpt><trkpt lat="44.3214867" lon="9.49155"><ele>861.0</ele><time>2026-04-04T15:11:39.651Z</time></trkpt><trkpt lat="44.321455" lon="9.4914583"><ele>860.9999999999999</ele><time>2026-04-04T15:11:40.65Z</time></trkpt><trkpt lat="44.32142" lon="9.4913783"><ele>860.9999999999999</ele><time>2026-04-04T15:11:41.65Z</time></trkpt><trkpt lat="44.3213567" lon="9.4912217"><ele>861.0</ele><time>2026-04-04T15:11:43.65Z</time></trkpt><trkpt lat="44.3212967" lon="9.49108"><ele>861.0</ele><time>2026-04-04T15:11:45.65Z</time></trkpt><trkpt lat="44.32126" lon="9.49094"><ele>855.5999999999999</ele><time>2026-04-04T15:11:47.65Z</time></trkpt><trkpt lat="44.3212333" lon="9.4908083"><ele>850.1999999999999</ele><time>2026-04-04T15:11:49.65Z</time></trkpt><trkpt lat="44.3211983" lon="9.4906967"><ele>844.8</ele><time>2026-04-04T15:11:51.65Z</time></trkpt><trkpt lat="44.32118" lon="9.490575"><ele>839.4000000000001</ele><time>2026-04-04T15:11:53.651Z</time></trkpt><trkpt lat="44.321185" lon="9.4904217"><ele>834.0</ele><time>2026-04-04T15:11:55.65Z</time></trkpt><trkpt lat="44.3211983" lon="9.4903267"><ele>834.0</ele><time>2026-04-04T15:11:56.65Z</time></trkpt><trkpt lat="44.321205" lon="9.4902317"><ele>834.0</ele><time>2026-04-04T15:11:57.65Z</time></trkpt><trkpt lat="44.3212033" lon="9.4901367"><ele>834.0</ele><time>2026-04-04T15:11:58.651Z</time></trkpt><trkpt lat="44.3211933" lon="9.4900333"><ele>834.0</ele><time>2026-04-04T15:11:59.651Z</time></trkpt><trkpt lat="44.32118" lon="9.48993"><ele>834.0</ele><time>2026-04-04T15:12:00.65Z</time></trkpt><trkpt lat="44.32116" lon="9.4898433"><ele>834.0</ele><time>2026-04-04T15:12:01.65Z</time></trkpt><trkpt lat="44.3211167" lon="9.4897"><ele>836.5</ele><time>2026-04-04T15:12:03.651Z</time></trkpt><trkpt lat="44.3210567" lon="9.4895783"><ele>839.0</ele><time>2026-04-04T15:12:05.65Z</time></trkpt><trkpt lat="44.3209967" lon="9.489425"><ele>841.5</ele><time>2026-04-04T15:12:07.65Z</time></trkpt><trkpt lat="44.3209333" lon="9.4892933"><ele>844.0</ele><time>2026-04-04T15:12:09.65Z</time></trkpt><trkpt lat="44.3208767" lon="9.4891583"><ele>844.0</ele><time>2026-04-04T15:12:11.651Z</time></trkpt><trkpt lat="44.32082" lon="9.48902"><ele>844.0</ele><time>2026-04-04T15:12:13.651Z</time></trkpt><trkpt lat="44.3207617" lon="9.488895"><ele>844.0</ele><time>2026-04-04T15:12:15.651Z</time></trkpt><trkpt lat="44.3207133" lon="9.4887483"><ele>844.0</ele><time>2026-04-04T15:12:17.65Z</time></trkpt><trkpt lat="44.320695" lon="9.4886533"><ele>844.0</ele><time>2026-04-04T15:12:18.65Z</time></trkpt><trkpt lat="44.3206433" lon="9.4884967"><ele>844.6666666666666</ele><time>2026-04-04T15:12:20.65Z</time></trkpt><trkpt lat="44.3205933" lon="9.4883867"><ele>845.3333333333333</ele><time>2026-04-04T15:12:22.651Z</time></trkpt><trkpt lat="44.3205667" lon="9.4882867"><ele>846.0</ele><time>2026-04-04T15:12:25.65Z</time></trkpt><trkpt lat="44.3206183" lon="9.4882117"><ele>846.6666666666667</ele><time>2026-04-04T15:12:47.65Z</time></trkpt><trkpt lat="44.3206883" lon="9.4881217"><ele>847.3333333333334</ele><time>2026-04-04T15:12:49.65Z</time></trkpt><trkpt lat="44.3207667" lon="9.4880517"><ele>848.0</ele><time>2026-04-04T15:12:51.65Z</time></trkpt><trkpt lat="44.3208533" lon="9.48797"><ele>845.75</ele><time>2026-04-04T15:12:53.651Z</time></trkpt><trkpt lat="44.3209567" lon="9.48788"><ele>843.5</ele><time>2026-04-04T15:12:55.65Z</time></trkpt><trkpt lat="44.3210517" lon="9.487785"><ele>841.25</ele><time>2026-04-04T15:12:57.65Z</time></trkpt><trkpt lat="44.3211467" lon="9.4877017"><ele>839.0</ele><time>2026-04-04T15:12:59.65Z</time></trkpt><trkpt lat="44.3212383" lon="9.487635"><ele>839.0</ele><time>2026-04-04T15:13:01.65Z</time></trkpt><trkpt lat="44.321325" lon="9.4875517"><ele>839.0</ele><time>2026-04-04T15:13:03.651Z</time></trkpt><trkpt lat="44.32141" lon="9.4874683"><ele>839.0</ele><time>2026-04-04T15:13:05.65Z</time></trkpt><trkpt lat="44.3215067" lon="9.4874"><ele>839.0</ele><time>2026-04-04T15:13:07.65Z</time></trkpt><trkpt lat="44.3215933" lon="9.487335"><ele>839.0</ele><time>2026-04-04T15:13:09.65Z</time></trkpt><trkpt lat="44.3216817" lon="9.4872717"><ele>840.0</ele><time>2026-04-04T15:13:11.65Z</time></trkpt><trkpt lat="44.3217717" lon="9.4871883"><ele>841.0</ele><time>2026-04-04T15:13:13.65Z</time></trkpt><trkpt lat="44.321845" lon="9.4870683"><ele>842.0</ele><time>2026-04-04T15:13:15.651Z</time></trkpt><trkpt lat="44.3218933" lon="9.4869083"><ele>843.0</ele><time>2026-04-04T15:13:17.651Z</time></trkpt><trkpt lat="44.3219167" lon="9.4868083"><ele>844.0</ele><time>2026-04-04T15:13:18.65Z</time></trkpt><trkpt lat="44.321935" lon="9.4867083"><ele>844.0</ele><time>2026-04-04T15:13:19.651Z</time></trkpt><trkpt lat="44.3219567" lon="9.4865617"><ele>844.0</ele><time>2026-04-04T15:13:21.65Z</time></trkpt><trkpt lat="44.3219733" lon="9.4864067"><ele>844.0</ele><time>2026-04-04T15:13:23.651Z</time></trkpt><trkpt lat="44.321995" lon="9.486255"><ele>844.0</ele><time>2026-04-04T15:13:25.65Z</time></trkpt><trkpt lat="44.3220167" lon="9.48613"><ele>844.0</ele><time>2026-04-04T15:13:27.65Z</time></trkpt><trkpt lat="44.3220317" lon="9.4859933"><ele>843.4000000000001</ele><time>2026-04-04T15:13:29.65Z</time></trkpt><trkpt lat="44.322055" lon="9.4858433"><ele>842.8</ele><time>2026-04-04T15:13:31.65Z</time></trkpt><trkpt lat="44.3220833" lon="9.4856667"><ele>842.2</ele><time>2026-04-04T15:13:33.65Z</time></trkpt><trkpt lat="44.3220917" lon="9.4855483"><ele>841.5999999999999</ele><time>2026-04-04T15:13:34.65Z</time></trkpt><trkpt lat="44.3220933" lon="9.4854267"><ele>841.0</ele><time>2026-04-04T15:13:35.65Z</time></trkpt><trkpt lat="44.32209" lon="9.485315"><ele>840.9999999999999</ele><time>2026-04-04T15:13:36.649Z</time></trkpt><trkpt lat="44.3220783" lon="9.4852033"><ele>841.0</ele><time>2026-04-04T15:13:37.649Z</time></trkpt><trkpt lat="44.3220617" lon="9.4851017"><ele>841.0</ele><time>2026-04-04T15:13:38.65Z</time></trkpt><trkpt lat="44.3220367" lon="9.4850033"><ele>841.0</ele><time>2026-04-04T15:13:39.65Z</time></trkpt><trkpt lat="44.3220117" lon="9.48491"><ele>840.9999999999999</ele><time>2026-04-04T15:13:40.649Z</time></trkpt><trkpt lat="44.3219833" lon="9.4848017"><ele>841.0</ele><time>2026-04-04T15:13:41.649Z</time></trkpt><trkpt lat="44.32196" lon="9.4846817"><ele>842.6666666666666</ele><time>2026-04-04T15:13:42.65Z</time></trkpt><trkpt lat="44.3219433" lon="9.484555"><ele>844.3333333333333</ele><time>2026-04-04T15:13:43.649Z</time></trkpt><trkpt lat="44.3219333" lon="9.4844517"><ele>846.0</ele><time>2026-04-04T15:13:44.649Z</time></trkpt><trkpt lat="44.3219383" lon="9.4843517"><ele>847.6666666666667</ele><time>2026-04-04T15:13:45.65Z</time></trkpt><trkpt lat="44.3219417" lon="9.484255"><ele>849.3333333333334</ele><time>2026-04-04T15:13:46.65Z</time></trkpt><trkpt lat="44.321925" lon="9.484085"><ele>851.0</ele><time>2026-04-04T15:13:48.649Z</time></trkpt><trkpt lat="44.3219117" lon="9.4839983"><ele>851.0000000000001</ele><time>2026-04-04T15:13:49.65Z</time></trkpt><trkpt lat="44.3218933" lon="9.4838983"><ele>851.0</ele><time>2026-04-04T15:13:50.65Z</time></trkpt><trkpt lat="44.3218667" lon="9.483785"><ele>851.0</ele><time>2026-04-04T15:13:51.649Z</time></trkpt><trkpt lat="44.32184" lon="9.4836667"><ele>851.0</ele><time>2026-04-04T15:13:52.649Z</time></trkpt><trkpt lat="44.3218283" lon="9.48357"><ele>851.0000000000001</ele><time>2026-04-04T15:13:53.649Z</time></trkpt><trkpt lat="44.32183" lon="9.4834817"><ele>851.0</ele><time>2026-04-04T15:13:54.649Z</time></trkpt><trkpt lat="44.3218567" lon="9.4833017"><ele>851.8333333333334</ele><time>2026-04-04T15:13:56.65Z</time></trkpt><trkpt lat="44.32188" lon="9.4832017"><ele>852.6666666666667</ele><time>2026-04-04T15:13:57.649Z</time></trkpt><trkpt lat="44.3219183" lon="9.4830617"><ele>853.5</ele><time>2026-04-04T15:13:59.649Z</time></trkpt><trkpt lat="44.321945" lon="9.48296"><ele>854.3333333333333</ele><time>2026-04-04T15:14:01.649Z</time></trkpt><trkpt lat="44.3219383" lon="9.4828483"><ele>855.1666666666666</ele><time>2026-04-04T15:14:04.649Z</time></trkpt><trkpt lat="44.3218583" lon="9.482815"><ele>856.0</ele><time>2026-04-04T15:14:07.649Z</time></trkpt><trkpt lat="44.321775" lon="9.482795"><ele>857.4</ele><time>2026-04-04T15:14:09.649Z</time></trkpt><trkpt lat="44.3217083" lon="9.4827317"><ele>858.8</ele><time>2026-04-04T15:14:11.649Z</time></trkpt><trkpt lat="44.321675" lon="9.4826083"><ele>860.1999999999999</ele><time>2026-04-04T15:14:13.649Z</time></trkpt><trkpt lat="44.321665" lon="9.4824467"><ele>861.5999999999999</ele><time>2026-04-04T15:14:15.649Z</time></trkpt><trkpt lat="44.3216367" lon="9.4822933"><ele>863.0</ele><time>2026-04-04T15:14:17.649Z</time></trkpt><trkpt lat="44.3215933" lon="9.4821583"><ele>864.6666666666667</ele><time>2026-04-04T15:14:19.65Z</time></trkpt><trkpt lat="44.3215583" lon="9.482085"><ele>866.3333333333334</ele><time>2026-04-04T15:14:20.65Z</time></trkpt><trkpt lat="44.3215167" lon="9.4820083"><ele>868.0</ele><time>2026-04-04T15:14:21.649Z</time></trkpt><trkpt lat="44.3214667" lon="9.4819467"><ele>869.6666666666667</ele><time>2026-04-04T15:14:22.65Z</time></trkpt><trkpt lat="44.32142" lon="9.481885"><ele>871.3333333333334</ele><time>2026-04-04T15:14:23.649Z</time></trkpt><trkpt lat="44.32138" lon="9.4817433"><ele>873.0</ele><time>2026-04-04T15:14:25.649Z</time></trkpt><trkpt lat="44.3214267" lon="9.4816067"><ele>873.0</ele><time>2026-04-04T15:14:27.649Z</time></trkpt><trkpt lat="44.3215283" lon="9.48154"><ele>873.0</ele><time>2026-04-04T15:14:29.65Z</time></trkpt><trkpt lat="44.3216183" lon="9.4814883"><ele>873.0</ele><time>2026-04-04T15:14:31.649Z</time></trkpt><trkpt lat="44.321675" lon="9.48145"><ele>873.0</ele><time>2026-04-04T15:14:33.649Z</time></trkpt><trkpt lat="44.3216033" lon="9.481375"><ele>873.0</ele><time>2026-04-04T15:14:49.649Z</time></trkpt><trkpt lat="44.321535" lon="9.4813567"><ele>873.0</ele><time>2026-04-04T15:14:50.65Z</time></trkpt><trkpt lat="44.32147" lon="9.4813483"><ele>873.0</ele><time>2026-04-04T15:14:51.65Z</time></trkpt><trkpt lat="44.3214033" lon="9.481335"><ele>873.0</ele><time>2026-04-04T15:14:52.649Z</time></trkpt><trkpt lat="44.3213333" lon="9.4813067"><ele>873.0</ele><time>2026-04-04T15:14:53.649Z</time></trkpt><trkpt lat="44.3212633" lon="9.481275"><ele>873.0</ele><time>2026-04-04T15:14:54.65Z</time></trkpt><trkpt lat="44.321195" lon="9.481245"><ele>873.0</ele><time>2026-04-04T15:14:55.649Z</time></trkpt><trkpt lat="44.3211317" lon="9.4812283"><ele>873.0</ele><time>2026-04-04T15:14:56.65Z</time></trkpt><trkpt lat="44.3210117" lon="9.481215"><ele>877.4285714285713</ele><time>2026-04-04T15:14:58.65Z</time></trkpt><trkpt lat="44.3209467" lon="9.481195"><ele>881.8571428571429</ele><time>2026-04-04T15:14:59.65Z</time></trkpt><trkpt lat="44.3208833" lon="9.4811783"><ele>886.2857142857142</ele><time>2026-04-04T15:15:00.65Z</time></trkpt><trkpt lat="44.32082" lon="9.4811717"><ele>890.7142857142857</ele><time>2026-04-04T15:15:01.649Z</time></trkpt><trkpt lat="44.3207517" lon="9.4811667"><ele>895.1428571428571</ele><time>2026-04-04T15:15:02.65Z</time></trkpt><trkpt lat="44.3206767" lon="9.4811633"><ele>899.5714285714286</ele><time>2026-04-04T15:15:03.648Z</time></trkpt><trkpt lat="44.3206033" lon="9.4811667"><ele>904.0</ele><time>2026-04-04T15:15:04.649Z</time></trkpt><trkpt lat="44.32053" lon="9.48118"><ele>904.0</ele><time>2026-04-04T15:15:05.65Z</time></trkpt><trkpt lat="44.3204633" lon="9.4811867"><ele>904.0000000000001</ele><time>2026-04-04T15:15:06.649Z</time></trkpt><trkpt lat="44.3203467" lon="9.4811883"><ele>904.0000000000001</ele><time>2026-04-04T15:15:08.65Z</time></trkpt><trkpt lat="44.3202517" lon="9.48122"><ele>904.0</ele><time>2026-04-04T15:15:10.649Z</time></trkpt><trkpt lat="44.320155" lon="9.4812267"><ele>904.0</ele><time>2026-04-04T15:15:12.649Z</time></trkpt><trkpt lat="44.32004" lon="9.4812117"><ele>904.0</ele><time>2026-04-04T15:15:14.649Z</time></trkpt><trkpt lat="44.3199283" lon="9.4812283"><ele>904.0000000000001</ele><time>2026-04-04T15:15:16.649Z</time></trkpt><trkpt lat="44.3198233" lon="9.4812617"><ele>904.0000000000001</ele><time>2026-04-04T15:15:18.65Z</time></trkpt><trkpt lat="44.3197317" lon="9.4812583"><ele>904.0</ele><time>2026-04-04T15:15:20.65Z</time></trkpt><trkpt lat="44.3196367" lon="9.4812317"><ele>904.0</ele><time>2026-04-04T15:15:22.649Z</time></trkpt><trkpt lat="44.3195117" lon="9.4812133"><ele>903.4999999999999</ele><time>2026-04-04T15:15:24.649Z</time></trkpt><trkpt lat="44.3194" lon="9.481215"><ele>903.0</ele><time>2026-04-04T15:15:26.649Z</time></trkpt><trkpt lat="44.3193133" lon="9.4812133"><ele>902.5</ele><time>2026-04-04T15:15:28.65Z</time></trkpt><trkpt lat="44.3192267" lon="9.4812017"><ele>902.0</ele><time>2026-04-04T15:15:30.649Z</time></trkpt><trkpt lat="44.3191733" lon="9.4811533"><ele>901.4999999999999</ele><time>2026-04-04T15:17:49.649Z</time></trkpt><trkpt lat="44.3191033" lon="9.48112"><ele>901.0</ele><time>2026-04-04T15:17:51.648Z</time></trkpt><trkpt lat="44.3190383" lon="9.48112"><ele>900.9999999999999</ele><time>2026-04-04T15:17:53.649Z</time></trkpt><trkpt lat="44.31895" lon="9.4811167"><ele>901.0</ele><time>2026-04-04T15:17:56.649Z</time></trkpt><trkpt lat="44.3188783" lon="9.48107"><ele>901.0</ele><time>2026-04-04T15:17:59.648Z</time></trkpt><trkpt lat="44.3188117" lon="9.4810583"><ele>901.0</ele><time>2026-04-04T15:18:01.648Z</time></trkpt><trkpt lat="44.31874" lon="9.4811017"><ele>900.9999999999999</ele><time>2026-04-04T15:18:03.648Z</time></trkpt><trkpt lat="44.318665" lon="9.481155"><ele>901.0</ele><time>2026-04-04T15:18:05.648Z</time></trkpt><trkpt lat="44.31856" lon="9.4811833"><ele>898.8</ele><time>2026-04-04T15:18:07.649Z</time></trkpt><trkpt lat="44.3184533" lon="9.4811817"><ele>896.5999999999999</ele><time>2026-04-04T15:18:09.648Z</time></trkpt><trkpt lat="44.318345" lon="9.4811667"><ele>894.4</ele><time>2026-04-04T15:18:11.649Z</time></trkpt><trkpt lat="44.3182417" lon="9.4811433"><ele>892.2</ele><time>2026-04-04T15:18:13.649Z</time></trkpt><trkpt lat="44.31814" lon="9.4811333"><ele>890.0</ele><time>2026-04-04T15:18:15.648Z</time></trkpt><trkpt lat="44.3180367" lon="9.48112"><ele>886.2</ele><time>2026-04-04T15:18:17.649Z</time></trkpt><trkpt lat="44.3179283" lon="9.4810983"><ele>882.4</ele><time>2026-04-04T15:18:19.649Z</time></trkpt><trkpt lat="44.31783" lon="9.48106"><ele>878.5999999999999</ele><time>2026-04-04T15:18:21.648Z</time></trkpt><trkpt lat="44.3177633" lon="9.4809933"><ele>874.8</ele><time>2026-04-04T15:18:23.649Z</time></trkpt><trkpt lat="44.3177183" lon="9.4809217"><ele>871.0</ele><time>2026-04-04T15:18:25.649Z</time></trkpt><trkpt lat="44.3176633" lon="9.4808183"><ele>870.9999999999999</ele><time>2026-04-04T15:18:28.648Z</time></trkpt><trkpt lat="44.3175867" lon="9.480765"><ele>871.0</ele><time>2026-04-04T15:18:31.649Z</time></trkpt><trkpt lat="44.31751" lon="9.4807667"><ele>871.0</ele><time>2026-04-04T15:18:33.648Z</time></trkpt><trkpt lat="44.3174267" lon="9.480765"><ele>871.0</ele><time>2026-04-04T15:18:35.648Z</time></trkpt><trkpt lat="44.3173517" lon="9.480755"><ele>870.9999999999999</ele><time>2026-04-04T15:18:37.648Z</time></trkpt><trkpt lat="44.3172633" lon="9.4807183"><ele>871.0</ele><time>2026-04-04T15:18:40.648Z</time></trkpt><trkpt lat="44.3171983" lon="9.480665"><ele>866.8333333333333</ele><time>2026-04-04T15:18:43.648Z</time></trkpt><trkpt lat="44.3171067" lon="9.4806083"><ele>862.6666666666666</ele><time>2026-04-04T15:19:09.648Z</time></trkpt><trkpt lat="44.31704" lon="9.4806117"><ele>858.5</ele><time>2026-04-04T15:19:12.648Z</time></trkpt><trkpt lat="44.3169817" lon="9.4805717"><ele>854.3333333333333</ele><time>2026-04-04T15:19:15.648Z</time></trkpt><trkpt lat="44.316895" lon="9.4805133"><ele>850.1666666666666</ele><time>2026-04-04T15:19:40.648Z</time></trkpt><trkpt lat="44.3168067" lon="9.4804783"><ele>846.0</ele><time>2026-04-04T15:19:42.648Z</time></trkpt><trkpt lat="44.3167183" lon="9.4804367"><ele>846.0</ele><time>2026-04-04T15:19:44.648Z</time></trkpt><trkpt lat="44.3166383" lon="9.48041"><ele>846.0</ele><time>2026-04-04T15:19:46.648Z</time></trkpt><trkpt lat="44.31656" lon="9.48042"><ele>846.0</ele><time>2026-04-04T15:19:48.648Z</time></trkpt><trkpt lat="44.3164933" lon="9.48044"><ele>846.0</ele><time>2026-04-04T15:19:50.649Z</time></trkpt><trkpt lat="44.316415" lon="9.4803583"><ele>846.0</ele><time>2026-04-04T15:19:53.649Z</time></trkpt><trkpt lat="44.3163633" lon="9.4802517"><ele>846.0</ele><time>2026-04-04T15:19:55.648Z</time></trkpt><trkpt lat="44.3162967" lon="9.4801483"><ele>843.4</ele><time>2026-04-04T15:19:57.648Z</time></trkpt><trkpt lat="44.316235" lon="9.4800533"><ele>840.8</ele><time>2026-04-04T15:19:59.648Z</time></trkpt><trkpt lat="44.316165" lon="9.4799767"><ele>838.1999999999999</ele><time>2026-04-04T15:20:01.648Z</time></trkpt><trkpt lat="44.3160717" lon="9.479905"><ele>835.5999999999999</ele><time>2026-04-04T15:20:03.648Z</time></trkpt><trkpt lat="44.3159933" lon="9.4798567"><ele>833.0</ele><time>2026-04-04T15:20:05.648Z</time></trkpt><trkpt lat="44.315915" lon="9.479805"><ele>833.0000000000001</ele><time>2026-04-04T15:20:07.649Z</time></trkpt><trkpt lat="44.31585" lon="9.47976"><ele>833.0</ele><time>2026-04-04T15:20:09.649Z</time></trkpt><trkpt lat="44.3158017" lon="9.4796617"><ele>833.0</ele><time>2026-04-04T15:20:12.648Z</time></trkpt><trkpt lat="44.3158367" lon="9.4795567"><ele>833.0</ele><time>2026-04-04T15:20:15.648Z</time></trkpt><trkpt lat="44.3158883" lon="9.479455"><ele>833.0000000000001</ele><time>2026-04-04T15:20:17.648Z</time></trkpt><trkpt lat="44.3159417" lon="9.4793567"><ele>833.0</ele><time>2026-04-04T15:20:19.648Z</time></trkpt><trkpt lat="44.315995" lon="9.479255"><ele>831.0</ele><time>2026-04-04T15:20:21.648Z</time></trkpt><trkpt lat="44.3160517" lon="9.4791567"><ele>829.0</ele><time>2026-04-04T15:20:23.648Z</time></trkpt><trkpt lat="44.3161283" lon="9.479045"><ele>827.0</ele><time>2026-04-04T15:20:25.648Z</time></trkpt><trkpt lat="44.3162117" lon="9.4789467"><ele>825.0</ele><time>2026-04-04T15:20:27.649Z</time></trkpt><trkpt lat="44.3162933" lon="9.4788467"><ele>823.0</ele><time>2026-04-04T15:20:29.649Z</time></trkpt><trkpt lat="44.316375" lon="9.47877"><ele>821.6666666666666</ele><time>2026-04-04T15:20:31.648Z</time></trkpt><trkpt lat="44.3164417" lon="9.4787217"><ele>820.3333333333333</ele><time>2026-04-04T15:20:33.648Z</time></trkpt><trkpt lat="44.3164417" lon="9.4786167"><ele>819.0</ele><time>2026-04-04T15:20:37.648Z</time></trkpt><trkpt lat="44.31635" lon="9.4786317"><ele>817.6666666666667</ele><time>2026-04-04T15:20:41.648Z</time></trkpt><trkpt lat="44.31629" lon="9.4786867"><ele>816.3333333333334</ele><time>2026-04-04T15:20:43.648Z</time></trkpt><trkpt lat="44.31623" lon="9.47873"><ele>815.0</ele><time>2026-04-04T15:20:45.649Z</time></trkpt><trkpt lat="44.3161467" lon="9.4787667"><ele>816.6</ele><time>2026-04-04T15:20:47.649Z</time></trkpt><trkpt lat="44.3160533" lon="9.4788083"><ele>818.2</ele><time>2026-04-04T15:20:49.648Z</time></trkpt><trkpt lat="44.3159733" lon="9.4788367"><ele>819.8</ele><time>2026-04-04T15:20:51.648Z</time></trkpt><trkpt lat="44.3158833" lon="9.4788717"><ele>821.4</ele><time>2026-04-04T15:20:53.648Z</time></trkpt><trkpt lat="44.31578" lon="9.4789233"><ele>823.0</ele><time>2026-04-04T15:20:55.648Z</time></trkpt><trkpt lat="44.3157083" lon="9.479015"><ele>822.9999999999999</ele><time>2026-04-04T15:20:57.648Z</time></trkpt><trkpt lat="44.315655" lon="9.4790833"><ele>823.0</ele><time>2026-04-04T15:20:59.648Z</time></trkpt><trkpt lat="44.3155833" lon="9.4791"><ele>823.0</ele><time>2026-04-04T15:21:01.648Z</time></trkpt><trkpt lat="44.3154767" lon="9.47909"><ele>823.0</ele><time>2026-04-04T15:21:03.648Z</time></trkpt><trkpt lat="44.3153833" lon="9.479115"><ele>822.9999999999999</ele><time>2026-04-04T15:21:05.649Z</time></trkpt><trkpt lat="44.3153317" lon="9.4792"><ele>823.0</ele><time>2026-04-04T15:21:07.648Z</time></trkpt><trkpt lat="44.315275" lon="9.479255"><ele>818.4</ele><time>2026-04-04T15:21:09.649Z</time></trkpt><trkpt lat="44.315225" lon="9.479185"><ele>813.8</ele><time>2026-04-04T15:21:12.649Z</time></trkpt><trkpt lat="44.3152517" lon="9.4790733"><ele>809.2</ele><time>2026-04-04T15:21:14.648Z</time></trkpt><trkpt lat="44.315305" lon="9.4789367"><ele>804.6</ele><time>2026-04-04T15:21:16.649Z</time></trkpt><trkpt lat="44.3153783" lon="9.478845"><ele>800.0</ele><time>2026-04-04T15:21:18.647Z</time></trkpt><trkpt lat="44.3154683" lon="9.4788083"><ele>797.8</ele><time>2026-04-04T15:21:20.648Z</time></trkpt><trkpt lat="44.315545" lon="9.4787433"><ele>795.6</ele><time>2026-04-04T15:21:22.647Z</time></trkpt><trkpt lat="44.3156133" lon="9.4786133"><ele>793.4000000000001</ele><time>2026-04-04T15:21:24.648Z</time></trkpt><trkpt lat="44.31568" lon="9.47849"><ele>791.2</ele><time>2026-04-04T15:21:26.648Z</time></trkpt><trkpt lat="44.3157567" lon="9.4783833"><ele>789.0</ele><time>2026-04-04T15:21:28.647Z</time></trkpt><trkpt lat="44.315835" lon="9.4782767"><ele>789.0</ele><time>2026-04-04T15:21:30.647Z</time></trkpt><trkpt lat="44.3159033" lon="9.47819"><ele>789.0</ele><time>2026-04-04T15:21:32.647Z</time></trkpt><trkpt lat="44.3159517" lon="9.47813"><ele>789.0</ele><time>2026-04-04T15:21:34.647Z</time></trkpt><trkpt lat="44.3160133" lon="9.478045"><ele>789.0</ele><time>2026-04-04T15:21:37.648Z</time></trkpt><trkpt lat="44.3160683" lon="9.4779667"><ele>789.0</ele><time>2026-04-04T15:21:39.648Z</time></trkpt><trkpt lat="44.316135" lon="9.4778667"><ele>789.0</ele><time>2026-04-04T15:21:41.647Z</time></trkpt><trkpt lat="44.3162033" lon="9.4777483"><ele>786.8000000000001</ele><time>2026-04-04T15:21:43.647Z</time></trkpt><trkpt lat="44.316295" lon="9.4776167"><ele>784.6</ele><time>2026-04-04T15:21:45.648Z</time></trkpt><trkpt lat="44.31635" lon="9.47755"><ele>782.4</ele><time>2026-04-04T15:21:46.647Z</time></trkpt><trkpt lat="44.3164" lon="9.4774933"><ele>780.2</ele><time>2026-04-04T15:21:47.647Z</time></trkpt><trkpt lat="44.316455" lon="9.4774467"><ele>778.0</ele><time>2026-04-04T15:21:48.647Z</time></trkpt><trkpt lat="44.3165583" lon="9.4773567"><ele>778.0</ele><time>2026-04-04T15:21:50.647Z</time></trkpt><trkpt lat="44.3166767" lon="9.4772917"><ele>778.0</ele><time>2026-04-04T15:21:52.647Z</time></trkpt><trkpt lat="44.3167817" lon="9.4772533"><ele>778.0</ele><time>2026-04-04T15:21:54.647Z</time></trkpt><trkpt lat="44.3168917" lon="9.47725"><ele>778.0</ele><time>2026-04-04T15:21:56.647Z</time></trkpt><trkpt lat="44.3169783" lon="9.477285"><ele>778.0</ele><time>2026-04-04T15:21:58.648Z</time></trkpt><trkpt lat="44.3170317" lon="9.4772317"><ele>777.9999999999999</ele><time>2026-04-04T15:22:01.647Z</time></trkpt><trkpt lat="44.3169783" lon="9.477165"><ele>778.0</ele><time>2026-04-04T15:22:05.647Z</time></trkpt><trkpt lat="44.3169083" lon="9.4771367"><ele>778.0</ele><time>2026-04-04T15:22:16.647Z</time></trkpt><trkpt lat="44.31683" lon="9.4771033"><ele>778.0</ele><time>2026-04-04T15:22:18.647Z</time></trkpt><trkpt lat="44.3167333" lon="9.4770767"><ele>777.9999999999999</ele><time>2026-04-04T15:22:20.647Z</time></trkpt><trkpt lat="44.3166383" lon="9.4770117"><ele>778.0</ele><time>2026-04-04T15:22:22.647Z</time></trkpt><trkpt lat="44.3165417" lon="9.4769483"><ele>771.5999999999999</ele><time>2026-04-04T15:22:24.647Z</time></trkpt><trkpt lat="44.3164333" lon="9.476905"><ele>765.1999999999999</ele><time>2026-04-04T15:22:26.647Z</time></trkpt><trkpt lat="44.3163233" lon="9.4768833"><ele>758.8</ele><time>2026-04-04T15:22:28.647Z</time></trkpt><trkpt lat="44.3162183" lon="9.4769"><ele>752.4</ele><time>2026-04-04T15:22:30.647Z</time></trkpt><trkpt lat="44.3161133" lon="9.47695"><ele>746.0</ele><time>2026-04-04T15:22:32.647Z</time></trkpt><trkpt lat="44.3160333" lon="9.4770233"><ele>747.5</ele><time>2026-04-04T15:22:34.647Z</time></trkpt><trkpt lat="44.315995" lon="9.477105"><ele>749.0</ele><time>2026-04-04T15:22:36.647Z</time></trkpt><trkpt lat="44.3159283" lon="9.47716"><ele>750.5</ele><time>2026-04-04T15:22:39.647Z</time></trkpt><trkpt lat="44.315905" lon="9.4770583"><ele>752.0</ele><time>2026-04-04T15:22:42.647Z</time></trkpt><trkpt lat="44.3159367" lon="9.4769683"><ele>753.5</ele><time>2026-04-04T15:22:44.648Z</time></trkpt><trkpt lat="44.3159683" lon="9.47686"><ele>755.0</ele><time>2026-04-04T15:22:46.648Z</time></trkpt><trkpt lat="44.316" lon="9.4767183"><ele>749.8</ele><time>2026-04-04T15:22:48.647Z</time></trkpt><trkpt lat="44.3160383" lon="9.4765733"><ele>744.6</ele><time>2026-04-04T15:22:50.648Z</time></trkpt><trkpt lat="44.3160717" lon="9.4764467"><ele>739.4000000000001</ele><time>2026-04-04T15:22:52.648Z</time></trkpt><trkpt lat="44.316115" lon="9.4763083"><ele>734.2</ele><time>2026-04-04T15:22:54.648Z</time></trkpt><trkpt lat="44.3161533" lon="9.47621"><ele>729.0</ele><time>2026-04-04T15:22:56.647Z</time></trkpt><trkpt lat="44.3162217" lon="9.4761783"><ele>729.0</ele><time>2026-04-04T15:22:59.647Z</time></trkpt><trkpt lat="44.3162917" lon="9.476235"><ele>729.0</ele><time>2026-04-04T15:23:02.647Z</time></trkpt><trkpt lat="44.3163417" lon="9.47629"><ele>729.0</ele><time>2026-04-04T15:23:04.647Z</time></trkpt><trkpt lat="44.316395" lon="9.4763533"><ele>729.0</ele><time>2026-04-04T15:23:06.647Z</time></trkpt><trkpt lat="44.316465" lon="9.47639"><ele>729.0</ele><time>2026-04-04T15:23:08.648Z</time></trkpt><trkpt lat="44.3165567" lon="9.476405"><ele>729.0</ele><time>2026-04-04T15:23:10.647Z</time></trkpt><trkpt lat="44.3166533" lon="9.4763883"><ele>732.4000000000001</ele><time>2026-04-04T15:23:12.648Z</time></trkpt><trkpt lat="44.31674" lon="9.4763483"><ele>735.8</ele><time>2026-04-04T15:23:14.647Z</time></trkpt><trkpt lat="44.3168283" lon="9.4762683"><ele>739.2</ele><time>2026-04-04T15:23:16.648Z</time></trkpt><trkpt lat="44.3169167" lon="9.4762217"><ele>742.5999999999999</ele><time>2026-04-04T15:23:18.648Z</time></trkpt><trkpt lat="44.3170067" lon="9.4762383"><ele>746.0</ele><time>2026-04-04T15:23:20.647Z</time></trkpt><trkpt lat="44.3170933" lon="9.47629"><ele>746.0</ele><time>2026-04-04T15:23:22.647Z</time></trkpt><trkpt lat="44.3171667" lon="9.4763567"><ele>746.0</ele><time>2026-04-04T15:23:24.647Z</time></trkpt><trkpt lat="44.3172417" lon="9.4764117"><ele>746.0</ele><time>2026-04-04T15:23:26.647Z</time></trkpt><trkpt lat="44.3173183" lon="9.4764283"><ele>746.0</ele><time>2026-04-04T15:23:28.647Z</time></trkpt><trkpt lat="44.3173933" lon="9.4763633"><ele>746.0</ele><time>2026-04-04T15:23:31.647Z</time></trkpt><trkpt lat="44.3174133" lon="9.476265"><ele>746.0</ele><time>2026-04-04T15:23:33.647Z</time></trkpt><trkpt lat="44.3174383" lon="9.4761417"><ele>736.8</ele><time>2026-04-04T15:23:35.648Z</time></trkpt><trkpt lat="44.3175033" lon="9.4760117"><ele>727.5999999999999</ele><time>2026-04-04T15:23:37.647Z</time></trkpt><trkpt lat="44.3175783" lon="9.4759433"><ele>718.4</ele><time>2026-04-04T15:23:39.647Z</time></trkpt><trkpt lat="44.31767" lon="9.4759233"><ele>709.2</ele><time>2026-04-04T15:23:41.647Z</time></trkpt><trkpt lat="44.3177517" lon="9.4758783"><ele>700.0</ele><time>2026-04-04T15:23:43.647Z</time></trkpt><trkpt lat="44.3178083" lon="9.4758033"><ele>700.0</ele><time>2026-04-04T15:23:45.647Z</time></trkpt><trkpt lat="44.317865" lon="9.475715"><ele>700.0</ele><time>2026-04-04T15:23:47.647Z</time></trkpt><trkpt lat="44.317905" lon="9.4756133"><ele>700.0</ele><time>2026-04-04T15:23:49.648Z</time></trkpt><trkpt lat="44.31793" lon="9.4755033"><ele>700.0</ele><time>2026-04-04T15:23:51.648Z</time></trkpt><trkpt lat="44.3179667" lon="9.4754133"><ele>700.0</ele><time>2026-04-04T15:23:53.647Z</time></trkpt><trkpt lat="44.3180217" lon="9.475315"><ele>700.0</ele><time>2026-04-04T15:23:55.647Z</time></trkpt><trkpt lat="44.3181067" lon="9.475225"><ele>696.0</ele><time>2026-04-04T15:23:57.647Z</time></trkpt><trkpt lat="44.3182017" lon="9.4751483"><ele>692.0</ele><time>2026-04-04T15:23:59.647Z</time></trkpt><trkpt lat="44.3183017" lon="9.4750917"><ele>688.0</ele><time>2026-04-04T15:24:01.648Z</time></trkpt><trkpt lat="44.3183917" lon="9.475055"><ele>684.0</ele><time>2026-04-04T15:24:03.647Z</time></trkpt><trkpt lat="44.318485" lon="9.4749867"><ele>680.0</ele><time>2026-04-04T15:24:05.648Z</time></trkpt><trkpt lat="44.3185767" lon="9.4749267"><ele>680.0</ele><time>2026-04-04T15:24:07.648Z</time></trkpt><trkpt lat="44.3186667" lon="9.4749"><ele>680.0</ele><time>2026-04-04T15:24:09.648Z</time></trkpt><trkpt lat="44.31875" lon="9.4749433"><ele>680.0</ele><time>2026-04-04T15:24:11.647Z</time></trkpt><trkpt lat="44.3188233" lon="9.4750233"><ele>680.0</ele><time>2026-04-04T15:24:13.647Z</time></trkpt><trkpt lat="44.31889" lon="9.4751083"><ele>680.0</ele><time>2026-04-04T15:24:15.648Z</time></trkpt><trkpt lat="44.3189717" lon="9.4751283"><ele>680.0</ele><time>2026-04-04T15:24:17.647Z</time></trkpt><trkpt lat="44.3190617" lon="9.4750767"><ele>680.2</ele><time>2026-04-04T15:24:19.647Z</time></trkpt><trkpt lat="44.3191633" lon="9.4750133"><ele>680.4</ele><time>2026-04-04T15:24:21.647Z</time></trkpt><trkpt lat="44.3192583" lon="9.4749667"><ele>680.5999999999999</ele><time>2026-04-04T15:24:23.647Z</time></trkpt><trkpt lat="44.3193333" lon="9.4749217"><ele>680.8</ele><time>2026-04-04T15:24:25.648Z</time></trkpt><trkpt lat="44.3194083" lon="9.474835"><ele>681.0</ele><time>2026-04-04T15:24:27.648Z</time></trkpt><trkpt lat="44.3194733" lon="9.4747317"><ele>681.0</ele><time>2026-04-04T15:24:29.648Z</time></trkpt><trkpt lat="44.319505" lon="9.4746133"><ele>681.0</ele><time>2026-04-04T15:24:31.647Z</time></trkpt><trkpt lat="44.31952" lon="9.4744767"><ele>681.0</ele><time>2026-04-04T15:24:33.647Z</time></trkpt><trkpt lat="44.319545" lon="9.4743567"><ele>681.0</ele><time>2026-04-04T15:24:35.647Z</time></trkpt><trkpt lat="44.3195883" lon="9.47428"><ele>681.0</ele><time>2026-04-04T15:24:37.648Z</time></trkpt><trkpt lat="44.319645" lon="9.4742217"><ele>681.0</ele><time>2026-04-04T15:24:39.647Z</time></trkpt><trkpt lat="44.3197033" lon="9.4741867"><ele>677.3333333333334</ele><time>2026-04-04T15:24:41.648Z</time></trkpt><trkpt lat="44.3197817" lon="9.4741633"><ele>673.6666666666666</ele><time>2026-04-04T15:24:43.647Z</time></trkpt><trkpt lat="44.3198767" lon="9.474165"><ele>670.0</ele><time>2026-04-04T15:24:45.647Z</time></trkpt><trkpt lat="44.3199633" lon="9.47418"><ele>666.3333333333333</ele><time>2026-04-04T15:24:47.647Z</time></trkpt><trkpt lat="44.32004" lon="9.474165"><ele>662.6666666666666</ele><time>2026-04-04T15:24:49.648Z</time></trkpt><trkpt lat="44.320105" lon="9.4740917"><ele>659.0</ele><time>2026-04-04T15:24:51.648Z</time></trkpt><trkpt lat="44.3201783" lon="9.47399"><ele>659.0</ele><time>2026-04-04T15:24:53.647Z</time></trkpt><trkpt lat="44.3202667" lon="9.473875"><ele>659.0</ele><time>2026-04-04T15:24:55.647Z</time></trkpt><trkpt lat="44.3203633" lon="9.473765"><ele>659.0</ele><time>2026-04-04T15:24:57.647Z</time></trkpt><trkpt lat="44.3204567" lon="9.4736783"><ele>659.0</ele><time>2026-04-04T15:24:59.648Z</time></trkpt><trkpt lat="44.3205417" lon="9.4736283"><ele>657.0</ele><time>2026-04-04T15:25:01.648Z</time></trkpt><trkpt lat="44.3206133" lon="9.473555"><ele>655.0</ele><time>2026-04-04T15:25:03.647Z</time></trkpt><trkpt lat="44.320695" lon="9.473465"><ele>653.0</ele><time>2026-04-04T15:25:05.648Z</time></trkpt><trkpt lat="44.3207867" lon="9.4733817"><ele>651.0</ele><time>2026-04-04T15:25:07.646Z</time></trkpt><trkpt lat="44.320885" lon="9.4733383"><ele>649.0</ele><time>2026-04-04T15:25:09.646Z</time></trkpt><trkpt lat="44.320945" lon="9.4732933"><ele>649.0</ele><time>2026-04-04T15:25:11.646Z</time></trkpt><trkpt lat="44.3209167" lon="9.47321"><ele>649.0</ele><time>2026-04-04T15:25:15.646Z</time></trkpt><trkpt lat="44.3208483" lon="9.4732317"><ele>649.0</ele><time>2026-04-04T15:25:17.647Z</time></trkpt><trkpt lat="44.3207717" lon="9.473265"><ele>649.0</ele><time>2026-04-04T15:25:19.646Z</time></trkpt><trkpt lat="44.3206867" lon="9.4733033"><ele>649.0</ele><time>2026-04-04T15:25:42.646Z</time></trkpt><trkpt lat="44.3206067" lon="9.473335"><ele>649.0</ele><time>2026-04-04T15:25:44.647Z</time></trkpt><trkpt lat="44.3205183" lon="9.4733533"><ele>644.2</ele><time>2026-04-04T15:25:46.646Z</time></trkpt><trkpt lat="44.320435" lon="9.47335"><ele>639.4000000000001</ele><time>2026-04-04T15:25:48.646Z</time></trkpt><trkpt lat="44.320345" lon="9.4733583"><ele>634.6</ele><time>2026-04-04T15:25:50.647Z</time></trkpt><trkpt lat="44.3202533" lon="9.4733933"><ele>629.8</ele><time>2026-04-04T15:25:52.646Z</time></trkpt><trkpt lat="44.32017" lon="9.4734683"><ele>625.0</ele><time>2026-04-04T15:25:54.646Z</time></trkpt><trkpt lat="44.3200983" lon="9.473545"><ele>625.0</ele><time>2026-04-04T15:25:56.646Z</time></trkpt><trkpt lat="44.31999" lon="9.4735317"><ele>625.0</ele><time>2026-04-04T15:25:59.647Z</time></trkpt><trkpt lat="44.319865" lon="9.4735067"><ele>625.0</ele><time>2026-04-04T15:26:01.646Z</time></trkpt><trkpt lat="44.3197467" lon="9.473495"><ele>625.0</ele><time>2026-04-04T15:26:03.646Z</time></trkpt><trkpt lat="44.3196317" lon="9.473475"><ele>622.2857142857143</ele><time>2026-04-04T15:26:05.646Z</time></trkpt><trkpt lat="44.3195383" lon="9.4734583"><ele>619.5714285714286</ele><time>2026-04-04T15:26:07.646Z</time></trkpt><trkpt lat="44.3194667" lon="9.47345"><ele>616.8571428571429</ele><time>2026-04-04T15:26:09.646Z</time></trkpt><trkpt lat="44.3194017" lon="9.4734533"><ele>614.1428571428571</ele><time>2026-04-04T15:26:11.646Z</time></trkpt><trkpt lat="44.3193383" lon="9.4734683"><ele>611.4285714285714</ele><time>2026-04-04T15:26:13.646Z</time></trkpt><trkpt lat="44.3192633" lon="9.4734867"><ele>608.7142857142858</ele><time>2026-04-04T15:26:15.647Z</time></trkpt><trkpt lat="44.3191917" lon="9.4734967"><ele>606.0</ele><time>2026-04-04T15:26:17.646Z</time></trkpt><trkpt lat="44.3191083" lon="9.47346"><ele>606.0</ele><time>2026-04-04T15:26:20.646Z</time></trkpt><trkpt lat="44.3190417" lon="9.4734133"><ele>606.0</ele><time>2026-04-04T15:26:22.646Z</time></trkpt><trkpt lat="44.3189433" lon="9.4733867"><ele>606.0</ele><time>2026-04-04T15:26:24.647Z</time></trkpt><trkpt lat="44.3188333" lon="9.47339"><ele>606.0</ele><time>2026-04-04T15:26:26.646Z</time></trkpt><trkpt lat="44.31874" lon="9.4734183"><ele>606.0</ele><time>2026-04-04T15:26:28.646Z</time></trkpt><trkpt lat="44.3186733" lon="9.4734233"><ele>606.0</ele><time>2026-04-04T15:26:30.646Z</time></trkpt><trkpt lat="44.3186967" lon="9.473325"><ele>606.0</ele><time>2026-04-04T15:26:34.647Z</time></trkpt><trkpt lat="44.3187833" lon="9.47326"><ele>606.0</ele><time>2026-04-04T15:26:36.646Z</time></trkpt><trkpt lat="44.3188967" lon="9.4731983"><ele>606.0</ele><time>2026-04-04T15:26:38.647Z</time></trkpt><trkpt lat="44.3190017" lon="9.473185"><ele>606.0</ele><time>2026-04-04T15:26:40.646Z</time></trkpt><trkpt lat="44.3190667" lon="9.4731667"><ele>606.0</ele><time>2026-04-04T15:26:42.646Z</time></trkpt><trkpt lat="44.3190283" lon="9.4730683"><ele>606.0</ele><time>2026-04-04T15:26:47.647Z</time></trkpt><trkpt lat="44.3189533" lon="9.47304"><ele>606.0</ele><time>2026-04-04T15:26:49.646Z</time></trkpt><trkpt lat="44.318855" lon="9.4730333"><ele>606.0</ele><time>2026-04-04T15:26:51.646Z</time></trkpt><trkpt lat="44.3187517" lon="9.47304"><ele>606.0</ele><time>2026-04-04T15:26:53.647Z</time></trkpt><trkpt lat="44.3186417" lon="9.4730617"><ele>606.0</ele><time>2026-04-04T15:26:55.646Z</time></trkpt><trkpt lat="44.31854" lon="9.47311"><ele>601.8333333333334</ele><time>2026-04-04T15:26:57.647Z</time></trkpt><trkpt lat="44.3184417" lon="9.47315"><ele>597.6666666666666</ele><time>2026-04-04T15:26:59.646Z</time></trkpt><trkpt lat="44.3183733" lon="9.4731933"><ele>593.5</ele><time>2026-04-04T15:27:01.647Z</time></trkpt><trkpt lat="44.3183567" lon="9.4731067"><ele>589.3333333333333</ele><time>2026-04-04T15:27:07.646Z</time></trkpt><trkpt lat="44.31843" lon="9.47305"><ele>585.1666666666666</ele><time>2026-04-04T15:27:09.647Z</time></trkpt><trkpt lat="44.3185083" lon="9.4729717"><ele>581.0</ele><time>2026-04-04T15:27:11.646Z</time></trkpt><trkpt lat="44.3186" lon="9.472895"><ele>577.8333333333333</ele><time>2026-04-04T15:27:13.646Z</time></trkpt><trkpt lat="44.3186983" lon="9.4728283"><ele>574.6666666666666</ele><time>2026-04-04T15:27:15.646Z</time></trkpt><trkpt lat="44.3187617" lon="9.472755"><ele>571.5</ele><time>2026-04-04T15:27:17.646Z</time></trkpt><trkpt lat="44.31873" lon="9.4726633"><ele>568.3333333333334</ele><time>2026-04-04T15:27:20.647Z</time></trkpt><trkpt lat="44.3186667" lon="9.4726667"><ele>565.1666666666667</ele><time>2026-04-04T15:27:22.646Z</time></trkpt><trkpt lat="44.31861" lon="9.472705"><ele>562.0</ele><time>2026-04-04T15:27:24.647Z</time></trkpt><trkpt lat="44.318515" lon="9.4727567"><ele>562.0</ele><time>2026-04-04T15:27:26.646Z</time></trkpt><trkpt lat="44.3184267" lon="9.4728017"><ele>562.0</ele><time>2026-04-04T15:27:28.646Z</time></trkpt><trkpt lat="44.3183333" lon="9.4728533"><ele>562.0</ele><time>2026-04-04T15:27:30.646Z</time></trkpt><trkpt lat="44.318225" lon="9.4728983"><ele>562.0</ele><time>2026-04-04T15:27:32.647Z</time></trkpt><trkpt lat="44.318125" lon="9.4729083"><ele>562.0</ele><time>2026-04-04T15:27:34.647Z</time></trkpt><trkpt lat="44.31802" lon="9.4729133"><ele>561.6</ele><time>2026-04-04T15:27:36.647Z</time></trkpt><trkpt lat="44.317915" lon="9.472945"><ele>561.2</ele><time>2026-04-04T15:27:38.646Z</time></trkpt><trkpt lat="44.3178133" lon="9.4729733"><ele>560.8</ele><time>2026-04-04T15:27:40.647Z</time></trkpt><trkpt lat="44.317715" lon="9.4730067"><ele>560.4</ele><time>2026-04-04T15:27:42.647Z</time></trkpt><trkpt lat="44.3176233" lon="9.47303"><ele>560.0</ele><time>2026-04-04T15:27:44.646Z</time></trkpt><trkpt lat="44.317535" lon="9.4730083"><ele>560.0</ele><time>2026-04-04T15:27:46.646Z</time></trkpt><trkpt lat="44.3174583" lon="9.4729967"><ele>560.0</ele><time>2026-04-04T15:27:48.647Z</time></trkpt><trkpt lat="44.31738" lon="9.472985"><ele>560.0</ele><time>2026-04-04T15:27:50.647Z</time></trkpt><trkpt lat="44.3173133" lon="9.4729383"><ele>560.0</ele><time>2026-04-04T15:27:52.647Z</time></trkpt><trkpt lat="44.3172683" lon="9.4728417"><ele>560.0</ele><time>2026-04-04T15:27:54.646Z</time></trkpt><trkpt lat="44.31721" lon="9.4727383"><ele>560.0</ele><time>2026-04-04T15:27:56.647Z</time></trkpt><trkpt lat="44.3171533" lon="9.4726383"><ele>554.8333333333333</ele><time>2026-04-04T15:27:58.646Z</time></trkpt><trkpt lat="44.317085" lon="9.472555"><ele>549.6666666666666</ele><time>2026-04-04T15:28:00.646Z</time></trkpt><trkpt lat="44.3170283" lon="9.4725117"><ele>544.5</ele><time>2026-04-04T15:28:02.646Z</time></trkpt><trkpt lat="44.3169433" lon="9.4725117"><ele>539.3333333333334</ele><time>2026-04-04T15:28:05.646Z</time></trkpt><trkpt lat="44.3168783" lon="9.47254"><ele>534.1666666666667</ele><time>2026-04-04T15:28:07.646Z</time></trkpt><trkpt lat="44.316795" lon="9.472535"><ele>529.0</ele><time>2026-04-04T15:28:09.646Z</time></trkpt><trkpt lat="44.3166967" lon="9.47251"><ele>529.0</ele><time>2026-04-04T15:28:11.646Z</time></trkpt><trkpt lat="44.3165767" lon="9.4725"><ele>529.0</ele><time>2026-04-04T15:28:13.647Z</time></trkpt><trkpt lat="44.31651" lon="9.4725083"><ele>529.0</ele><time>2026-04-04T15:28:14.646Z</time></trkpt><trkpt lat="44.3164417" lon="9.47252"><ele>529.0</ele><time>2026-04-04T15:28:15.646Z</time></trkpt><trkpt lat="44.31632" lon="9.472515"><ele>529.0</ele><time>2026-04-04T15:28:17.646Z</time></trkpt><trkpt lat="44.3162217" lon="9.4724883"><ele>528.8333333333334</ele><time>2026-04-04T15:28:19.647Z</time></trkpt><trkpt lat="44.3161417" lon="9.47243"><ele>528.6666666666667</ele><time>2026-04-04T15:28:21.646Z</time></trkpt><trkpt lat="44.3160767" lon="9.4723617"><ele>528.5</ele><time>2026-04-04T15:28:23.646Z</time></trkpt><trkpt lat="44.3160167" lon="9.4722733"><ele>528.3333333333334</ele><time>2026-04-04T15:28:25.646Z</time></trkpt><trkpt lat="44.315945" lon="9.472185"><ele>528.1666666666666</ele><time>2026-04-04T15:28:27.647Z</time></trkpt><trkpt lat="44.3158617" lon="9.4721683"><ele>528.0</ele><time>2026-04-04T15:28:29.646Z</time></trkpt><trkpt lat="44.3157683" lon="9.4722217"><ele>528.0</ele><time>2026-04-04T15:28:31.646Z</time></trkpt><trkpt lat="44.315685" lon="9.4723017"><ele>528.0</ele><time>2026-04-04T15:28:33.646Z</time></trkpt><trkpt lat="44.3156033" lon="9.472365"><ele>528.0</ele><time>2026-04-04T15:28:35.646Z</time></trkpt><trkpt lat="44.3155083" lon="9.4723867"><ele>528.0</ele><time>2026-04-04T15:28:37.646Z</time></trkpt><trkpt lat="44.3154017" lon="9.4724117"><ele>528.0</ele><time>2026-04-04T15:28:39.646Z</time></trkpt><trkpt lat="44.315295" lon="9.4724317"><ele>525.1666666666666</ele><time>2026-04-04T15:28:41.647Z</time></trkpt><trkpt lat="44.3151983" lon="9.4724717"><ele>522.3333333333334</ele><time>2026-04-04T15:28:43.646Z</time></trkpt><trkpt lat="44.315135" lon="9.472495"><ele>519.5</ele><time>2026-04-04T15:28:45.646Z</time></trkpt><trkpt lat="44.3150683" lon="9.4725317"><ele>516.6666666666667</ele><time>2026-04-04T15:29:38.646Z</time></trkpt><trkpt lat="44.31496" lon="9.4726117"><ele>513.8333333333334</ele><time>2026-04-04T15:29:40.645Z</time></trkpt><trkpt lat="44.31489" lon="9.4726567"><ele>511.0</ele><time>2026-04-04T15:29:41.645Z</time></trkpt><trkpt lat="44.31482" lon="9.4726967"><ele>511.0</ele><time>2026-04-04T15:29:42.646Z</time></trkpt><trkpt lat="44.31476" lon="9.4727433"><ele>511.0</ele><time>2026-04-04T15:29:43.645Z</time></trkpt><trkpt lat="44.3146533" lon="9.47281"><ele>511.0</ele><time>2026-04-04T15:29:45.645Z</time></trkpt><trkpt lat="44.314565" lon="9.4728317"><ele>511.0</ele><time>2026-04-04T15:29:47.645Z</time></trkpt><trkpt lat="44.3144817" lon="9.472805"><ele>511.0</ele><time>2026-04-04T15:29:49.645Z</time></trkpt><trkpt lat="44.3143783" lon="9.4727467"><ele>511.8</ele><time>2026-04-04T15:29:51.645Z</time></trkpt><trkpt lat="44.3142783" lon="9.47264"><ele>512.6</ele><time>2026-04-04T15:29:53.645Z</time></trkpt><trkpt lat="44.314225" lon="9.47259"><ele>513.4</ele><time>2026-04-04T15:29:54.645Z</time></trkpt><trkpt lat="44.3141667" lon="9.4725517"><ele>514.2</ele><time>2026-04-04T15:29:55.646Z</time></trkpt><trkpt lat="44.3140733" lon="9.472485"><ele>515.0</ele><time>2026-04-04T15:29:57.645Z</time></trkpt><trkpt lat="44.31401" lon="9.472385"><ele>515.0</ele><time>2026-04-04T15:29:59.645Z</time></trkpt><trkpt lat="44.31396" lon="9.47225"><ele>515.0</ele><time>2026-04-04T15:30:01.645Z</time></trkpt><trkpt lat="44.313935" lon="9.4720767"><ele>515.0</ele><time>2026-04-04T15:30:03.646Z</time></trkpt><trkpt lat="44.3139133" lon="9.471985"><ele>515.0</ele><time>2026-04-04T15:30:04.646Z</time></trkpt><trkpt lat="44.3138467" lon="9.4718683"><ele>515.0</ele><time>2026-04-04T15:30:06.646Z</time></trkpt><trkpt lat="44.3137767" lon="9.4718517"><ele>515.8</ele><time>2026-04-04T15:30:08.645Z</time></trkpt><trkpt lat="44.313705" lon="9.4719083"><ele>516.6</ele><time>2026-04-04T15:30:10.646Z</time></trkpt><trkpt lat="44.3136417" lon="9.47204"><ele>517.4</ele><time>2026-04-04T15:30:12.646Z</time></trkpt><trkpt lat="44.313605" lon="9.4721183"><ele>518.2</ele><time>2026-04-04T15:30:13.645Z</time></trkpt><trkpt lat="44.3135167" lon="9.4722267"><ele>519.0</ele><time>2026-04-04T15:30:15.645Z</time></trkpt><trkpt lat="44.313405" lon="9.472275"><ele>519.0</ele><time>2026-04-04T15:30:17.645Z</time></trkpt><trkpt lat="44.3132983" lon="9.47234"><ele>519.0</ele><time>2026-04-04T15:30:19.646Z</time></trkpt><trkpt lat="44.31319" lon="9.4723717"><ele>519.0</ele><time>2026-04-04T15:30:21.645Z</time></trkpt><trkpt lat="44.31308" lon="9.4723817"><ele>519.0</ele><time>2026-04-04T15:30:23.645Z</time></trkpt><trkpt lat="44.3129683" lon="9.4724083"><ele>517.6666666666666</ele><time>2026-04-04T15:30:25.645Z</time></trkpt><trkpt lat="44.3128883" lon="9.472375"><ele>516.3333333333334</ele><time>2026-04-04T15:30:27.645Z</time></trkpt><trkpt lat="44.3128417" lon="9.472275"><ele>515.0</ele><time>2026-04-04T15:30:29.645Z</time></trkpt><trkpt lat="44.312825" lon="9.47214"><ele>513.6666666666667</ele><time>2026-04-04T15:30:31.645Z</time></trkpt><trkpt lat="44.31283" lon="9.4720417"><ele>512.3333333333334</ele><time>2026-04-04T15:30:33.646Z</time></trkpt><trkpt lat="44.3128217" lon="9.4719417"><ele>511.0</ele><time>2026-04-04T15:30:37.645Z</time></trkpt><trkpt lat="44.312805" lon="9.4718183"><ele>511.0</ele><time>2026-04-04T15:30:40.645Z</time></trkpt><trkpt lat="44.3127783" lon="9.471685"><ele>511.0</ele><time>2026-04-04T15:30:42.646Z</time></trkpt><trkpt lat="44.31276" lon="9.4715483"><ele>511.0</ele><time>2026-04-04T15:30:44.646Z</time></trkpt><trkpt lat="44.312755" lon="9.4714017"><ele>511.0</ele><time>2026-04-04T15:30:46.645Z</time></trkpt><trkpt lat="44.31274" lon="9.4712567"><ele>511.0</ele><time>2026-04-04T15:30:48.645Z</time></trkpt><trkpt lat="44.3127133" lon="9.4711117"><ele>506.4</ele><time>2026-04-04T15:30:50.646Z</time></trkpt><trkpt lat="44.3126733" lon="9.4709683"><ele>501.8</ele><time>2026-04-04T15:30:52.646Z</time></trkpt><trkpt lat="44.3126333" lon="9.4708433"><ele>497.19999999999993</ele><time>2026-04-04T15:30:54.645Z</time></trkpt><trkpt lat="44.3125667" lon="9.4707633"><ele>492.59999999999997</ele><time>2026-04-04T15:30:56.645Z</time></trkpt><trkpt lat="44.3124617" lon="9.4707117"><ele>488.0</ele><time>2026-04-04T15:30:58.645Z</time></trkpt><trkpt lat="44.31236" lon="9.4706833"><ele>488.0</ele><time>2026-04-04T15:31:00.645Z</time></trkpt><trkpt lat="44.3122617" lon="9.4706783"><ele>487.99999999999994</ele><time>2026-04-04T15:31:02.645Z</time></trkpt><trkpt lat="44.312155" lon="9.4706883"><ele>487.99999999999994</ele><time>2026-04-04T15:31:04.646Z</time></trkpt><trkpt lat="44.312075" lon="9.47066"><ele>488.0</ele><time>2026-04-04T15:31:06.645Z</time></trkpt><trkpt lat="44.3120633" lon="9.47054"><ele>488.0</ele><time>2026-04-04T15:31:09.646Z</time></trkpt><trkpt lat="44.3121317" lon="9.4704217"><ele>488.99999999999994</ele><time>2026-04-04T15:31:11.645Z</time></trkpt><trkpt lat="44.312205" lon="9.470325"><ele>490.0</ele><time>2026-04-04T15:31:13.645Z</time></trkpt><trkpt lat="44.312245" lon="9.4702283"><ele>491.0</ele><time>2026-04-04T15:31:15.646Z</time></trkpt><trkpt lat="44.3122583" lon="9.4701133"><ele>492.0</ele><time>2026-04-04T15:31:17.645Z</time></trkpt><trkpt lat="44.3122583" lon="9.469995"><ele>492.99999999999994</ele><time>2026-04-04T15:31:19.645Z</time></trkpt><trkpt lat="44.3122633" lon="9.4698933"><ele>494.0</ele><time>2026-04-04T15:31:21.645Z</time></trkpt><trkpt lat="44.3122367" lon="9.4697767"><ele>493.99999999999994</ele><time>2026-04-04T15:31:23.645Z</time></trkpt><trkpt lat="44.3121917" lon="9.469675"><ele>494.0</ele><time>2026-04-04T15:31:25.645Z</time></trkpt><trkpt lat="44.3121733" lon="9.4695817"><ele>494.0</ele><time>2026-04-04T15:31:27.645Z</time></trkpt><trkpt lat="44.3122" lon="9.469485"><ele>494.0</ele><time>2026-04-04T15:31:30.645Z</time></trkpt><trkpt lat="44.3122833" lon="9.46942"><ele>493.99999999999994</ele><time>2026-04-04T15:31:33.645Z</time></trkpt><trkpt lat="44.31235" lon="9.469365"><ele>494.0</ele><time>2026-04-04T15:31:35.645Z</time></trkpt><trkpt lat="44.3124133" lon="9.46927"><ele>488.49999999999994</ele><time>2026-04-04T15:31:37.646Z</time></trkpt><trkpt lat="44.3124667" lon="9.4691633"><ele>483.0</ele><time>2026-04-04T15:31:39.645Z</time></trkpt><trkpt lat="44.312525" lon="9.4691067"><ele>477.5</ele><time>2026-04-04T15:31:41.645Z</time></trkpt><trkpt lat="44.3125817" lon="9.4691483"><ele>472.0</ele><time>2026-04-04T15:31:43.646Z</time></trkpt><trkpt lat="44.3126383" lon="9.4692517"><ele>466.49999999999994</ele><time>2026-04-04T15:31:45.645Z</time></trkpt><trkpt lat="44.31271" lon="9.4693517"><ele>461.0</ele><time>2026-04-04T15:31:47.646Z</time></trkpt><trkpt lat="44.3127917" lon="9.4694117"><ele>461.0</ele><time>2026-04-04T15:31:49.646Z</time></trkpt><trkpt lat="44.3128567" lon="9.469435"><ele>461.00000000000006</ele><time>2026-04-04T15:31:51.646Z</time></trkpt><trkpt lat="44.312925" lon="9.4694583"><ele>461.0</ele><time>2026-04-04T15:31:53.645Z</time></trkpt><trkpt lat="44.3129867" lon="9.4694817"><ele>461.0</ele><time>2026-04-04T15:31:55.645Z</time></trkpt><trkpt lat="44.313055" lon="9.469455"><ele>461.00000000000006</ele><time>2026-04-04T15:31:57.646Z</time></trkpt><trkpt lat="44.3130633" lon="9.4693433"><ele>461.0</ele><time>2026-04-04T15:32:01.645Z</time></trkpt><trkpt lat="44.3130017" lon="9.4692883"><ele>461.0</ele><time>2026-04-04T15:32:04.645Z</time></trkpt><trkpt lat="44.3129483" lon="9.469185"><ele>460.99999999999994</ele><time>2026-04-04T15:32:07.645Z</time></trkpt><trkpt lat="44.3129333" lon="9.469075"><ele>461.0</ele><time>2026-04-04T15:32:09.645Z</time></trkpt><trkpt lat="44.3129433" lon="9.4689567"><ele>461.0</ele><time>2026-04-04T15:32:11.645Z</time></trkpt><trkpt lat="44.3129467" lon="9.4688483"><ele>461.0</ele><time>2026-04-04T15:32:13.645Z</time></trkpt><trkpt lat="44.3129383" lon="9.4687517"><ele>460.99999999999994</ele><time>2026-04-04T15:32:15.646Z</time></trkpt><trkpt lat="44.31294" lon="9.4686617"><ele>461.0</ele><time>2026-04-04T15:32:17.646Z</time></trkpt><trkpt lat="44.3130117" lon="9.4686283"><ele>458.3333333333333</ele><time>2026-04-04T15:32:20.645Z</time></trkpt><trkpt lat="44.3130767" lon="9.468705"><ele>455.66666666666663</ele><time>2026-04-04T15:32:23.645Z</time></trkpt><trkpt lat="44.3130967" lon="9.4688133"><ele>453.0</ele><time>2026-04-04T15:32:25.645Z</time></trkpt><trkpt lat="44.3131183" lon="9.4689067"><ele>450.33333333333337</ele><time>2026-04-04T15:32:27.645Z</time></trkpt><trkpt lat="44.3131867" lon="9.4689417"><ele>447.6666666666667</ele><time>2026-04-04T15:32:30.645Z</time></trkpt><trkpt lat="44.313215" lon="9.46884"><ele>445.0</ele><time>2026-04-04T15:32:34.645Z</time></trkpt><trkpt lat="44.3132683" lon="9.4686517"><ele>442.0</ele><time>2026-04-04T15:33:09.645Z</time></trkpt><trkpt lat="44.3133467" lon="9.4685467"><ele>439.0</ele><time>2026-04-04T15:33:11.644Z</time></trkpt><trkpt lat="44.31342" lon="9.4684317"><ele>436.0</ele><time>2026-04-04T15:33:13.644Z</time></trkpt><trkpt lat="44.3134883" lon="9.4683133"><ele>433.0</ele><time>2026-04-04T15:33:15.644Z</time></trkpt><trkpt lat="44.3135383" lon="9.4681933"><ele>430.0</ele><time>2026-04-04T15:33:17.644Z</time></trkpt><trkpt lat="44.3135717" lon="9.4680783"><ele>430.00000000000006</ele><time>2026-04-04T15:33:19.644Z</time></trkpt><trkpt lat="44.3136083" lon="9.46796"><ele>430.0</ele><time>2026-04-04T15:33:21.644Z</time></trkpt><trkpt lat="44.3136233" lon="9.467855"><ele>430.0</ele><time>2026-04-04T15:33:23.645Z</time></trkpt><trkpt lat="44.313615" lon="9.46775"><ele>430.0</ele><time>2026-04-04T15:33:25.644Z</time></trkpt><trkpt lat="44.313575" lon="9.4676383"><ele>430.00000000000006</ele><time>2026-04-04T15:33:27.645Z</time></trkpt><trkpt lat="44.31352" lon="9.46753"><ele>430.0</ele><time>2026-04-04T15:33:29.645Z</time></trkpt><trkpt lat="44.3134817" lon="9.4674117"><ele>427.4</ele><time>2026-04-04T15:33:31.644Z</time></trkpt><trkpt lat="44.3134933" lon="9.4672783"><ele>424.8</ele><time>2026-04-04T15:33:33.644Z</time></trkpt><trkpt lat="44.313515" lon="9.4671617"><ele>422.20000000000005</ele><time>2026-04-04T15:33:35.644Z</time></trkpt><trkpt lat="44.3135" lon="9.4670467"><ele>419.6</ele><time>2026-04-04T15:33:37.644Z</time></trkpt><trkpt lat="44.3134283" lon="9.466955"><ele>417.0</ele><time>2026-04-04T15:33:39.644Z</time></trkpt><trkpt lat="44.313365" lon="9.4668683"><ele>415.1666666666667</ele><time>2026-04-04T15:33:41.644Z</time></trkpt><trkpt lat="44.3133633" lon="9.46674"><ele>413.33333333333337</ele><time>2026-04-04T15:33:43.644Z</time></trkpt><trkpt lat="44.3133767" lon="9.4666267"><ele>411.5</ele><time>2026-04-04T15:33:45.644Z</time></trkpt><trkpt lat="44.3133083" lon="9.4666033"><ele>409.6666666666667</ele><time>2026-04-04T15:33:48.645Z</time></trkpt><trkpt lat="44.3132383" lon="9.4667067"><ele>407.83333333333337</ele><time>2026-04-04T15:33:50.645Z</time></trkpt><trkpt lat="44.3131733" lon="9.4666933"><ele>406.0</ele><time>2026-04-04T15:33:52.644Z</time></trkpt><trkpt lat="44.3131417" lon="9.4665683"><ele>406.00000000000006</ele><time>2026-04-04T15:33:54.644Z</time></trkpt><trkpt lat="44.3130983" lon="9.4664417"><ele>406.0</ele><time>2026-04-04T15:33:56.645Z</time></trkpt><trkpt lat="44.31302" lon="9.46641"><ele>406.0</ele><time>2026-04-04T15:33:58.644Z</time></trkpt><trkpt lat="44.3129267" lon="9.466405"><ele>406.0</ele><time>2026-04-04T15:34:00.644Z</time></trkpt><trkpt lat="44.312865" lon="9.466335"><ele>406.00000000000006</ele><time>2026-04-04T15:34:02.644Z</time></trkpt><trkpt lat="44.3128317" lon="9.4662167"><ele>406.0</ele><time>2026-04-04T15:34:04.645Z</time></trkpt><trkpt lat="44.3127833" lon="9.466095"><ele>403.6</ele><time>2026-04-04T15:34:06.644Z</time></trkpt><trkpt lat="44.3126867" lon="9.4659883"><ele>401.20000000000005</ele><time>2026-04-04T15:34:08.644Z</time></trkpt><trkpt lat="44.31262" lon="9.4659333"><ele>398.79999999999995</ele><time>2026-04-04T15:34:09.644Z</time></trkpt><trkpt lat="44.3125567" lon="9.46587"><ele>396.4</ele><time>2026-04-04T15:34:10.644Z</time></trkpt><trkpt lat="44.3124933" lon="9.4657883"><ele>394.0</ele><time>2026-04-04T15:34:11.645Z</time></trkpt><trkpt lat="44.3124317" lon="9.4657067"><ele>394.00000000000006</ele><time>2026-04-04T15:34:12.645Z</time></trkpt><trkpt lat="44.3123683" lon="9.4656383"><ele>394.0</ele><time>2026-04-04T15:34:13.644Z</time></trkpt><trkpt lat="44.312315" lon="9.4655767"><ele>394.0</ele><time>2026-04-04T15:34:14.644Z</time></trkpt><trkpt lat="44.3122717" lon="9.4655117"><ele>394.0</ele><time>2026-04-04T15:34:15.644Z</time></trkpt><trkpt lat="44.3122133" lon="9.4653617"><ele>394.00000000000006</ele><time>2026-04-04T15:34:17.644Z</time></trkpt><trkpt lat="44.3121933" lon="9.4652767"><ele>394.0</ele><time>2026-04-04T15:34:18.645Z</time></trkpt><trkpt lat="44.3121633" lon="9.465115"><ele>395.0</ele><time>2026-04-04T15:34:20.645Z</time></trkpt><trkpt lat="44.312105" lon="9.46498"><ele>396.0</ele><time>2026-04-04T15:34:22.644Z</time></trkpt><trkpt lat="44.3120467" lon="9.46485"><ele>397.0</ele><time>2026-04-04T15:34:24.644Z</time></trkpt><trkpt lat="44.311995" lon="9.4647133"><ele>398.0</ele><time>2026-04-04T15:34:26.644Z</time></trkpt><trkpt lat="44.3119267" lon="9.4645783"><ele>391.0</ele><time>2026-04-04T15:34:28.644Z</time></trkpt><trkpt lat="44.3118767" lon="9.4645083"><ele>384.0</ele><time>2026-04-04T15:34:29.644Z</time></trkpt><trkpt lat="44.3118233" lon="9.46444"><ele>377.0</ele><time>2026-04-04T15:34:30.644Z</time></trkpt><trkpt lat="44.3117617" lon="9.464385"><ele>370.0</ele><time>2026-04-04T15:34:31.644Z</time></trkpt><trkpt lat="44.3116617" lon="9.4643217"><ele>363.0</ele><time>2026-04-04T15:34:33.644Z</time></trkpt><trkpt lat="44.3115383" lon="9.4643"><ele>362.99999999999994</ele><time>2026-04-04T15:34:35.644Z</time></trkpt><trkpt lat="44.3114667" lon="9.46432"><ele>363.0</ele><time>2026-04-04T15:34:36.644Z</time></trkpt><trkpt lat="44.3113983" lon="9.4643467"><ele>363.0</ele><time>2026-04-04T15:34:37.644Z</time></trkpt><trkpt lat="44.3113367" lon="9.464385"><ele>363.0</ele><time>2026-04-04T15:34:38.645Z</time></trkpt><trkpt lat="44.3112633" lon="9.4644367"><ele>363.0</ele><time>2026-04-04T15:34:39.644Z</time></trkpt><trkpt lat="44.31119" lon="9.4644667"><ele>362.99999999999994</ele><time>2026-04-04T15:34:40.644Z</time></trkpt><trkpt lat="44.311125" lon="9.464475"><ele>363.0</ele><time>2026-04-04T15:34:41.644Z</time></trkpt><trkpt lat="44.31106" lon="9.4644633"><ele>367.1666666666667</ele><time>2026-04-04T15:34:42.644Z</time></trkpt><trkpt lat="44.311" lon="9.4644333"><ele>371.33333333333337</ele><time>2026-04-04T15:34:43.644Z</time></trkpt><trkpt lat="44.310945" lon="9.4643383"><ele>375.5</ele><time>2026-04-04T15:34:45.645Z</time></trkpt><trkpt lat="44.3109217" lon="9.464235"><ele>379.6666666666667</ele><time>2026-04-04T15:34:47.645Z</time></trkpt><trkpt lat="44.310925" lon="9.4641117"><ele>383.83333333333337</ele><time>2026-04-04T15:34:49.644Z</time></trkpt><trkpt lat="44.3109217" lon="9.4640117"><ele>388.0</ele><time>2026-04-04T15:34:50.645Z</time></trkpt><trkpt lat="44.3109217" lon="9.4639033"><ele>388.00000000000006</ele><time>2026-04-04T15:34:51.645Z</time></trkpt><trkpt lat="44.3109367" lon="9.4637983"><ele>388.0</ele><time>2026-04-04T15:34:52.644Z</time></trkpt><trkpt lat="44.3109517" lon="9.4637"><ele>388.0</ele><time>2026-04-04T15:34:53.644Z</time></trkpt><trkpt lat="44.310965" lon="9.4636133"><ele>388.0</ele><time>2026-04-04T15:34:54.645Z</time></trkpt><trkpt lat="44.3109817" lon="9.46347"><ele>388.00000000000006</ele><time>2026-04-04T15:34:56.644Z</time></trkpt><trkpt lat="44.310955" lon="9.46331"><ele>388.0</ele><time>2026-04-04T15:34:58.644Z</time></trkpt><trkpt lat="44.31094" lon="9.4632217"><ele>385.2</ele><time>2026-04-04T15:34:59.644Z</time></trkpt><trkpt lat="44.3109083" lon="9.4630667"><ele>382.4</ele><time>2026-04-04T15:35:01.644Z</time></trkpt><trkpt lat="44.3108467" lon="9.4629183"><ele>379.59999999999997</ele><time>2026-04-04T15:35:03.645Z</time></trkpt><trkpt lat="44.31076" lon="9.4627983"><ele>376.79999999999995</ele><time>2026-04-04T15:35:05.644Z</time></trkpt><trkpt lat="44.310705" lon="9.4627467"><ele>374.0</ele><time>2026-04-04T15:35:06.644Z</time></trkpt><trkpt lat="44.3106533" lon="9.462695"><ele>378.0</ele><time>2026-04-04T15:35:07.645Z</time></trkpt><trkpt lat="44.31055" lon="9.462605"><ele>382.0</ele><time>2026-04-04T15:35:09.644Z</time></trkpt><trkpt lat="44.310505" lon="9.4625383"><ele>386.0</ele><time>2026-04-04T15:35:10.644Z</time></trkpt><trkpt lat="44.3104667" lon="9.4624517"><ele>390.0</ele><time>2026-04-04T15:35:11.645Z</time></trkpt><trkpt lat="44.3104267" lon="9.4623583"><ele>393.99999999999994</ele><time>2026-04-04T15:35:12.645Z</time></trkpt><trkpt lat="44.3103817" lon="9.4622767"><ele>398.0</ele><time>2026-04-04T15:35:13.645Z</time></trkpt><trkpt lat="44.310295" lon="9.462165"><ele>392.2</ele><time>2026-04-04T15:35:15.644Z</time></trkpt><trkpt lat="44.3101833" lon="9.4621017"><ele>386.4</ele><time>2026-04-04T15:35:17.644Z</time></trkpt><trkpt lat="44.31007" lon="9.4620583"><ele>380.59999999999997</ele><time>2026-04-04T15:35:19.645Z</time></trkpt><trkpt lat="44.3099883" lon="9.4619733"><ele>374.79999999999995</ele><time>2026-04-04T15:35:21.644Z</time></trkpt><trkpt lat="44.3099733" lon="9.4618333"><ele>369.0</ele><time>2026-04-04T15:35:23.645Z</time></trkpt><trkpt lat="44.3099883" lon="9.4616967"><ele>369.0</ele><time>2026-04-04T15:35:25.645Z</time></trkpt><trkpt lat="44.3099517" lon="9.461545"><ele>369.0</ele><time>2026-04-04T15:35:27.644Z</time></trkpt><trkpt lat="44.309915" lon="9.46146"><ele>369.0</ele><time>2026-04-04T15:35:28.644Z</time></trkpt><trkpt lat="44.3098767" lon="9.4613683"><ele>369.0</ele><time>2026-04-04T15:35:29.644Z</time></trkpt><trkpt lat="44.3098367" lon="9.461265"><ele>369.0</ele><time>2026-04-04T15:35:30.644Z</time></trkpt><trkpt lat="44.3098" lon="9.46116"><ele>369.0</ele><time>2026-04-04T15:35:31.645Z</time></trkpt><trkpt lat="44.3097717" lon="9.461065"><ele>372.0</ele><time>2026-04-04T15:35:32.644Z</time></trkpt><trkpt lat="44.309745" lon="9.4609817"><ele>375.0</ele><time>2026-04-04T15:35:33.644Z</time></trkpt><trkpt lat="44.3096983" lon="9.4608433"><ele>378.0</ele><time>2026-04-04T15:35:35.644Z</time></trkpt><trkpt lat="44.3096283" lon="9.4607567"><ele>381.0</ele><time>2026-04-04T15:35:37.645Z</time></trkpt><trkpt lat="44.3095167" lon="9.4607067"><ele>384.0</ele><time>2026-04-04T15:35:39.645Z</time></trkpt><trkpt lat="44.3094433" lon="9.4606767"><ele>384.0</ele><time>2026-04-04T15:35:40.644Z</time></trkpt><trkpt lat="44.30938" lon="9.4606533"><ele>384.0</ele><time>2026-04-04T15:35:41.644Z</time></trkpt><trkpt lat="44.3093183" lon="9.46063"><ele>384.0</ele><time>2026-04-04T15:35:42.644Z</time></trkpt><trkpt lat="44.309205" lon="9.460575"><ele>384.0</ele><time>2026-04-04T15:35:44.644Z</time></trkpt><trkpt lat="44.309135" lon="9.46053"><ele>384.0</ele><time>2026-04-04T15:35:45.644Z</time></trkpt><trkpt lat="44.3090717" lon="9.4604817"><ele>384.0</ele><time>2026-04-04T15:35:46.644Z</time></trkpt><trkpt lat="44.3090083" lon="9.4604283"><ele>386.3333333333333</ele><time>2026-04-04T15:35:47.645Z</time></trkpt><trkpt lat="44.3089467" lon="9.4603667"><ele>388.66666666666663</ele><time>2026-04-04T15:35:48.644Z</time></trkpt><trkpt lat="44.3088867" lon="9.46031"><ele>391.0</ele><time>2026-04-04T15:35:49.644Z</time></trkpt><trkpt lat="44.3088383" lon="9.4602483"><ele>393.3333333333333</ele><time>2026-04-04T15:35:50.644Z</time></trkpt><trkpt lat="44.3087533" lon="9.4601283"><ele>395.66666666666663</ele><time>2026-04-04T15:35:52.645Z</time></trkpt><trkpt lat="44.30867" lon="9.4600317"><ele>398.0</ele><time>2026-04-04T15:35:54.644Z</time></trkpt><trkpt lat="44.30866" lon="9.4599133"><ele>397.99999999999994</ele><time>2026-04-04T15:35:56.644Z</time></trkpt><trkpt lat="44.3086833" lon="9.4598283"><ele>398.0</ele><time>2026-04-04T15:35:57.644Z</time></trkpt><trkpt lat="44.30872" lon="9.4597333"><ele>398.0</ele><time>2026-04-04T15:35:58.645Z</time></trkpt><trkpt lat="44.3087683" lon="9.4596367"><ele>398.0</ele><time>2026-04-04T15:35:59.645Z</time></trkpt><trkpt lat="44.3088183" lon="9.4595233"><ele>397.99999999999994</ele><time>2026-04-04T15:36:00.644Z</time></trkpt><trkpt lat="44.30887" lon="9.4594217"><ele>398.0</ele><time>2026-04-04T15:36:01.644Z</time></trkpt><trkpt lat="44.3089" lon="9.4593433"><ele>398.2</ele><time>2026-04-04T15:36:02.644Z</time></trkpt><trkpt lat="44.3089333" lon="9.4592083"><ele>398.4</ele><time>2026-04-04T15:36:04.644Z</time></trkpt><trkpt lat="44.3089367" lon="9.4591083"><ele>398.59999999999997</ele><time>2026-04-04T15:36:05.644Z</time></trkpt><trkpt lat="44.30893" lon="9.4589817"><ele>398.79999999999995</ele><time>2026-04-04T15:36:06.645Z</time></trkpt><trkpt lat="44.3089033" lon="9.4588317"><ele>399.0</ele><time>2026-04-04T15:36:07.645Z</time></trkpt><trkpt lat="44.3088733" lon="9.4586833"><ele>398.3333333333333</ele><time>2026-04-04T15:36:08.644Z</time></trkpt><trkpt lat="44.3088483" lon="9.458565"><ele>397.66666666666663</ele><time>2026-04-04T15:36:09.645Z</time></trkpt><trkpt lat="44.308825" lon="9.458465"><ele>397.0</ele><time>2026-04-04T15:36:10.645Z</time></trkpt><trkpt lat="44.308815" lon="9.4583767"><ele>396.3333333333333</ele><time>2026-04-04T15:36:11.645Z</time></trkpt><trkpt lat="44.3088233" lon="9.4582867"><ele>395.66666666666663</ele><time>2026-04-04T15:36:12.644Z</time></trkpt><trkpt lat="44.3088517" lon="9.4581817"><ele>395.0</ele><time>2026-04-04T15:36:13.644Z</time></trkpt><trkpt lat="44.3088767" lon="9.45808"><ele>389.2</ele><time>2026-04-04T15:36:14.645Z</time></trkpt><trkpt lat="44.308895" lon="9.45792"><ele>383.4</ele><time>2026-04-04T15:36:16.645Z</time></trkpt><trkpt lat="44.30886" lon="9.4577833"><ele>377.6</ele><time>2026-04-04T15:36:18.644Z</time></trkpt><trkpt lat="44.30877" lon="9.4576683"><ele>371.8</ele><time>2026-04-04T15:36:20.644Z</time></trkpt><trkpt lat="44.3087133" lon="9.4576267"><ele>366.0</ele><time>2026-04-04T15:36:21.644Z</time></trkpt><trkpt lat="44.3086517" lon="9.4575983"><ele>366.0</ele><time>2026-04-04T15:36:22.644Z</time></trkpt><trkpt lat="44.3085767" lon="9.45759"><ele>366.0</ele><time>2026-04-04T15:36:23.644Z</time></trkpt><trkpt lat="44.3085017" lon="9.4575717"><ele>366.0</ele><time>2026-04-04T15:36:24.644Z</time></trkpt><trkpt lat="44.3084267" lon="9.4575417"><ele>366.0</ele><time>2026-04-04T15:36:25.644Z</time></trkpt><trkpt lat="44.308345" lon="9.4574983"><ele>366.0</ele><time>2026-04-04T15:36:26.644Z</time></trkpt><trkpt lat="44.3082567" lon="9.45744"><ele>366.0</ele><time>2026-04-04T15:36:27.644Z</time></trkpt><trkpt lat="44.3081767" lon="9.4573867"><ele>366.0</ele><time>2026-04-04T15:36:28.644Z</time></trkpt><trkpt lat="44.3081083" lon="9.457335"><ele>366.0</ele><time>2026-04-04T15:36:29.644Z</time></trkpt><trkpt lat="44.308045" lon="9.4572767"><ele>366.0</ele><time>2026-04-04T15:36:30.644Z</time></trkpt><trkpt lat="44.3079833" lon="9.457195"><ele>366.0</ele><time>2026-04-04T15:36:31.644Z</time></trkpt><trkpt lat="44.30793" lon="9.457115"><ele>366.0</ele><time>2026-04-04T15:36:32.644Z</time></trkpt><trkpt lat="44.3078783" lon="9.4570217"><ele>366.0</ele><time>2026-04-04T15:36:33.644Z</time></trkpt><trkpt lat="44.3078267" lon="9.4569367"><ele>368.1666666666667</ele><time>2026-04-04T15:36:34.644Z</time></trkpt><trkpt lat="44.3077817" lon="9.4568483"><ele>370.3333333333333</ele><time>2026-04-04T15:36:35.644Z</time></trkpt><trkpt lat="44.307735" lon="9.4567867"><ele>372.5</ele><time>2026-04-04T15:36:36.645Z</time></trkpt><trkpt lat="44.3076383" lon="9.4567117"><ele>374.66666666666663</ele><time>2026-04-04T15:36:38.645Z</time></trkpt><trkpt lat="44.3075233" lon="9.4566917"><ele>376.8333333333333</ele><time>2026-04-04T15:36:40.643Z</time></trkpt><trkpt lat="44.30745" lon="9.45667"><ele>379.0</ele><time>2026-04-04T15:36:42.644Z</time></trkpt><trkpt lat="44.307485" lon="9.4565517"><ele>379.0</ele><time>2026-04-04T15:36:45.643Z</time></trkpt><trkpt lat="44.30757" lon="9.4564333"><ele>379.0</ele><time>2026-04-04T15:36:47.644Z</time></trkpt><trkpt lat="44.307625" lon="9.4563833"><ele>379.0</ele><time>2026-04-04T15:36:48.643Z</time></trkpt><trkpt lat="44.3076917" lon="9.4563333"><ele>379.0</ele><time>2026-04-04T15:36:49.643Z</time></trkpt><trkpt lat="44.3077617" lon="9.45629"><ele>379.0</ele><time>2026-04-04T15:36:50.643Z</time></trkpt><trkpt lat="44.30782" lon="9.456245"><ele>379.0</ele><time>2026-04-04T15:36:51.644Z</time></trkpt><trkpt lat="44.3079033" lon="9.4561267"><ele>381.5</ele><time>2026-04-04T15:36:53.643Z</time></trkpt><trkpt lat="44.3079467" lon="9.4560467"><ele>384.0</ele><time>2026-04-04T15:36:54.643Z</time></trkpt><trkpt lat="44.307985" lon="9.4559617"><ele>386.5</ele><time>2026-04-04T15:36:55.644Z</time></trkpt><trkpt lat="44.3080167" lon="9.455885"><ele>389.0</ele><time>2026-04-04T15:36:56.644Z</time></trkpt><trkpt lat="44.3080933" lon="9.4557667"><ele>391.50000000000006</ele><time>2026-04-04T15:36:58.643Z</time></trkpt><trkpt lat="44.3081283" lon="9.4556933"><ele>394.0</ele><time>2026-04-04T15:36:59.643Z</time></trkpt><trkpt lat="44.3081583" lon="9.4556017"><ele>389.42857142857144</ele><time>2026-04-04T15:37:00.644Z</time></trkpt><trkpt lat="44.3081933" lon="9.455495"><ele>384.8571428571429</ele><time>2026-04-04T15:37:01.643Z</time></trkpt><trkpt lat="44.308235" lon="9.4554017"><ele>380.2857142857143</ele><time>2026-04-04T15:37:02.644Z</time></trkpt><trkpt lat="44.3082683" lon="9.455325"><ele>375.7142857142857</ele><time>2026-04-04T15:37:03.643Z</time></trkpt><trkpt lat="44.3082933" lon="9.4552433"><ele>371.1428571428571</ele><time>2026-04-04T15:37:04.643Z</time></trkpt><trkpt lat="44.3083117" lon="9.4551483"><ele>366.57142857142856</ele><time>2026-04-04T15:37:05.644Z</time></trkpt><trkpt lat="44.3083233" lon="9.45504"><ele>362.0</ele><time>2026-04-04T15:37:06.643Z</time></trkpt><trkpt lat="44.3083217" lon="9.4549117"><ele>362.0</ele><time>2026-04-04T15:37:07.643Z</time></trkpt><trkpt lat="44.30833" lon="9.4547783"><ele>362.0</ele><time>2026-04-04T15:37:08.644Z</time></trkpt><trkpt lat="44.30834" lon="9.45464"><ele>362.0</ele><time>2026-04-04T15:37:09.643Z</time></trkpt><trkpt lat="44.3083533" lon="9.4545117"><ele>362.0</ele><time>2026-04-04T15:37:10.643Z</time></trkpt><trkpt lat="44.30837" lon="9.4543983"><ele>362.0</ele><time>2026-04-04T15:37:11.643Z</time></trkpt><trkpt lat="44.30839" lon="9.4543"><ele>362.0</ele><time>2026-04-04T15:37:12.643Z</time></trkpt><trkpt lat="44.3084233" lon="9.4541967"><ele>365.20000000000005</ele><time>2026-04-04T15:37:13.644Z</time></trkpt><trkpt lat="44.3084667" lon="9.4540783"><ele>368.4</ele><time>2026-04-04T15:37:14.643Z</time></trkpt><trkpt lat="44.308525" lon="9.453965"><ele>371.6</ele><time>2026-04-04T15:37:15.643Z</time></trkpt><trkpt lat="44.3085833" lon="9.4538533"><ele>374.79999999999995</ele><time>2026-04-04T15:37:16.643Z</time></trkpt><trkpt lat="44.308635" lon="9.453755"><ele>378.0</ele><time>2026-04-04T15:37:17.643Z</time></trkpt><trkpt lat="44.308675" lon="9.4536667"><ele>377.8333333333333</ele><time>2026-04-04T15:37:18.643Z</time></trkpt><trkpt lat="44.3087117" lon="9.4535917"><ele>377.6666666666667</ele><time>2026-04-04T15:37:19.643Z</time></trkpt><trkpt lat="44.308755" lon="9.4534333"><ele>377.5</ele><time>2026-04-04T15:37:21.644Z</time></trkpt><trkpt lat="44.3087617" lon="9.4533333"><ele>377.33333333333337</ele><time>2026-04-04T15:37:22.643Z</time></trkpt><trkpt lat="44.3087617" lon="9.4532433"><ele>377.1666666666667</ele><time>2026-04-04T15:37:23.643Z</time></trkpt><trkpt lat="44.3087583" lon="9.4530733"><ele>377.0</ele><time>2026-04-04T15:37:25.643Z</time></trkpt><trkpt lat="44.3087283" lon="9.4529267"><ele>377.0</ele><time>2026-04-04T15:37:27.643Z</time></trkpt><trkpt lat="44.3087067" lon="9.4527867"><ele>377.0</ele><time>2026-04-04T15:37:29.643Z</time></trkpt><trkpt lat="44.3086783" lon="9.4526333"><ele>377.0</ele><time>2026-04-04T15:37:31.643Z</time></trkpt><trkpt lat="44.3086467" lon="9.4525367"><ele>377.0</ele><time>2026-04-04T15:37:32.643Z</time></trkpt><trkpt lat="44.308605" lon="9.4524283"><ele>377.0</ele><time>2026-04-04T15:37:33.644Z</time></trkpt><trkpt lat="44.3085767" lon="9.4523217"><ele>377.0</ele><time>2026-04-04T15:37:34.644Z</time></trkpt><trkpt lat="44.3085617" lon="9.452215"><ele>377.0</ele><time>2026-04-04T15:37:35.643Z</time></trkpt><trkpt lat="44.3085667" lon="9.452125"><ele>377.0</ele><time>2026-04-04T15:37:36.643Z</time></trkpt><trkpt lat="44.3085717" lon="9.4519617"><ele>377.0</ele><time>2026-04-04T15:37:38.643Z</time></trkpt><trkpt lat="44.3085383" lon="9.4518367"><ele>377.0</ele><time>2026-04-04T15:37:40.644Z</time></trkpt><trkpt lat="44.308435" lon="9.4517267"><ele>373.83333333333337</ele><time>2026-04-04T15:37:42.644Z</time></trkpt><trkpt lat="44.3083533" lon="9.4516767"><ele>370.6666666666667</ele><time>2026-04-04T15:37:43.643Z</time></trkpt><trkpt lat="44.3082717" lon="9.4516167"><ele>367.5</ele><time>2026-04-04T15:37:44.643Z</time></trkpt><trkpt lat="44.3081933" lon="9.4515567"><ele>364.3333333333333</ele><time>2026-04-04T15:37:45.643Z</time></trkpt><trkpt lat="44.3081267" lon="9.4515183"><ele>361.16666666666663</ele><time>2026-04-04T15:37:46.643Z</time></trkpt><trkpt lat="44.308055" lon="9.4514917"><ele>358.0</ele><time>2026-04-04T15:37:47.643Z</time></trkpt><trkpt lat="44.3079883" lon="9.4514833"><ele>357.8333333333333</ele><time>2026-04-04T15:37:48.643Z</time></trkpt><trkpt lat="44.3079217" lon="9.4514783"><ele>357.66666666666663</ele><time>2026-04-04T15:37:49.643Z</time></trkpt><trkpt lat="44.3078567" lon="9.451495"><ele>357.5</ele><time>2026-04-04T15:37:50.643Z</time></trkpt><trkpt lat="44.30778" lon="9.45152"><ele>357.3333333333333</ele><time>2026-04-04T15:37:51.643Z</time></trkpt><trkpt lat="44.3076917" lon="9.4515467"><ele>357.1666666666667</ele><time>2026-04-04T15:37:52.643Z</time></trkpt><trkpt lat="44.3075967" lon="9.4515917"><ele>357.0</ele><time>2026-04-04T15:37:53.643Z</time></trkpt><trkpt lat="44.3075" lon="9.45165"><ele>357.0</ele><time>2026-04-04T15:37:54.644Z</time></trkpt><trkpt lat="44.3074067" lon="9.4517167"><ele>357.0</ele><time>2026-04-04T15:37:55.643Z</time></trkpt><trkpt lat="44.3073183" lon="9.4517733"><ele>357.0</ele><time>2026-04-04T15:37:56.643Z</time></trkpt><trkpt lat="44.3072317" lon="9.4518167"><ele>357.0</ele><time>2026-04-04T15:37:57.643Z</time></trkpt><trkpt lat="44.3071533" lon="9.45184"><ele>357.0</ele><time>2026-04-04T15:37:58.643Z</time></trkpt><trkpt lat="44.3070717" lon="9.451855"><ele>355.0</ele><time>2026-04-04T15:37:59.643Z</time></trkpt><trkpt lat="44.306985" lon="9.4518367"><ele>353.0</ele><time>2026-04-04T15:38:00.643Z</time></trkpt><trkpt lat="44.3068983" lon="9.4518283"><ele>351.0</ele><time>2026-04-04T15:38:01.643Z</time></trkpt><trkpt lat="44.3068233" lon="9.4518267"><ele>349.0</ele><time>2026-04-04T15:38:02.643Z</time></trkpt><trkpt lat="44.306715" lon="9.4518933"><ele>347.0</ele><time>2026-04-04T15:38:04.643Z</time></trkpt><trkpt lat="44.30666" lon="9.4519567"><ele>345.0</ele><time>2026-04-04T15:38:05.643Z</time></trkpt><trkpt lat="44.3066017" lon="9.4520167"><ele>345.0</ele><time>2026-04-04T15:38:06.644Z</time></trkpt><trkpt lat="44.3065483" lon="9.4520767"><ele>345.0</ele><time>2026-04-04T15:38:07.643Z</time></trkpt><trkpt lat="44.3064883" lon="9.45214"><ele>345.0</ele><time>2026-04-04T15:38:08.643Z</time></trkpt><trkpt lat="44.3064317" lon="9.4522067"><ele>345.0</ele><time>2026-04-04T15:38:09.643Z</time></trkpt><trkpt lat="44.30638" lon="9.4522767"><ele>345.0</ele><time>2026-04-04T15:38:10.643Z</time></trkpt><trkpt lat="44.30632" lon="9.4523383"><ele>345.0</ele><time>2026-04-04T15:38:11.643Z</time></trkpt><trkpt lat="44.3062667" lon="9.4523983"><ele>345.0</ele><time>2026-04-04T15:38:12.643Z</time></trkpt><trkpt lat="44.306175" lon="9.4525267"><ele>346.0</ele><time>2026-04-04T15:38:14.644Z</time></trkpt><trkpt lat="44.30609" lon="9.45266"><ele>347.0</ele><time>2026-04-04T15:38:16.643Z</time></trkpt><trkpt lat="44.30604" lon="9.4527217"><ele>348.0</ele><time>2026-04-04T15:38:17.643Z</time></trkpt><trkpt lat="44.3059317" lon="9.4528167"><ele>349.0</ele><time>2026-04-04T15:38:19.643Z</time></trkpt><trkpt lat="44.3058717" lon="9.45287"><ele>350.0</ele><time>2026-04-04T15:38:20.643Z</time></trkpt><trkpt lat="44.305805" lon="9.4529233"><ele>350.6666666666667</ele><time>2026-04-04T15:38:21.643Z</time></trkpt><trkpt lat="44.305735" lon="9.4529867"><ele>351.33333333333337</ele><time>2026-04-04T15:38:22.643Z</time></trkpt><trkpt lat="44.3056583" lon="9.4530383"><ele>352.0</ele><time>2026-04-04T15:38:23.644Z</time></trkpt><trkpt lat="44.305585" lon="9.4530883"><ele>352.6666666666667</ele><time>2026-04-04T15:38:24.643Z</time></trkpt><trkpt lat="44.3055117" lon="9.45314"><ele>353.3333333333333</ele><time>2026-04-04T15:38:25.644Z</time></trkpt><trkpt lat="44.3054433" lon="9.4531917"><ele>354.0</ele><time>2026-04-04T15:38:26.643Z</time></trkpt><trkpt lat="44.30538" lon="9.4532483"><ele>354.0</ele><time>2026-04-04T15:38:27.643Z</time></trkpt><trkpt lat="44.3053033" lon="9.4533133"><ele>354.0</ele><time>2026-04-04T15:38:28.643Z</time></trkpt><trkpt lat="44.3052233" lon="9.4533917"><ele>354.0</ele><time>2026-04-04T15:38:29.643Z</time></trkpt><trkpt lat="44.305155" lon="9.453455"><ele>354.0</ele><time>2026-04-04T15:38:30.644Z</time></trkpt><trkpt lat="44.3051017" lon="9.4535167"><ele>354.0</ele><time>2026-04-04T15:38:31.643Z</time></trkpt><trkpt lat="44.305045" lon="9.45357"><ele>354.0</ele><time>2026-04-04T15:38:32.643Z</time></trkpt><trkpt lat="44.304975" lon="9.4536233"><ele>354.0</ele><time>2026-04-04T15:38:33.643Z</time></trkpt><trkpt lat="44.3049083" lon="9.4536767"><ele>354.0</ele><time>2026-04-04T15:38:34.644Z</time></trkpt><trkpt lat="44.3048367" lon="9.4537133"><ele>354.0</ele><time>2026-04-04T15:38:35.644Z</time></trkpt><trkpt lat="44.3047767" lon="9.4537533"><ele>354.0</ele><time>2026-04-04T15:38:36.643Z</time></trkpt><trkpt lat="44.304685" lon="9.453835"><ele>354.0</ele><time>2026-04-04T15:38:38.644Z</time></trkpt><trkpt lat="44.3046117" lon="9.4539417"><ele>354.0</ele><time>2026-04-04T15:38:40.643Z</time></trkpt><trkpt lat="44.3045517" lon="9.454095"><ele>355.6</ele><time>2026-04-04T15:38:42.643Z</time></trkpt><trkpt lat="44.3045033" lon="9.45424"><ele>357.2</ele><time>2026-04-04T15:38:44.644Z</time></trkpt><trkpt lat="44.30444" lon="9.454335"><ele>358.8</ele><time>2026-04-04T15:38:46.643Z</time></trkpt><trkpt lat="44.3043567" lon="9.454335"><ele>360.40000000000003</ele><time>2026-04-04T15:38:48.644Z</time></trkpt><trkpt lat="44.3042833" lon="9.4542433"><ele>362.0</ele><time>2026-04-04T15:38:50.643Z</time></trkpt><trkpt lat="44.3041833" lon="9.4541367"><ele>362.0</ele><time>2026-04-04T15:38:52.643Z</time></trkpt><trkpt lat="44.304125" lon="9.454095"><ele>362.0</ele><time>2026-04-04T15:38:53.643Z</time></trkpt><trkpt lat="44.3040133" lon="9.4540567"><ele>362.0</ele><time>2026-04-04T15:38:55.643Z</time></trkpt><trkpt lat="44.3039033" lon="9.4540717"><ele>362.0</ele><time>2026-04-04T15:38:57.643Z</time></trkpt><trkpt lat="44.3038433" lon="9.4541"><ele>362.0</ele><time>2026-04-04T15:38:58.643Z</time></trkpt><trkpt lat="44.3037733" lon="9.454125"><ele>362.0</ele><time>2026-04-04T15:38:59.644Z</time></trkpt><trkpt lat="44.3037067" lon="9.45414"><ele>360.8</ele><time>2026-04-04T15:39:00.643Z</time></trkpt><trkpt lat="44.3035933" lon="9.45409"><ele>359.6</ele><time>2026-04-04T15:39:02.643Z</time></trkpt><trkpt lat="44.3035417" lon="9.4540317"><ele>358.40000000000003</ele><time>2026-04-04T15:39:03.643Z</time></trkpt><trkpt lat="44.3034983" lon="9.4539533"><ele>357.20000000000005</ele><time>2026-04-04T15:39:04.644Z</time></trkpt><trkpt lat="44.303445" lon="9.45385"><ele>356.0</ele><time>2026-04-04T15:39:05.644Z</time></trkpt><trkpt lat="44.3033783" lon="9.4537417"><ele>356.0</ele><time>2026-04-04T15:39:06.644Z</time></trkpt><trkpt lat="44.3033133" lon="9.4536383"><ele>356.0</ele><time>2026-04-04T15:39:07.643Z</time></trkpt><trkpt lat="44.3032433" lon="9.4535483"><ele>356.0</ele><time>2026-04-04T15:39:08.643Z</time></trkpt><trkpt lat="44.303195" lon="9.453465"><ele>356.0</ele><time>2026-04-04T15:39:09.643Z</time></trkpt><trkpt lat="44.3031533" lon="9.45338"><ele>356.0</ele><time>2026-04-04T15:39:10.643Z</time></trkpt><trkpt lat="44.30314" lon="9.4532833"><ele>356.0</ele><time>2026-04-04T15:39:11.643Z</time></trkpt><trkpt lat="44.303135" lon="9.4531917"><ele>356.0</ele><time>2026-04-04T15:39:12.643Z</time></trkpt><trkpt lat="44.3031333" lon="9.45308"><ele>356.0</ele><time>2026-04-04T15:39:13.643Z</time></trkpt><trkpt lat="44.30313" lon="9.452955"><ele>356.0</ele><time>2026-04-04T15:39:14.644Z</time></trkpt><trkpt lat="44.30312" lon="9.4528167"><ele>356.0</ele><time>2026-04-04T15:39:15.643Z</time></trkpt><trkpt lat="44.303105" lon="9.4526867"><ele>356.0</ele><time>2026-04-04T15:39:16.644Z</time></trkpt><trkpt lat="44.3030983" lon="9.4525717"><ele>356.0</ele><time>2026-04-04T15:39:17.643Z</time></trkpt><trkpt lat="44.30309" lon="9.452475"><ele>361.1666666666667</ele><time>2026-04-04T15:39:18.643Z</time></trkpt><trkpt lat="44.30305" lon="9.45231"><ele>366.33333333333337</ele><time>2026-04-04T15:39:20.643Z</time></trkpt><trkpt lat="44.3030183" lon="9.45222"><ele>371.5</ele><time>2026-04-04T15:39:21.643Z</time></trkpt><trkpt lat="44.302985" lon="9.452135"><ele>376.6666666666667</ele><time>2026-04-04T15:39:22.643Z</time></trkpt><trkpt lat="44.302955" lon="9.45204"><ele>381.8333333333333</ele><time>2026-04-04T15:39:23.643Z</time></trkpt><trkpt lat="44.30293" lon="9.4519467"><ele>387.0</ele><time>2026-04-04T15:39:24.643Z</time></trkpt><trkpt lat="44.30292" lon="9.4518517"><ele>387.0</ele><time>2026-04-04T15:39:25.644Z</time></trkpt><trkpt lat="44.302935" lon="9.4516917"><ele>387.0</ele><time>2026-04-04T15:39:27.643Z</time></trkpt><trkpt lat="44.3029617" lon="9.451605"><ele>387.0</ele><time>2026-04-04T15:39:28.643Z</time></trkpt><trkpt lat="44.3029917" lon="9.4515083"><ele>387.0</ele><time>2026-04-04T15:39:29.643Z</time></trkpt><trkpt lat="44.3030283" lon="9.4514133"><ele>387.0</ele><time>2026-04-04T15:39:30.643Z</time></trkpt><trkpt lat="44.303055" lon="9.45131"><ele>387.0</ele><time>2026-04-04T15:39:31.643Z</time></trkpt><trkpt lat="44.3030617" lon="9.4512117"><ele>385.40000000000003</ele><time>2026-04-04T15:39:32.644Z</time></trkpt><trkpt lat="44.3030617" lon="9.4511117"><ele>383.8</ele><time>2026-04-04T15:39:33.643Z</time></trkpt><trkpt lat="44.3030617" lon="9.45102"><ele>382.2</ele><time>2026-04-04T15:39:34.643Z</time></trkpt><trkpt lat="44.3030417" lon="9.4508633"><ele>380.6</ele><time>2026-04-04T15:39:36.643Z</time></trkpt><trkpt lat="44.30298" lon="9.450705"><ele>379.0</ele><time>2026-04-04T15:39:38.643Z</time></trkpt><trkpt lat="44.3029133" lon="9.4505933"><ele>379.0</ele><time>2026-04-04T15:39:40.643Z</time></trkpt><trkpt lat="44.3028633" lon="9.45052"><ele>379.0</ele><time>2026-04-04T15:39:42.643Z</time></trkpt><trkpt lat="44.3028133" lon="9.450445"><ele>379.0</ele><time>2026-04-04T15:39:45.643Z</time></trkpt><trkpt lat="44.3027583" lon="9.4503767"><ele>379.0</ele><time>2026-04-04T15:41:52.642Z</time></trkpt><trkpt lat="44.3027" lon="9.4502733"><ele>379.0</ele><time>2026-04-04T15:41:54.642Z</time></trkpt><trkpt lat="44.3026467" lon="9.4501367"><ele>379.0</ele><time>2026-04-04T15:41:56.643Z</time></trkpt><trkpt lat="44.3026" lon="9.4499833"><ele>376.5714285714286</ele><time>2026-04-04T15:41:58.642Z</time></trkpt><trkpt lat="44.3025783" lon="9.4499"><ele>374.14285714285717</ele><time>2026-04-04T15:41:59.643Z</time></trkpt><trkpt lat="44.30256" lon="9.449815"><ele>371.7142857142857</ele><time>2026-04-04T15:42:00.642Z</time></trkpt><trkpt lat="44.3025367" lon="9.44973"><ele>369.28571428571433</ele><time>2026-04-04T15:42:01.642Z</time></trkpt><trkpt lat="44.3025117" lon="9.4496467"><ele>366.85714285714283</ele><time>2026-04-04T15:42:02.642Z</time></trkpt><trkpt lat="44.3024833" lon="9.449565"><ele>364.42857142857144</ele><time>2026-04-04T15:42:03.642Z</time></trkpt><trkpt lat="44.302455" lon="9.449485"><ele>362.0</ele><time>2026-04-04T15:42:04.643Z</time></trkpt><trkpt lat="44.3024017" lon="9.4493367"><ele>360.20000000000005</ele><time>2026-04-04T15:42:06.642Z</time></trkpt><trkpt lat="44.302355" lon="9.449195"><ele>358.4</ele><time>2026-04-04T15:42:08.642Z</time></trkpt><trkpt lat="44.3023517" lon="9.4490333"><ele>356.6</ele><time>2026-04-04T15:42:10.642Z</time></trkpt><trkpt lat="44.3023567" lon="9.4489417"><ele>354.79999999999995</ele><time>2026-04-04T15:42:11.642Z</time></trkpt><trkpt lat="44.3023317" lon="9.4487767"><ele>353.0</ele><time>2026-04-04T15:42:13.642Z</time></trkpt><trkpt lat="44.3023117" lon="9.44863"><ele>351.2</ele><time>2026-04-04T15:42:15.642Z</time></trkpt><trkpt lat="44.3023233" lon="9.448485"><ele>349.4</ele><time>2026-04-04T15:42:17.642Z</time></trkpt><trkpt lat="44.3023333" lon="9.4483967"><ele>347.59999999999997</ele><time>2026-04-04T15:42:18.642Z</time></trkpt><trkpt lat="44.3023333" lon="9.44823"><ele>345.79999999999995</ele><time>2026-04-04T15:42:20.643Z</time></trkpt><trkpt lat="44.3023117" lon="9.44809"><ele>344.0</ele><time>2026-04-04T15:42:22.643Z</time></trkpt><trkpt lat="44.3022817" lon="9.4479567"><ele>342.4</ele><time>2026-04-04T15:42:24.642Z</time></trkpt><trkpt lat="44.3022633" lon="9.44782"><ele>340.79999999999995</ele><time>2026-04-04T15:42:26.642Z</time></trkpt><trkpt lat="44.3022783" lon="9.4476917"><ele>339.20000000000005</ele><time>2026-04-04T15:42:28.642Z</time></trkpt><trkpt lat="44.3023317" lon="9.447595"><ele>337.6</ele><time>2026-04-04T15:42:30.642Z</time></trkpt><trkpt lat="44.3024067" lon="9.4475267"><ele>336.0</ele><time>2026-04-04T15:42:32.642Z</time></trkpt><trkpt lat="44.3024683" lon="9.4474417"><ele>336.0</ele><time>2026-04-04T15:42:34.642Z</time></trkpt><trkpt lat="44.302505" lon="9.4473333"><ele>336.0</ele><time>2026-04-04T15:42:36.642Z</time></trkpt><trkpt lat="44.3025183" lon="9.4472417"><ele>336.0</ele><time>2026-04-04T15:42:38.642Z</time></trkpt><trkpt lat="44.302505" lon="9.4471283"><ele>336.0</ele><time>2026-04-04T15:42:49.643Z</time></trkpt><trkpt lat="44.3025167" lon="9.447015"><ele>336.0</ele><time>2026-04-04T15:42:51.643Z</time></trkpt><trkpt lat="44.3025383" lon="9.4468883"><ele>336.0</ele><time>2026-04-04T15:42:53.643Z</time></trkpt><trkpt lat="44.3025483" lon="9.44676"><ele>334.4</ele><time>2026-04-04T15:42:55.642Z</time></trkpt><trkpt lat="44.30255" lon="9.4466233"><ele>332.8</ele><time>2026-04-04T15:42:57.642Z</time></trkpt><trkpt lat="44.3025383" lon="9.4464883"><ele>331.2</ele><time>2026-04-04T15:42:59.642Z</time></trkpt><trkpt lat="44.3025133" lon="9.4463483"><ele>329.59999999999997</ele><time>2026-04-04T15:43:01.642Z</time></trkpt><trkpt lat="44.3024933" lon="9.4462067"><ele>328.0</ele><time>2026-04-04T15:43:03.642Z</time></trkpt><trkpt lat="44.302475" lon="9.446045"><ele>326.2</ele><time>2026-04-04T15:43:05.643Z</time></trkpt><trkpt lat="44.3024717" lon="9.4459567"><ele>324.4</ele><time>2026-04-04T15:43:06.643Z</time></trkpt><trkpt lat="44.3024717" lon="9.445865"><ele>322.59999999999997</ele><time>2026-04-04T15:43:07.642Z</time></trkpt><trkpt lat="44.3024517" lon="9.44569"><ele>320.79999999999995</ele><time>2026-04-04T15:43:09.642Z</time></trkpt><trkpt lat="44.3024267" lon="9.445525"><ele>319.0</ele><time>2026-04-04T15:43:11.642Z</time></trkpt><trkpt lat="44.3023933" lon="9.4453683"><ele>318.2</ele><time>2026-04-04T15:43:13.642Z</time></trkpt><trkpt lat="44.3023833" lon="9.44519"><ele>317.4</ele><time>2026-04-04T15:43:15.642Z</time></trkpt><trkpt lat="44.30239" lon="9.4450967"><ele>316.6</ele><time>2026-04-04T15:43:16.643Z</time></trkpt><trkpt lat="44.3024083" lon="9.44501"><ele>315.8</ele><time>2026-04-04T15:43:17.642Z</time></trkpt><trkpt lat="44.3024317" lon="9.4448433"><ele>315.0</ele><time>2026-04-04T15:43:19.643Z</time></trkpt><trkpt lat="44.3023983" lon="9.4447317"><ele>315.0</ele><time>2026-04-04T15:43:21.642Z</time></trkpt><trkpt lat="44.3023233" lon="9.444675"><ele>315.0</ele><time>2026-04-04T15:43:23.642Z</time></trkpt><trkpt lat="44.3022333" lon="9.4446617"><ele>315.0</ele><time>2026-04-04T15:43:25.642Z</time></trkpt><trkpt lat="44.3021733" lon="9.4447467"><ele>315.0</ele><time>2026-04-04T15:43:27.643Z</time></trkpt><trkpt lat="44.3021483" lon="9.4449017"><ele>315.0</ele><time>2026-04-04T15:43:29.642Z</time></trkpt><trkpt lat="44.302165" lon="9.44504"><ele>310.0</ele><time>2026-04-04T15:43:31.642Z</time></trkpt><trkpt lat="44.3021583" lon="9.4451317"><ele>305.0</ele><time>2026-04-04T15:43:33.643Z</time></trkpt><trkpt lat="44.3021067" lon="9.4451833"><ele>300.0</ele><time>2026-04-04T15:43:35.642Z</time></trkpt><trkpt lat="44.3020367" lon="9.4451517"><ele>295.0</ele><time>2026-04-04T15:43:37.642Z</time></trkpt><trkpt lat="44.3019867" lon="9.4450333"><ele>290.0</ele><time>2026-04-04T15:43:39.642Z</time></trkpt><trkpt lat="44.3019683" lon="9.4448633"><ele>285.0</ele><time>2026-04-04T15:43:41.643Z</time></trkpt><trkpt lat="44.3019117" lon="9.44475"><ele>285.0</ele><time>2026-04-04T15:43:43.643Z</time></trkpt><trkpt lat="44.30183" lon="9.4447633"><ele>285.0</ele><time>2026-04-04T15:43:45.643Z</time></trkpt><trkpt lat="44.3017733" lon="9.4448217"><ele>285.0</ele><time>2026-04-04T15:43:46.642Z</time></trkpt><trkpt lat="44.30172" lon="9.4448983"><ele>285.0</ele><time>2026-04-04T15:43:47.643Z</time></trkpt><trkpt lat="44.301675" lon="9.444985"><ele>285.0</ele><time>2026-04-04T15:43:48.643Z</time></trkpt><trkpt lat="44.3016367" lon="9.4450633"><ele>285.0</ele><time>2026-04-04T15:43:49.642Z</time></trkpt><trkpt lat="44.3015933" lon="9.44513"><ele>285.0</ele><time>2026-04-04T15:43:50.642Z</time></trkpt><trkpt lat="44.3014833" lon="9.4452083"><ele>285.0</ele><time>2026-04-04T15:43:52.642Z</time></trkpt><trkpt lat="44.3014233" lon="9.44525"><ele>285.0</ele><time>2026-04-04T15:43:53.642Z</time></trkpt><trkpt lat="44.301375" lon="9.44531"><ele>285.0</ele><time>2026-04-04T15:43:54.643Z</time></trkpt><trkpt lat="44.3013333" lon="9.4453917"><ele>285.0</ele><time>2026-04-04T15:43:55.642Z</time></trkpt><trkpt lat="44.301305" lon="9.4454917"><ele>285.0</ele><time>2026-04-04T15:43:56.642Z</time></trkpt><trkpt lat="44.30129" lon="9.4456"><ele>285.0</ele><time>2026-04-04T15:43:57.643Z</time></trkpt><trkpt lat="44.301285" lon="9.445715"><ele>285.0</ele><time>2026-04-04T15:43:58.642Z</time></trkpt><trkpt lat="44.3012733" lon="9.4458317"><ele>281.5</ele><time>2026-04-04T15:43:59.643Z</time></trkpt><trkpt lat="44.3012633" lon="9.4459433"><ele>278.0</ele><time>2026-04-04T15:44:00.642Z</time></trkpt><trkpt lat="44.3012533" lon="9.4460567"><ele>274.5</ele><time>2026-04-04T15:44:01.643Z</time></trkpt><trkpt lat="44.3012367" lon="9.4461767"><ele>271.0</ele><time>2026-04-04T15:44:02.642Z</time></trkpt><trkpt lat="44.301215" lon="9.446285"><ele>267.5</ele><time>2026-04-04T15:44:03.642Z</time></trkpt><trkpt lat="44.3011867" lon="9.4463883"><ele>264.0</ele><time>2026-04-04T15:44:04.642Z</time></trkpt><trkpt lat="44.3011567" lon="9.446495"><ele>264.0</ele><time>2026-04-04T15:44:05.642Z</time></trkpt><trkpt lat="44.3011283" lon="9.4466017"><ele>264.0</ele><time>2026-04-04T15:44:06.643Z</time></trkpt><trkpt lat="44.301105" lon="9.4466983"><ele>264.0</ele><time>2026-04-04T15:44:07.642Z</time></trkpt><trkpt lat="44.3010733" lon="9.44679"><ele>264.0</ele><time>2026-04-04T15:44:08.642Z</time></trkpt><trkpt lat="44.3010417" lon="9.4468783"><ele>264.0</ele><time>2026-04-04T15:44:09.642Z</time></trkpt><trkpt lat="44.301005" lon="9.446965"><ele>264.0</ele><time>2026-04-04T15:44:10.642Z</time></trkpt><trkpt lat="44.300975" lon="9.4470567"><ele>264.0</ele><time>2026-04-04T15:44:11.642Z</time></trkpt><trkpt lat="44.3009533" lon="9.4471483"><ele>265.1428571428571</ele><time>2026-04-04T15:44:12.642Z</time></trkpt><trkpt lat="44.3009383" lon="9.44724"><ele>266.2857142857143</ele><time>2026-04-04T15:44:13.643Z</time></trkpt><trkpt lat="44.30093" lon="9.4473367"><ele>267.42857142857144</ele><time>2026-04-04T15:44:14.642Z</time></trkpt><trkpt lat="44.3009333" lon="9.4474333"><ele>268.57142857142856</ele><time>2026-04-04T15:44:15.643Z</time></trkpt><trkpt lat="44.3009417" lon="9.4475333"><ele>269.7142857142857</ele><time>2026-04-04T15:44:16.643Z</time></trkpt><trkpt lat="44.3009483" lon="9.4476367"><ele>270.85714285714283</ele><time>2026-04-04T15:44:17.642Z</time></trkpt><trkpt lat="44.3009533" lon="9.447735"><ele>272.0</ele><time>2026-04-04T15:44:18.642Z</time></trkpt><trkpt lat="44.30096" lon="9.4478917"><ele>274.2</ele><time>2026-04-04T15:44:20.642Z</time></trkpt><trkpt lat="44.3009067" lon="9.4480017"><ele>276.4</ele><time>2026-04-04T15:44:22.641Z</time></trkpt><trkpt lat="44.3008217" lon="9.4480783"><ele>278.6</ele><time>2026-04-04T15:44:24.643Z</time></trkpt><trkpt lat="44.30075" lon="9.4481933"><ele>280.8</ele><time>2026-04-04T15:44:26.642Z</time></trkpt><trkpt lat="44.3007033" lon="9.4483383"><ele>283.0</ele><time>2026-04-04T15:44:28.642Z</time></trkpt><trkpt lat="44.30066" lon="9.44846"><ele>283.0</ele><time>2026-04-04T15:44:30.642Z</time></trkpt><trkpt lat="44.3006083" lon="9.44854"><ele>283.0</ele><time>2026-04-04T15:44:33.642Z</time></trkpt><trkpt lat="44.3005317" lon="9.4485117"><ele>283.0</ele><time>2026-04-04T15:45:31.641Z</time></trkpt><trkpt lat="44.300415" lon="9.44846"><ele>283.0</ele><time>2026-04-04T15:45:33.641Z</time></trkpt><trkpt lat="44.300345" lon="9.4484367"><ele>283.0</ele><time>2026-04-04T15:45:34.641Z</time></trkpt><trkpt lat="44.300275" lon="9.44843"><ele>283.0</ele><time>2026-04-04T15:45:35.641Z</time></trkpt><trkpt lat="44.300205" lon="9.44844"><ele>279.2</ele><time>2026-04-04T15:45:36.642Z</time></trkpt><trkpt lat="44.3001317" lon="9.4484667"><ele>275.4</ele><time>2026-04-04T15:45:37.641Z</time></trkpt><trkpt lat="44.3000683" lon="9.4484917"><ele>271.59999999999997</ele><time>2026-04-04T15:45:38.642Z</time></trkpt><trkpt lat="44.30001" lon="9.4485317"><ele>267.8</ele><time>2026-04-04T15:45:39.641Z</time></trkpt><trkpt lat="44.2998983" lon="9.4486017"><ele>264.0</ele><time>2026-04-04T15:45:41.641Z</time></trkpt><trkpt lat="44.2997817" lon="9.4487"><ele>264.57142857142856</ele><time>2026-04-04T15:45:43.641Z</time></trkpt><trkpt lat="44.2997217" lon="9.4487483"><ele>265.14285714285717</ele><time>2026-04-04T15:45:44.641Z</time></trkpt><trkpt lat="44.29966" lon="9.44879"><ele>265.7142857142857</ele><time>2026-04-04T15:45:45.641Z</time></trkpt><trkpt lat="44.2995983" lon="9.4488417"><ele>266.2857142857143</ele><time>2026-04-04T15:45:46.641Z</time></trkpt><trkpt lat="44.2995417" lon="9.4488917"><ele>266.85714285714283</ele><time>2026-04-04T15:45:47.642Z</time></trkpt><trkpt lat="44.2994767" lon="9.4489233"><ele>267.42857142857144</ele><time>2026-04-04T15:45:48.642Z</time></trkpt><trkpt lat="44.2994017" lon="9.448935"><ele>268.0</ele><time>2026-04-04T15:45:49.641Z</time></trkpt><trkpt lat="44.299335" lon="9.4489167"><ele>268.0</ele><time>2026-04-04T15:45:50.641Z</time></trkpt><trkpt lat="44.2992683" lon="9.4488783"><ele>268.0</ele><time>2026-04-04T15:45:51.642Z</time></trkpt><trkpt lat="44.2992067" lon="9.4488283"><ele>268.0</ele><time>2026-04-04T15:45:52.641Z</time></trkpt><trkpt lat="44.2991483" lon="9.4487683"><ele>268.0</ele><time>2026-04-04T15:45:53.641Z</time></trkpt><trkpt lat="44.2990917" lon="9.4487033"><ele>268.0</ele><time>2026-04-04T15:45:54.642Z</time></trkpt><trkpt lat="44.2990317" lon="9.44864"><ele>268.0</ele><time>2026-04-04T15:45:55.641Z</time></trkpt><trkpt lat="44.2989767" lon="9.4485733"><ele>268.0</ele><time>2026-04-04T15:45:56.641Z</time></trkpt><trkpt lat="44.2989183" lon="9.44849"><ele>266.0</ele><time>2026-04-04T15:45:57.641Z</time></trkpt><trkpt lat="44.2988583" lon="9.4483983"><ele>264.0</ele><time>2026-04-04T15:45:58.641Z</time></trkpt><trkpt lat="44.298795" lon="9.4483183"><ele>262.0</ele><time>2026-04-04T15:45:59.641Z</time></trkpt><trkpt lat="44.2987333" lon="9.4482583"><ele>260.0</ele><time>2026-04-04T15:46:00.641Z</time></trkpt><trkpt lat="44.2986667" lon="9.4482383"><ele>258.0</ele><time>2026-04-04T15:46:01.641Z</time></trkpt><trkpt lat="44.2985933" lon="9.4482433"><ele>256.0</ele><time>2026-04-04T15:46:02.641Z</time></trkpt><trkpt lat="44.2985083" lon="9.44826"><ele>255.99999999999997</ele><time>2026-04-04T15:46:03.641Z</time></trkpt><trkpt lat="44.2984083" lon="9.4482833"><ele>256.0</ele><time>2026-04-04T15:46:04.642Z</time></trkpt><trkpt lat="44.29831" lon="9.4482817"><ele>256.0</ele><time>2026-04-04T15:46:05.642Z</time></trkpt><trkpt lat="44.2982283" lon="9.44826"><ele>256.0</ele><time>2026-04-04T15:46:06.642Z</time></trkpt><trkpt lat="44.2981667" lon="9.44819"><ele>255.99999999999997</ele><time>2026-04-04T15:46:07.642Z</time></trkpt><trkpt lat="44.2981317" lon="9.4480983"><ele>256.0</ele><time>2026-04-04T15:46:08.642Z</time></trkpt><trkpt lat="44.2981167" lon="9.4479983"><ele>255.99999999999997</ele><time>2026-04-04T15:46:09.641Z</time></trkpt><trkpt lat="44.2981183" lon="9.4478683"><ele>256.0</ele><time>2026-04-04T15:46:10.641Z</time></trkpt><trkpt lat="44.2981117" lon="9.4477383"><ele>256.0</ele><time>2026-04-04T15:46:11.641Z</time></trkpt><trkpt lat="44.2980883" lon="9.447625"><ele>256.0</ele><time>2026-04-04T15:46:12.641Z</time></trkpt><trkpt lat="44.2980417" lon="9.4475283"><ele>255.99999999999997</ele><time>2026-04-04T15:46:13.641Z</time></trkpt><trkpt lat="44.297975" lon="9.447435"><ele>256.0</ele><time>2026-04-04T15:46:14.641Z</time></trkpt><trkpt lat="44.29789" lon="9.4473333"><ele>256.0</ele><time>2026-04-04T15:46:15.641Z</time></trkpt><trkpt lat="44.2977933" lon="9.447225"><ele>256.0</ele><time>2026-04-04T15:46:16.641Z</time></trkpt><trkpt lat="44.2977083" lon="9.44712"><ele>256.0</ele><time>2026-04-04T15:46:17.642Z</time></trkpt><trkpt lat="44.297635" lon="9.4470183"><ele>256.0</ele><time>2026-04-04T15:46:18.641Z</time></trkpt><trkpt lat="44.297575" lon="9.4469133"><ele>256.0</ele><time>2026-04-04T15:46:19.641Z</time></trkpt><trkpt lat="44.297525" lon="9.446795"><ele>253.83333333333331</ele><time>2026-04-04T15:46:20.641Z</time></trkpt><trkpt lat="44.2974883" lon="9.4466717"><ele>251.66666666666666</ele><time>2026-04-04T15:46:21.641Z</time></trkpt><trkpt lat="44.2974583" lon="9.4465417"><ele>249.5</ele><time>2026-04-04T15:46:22.641Z</time></trkpt><trkpt lat="44.2974367" lon="9.44642"><ele>247.33333333333331</ele><time>2026-04-04T15:46:23.642Z</time></trkpt><trkpt lat="44.2974417" lon="9.4463067"><ele>245.16666666666666</ele><time>2026-04-04T15:46:24.641Z</time></trkpt><trkpt lat="44.2974667" lon="9.4461983"><ele>243.0</ele><time>2026-04-04T15:46:25.641Z</time></trkpt><trkpt lat="44.2975133" lon="9.4460917"><ele>241.2</ele><time>2026-04-04T15:46:26.642Z</time></trkpt><trkpt lat="44.2975717" lon="9.44598"><ele>239.4</ele><time>2026-04-04T15:46:27.642Z</time></trkpt><trkpt lat="44.2976133" lon="9.4458617"><ele>237.59999999999997</ele><time>2026-04-04T15:46:28.641Z</time></trkpt><trkpt lat="44.2976283" lon="9.4457383"><ele>235.79999999999998</ele><time>2026-04-04T15:46:29.642Z</time></trkpt><trkpt lat="44.297635" lon="9.4456033"><ele>234.0</ele><time>2026-04-04T15:46:30.642Z</time></trkpt><trkpt lat="44.2976183" lon="9.4454783"><ele>234.16666666666666</ele><time>2026-04-04T15:46:31.642Z</time></trkpt><trkpt lat="44.2975783" lon="9.4453817"><ele>234.33333333333331</ele><time>2026-04-04T15:46:32.641Z</time></trkpt><trkpt lat="44.2975083" lon="9.4453217"><ele>234.5</ele><time>2026-04-04T15:46:33.641Z</time></trkpt><trkpt lat="44.2974183" lon="9.445285"><ele>234.66666666666666</ele><time>2026-04-04T15:46:34.641Z</time></trkpt><trkpt lat="44.29732" lon="9.4452733"><ele>234.83333333333331</ele><time>2026-04-04T15:46:35.641Z</time></trkpt><trkpt lat="44.2972383" lon="9.4452567"><ele>235.0</ele><time>2026-04-04T15:46:36.642Z</time></trkpt><trkpt lat="44.2971617" lon="9.445225"><ele>235.0</ele><time>2026-04-04T15:46:37.642Z</time></trkpt><trkpt lat="44.2971067" lon="9.4451617"><ele>235.0</ele><time>2026-04-04T15:46:38.641Z</time></trkpt><trkpt lat="44.2970967" lon="9.4449967"><ele>235.0</ele><time>2026-04-04T15:46:40.641Z</time></trkpt><trkpt lat="44.2971433" lon="9.4449"><ele>235.0</ele><time>2026-04-04T15:46:41.642Z</time></trkpt><trkpt lat="44.2972083" lon="9.444795"><ele>235.0</ele><time>2026-04-04T15:46:42.641Z</time></trkpt><trkpt lat="44.2972783" lon="9.444685"><ele>232.0</ele><time>2026-04-04T15:46:43.641Z</time></trkpt><trkpt lat="44.29734" lon="9.4445633"><ele>229.0</ele><time>2026-04-04T15:46:44.641Z</time></trkpt><trkpt lat="44.2973767" lon="9.444435"><ele>226.0</ele><time>2026-04-04T15:46:45.641Z</time></trkpt><trkpt lat="44.2973883" lon="9.444295"><ele>223.0</ele><time>2026-04-04T15:46:46.641Z</time></trkpt><trkpt lat="44.297375" lon="9.44414"><ele>220.0</ele><time>2026-04-04T15:46:47.642Z</time></trkpt><trkpt lat="44.2973517" lon="9.443975"><ele>220.0</ele><time>2026-04-04T15:46:48.641Z</time></trkpt><trkpt lat="44.2973167" lon="9.4438133"><ele>220.0</ele><time>2026-04-04T15:46:49.642Z</time></trkpt><trkpt lat="44.29728" lon="9.44367"><ele>220.0</ele><time>2026-04-04T15:46:50.642Z</time></trkpt><trkpt lat="44.2972433" lon="9.44353"><ele>220.0</ele><time>2026-04-04T15:46:51.641Z</time></trkpt><trkpt lat="44.2971933" lon="9.4433817"><ele>219.4</ele><time>2026-04-04T15:46:52.641Z</time></trkpt><trkpt lat="44.297145" lon="9.4432367"><ele>218.8</ele><time>2026-04-04T15:46:53.642Z</time></trkpt><trkpt lat="44.297085" lon="9.4431067"><ele>218.2</ele><time>2026-04-04T15:46:54.641Z</time></trkpt><trkpt lat="44.2970167" lon="9.4429967"><ele>217.6</ele><time>2026-04-04T15:46:55.641Z</time></trkpt><trkpt lat="44.296935" lon="9.4429117"><ele>217.0</ele><time>2026-04-04T15:46:56.641Z</time></trkpt><trkpt lat="44.2968533" lon="9.442835"><ele>216.99999999999997</ele><time>2026-04-04T15:46:57.642Z</time></trkpt><trkpt lat="44.2967933" lon="9.4427583"><ele>217.0</ele><time>2026-04-04T15:46:58.641Z</time></trkpt><trkpt lat="44.2967483" lon="9.4426667"><ele>217.0</ele><time>2026-04-04T15:46:59.642Z</time></trkpt><trkpt lat="44.296735" lon="9.44257"><ele>217.0</ele><time>2026-04-04T15:47:00.641Z</time></trkpt><trkpt lat="44.2967683" lon="9.4424867"><ele>216.99999999999997</ele><time>2026-04-04T15:47:01.642Z</time></trkpt><trkpt lat="44.2968217" lon="9.4424133"><ele>217.0</ele><time>2026-04-04T15:47:02.641Z</time></trkpt><trkpt lat="44.2968833" lon="9.4423333"><ele>216.99999999999997</ele><time>2026-04-04T15:47:03.641Z</time></trkpt><trkpt lat="44.29695" lon="9.442245"><ele>217.0</ele><time>2026-04-04T15:47:04.641Z</time></trkpt><trkpt lat="44.2970067" lon="9.4421633"><ele>217.0</ele><time>2026-04-04T15:47:05.641Z</time></trkpt><trkpt lat="44.2970517" lon="9.4420817"><ele>217.0</ele><time>2026-04-04T15:47:06.641Z</time></trkpt><trkpt lat="44.297075" lon="9.4419933"><ele>216.99999999999997</ele><time>2026-04-04T15:47:07.641Z</time></trkpt><trkpt lat="44.2970683" lon="9.4418867"><ele>217.0</ele><time>2026-04-04T15:47:08.641Z</time></trkpt><trkpt lat="44.2970467" lon="9.4417767"><ele>216.8</ele><time>2026-04-04T15:47:09.641Z</time></trkpt><trkpt lat="44.2970233" lon="9.4416533"><ele>216.6</ele><time>2026-04-04T15:47:10.642Z</time></trkpt><trkpt lat="44.2970033" lon="9.4415267"><ele>216.40000000000003</ele><time>2026-04-04T15:47:11.641Z</time></trkpt><trkpt lat="44.296985" lon="9.4414"><ele>216.20000000000002</ele><time>2026-04-04T15:47:12.641Z</time></trkpt><trkpt lat="44.29695" lon="9.4412883"><ele>216.0</ele><time>2026-04-04T15:47:13.641Z</time></trkpt><trkpt lat="44.29691" lon="9.4411817"><ele>216.0</ele><time>2026-04-04T15:47:14.641Z</time></trkpt><trkpt lat="44.2968667" lon="9.44108"><ele>216.0</ele><time>2026-04-04T15:47:15.641Z</time></trkpt><trkpt lat="44.2968367" lon="9.4409683"><ele>216.0</ele><time>2026-04-04T15:47:16.641Z</time></trkpt><trkpt lat="44.2968267" lon="9.4408533"><ele>216.0</ele><time>2026-04-04T15:47:17.641Z</time></trkpt><trkpt lat="44.2968283" lon="9.4407283"><ele>216.0</ele><time>2026-04-04T15:47:18.641Z</time></trkpt><trkpt lat="44.296835" lon="9.440595"><ele>216.0</ele><time>2026-04-04T15:47:19.641Z</time></trkpt><trkpt lat="44.296835" lon="9.4404533"><ele>214.20000000000002</ele><time>2026-04-04T15:47:20.641Z</time></trkpt><trkpt lat="44.296835" lon="9.4403133"><ele>212.40000000000003</ele><time>2026-04-04T15:47:21.641Z</time></trkpt><trkpt lat="44.2968367" lon="9.4401867"><ele>210.6</ele><time>2026-04-04T15:47:22.641Z</time></trkpt><trkpt lat="44.2968417" lon="9.4400617"><ele>208.8</ele><time>2026-04-04T15:47:23.641Z</time></trkpt><trkpt lat="44.296855" lon="9.4399417"><ele>207.0</ele><time>2026-04-04T15:47:24.641Z</time></trkpt><trkpt lat="44.29687" lon="9.4398167"><ele>207.0</ele><time>2026-04-04T15:47:25.641Z</time></trkpt><trkpt lat="44.2968917" lon="9.4396917"><ele>207.0</ele><time>2026-04-04T15:47:26.642Z</time></trkpt><trkpt lat="44.2969033" lon="9.4395567"><ele>207.0</ele><time>2026-04-04T15:47:27.641Z</time></trkpt><trkpt lat="44.2969017" lon="9.4394283"><ele>207.0</ele><time>2026-04-04T15:47:28.641Z</time></trkpt><trkpt lat="44.2968917" lon="9.439295"><ele>207.0</ele><time>2026-04-04T15:47:29.641Z</time></trkpt><trkpt lat="44.2968683" lon="9.4391633"><ele>205.8</ele><time>2026-04-04T15:47:30.642Z</time></trkpt><trkpt lat="44.2968433" lon="9.4390367"><ele>204.6</ele><time>2026-04-04T15:47:31.641Z</time></trkpt><trkpt lat="44.2968017" lon="9.438925"><ele>203.4</ele><time>2026-04-04T15:47:32.642Z</time></trkpt><trkpt lat="44.296745" lon="9.4388267"><ele>202.20000000000002</ele><time>2026-04-04T15:47:33.642Z</time></trkpt><trkpt lat="44.2966883" lon="9.4387317"><ele>201.0</ele><time>2026-04-04T15:47:34.641Z</time></trkpt><trkpt lat="44.2966333" lon="9.4386367"><ele>197.60000000000002</ele><time>2026-04-04T15:47:35.641Z</time></trkpt><trkpt lat="44.2965883" lon="9.4385367"><ele>194.2</ele><time>2026-04-04T15:47:36.641Z</time></trkpt><trkpt lat="44.2965533" lon="9.4384217"><ele>190.8</ele><time>2026-04-04T15:47:37.642Z</time></trkpt><trkpt lat="44.2965467" lon="9.4382933"><ele>187.39999999999998</ele><time>2026-04-04T15:47:38.641Z</time></trkpt><trkpt lat="44.296555" lon="9.4381583"><ele>184.0</ele><time>2026-04-04T15:47:39.641Z</time></trkpt><trkpt lat="44.2965767" lon="9.4380233"><ele>182.39999999999998</ele><time>2026-04-04T15:47:40.641Z</time></trkpt><trkpt lat="44.2966017" lon="9.4378967"><ele>180.8</ele><time>2026-04-04T15:47:41.641Z</time></trkpt><trkpt lat="44.2966167" lon="9.4377617"><ele>179.2</ele><time>2026-04-04T15:47:42.641Z</time></trkpt><trkpt lat="44.2966217" lon="9.43761"><ele>177.60000000000002</ele><time>2026-04-04T15:47:43.641Z</time></trkpt><trkpt lat="44.2966133" lon="9.437465"><ele>176.0</ele><time>2026-04-04T15:47:44.641Z</time></trkpt><trkpt lat="44.29661" lon="9.4373183"><ele>176.0</ele><time>2026-04-04T15:47:45.641Z</time></trkpt><trkpt lat="44.29662" lon="9.43718"><ele>176.0</ele><time>2026-04-04T15:47:46.641Z</time></trkpt><trkpt lat="44.2966367" lon="9.4370517"><ele>176.0</ele><time>2026-04-04T15:47:47.641Z</time></trkpt><trkpt lat="44.296655" lon="9.4369367"><ele>176.0</ele><time>2026-04-04T15:47:48.641Z</time></trkpt><trkpt lat="44.296675" lon="9.4368117"><ele>176.0</ele><time>2026-04-04T15:47:49.642Z</time></trkpt><trkpt lat="44.2966783" lon="9.4366917"><ele>175.83333333333331</ele><time>2026-04-04T15:47:50.641Z</time></trkpt><trkpt lat="44.2966867" lon="9.4365783"><ele>175.66666666666666</ele><time>2026-04-04T15:47:51.641Z</time></trkpt><trkpt lat="44.2966883" lon="9.4364667"><ele>175.5</ele><time>2026-04-04T15:47:52.641Z</time></trkpt><trkpt lat="44.296685" lon="9.436365"><ele>175.33333333333334</ele><time>2026-04-04T15:47:53.642Z</time></trkpt><trkpt lat="44.2966783" lon="9.4362717"><ele>175.16666666666669</ele><time>2026-04-04T15:47:54.642Z</time></trkpt><trkpt lat="44.2966517" lon="9.4361817"><ele>175.0</ele><time>2026-04-04T15:47:55.642Z</time></trkpt><trkpt lat="44.2966317" lon="9.4360333"><ele>175.0</ele><time>2026-04-04T15:47:57.641Z</time></trkpt><trkpt lat="44.296705" lon="9.43598"><ele>175.0</ele><time>2026-04-04T15:47:59.641Z</time></trkpt><trkpt lat="44.2967667" lon="9.4361017"><ele>175.0</ele><time>2026-04-04T15:48:01.641Z</time></trkpt><trkpt lat="44.29677" lon="9.4362067"><ele>175.0</ele><time>2026-04-04T15:48:02.641Z</time></trkpt><trkpt lat="44.2967717" lon="9.4363233"><ele>175.0</ele><time>2026-04-04T15:48:03.641Z</time></trkpt><trkpt lat="44.29677" lon="9.43646"><ele>175.0</ele><time>2026-04-04T15:48:04.642Z</time></trkpt><trkpt lat="44.2967633" lon="9.436605"><ele>175.0</ele><time>2026-04-04T15:48:05.641Z</time></trkpt><trkpt lat="44.2967567" lon="9.4367617"><ele>175.0</ele><time>2026-04-04T15:48:06.641Z</time></trkpt><trkpt lat="44.2967517" lon="9.4369283"><ele>175.0</ele><time>2026-04-04T15:48:07.641Z</time></trkpt><trkpt lat="44.2967367" lon="9.437095"><ele>175.0</ele><time>2026-04-04T15:48:08.641Z</time></trkpt><trkpt lat="44.2967283" lon="9.4372483"><ele>175.2</ele><time>2026-04-04T15:48:09.641Z</time></trkpt><trkpt lat="44.2967267" lon="9.4373867"><ele>175.4</ele><time>2026-04-04T15:48:10.642Z</time></trkpt><trkpt lat="44.2967433" lon="9.437525"><ele>175.60000000000002</ele><time>2026-04-04T15:48:11.641Z</time></trkpt><trkpt lat="44.29676" lon="9.43766"><ele>175.8</ele><time>2026-04-04T15:48:12.641Z</time></trkpt><trkpt lat="44.2967817" lon="9.4378083"><ele>176.0</ele><time>2026-04-04T15:48:13.641Z</time></trkpt><trkpt lat="44.2968067" lon="9.4379383"><ele>177.60000000000002</ele><time>2026-04-04T15:48:14.642Z</time></trkpt><trkpt lat="44.2968417" lon="9.4380633"><ele>179.2</ele><time>2026-04-04T15:48:15.641Z</time></trkpt><trkpt lat="44.2968883" lon="9.4381833"><ele>180.8</ele><time>2026-04-04T15:48:16.641Z</time></trkpt><trkpt lat="44.29694" lon="9.4383017"><ele>182.39999999999998</ele><time>2026-04-04T15:48:17.641Z</time></trkpt><trkpt lat="44.297" lon="9.4384133"><ele>184.0</ele><time>2026-04-04T15:48:18.641Z</time></trkpt><trkpt lat="44.2970667" lon="9.43852"><ele>184.0</ele><time>2026-04-04T15:48:19.641Z</time></trkpt><trkpt lat="44.2971417" lon="9.43861"><ele>184.0</ele><time>2026-04-04T15:48:20.642Z</time></trkpt><trkpt lat="44.297215" lon="9.4386867"><ele>184.0</ele><time>2026-04-04T15:48:21.641Z</time></trkpt><trkpt lat="44.2972917" lon="9.4387467"><ele>184.0</ele><time>2026-04-04T15:48:22.641Z</time></trkpt><trkpt lat="44.2973533" lon="9.43881"><ele>184.0</ele><time>2026-04-04T15:48:23.642Z</time></trkpt><trkpt lat="44.2974" lon="9.4388967"><ele>184.0</ele><time>2026-04-04T15:48:24.641Z</time></trkpt><trkpt lat="44.29743" lon="9.439005"><ele>180.66666666666669</ele><time>2026-04-04T15:48:25.641Z</time></trkpt><trkpt lat="44.2974517" lon="9.439125"><ele>177.33333333333334</ele><time>2026-04-04T15:48:26.641Z</time></trkpt><trkpt lat="44.2974717" lon="9.4392433"><ele>174.0</ele><time>2026-04-04T15:48:27.641Z</time></trkpt><trkpt lat="44.29751" lon="9.4393517"><ele>170.66666666666666</ele><time>2026-04-04T15:48:28.641Z</time></trkpt><trkpt lat="44.2975633" lon="9.4394433"><ele>167.33333333333331</ele><time>2026-04-04T15:48:29.642Z</time></trkpt><trkpt lat="44.29762" lon="9.4395317"><ele>164.0</ele><time>2026-04-04T15:48:30.641Z</time></trkpt><trkpt lat="44.2976717" lon="9.43963"><ele>165.16666666666666</ele><time>2026-04-04T15:48:31.641Z</time></trkpt><trkpt lat="44.2977017" lon="9.43975"><ele>166.33333333333331</ele><time>2026-04-04T15:48:32.641Z</time></trkpt><trkpt lat="44.297715" lon="9.439875"><ele>167.5</ele><time>2026-04-04T15:48:33.641Z</time></trkpt><trkpt lat="44.2977133" lon="9.4400133"><ele>168.66666666666666</ele><time>2026-04-04T15:48:34.641Z</time></trkpt><trkpt lat="44.2977083" lon="9.44014"><ele>169.83333333333334</ele><time>2026-04-04T15:48:35.642Z</time></trkpt><trkpt lat="44.2977067" lon="9.4402483"><ele>171.0</ele><time>2026-04-04T15:48:36.641Z</time></trkpt><trkpt lat="44.29772" lon="9.44034"><ele>171.0</ele><time>2026-04-04T15:48:37.641Z</time></trkpt><trkpt lat="44.297815" lon="9.4404117"><ele>171.0</ele><time>2026-04-04T15:48:39.641Z</time></trkpt><trkpt lat="44.2978817" lon="9.4403833"><ele>171.0</ele><time>2026-04-04T15:48:40.641Z</time></trkpt><trkpt lat="44.2979617" lon="9.440325"><ele>171.0</ele><time>2026-04-04T15:48:41.641Z</time></trkpt><trkpt lat="44.298045" lon="9.4402717"><ele>171.0</ele><time>2026-04-04T15:48:42.641Z</time></trkpt><trkpt lat="44.2981183" lon="9.44024"><ele>171.0</ele><time>2026-04-04T15:48:43.641Z</time></trkpt><trkpt lat="44.2981867" lon="9.4402517"><ele>169.4</ele><time>2026-04-04T15:48:44.642Z</time></trkpt><trkpt lat="44.2982867" lon="9.4403533"><ele>167.8</ele><time>2026-04-04T15:48:46.641Z</time></trkpt><trkpt lat="44.2983217" lon="9.4404267"><ele>166.20000000000002</ele><time>2026-04-04T15:48:47.641Z</time></trkpt><trkpt lat="44.2984133" lon="9.44049"><ele>164.60000000000002</ele><time>2026-04-04T15:48:49.641Z</time></trkpt><trkpt lat="44.298485" lon="9.44039"><ele>163.0</ele><time>2026-04-04T15:48:51.641Z</time></trkpt><trkpt lat="44.2984483" lon="9.4402133"><ele>164.60000000000002</ele><time>2026-04-04T15:48:53.641Z</time></trkpt><trkpt lat="44.298385" lon="9.4401217"><ele>166.20000000000002</ele><time>2026-04-04T15:48:54.641Z</time></trkpt><trkpt lat="44.298315" lon="9.4400367"><ele>167.8</ele><time>2026-04-04T15:48:55.641Z</time></trkpt><trkpt lat="44.2982317" lon="9.4399817"><ele>169.4</ele><time>2026-04-04T15:48:56.641Z</time></trkpt><trkpt lat="44.2981417" lon="9.4399617"><ele>171.0</ele><time>2026-04-04T15:48:57.641Z</time></trkpt><trkpt lat="44.29805" lon="9.4399617"><ele>171.0</ele><time>2026-04-04T15:48:58.641Z</time></trkpt><trkpt lat="44.297975" lon="9.4399533"><ele>171.0</ele><time>2026-04-04T15:48:59.64Z</time></trkpt><trkpt lat="44.2979133" lon="9.4399083"><ele>171.0</ele><time>2026-04-04T15:49:00.64Z</time></trkpt><trkpt lat="44.2978883" lon="9.4398233"><ele>171.0</ele><time>2026-04-04T15:49:01.64Z</time></trkpt><trkpt lat="44.297895" lon="9.43973"><ele>171.0</ele><time>2026-04-04T15:49:02.641Z</time></trkpt><trkpt lat="44.297915" lon="9.4396217"><ele>171.0</ele><time>2026-04-04T15:49:03.64Z</time></trkpt><trkpt lat="44.2979333" lon="9.4394867"><ele>169.25</ele><time>2026-04-04T15:49:04.64Z</time></trkpt><trkpt lat="44.2979433" lon="9.43931"><ele>167.5</ele><time>2026-04-04T15:49:05.64Z</time></trkpt><trkpt lat="44.2979333" lon="9.4391083"><ele>165.75</ele><time>2026-04-04T15:49:06.641Z</time></trkpt><trkpt lat="44.2979117" lon="9.4389033"><ele>164.0</ele><time>2026-04-04T15:49:07.64Z</time></trkpt><trkpt lat="44.2978833" lon="9.4387017"><ele>160.5</ele><time>2026-04-04T15:49:08.64Z</time></trkpt><trkpt lat="44.29786" lon="9.4385133"><ele>157.0</ele><time>2026-04-04T15:49:09.64Z</time></trkpt><trkpt lat="44.29784" lon="9.4383367"><ele>153.5</ele><time>2026-04-04T15:49:10.64Z</time></trkpt><trkpt lat="44.2978117" lon="9.4381783"><ele>150.0</ele><time>2026-04-04T15:49:11.64Z</time></trkpt><trkpt lat="44.29777" lon="9.4380183"><ele>147.8</ele><time>2026-04-04T15:49:12.641Z</time></trkpt><trkpt lat="44.2977117" lon="9.4378883"><ele>145.6</ele><time>2026-04-04T15:49:13.641Z</time></trkpt><trkpt lat="44.2976467" lon="9.4377633"><ele>143.4</ele><time>2026-04-04T15:49:14.641Z</time></trkpt><trkpt lat="44.2975867" lon="9.4376317"><ele>141.2</ele><time>2026-04-04T15:49:15.641Z</time></trkpt><trkpt lat="44.2975283" lon="9.4375083"><ele>139.0</ele><time>2026-04-04T15:49:16.64Z</time></trkpt><trkpt lat="44.2974733" lon="9.4373867"><ele>139.0</ele><time>2026-04-04T15:49:17.64Z</time></trkpt><trkpt lat="44.297425" lon="9.4372717"><ele>139.0</ele><time>2026-04-04T15:49:18.64Z</time></trkpt><trkpt lat="44.2973933" lon="9.43714"><ele>139.0</ele><time>2026-04-04T15:49:19.64Z</time></trkpt><trkpt lat="44.29738" lon="9.4370183"><ele>139.0</ele><time>2026-04-04T15:49:20.64Z</time></trkpt><trkpt lat="44.2973783" lon="9.4368933"><ele>139.0</ele><time>2026-04-04T15:49:21.64Z</time></trkpt><trkpt lat="44.29738" lon="9.43676"><ele>137.0</ele><time>2026-04-04T15:49:22.64Z</time></trkpt><trkpt lat="44.2973833" lon="9.4366267"><ele>135.0</ele><time>2026-04-04T15:49:23.64Z</time></trkpt><trkpt lat="44.2974" lon="9.4364817"><ele>133.0</ele><time>2026-04-04T15:49:24.64Z</time></trkpt><trkpt lat="44.2974233" lon="9.4363533"><ele>131.0</ele><time>2026-04-04T15:49:25.64Z</time></trkpt><trkpt lat="44.29745" lon="9.4362383"><ele>129.0</ele><time>2026-04-04T15:49:26.64Z</time></trkpt><trkpt lat="44.297485" lon="9.4361183"><ele>128.0</ele><time>2026-04-04T15:49:27.64Z</time></trkpt><trkpt lat="44.2975033" lon="9.4360017"><ele>127.0</ele><time>2026-04-04T15:49:28.641Z</time></trkpt><trkpt lat="44.2974983" lon="9.4358867"><ele>126.0</ele><time>2026-04-04T15:49:29.64Z</time></trkpt><trkpt lat="44.2974533" lon="9.4357767"><ele>125.0</ele><time>2026-04-04T15:49:30.64Z</time></trkpt><trkpt lat="44.2973917" lon="9.4356817"><ele>124.0</ele><time>2026-04-04T15:49:31.64Z</time></trkpt><trkpt lat="44.2973333" lon="9.4355783"><ele>123.0</ele><time>2026-04-04T15:49:32.64Z</time></trkpt><trkpt lat="44.2973" lon="9.435465"><ele>124.0</ele><time>2026-04-04T15:49:33.64Z</time></trkpt><trkpt lat="44.29728" lon="9.4353417"><ele>125.00000000000001</ele><time>2026-04-04T15:49:34.64Z</time></trkpt><trkpt lat="44.2972533" lon="9.4352133"><ele>126.00000000000001</ele><time>2026-04-04T15:49:35.64Z</time></trkpt><trkpt lat="44.297205" lon="9.435105"><ele>127.0</ele><time>2026-04-04T15:49:36.64Z</time></trkpt><trkpt lat="44.2971467" lon="9.435"><ele>128.0</ele><time>2026-04-04T15:49:37.64Z</time></trkpt><trkpt lat="44.2970733" lon="9.4349"><ele>128.0</ele><time>2026-04-04T15:49:38.64Z</time></trkpt><trkpt lat="44.2969933" lon="9.4348183"><ele>128.0</ele><time>2026-04-04T15:49:39.641Z</time></trkpt><trkpt lat="44.2969" lon="9.4347533"><ele>128.0</ele><time>2026-04-04T15:49:40.64Z</time></trkpt><trkpt lat="44.2967983" lon="9.4347033"><ele>128.0</ele><time>2026-04-04T15:49:41.64Z</time></trkpt><trkpt lat="44.2966867" lon="9.4346667"><ele>128.0</ele><time>2026-04-04T15:49:42.641Z</time></trkpt><trkpt lat="44.2965733" lon="9.434635"><ele>120.0</ele><time>2026-04-04T15:49:43.64Z</time></trkpt><trkpt lat="44.2964683" lon="9.4346033"><ele>112.00000000000001</ele><time>2026-04-04T15:49:44.641Z</time></trkpt><trkpt lat="44.2963633" lon="9.4345817"><ele>104.0</ele><time>2026-04-04T15:49:45.641Z</time></trkpt><trkpt lat="44.2962583" lon="9.4345583"><ele>96.0</ele><time>2026-04-04T15:49:46.641Z</time></trkpt><trkpt lat="44.29616" lon="9.4345383"><ele>88.0</ele><time>2026-04-04T15:49:47.64Z</time></trkpt><trkpt lat="44.2960683" lon="9.43452"><ele>87.83333333333333</ele><time>2026-04-04T15:49:48.64Z</time></trkpt><trkpt lat="44.2959883" lon="9.4345233"><ele>87.66666666666666</ele><time>2026-04-04T15:49:49.64Z</time></trkpt><trkpt lat="44.2958967" lon="9.43454"><ele>87.5</ele><time>2026-04-04T15:49:50.64Z</time></trkpt><trkpt lat="44.2958167" lon="9.4345817"><ele>87.33333333333333</ele><time>2026-04-04T15:49:51.64Z</time></trkpt><trkpt lat="44.29575" lon="9.4346583"><ele>87.16666666666667</ele><time>2026-04-04T15:49:52.64Z</time></trkpt><trkpt lat="44.2957067" lon="9.434765"><ele>87.0</ele><time>2026-04-04T15:49:53.64Z</time></trkpt><trkpt lat="44.2956883" lon="9.434895"><ele>86.0</ele><time>2026-04-04T15:49:54.64Z</time></trkpt><trkpt lat="44.2956667" lon="9.43502"><ele>85.0</ele><time>2026-04-04T15:49:55.64Z</time></trkpt><trkpt lat="44.2956217" lon="9.4351333"><ele>84.0</ele><time>2026-04-04T15:49:56.64Z</time></trkpt><trkpt lat="44.2955683" lon="9.43524"><ele>83.0</ele><time>2026-04-04T15:49:57.64Z</time></trkpt><trkpt lat="44.295515" lon="9.4353417"><ele>82.0</ele><time>2026-04-04T15:49:58.64Z</time></trkpt><trkpt lat="44.2954717" lon="9.4354433"><ele>85.39999999999999</ele><time>2026-04-04T15:49:59.64Z</time></trkpt><trkpt lat="44.2954317" lon="9.4355583"><ele>88.8</ele><time>2026-04-04T15:50:00.641Z</time></trkpt><trkpt lat="44.2953817" lon="9.435665"><ele>92.2</ele><time>2026-04-04T15:50:01.64Z</time></trkpt><trkpt lat="44.2953133" lon="9.4357533"><ele>95.6</ele><time>2026-04-04T15:50:02.641Z</time></trkpt><trkpt lat="44.2952267" lon="9.4358117"><ele>99.0</ele><time>2026-04-04T15:50:03.64Z</time></trkpt><trkpt lat="44.295135" lon="9.43587"><ele>99.0</ele><time>2026-04-04T15:50:04.64Z</time></trkpt><trkpt lat="44.2950483" lon="9.43594"><ele>99.0</ele><time>2026-04-04T15:50:05.64Z</time></trkpt><trkpt lat="44.2949667" lon="9.43602"><ele>99.0</ele><time>2026-04-04T15:50:06.64Z</time></trkpt><trkpt lat="44.294895" lon="9.4360983"><ele>99.0</ele><time>2026-04-04T15:50:07.64Z</time></trkpt><trkpt lat="44.29482" lon="9.43618"><ele>99.0</ele><time>2026-04-04T15:50:08.641Z</time></trkpt><trkpt lat="44.2947383" lon="9.4362433"><ele>99.2</ele><time>2026-04-04T15:50:09.64Z</time></trkpt><trkpt lat="44.29465" lon="9.436265"><ele>99.4</ele><time>2026-04-04T15:50:10.64Z</time></trkpt><trkpt lat="44.2945583" lon="9.4362417"><ele>99.6</ele><time>2026-04-04T15:50:11.64Z</time></trkpt><trkpt lat="44.2944783" lon="9.4361733"><ele>99.8</ele><time>2026-04-04T15:50:12.64Z</time></trkpt><trkpt lat="44.2944067" lon="9.43608"><ele>100.0</ele><time>2026-04-04T15:50:13.64Z</time></trkpt><trkpt lat="44.2943317" lon="9.4359917"><ele>100.00000000000001</ele><time>2026-04-04T15:50:14.64Z</time></trkpt><trkpt lat="44.2942633" lon="9.4359183"><ele>100.0</ele><time>2026-04-04T15:50:15.64Z</time></trkpt><trkpt lat="44.2942067" lon="9.4358383"><ele>100.0</ele><time>2026-04-04T15:50:16.641Z</time></trkpt><trkpt lat="44.294175" lon="9.435755"><ele>100.0</ele><time>2026-04-04T15:50:17.64Z</time></trkpt><trkpt lat="44.2941767" lon="9.435655"><ele>100.00000000000001</ele><time>2026-04-04T15:50:18.64Z</time></trkpt><trkpt lat="44.2942033" lon="9.435555"><ele>100.0</ele><time>2026-04-04T15:50:19.641Z</time></trkpt><trkpt lat="44.2942383" lon="9.435445"><ele>100.0</ele><time>2026-04-04T15:50:20.64Z</time></trkpt><trkpt lat="44.2942933" lon="9.4353217"><ele>100.0</ele><time>2026-04-04T15:50:21.641Z</time></trkpt><trkpt lat="44.2943567" lon="9.43519"><ele>100.0</ele><time>2026-04-04T15:50:22.641Z</time></trkpt><trkpt lat="44.29442" lon="9.435065"><ele>100.0</ele><time>2026-04-04T15:50:23.641Z</time></trkpt><trkpt lat="44.29446" lon="9.4349517"><ele>100.0</ele><time>2026-04-04T15:50:24.641Z</time></trkpt><trkpt lat="44.29447" lon="9.43482"><ele>100.0</ele><time>2026-04-04T15:50:25.64Z</time></trkpt><trkpt lat="44.294465" lon="9.4346883"><ele>100.0</ele><time>2026-04-04T15:50:26.64Z</time></trkpt><trkpt lat="44.2944333" lon="9.434565"><ele>100.0</ele><time>2026-04-04T15:50:27.64Z</time></trkpt><trkpt lat="44.2943833" lon="9.4344583"><ele>100.0</ele><time>2026-04-04T15:50:28.64Z</time></trkpt><trkpt lat="44.29432" lon="9.4343633"><ele>100.0</ele><time>2026-04-04T15:50:29.641Z</time></trkpt><trkpt lat="44.29425" lon="9.43426"><ele>98.0</ele><time>2026-04-04T15:50:30.64Z</time></trkpt><trkpt lat="44.294175" lon="9.434155"><ele>96.0</ele><time>2026-04-04T15:50:31.64Z</time></trkpt><trkpt lat="44.2940883" lon="9.4340467"><ele>94.0</ele><time>2026-04-04T15:50:32.64Z</time></trkpt><trkpt lat="44.294005" lon="9.43396"><ele>92.0</ele><time>2026-04-04T15:50:33.64Z</time></trkpt><trkpt lat="44.2939183" lon="9.4338783"><ele>90.0</ele><time>2026-04-04T15:50:34.64Z</time></trkpt><trkpt lat="44.2938383" lon="9.4338117"><ele>90.0</ele><time>2026-04-04T15:50:35.64Z</time></trkpt><trkpt lat="44.2937533" lon="9.4337783"><ele>90.0</ele><time>2026-04-04T15:50:36.64Z</time></trkpt><trkpt lat="44.2936833" lon="9.4337767"><ele>90.0</ele><time>2026-04-04T15:50:37.64Z</time></trkpt><trkpt lat="44.2936217" lon="9.43382"><ele>90.0</ele><time>2026-04-04T15:50:38.64Z</time></trkpt><trkpt lat="44.2935617" lon="9.4339033"><ele>90.0</ele><time>2026-04-04T15:50:39.64Z</time></trkpt><trkpt lat="44.29351" lon="9.4339867"><ele>90.0</ele><time>2026-04-04T15:50:40.64Z</time></trkpt><trkpt lat="44.2934467" lon="9.4340167"><ele>90.0</ele><time>2026-04-04T15:50:41.641Z</time></trkpt><trkpt lat="44.29338" lon="9.43401"><ele>90.0</ele><time>2026-04-04T15:50:42.64Z</time></trkpt><trkpt lat="44.29332" lon="9.43396"><ele>90.0</ele><time>2026-04-04T15:50:43.64Z</time></trkpt><trkpt lat="44.2932567" lon="9.4338833"><ele>90.0</ele><time>2026-04-04T15:50:44.641Z</time></trkpt><trkpt lat="44.2931783" lon="9.433815"><ele>90.0</ele><time>2026-04-04T15:50:45.64Z</time></trkpt><trkpt lat="44.29309" lon="9.433765"><ele>90.0</ele><time>2026-04-04T15:50:46.64Z</time></trkpt><trkpt lat="44.2929933" lon="9.4337517"><ele>86.8</ele><time>2026-04-04T15:50:47.64Z</time></trkpt><trkpt lat="44.2929017" lon="9.4337633"><ele>83.6</ele><time>2026-04-04T15:50:48.641Z</time></trkpt><trkpt lat="44.292805" lon="9.433785"><ele>80.4</ele><time>2026-04-04T15:50:49.64Z</time></trkpt><trkpt lat="44.29271" lon="9.4337967"><ele>77.2</ele><time>2026-04-04T15:50:50.641Z</time></trkpt><trkpt lat="44.2926233" lon="9.433795"><ele>74.0</ele><time>2026-04-04T15:50:51.64Z</time></trkpt><trkpt lat="44.2925467" lon="9.4337767"><ele>74.0</ele><time>2026-04-04T15:50:52.641Z</time></trkpt><trkpt lat="44.2924933" lon="9.4337133"><ele>74.0</ele><time>2026-04-04T15:50:53.64Z</time></trkpt><trkpt lat="44.2924633" lon="9.4336317"><ele>74.0</ele><time>2026-04-04T15:50:54.64Z</time></trkpt><trkpt lat="44.292465" lon="9.4335283"><ele>74.0</ele><time>2026-04-04T15:50:55.64Z</time></trkpt><trkpt lat="44.2924933" lon="9.4334167"><ele>74.0</ele><time>2026-04-04T15:50:56.641Z</time></trkpt><trkpt lat="44.29254" lon="9.4333083"><ele>74.0</ele><time>2026-04-04T15:50:57.64Z</time></trkpt><trkpt lat="44.29258" lon="9.4332033"><ele>74.0</ele><time>2026-04-04T15:50:58.64Z</time></trkpt><trkpt lat="44.2926083" lon="9.4330983"><ele>74.0</ele><time>2026-04-04T15:50:59.64Z</time></trkpt><trkpt lat="44.2926167" lon="9.4329883"><ele>74.0</ele><time>2026-04-04T15:51:00.64Z</time></trkpt><trkpt lat="44.2925933" lon="9.4328767"><ele>74.0</ele><time>2026-04-04T15:51:01.641Z</time></trkpt><trkpt lat="44.29255" lon="9.4327883"><ele>74.0</ele><time>2026-04-04T15:51:02.64Z</time></trkpt><trkpt lat="44.2924933" lon="9.43274"><ele>74.0</ele><time>2026-04-04T15:51:03.641Z</time></trkpt><trkpt lat="44.2924133" lon="9.4327317"><ele>75.33333333333334</ele><time>2026-04-04T15:51:04.64Z</time></trkpt><trkpt lat="44.2923233" lon="9.4327433"><ele>76.66666666666667</ele><time>2026-04-04T15:51:05.64Z</time></trkpt><trkpt lat="44.2922283" lon="9.432745"><ele>78.0</ele><time>2026-04-04T15:51:06.641Z</time></trkpt><trkpt lat="44.292145" lon="9.43271"><ele>79.33333333333333</ele><time>2026-04-04T15:51:07.64Z</time></trkpt><trkpt lat="44.2920783" lon="9.4326333"><ele>80.66666666666666</ele><time>2026-04-04T15:51:08.641Z</time></trkpt><trkpt lat="44.29203" lon="9.4325367"><ele>82.0</ele><time>2026-04-04T15:51:09.64Z</time></trkpt><trkpt lat="44.2919917" lon="9.43243"><ele>82.0</ele><time>2026-04-04T15:51:10.64Z</time></trkpt><trkpt lat="44.2919517" lon="9.4323417"><ele>82.0</ele><time>2026-04-04T15:51:11.64Z</time></trkpt><trkpt lat="44.2919133" lon="9.432265"><ele>82.0</ele><time>2026-04-04T15:51:12.64Z</time></trkpt><trkpt lat="44.2919" lon="9.4321233"><ele>82.0</ele><time>2026-04-04T15:51:14.641Z</time></trkpt><trkpt lat="44.2919983" lon="9.4321"><ele>82.0</ele><time>2026-04-04T15:51:16.64Z</time></trkpt><trkpt lat="44.292045" lon="9.43216"><ele>82.0</ele><time>2026-04-04T15:51:17.641Z</time></trkpt><trkpt lat="44.2920733" lon="9.432255"><ele>82.0</ele><time>2026-04-04T15:51:18.641Z</time></trkpt><trkpt lat="44.2920967" lon="9.4323733"><ele>82.0</ele><time>2026-04-04T15:51:19.64Z</time></trkpt><trkpt lat="44.2921283" lon="9.4324783"><ele>82.0</ele><time>2026-04-04T15:51:20.64Z</time></trkpt><trkpt lat="44.2921683" lon="9.4325617"><ele>82.0</ele><time>2026-04-04T15:51:21.64Z</time></trkpt><trkpt lat="44.29223" lon="9.4326183"><ele>82.0</ele><time>2026-04-04T15:51:22.641Z</time></trkpt><trkpt lat="44.2923083" lon="9.4326367"><ele>82.0</ele><time>2026-04-04T15:51:23.641Z</time></trkpt><trkpt lat="44.2923967" lon="9.432615"><ele>77.5</ele><time>2026-04-04T15:51:24.64Z</time></trkpt><trkpt lat="44.2924817" lon="9.43257"><ele>73.0</ele><time>2026-04-04T15:51:25.64Z</time></trkpt><trkpt lat="44.2925617" lon="9.4325417"><ele>68.5</ele><time>2026-04-04T15:51:26.64Z</time></trkpt><trkpt lat="44.2926283" lon="9.4325467"><ele>64.0</ele><time>2026-04-04T15:51:27.64Z</time></trkpt><trkpt lat="44.2926933" lon="9.432585"><ele>59.49999999999999</ele><time>2026-04-04T15:51:28.64Z</time></trkpt><trkpt lat="44.2927533" lon="9.432665"><ele>55.0</ele><time>2026-04-04T15:51:29.64Z</time></trkpt><trkpt lat="44.292805" lon="9.43277"><ele>54.99999999999999</ele><time>2026-04-04T15:51:30.64Z</time></trkpt><trkpt lat="44.292855" lon="9.43288"><ele>55.0</ele><time>2026-04-04T15:51:31.64Z</time></trkpt><trkpt lat="44.292895" lon="9.4329933"><ele>55.0</ele><time>2026-04-04T15:51:32.64Z</time></trkpt><trkpt lat="44.292945" lon="9.4330883"><ele>55.0</ele><time>2026-04-04T15:51:33.641Z</time></trkpt><trkpt lat="44.293" lon="9.4331633"><ele>54.99999999999999</ele><time>2026-04-04T15:51:34.641Z</time></trkpt><trkpt lat="44.2930633" lon="9.433195"><ele>55.0</ele><time>2026-04-04T15:51:35.64Z</time></trkpt><trkpt lat="44.29319" lon="9.4331617"><ele>56.166666666666664</ele><time>2026-04-04T15:51:37.64Z</time></trkpt><trkpt lat="44.2932483" lon="9.4330917"><ele>57.33333333333333</ele><time>2026-04-04T15:51:38.64Z</time></trkpt><trkpt lat="44.2932883" lon="9.4330033"><ele>58.5</ele><time>2026-04-04T15:51:39.64Z</time></trkpt><trkpt lat="44.2933267" lon="9.4329033"><ele>59.66666666666667</ele><time>2026-04-04T15:51:40.64Z</time></trkpt><trkpt lat="44.2933717" lon="9.43282"><ele>60.833333333333336</ele><time>2026-04-04T15:51:41.64Z</time></trkpt><trkpt lat="44.29343" lon="9.4327517"><ele>62.0</ele><time>2026-04-04T15:51:42.64Z</time></trkpt><trkpt lat="44.2935" lon="9.4326983"><ele>58.8</ele><time>2026-04-04T15:51:43.64Z</time></trkpt><trkpt lat="44.29358" lon="9.4326567"><ele>55.6</ele><time>2026-04-04T15:51:44.64Z</time></trkpt><trkpt lat="44.2936733" lon="9.432615"><ele>52.4</ele><time>2026-04-04T15:51:45.64Z</time></trkpt><trkpt lat="44.2937717" lon="9.4325783"><ele>49.199999999999996</ele><time>2026-04-04T15:51:46.64Z</time></trkpt><trkpt lat="44.2938633" lon="9.4325517"><ele>46.0</ele><time>2026-04-04T15:51:47.64Z</time></trkpt><trkpt lat="44.2939517" lon="9.432545"><ele>45.5</ele><time>2026-04-04T15:51:48.64Z</time></trkpt><trkpt lat="44.294025" lon="9.4325583"><ele>45.0</ele><time>2026-04-04T15:51:49.64Z</time></trkpt><trkpt lat="44.294095" lon="9.432565"><ele>44.5</ele><time>2026-04-04T15:51:50.641Z</time></trkpt><trkpt lat="44.2941983" lon="9.4325783"><ele>44.0</ele><time>2026-04-04T15:51:52.64Z</time></trkpt><trkpt lat="44.2942633" lon="9.4325817"><ele>43.5</ele><time>2026-04-04T15:51:54.641Z</time></trkpt><trkpt lat="44.2943167" lon="9.4325117"><ele>43.0</ele><time>2026-04-04T15:52:02.64Z</time></trkpt><trkpt lat="44.2942767" lon="9.4323767"><ele>43.0</ele><time>2026-04-04T15:52:04.64Z</time></trkpt><trkpt lat="44.2941933" lon="9.43229"><ele>43.0</ele><time>2026-04-04T15:52:06.64Z</time></trkpt><trkpt lat="44.29413" lon="9.4322817"><ele>43.0</ele><time>2026-04-04T15:52:07.64Z</time></trkpt><trkpt lat="44.2940467" lon="9.4322767"><ele>43.0</ele><time>2026-04-04T15:52:08.641Z</time></trkpt><trkpt lat="44.293965" lon="9.4322717"><ele>43.0</ele><time>2026-04-04T15:52:09.641Z</time></trkpt><trkpt lat="44.29388" lon="9.432265"><ele>43.0</ele><time>2026-04-04T15:52:10.64Z</time></trkpt><trkpt lat="44.2937917" lon="9.4322567"><ele>43.599999999999994</ele><time>2026-04-04T15:52:11.64Z</time></trkpt><trkpt lat="44.2936883" lon="9.4322467"><ele>44.199999999999996</ele><time>2026-04-04T15:52:12.641Z</time></trkpt><trkpt lat="44.2935833" lon="9.4322267"><ele>44.8</ele><time>2026-04-04T15:52:13.64Z</time></trkpt><trkpt lat="44.29347" lon="9.432205"><ele>45.4</ele><time>2026-04-04T15:52:14.641Z</time></trkpt><trkpt lat="44.293355" lon="9.432175"><ele>46.0</ele><time>2026-04-04T15:52:15.641Z</time></trkpt><trkpt lat="44.2932433" lon="9.432155"><ele>44.4</ele><time>2026-04-04T15:52:16.641Z</time></trkpt><trkpt lat="44.2931383" lon="9.432125"><ele>42.8</ele><time>2026-04-04T15:52:17.64Z</time></trkpt><trkpt lat="44.2930433" lon="9.432095"><ele>41.199999999999996</ele><time>2026-04-04T15:52:18.64Z</time></trkpt><trkpt lat="44.2929467" lon="9.43205"><ele>39.599999999999994</ele><time>2026-04-04T15:52:19.64Z</time></trkpt><trkpt lat="44.2928567" lon="9.4319833"><ele>38.0</ele><time>2026-04-04T15:52:20.64Z</time></trkpt><trkpt lat="44.2927783" lon="9.4318933"><ele>38.0</ele><time>2026-04-04T15:52:21.64Z</time></trkpt><trkpt lat="44.2926917" lon="9.4317933"><ele>38.0</ele><time>2026-04-04T15:52:22.64Z</time></trkpt><trkpt lat="44.2926017" lon="9.43168"><ele>38.0</ele><time>2026-04-04T15:52:23.64Z</time></trkpt><trkpt lat="44.2925033" lon="9.4315833"><ele>38.0</ele><time>2026-04-04T15:52:24.64Z</time></trkpt><trkpt lat="44.2923983" lon="9.4314917"><ele>38.0</ele><time>2026-04-04T15:52:25.64Z</time></trkpt><trkpt lat="44.2923017" lon="9.4314067"><ele>38.0</ele><time>2026-04-04T15:52:26.641Z</time></trkpt><trkpt lat="44.2921967" lon="9.4313367"><ele>38.0</ele><time>2026-04-04T15:52:27.64Z</time></trkpt><trkpt lat="44.292075" lon="9.431285"><ele>38.0</ele><time>2026-04-04T15:52:28.64Z</time></trkpt><trkpt lat="44.2919433" lon="9.431235"><ele>36.75</ele><time>2026-04-04T15:52:29.64Z</time></trkpt><trkpt lat="44.291815" lon="9.4311967"><ele>35.5</ele><time>2026-04-04T15:52:30.64Z</time></trkpt><trkpt lat="44.29169" lon="9.4311433"><ele>34.25</ele><time>2026-04-04T15:52:31.64Z</time></trkpt><trkpt lat="44.2915633" lon="9.4311017"><ele>33.0</ele><time>2026-04-04T15:52:32.64Z</time></trkpt><trkpt lat="44.2914467" lon="9.431055"><ele>34.599999999999994</ele><time>2026-04-04T15:52:33.64Z</time></trkpt><trkpt lat="44.2913333" lon="9.4310067"><ele>36.199999999999996</ele><time>2026-04-04T15:52:34.641Z</time></trkpt><trkpt lat="44.2912267" lon="9.430965"><ele>37.8</ele><time>2026-04-04T15:52:35.641Z</time></trkpt><trkpt lat="44.2911267" lon="9.4309183"><ele>39.4</ele><time>2026-04-04T15:52:36.641Z</time></trkpt><trkpt lat="44.2910233" lon="9.430865"><ele>41.0</ele><time>2026-04-04T15:52:37.64Z</time></trkpt><trkpt lat="44.2909383" lon="9.43079"><ele>41.0</ele><time>2026-04-04T15:52:38.64Z</time></trkpt><trkpt lat="44.290855" lon="9.4306967"><ele>41.0</ele><time>2026-04-04T15:52:39.641Z</time></trkpt><trkpt lat="44.2907767" lon="9.4305917"><ele>41.0</ele><time>2026-04-04T15:52:40.64Z</time></trkpt><trkpt lat="44.2907017" lon="9.4304833"><ele>41.0</ele><time>2026-04-04T15:52:41.64Z</time></trkpt><trkpt lat="44.29062" lon="9.4303733"><ele>41.0</ele><time>2026-04-04T15:52:42.64Z</time></trkpt><trkpt lat="44.2905267" lon="9.4302733"><ele>41.0</ele><time>2026-04-04T15:52:43.64Z</time></trkpt><trkpt lat="44.2904333" lon="9.43016"><ele>41.0</ele><time>2026-04-04T15:52:44.64Z</time></trkpt><trkpt lat="44.2903383" lon="9.4300517"><ele>41.0</ele><time>2026-04-04T15:52:45.64Z</time></trkpt><trkpt lat="44.2902283" lon="9.429945"><ele>41.0</ele><time>2026-04-04T15:52:46.641Z</time></trkpt><trkpt lat="44.2901017" lon="9.429855"><ele>41.0</ele><time>2026-04-04T15:52:47.64Z</time></trkpt><trkpt lat="44.2899733" lon="9.429775"><ele>41.0</ele><time>2026-04-04T15:52:48.641Z</time></trkpt><trkpt lat="44.2898467" lon="9.4297"><ele>41.0</ele><time>2026-04-04T15:52:49.64Z</time></trkpt><trkpt lat="44.289735" lon="9.4296117"><ele>41.0</ele><time>2026-04-04T15:52:50.64Z</time></trkpt><trkpt lat="44.2896317" lon="9.42952"><ele>40.0</ele><time>2026-04-04T15:52:51.64Z</time></trkpt><trkpt lat="44.2895317" lon="9.4294167"><ele>39.0</ele><time>2026-04-04T15:52:52.64Z</time></trkpt><trkpt lat="44.2894233" lon="9.4293167"><ele>38.0</ele><time>2026-04-04T15:52:53.64Z</time></trkpt><trkpt lat="44.28931" lon="9.4292133"><ele>37.0</ele><time>2026-04-04T15:52:54.641Z</time></trkpt><trkpt lat="44.2892083" lon="9.4291133"><ele>37.0</ele><time>2026-04-04T15:52:55.64Z</time></trkpt><trkpt lat="44.2891183" lon="9.4290267"><ele>37.0</ele><time>2026-04-04T15:52:56.64Z</time></trkpt><trkpt lat="44.2890283" lon="9.4289417"><ele>37.0</ele><time>2026-04-04T15:52:57.641Z</time></trkpt><trkpt lat="44.288935" lon="9.4288683"><ele>37.0</ele><time>2026-04-04T15:52:58.641Z</time></trkpt><trkpt lat="44.2888317" lon="9.42881"><ele>37.0</ele><time>2026-04-04T15:52:59.64Z</time></trkpt><trkpt lat="44.2887267" lon="9.428765"><ele>35.0</ele><time>2026-04-04T15:53:00.641Z</time></trkpt><trkpt lat="44.28861" lon="9.4287367"><ele>33.0</ele><time>2026-04-04T15:53:01.64Z</time></trkpt><trkpt lat="44.288495" lon="9.428705"><ele>31.0</ele><time>2026-04-04T15:53:02.64Z</time></trkpt><trkpt lat="44.2883833" lon="9.4286683"><ele>29.0</ele><time>2026-04-04T15:53:03.64Z</time></trkpt><trkpt lat="44.2882683" lon="9.4286383"><ele>29.0</ele><time>2026-04-04T15:53:04.64Z</time></trkpt><trkpt lat="44.28815" lon="9.428595"><ele>29.0</ele><time>2026-04-04T15:53:05.641Z</time></trkpt><trkpt lat="44.2880267" lon="9.42856"><ele>29.0</ele><time>2026-04-04T15:53:06.64Z</time></trkpt><trkpt lat="44.2879083" lon="9.4285083"><ele>29.0</ele><time>2026-04-04T15:53:07.641Z</time></trkpt><trkpt lat="44.287795" lon="9.4284483"><ele>31.0</ele><time>2026-04-04T15:53:08.641Z</time></trkpt><trkpt lat="44.28769" lon="9.42838"><ele>33.0</ele><time>2026-04-04T15:53:09.641Z</time></trkpt><trkpt lat="44.28759" lon="9.4283017"><ele>35.0</ele><time>2026-04-04T15:53:10.64Z</time></trkpt><trkpt lat="44.2875083" lon="9.4282"><ele>37.0</ele><time>2026-04-04T15:53:11.64Z</time></trkpt><trkpt lat="44.28743" lon="9.4280833"><ele>39.0</ele><time>2026-04-04T15:53:12.64Z</time></trkpt><trkpt lat="44.28737" lon="9.4279483"><ele>41.0</ele><time>2026-04-04T15:53:13.64Z</time></trkpt><trkpt lat="44.2873117" lon="9.4277983"><ele>43.0</ele><time>2026-04-04T15:53:14.64Z</time></trkpt><trkpt lat="44.2872517" lon="9.4276417"><ele>45.0</ele><time>2026-04-04T15:53:15.64Z</time></trkpt><trkpt lat="44.2871933" lon="9.427485"><ele>45.0</ele><time>2026-04-04T15:53:16.639Z</time></trkpt><trkpt lat="44.2871267" lon="9.4273367"><ele>45.0</ele><time>2026-04-04T15:53:17.639Z</time></trkpt><trkpt lat="44.2870483" lon="9.4272017"><ele>45.0</ele><time>2026-04-04T15:53:18.639Z</time></trkpt><trkpt lat="44.286955" lon="9.4270817"><ele>45.0</ele><time>2026-04-04T15:53:19.639Z</time></trkpt><trkpt lat="44.286845" lon="9.4269833"><ele>46.25</ele><time>2026-04-04T15:53:20.639Z</time></trkpt><trkpt lat="44.2867333" lon="9.4268967"><ele>47.5</ele><time>2026-04-04T15:53:21.64Z</time></trkpt><trkpt lat="44.28662" lon="9.426825"><ele>48.75</ele><time>2026-04-04T15:53:22.64Z</time></trkpt><trkpt lat="44.28652" lon="9.4267467"><ele>50.0</ele><time>2026-04-04T15:53:23.639Z</time></trkpt><trkpt lat="44.2864183" lon="9.4266583"><ele>50.0</ele><time>2026-04-04T15:53:24.639Z</time></trkpt><trkpt lat="44.2863233" lon="9.42656"><ele>50.0</ele><time>2026-04-04T15:53:25.639Z</time></trkpt><trkpt lat="44.2862333" lon="9.4264483"><ele>50.0</ele><time>2026-04-04T15:53:26.64Z</time></trkpt><trkpt lat="44.2861467" lon="9.426315"><ele>50.0</ele><time>2026-04-04T15:53:27.639Z</time></trkpt><trkpt lat="44.2860533" lon="9.4261783"><ele>45.25</ele><time>2026-04-04T15:53:28.639Z</time></trkpt><trkpt lat="44.2859617" lon="9.4260417"><ele>40.5</ele><time>2026-04-04T15:53:29.64Z</time></trkpt><trkpt lat="44.2858767" lon="9.4259033"><ele>35.75</ele><time>2026-04-04T15:53:30.64Z</time></trkpt><trkpt lat="44.285785" lon="9.425775"><ele>31.0</ele><time>2026-04-04T15:53:31.639Z</time></trkpt><trkpt lat="44.2856917" lon="9.42565"><ele>31.0</ele><time>2026-04-04T15:53:32.639Z</time></trkpt><trkpt lat="44.2855967" lon="9.425525"><ele>31.0</ele><time>2026-04-04T15:53:33.64Z</time></trkpt><trkpt lat="44.2855033" lon="9.42541"><ele>31.0</ele><time>2026-04-04T15:53:34.64Z</time></trkpt><trkpt lat="44.285415" lon="9.4252983"><ele>31.0</ele><time>2026-04-04T15:53:35.639Z</time></trkpt><trkpt lat="44.2853233" lon="9.4252"><ele>29.6</ele><time>2026-04-04T15:53:36.639Z</time></trkpt><trkpt lat="44.2852317" lon="9.4251033"><ele>28.200000000000003</ele><time>2026-04-04T15:53:37.639Z</time></trkpt><trkpt lat="44.2851433" lon="9.4250067"><ele>26.799999999999997</ele><time>2026-04-04T15:53:38.639Z</time></trkpt><trkpt lat="44.285065" lon="9.42491"><ele>25.4</ele><time>2026-04-04T15:53:39.64Z</time></trkpt><trkpt lat="44.284985" lon="9.4248167"><ele>24.0</ele><time>2026-04-04T15:53:40.639Z</time></trkpt><trkpt lat="44.2849017" lon="9.4247283"><ele>23.2</ele><time>2026-04-04T15:53:41.639Z</time></trkpt><trkpt lat="44.2848167" lon="9.424645"><ele>22.4</ele><time>2026-04-04T15:53:42.64Z</time></trkpt><trkpt lat="44.2847317" lon="9.4245717"><ele>21.6</ele><time>2026-04-04T15:53:43.639Z</time></trkpt><trkpt lat="44.28465" lon="9.424505"><ele>20.8</ele><time>2026-04-04T15:53:44.64Z</time></trkpt><trkpt lat="44.28457" lon="9.4244383"><ele>20.0</ele><time>2026-04-04T15:53:45.639Z</time></trkpt><trkpt lat="44.2844917" lon="9.4243733"><ele>20.0</ele><time>2026-04-04T15:53:46.639Z</time></trkpt><trkpt lat="44.2844083" lon="9.4243017"><ele>20.0</ele><time>2026-04-04T15:53:47.64Z</time></trkpt><trkpt lat="44.28433" lon="9.4242417"><ele>20.0</ele><time>2026-04-04T15:53:48.64Z</time></trkpt><trkpt lat="44.2842467" lon="9.424175"><ele>20.0</ele><time>2026-04-04T15:53:49.64Z</time></trkpt><trkpt lat="44.2841683" lon="9.4241067"><ele>20.0</ele><time>2026-04-04T15:53:50.639Z</time></trkpt><trkpt lat="44.2840833" lon="9.42405"><ele>20.0</ele><time>2026-04-04T15:53:51.639Z</time></trkpt><trkpt lat="44.2839967" lon="9.4239967"><ele>20.0</ele><time>2026-04-04T15:53:52.639Z</time></trkpt><trkpt lat="44.2839117" lon="9.4239417"><ele>20.0</ele><time>2026-04-04T15:53:53.639Z</time></trkpt><trkpt lat="44.2838233" lon="9.4238917"><ele>20.0</ele><time>2026-04-04T15:53:54.639Z</time></trkpt><trkpt lat="44.2837367" lon="9.4238467"><ele>20.0</ele><time>2026-04-04T15:53:55.64Z</time></trkpt><trkpt lat="44.28365" lon="9.4237967"><ele>19.6</ele><time>2026-04-04T15:53:56.639Z</time></trkpt><trkpt lat="44.2835583" lon="9.4237483"><ele>19.2</ele><time>2026-04-04T15:53:57.639Z</time></trkpt><trkpt lat="44.2834667" lon="9.4237017"><ele>18.8</ele><time>2026-04-04T15:53:58.639Z</time></trkpt><trkpt lat="44.2833717" lon="9.4236533"><ele>18.4</ele><time>2026-04-04T15:53:59.639Z</time></trkpt><trkpt lat="44.2832733" lon="9.4236067"><ele>18.0</ele><time>2026-04-04T15:54:00.64Z</time></trkpt><trkpt lat="44.2831783" lon="9.42356"><ele>18.2</ele><time>2026-04-04T15:54:01.64Z</time></trkpt><trkpt lat="44.28309" lon="9.4235167"><ele>18.4</ele><time>2026-04-04T15:54:02.64Z</time></trkpt><trkpt lat="44.2829983" lon="9.4234683"><ele>18.599999999999998</ele><time>2026-04-04T15:54:03.639Z</time></trkpt><trkpt lat="44.282895" lon="9.42342"><ele>18.8</ele><time>2026-04-04T15:54:04.639Z</time></trkpt><trkpt lat="44.282795" lon="9.4233733"><ele>19.0</ele><time>2026-04-04T15:54:05.639Z</time></trkpt><trkpt lat="44.2826917" lon="9.4233283"><ele>19.0</ele><time>2026-04-04T15:54:06.639Z</time></trkpt><trkpt lat="44.282595" lon="9.42328"><ele>19.0</ele><time>2026-04-04T15:54:07.64Z</time></trkpt><trkpt lat="44.2824917" lon="9.4232333"><ele>19.0</ele><time>2026-04-04T15:54:08.639Z</time></trkpt><trkpt lat="44.282385" lon="9.4231733"><ele>19.0</ele><time>2026-04-04T15:54:09.639Z</time></trkpt><trkpt lat="44.2822733" lon="9.423125"><ele>19.0</ele><time>2026-04-04T15:54:10.64Z</time></trkpt><trkpt lat="44.282155" lon="9.4230817"><ele>19.0</ele><time>2026-04-04T15:54:11.639Z</time></trkpt><trkpt lat="44.28203" lon="9.4230517"><ele>19.0</ele><time>2026-04-04T15:54:12.639Z</time></trkpt><trkpt lat="44.281905" lon="9.423015"><ele>19.0</ele><time>2026-04-04T15:54:13.639Z</time></trkpt><trkpt lat="44.2817783" lon="9.4229733"><ele>19.0</ele><time>2026-04-04T15:54:14.639Z</time></trkpt><trkpt lat="44.2816517" lon="9.4229383"><ele>18.75</ele><time>2026-04-04T15:54:15.639Z</time></trkpt><trkpt lat="44.2815283" lon="9.4228933"><ele>18.5</ele><time>2026-04-04T15:54:16.639Z</time></trkpt><trkpt lat="44.281405" lon="9.422845"><ele>18.25</ele><time>2026-04-04T15:54:17.639Z</time></trkpt><trkpt lat="44.2812833" lon="9.4227917"><ele>18.0</ele><time>2026-04-04T15:54:18.639Z</time></trkpt><trkpt lat="44.2811633" lon="9.4227367"><ele>18.0</ele><time>2026-04-04T15:54:19.639Z</time></trkpt><trkpt lat="44.2810483" lon="9.4226767"><ele>18.0</ele><time>2026-04-04T15:54:20.639Z</time></trkpt><trkpt lat="44.2809417" lon="9.4226083"><ele>18.0</ele><time>2026-04-04T15:54:21.639Z</time></trkpt><trkpt lat="44.2808383" lon="9.4225433"><ele>18.0</ele><time>2026-04-04T15:54:22.639Z</time></trkpt><trkpt lat="44.2807367" lon="9.4224833"><ele>18.0</ele><time>2026-04-04T15:54:23.64Z</time></trkpt><trkpt lat="44.2806283" lon="9.4224417"><ele>18.0</ele><time>2026-04-04T15:54:24.64Z</time></trkpt><trkpt lat="44.28052" lon="9.4224083"><ele>18.0</ele><time>2026-04-04T15:54:25.639Z</time></trkpt><trkpt lat="44.280405" lon="9.422375"><ele>18.0</ele><time>2026-04-04T15:54:26.639Z</time></trkpt><trkpt lat="44.28029" lon="9.422345"><ele>18.0</ele><time>2026-04-04T15:54:27.639Z</time></trkpt><trkpt lat="44.2801767" lon="9.42231"><ele>18.0</ele><time>2026-04-04T15:54:28.639Z</time></trkpt><trkpt lat="44.2800567" lon="9.4222683"><ele>18.0</ele><time>2026-04-04T15:54:29.639Z</time></trkpt><trkpt lat="44.279935" lon="9.42223"><ele>18.0</ele><time>2026-04-04T15:54:30.639Z</time></trkpt><trkpt lat="44.2798133" lon="9.4221867"><ele>17.5</ele><time>2026-04-04T15:54:31.639Z</time></trkpt><trkpt lat="44.2796883" lon="9.4221433"><ele>17.0</ele><time>2026-04-04T15:54:32.639Z</time></trkpt><trkpt lat="44.27955" lon="9.422105"><ele>16.5</ele><time>2026-04-04T15:54:33.64Z</time></trkpt><trkpt lat="44.2794183" lon="9.4220617"><ele>16.0</ele><time>2026-04-04T15:54:34.639Z</time></trkpt><trkpt lat="44.2792867" lon="9.42202"><ele>16.0</ele><time>2026-04-04T15:54:35.639Z</time></trkpt><trkpt lat="44.2791583" lon="9.4219767"><ele>16.0</ele><time>2026-04-04T15:54:36.64Z</time></trkpt><trkpt lat="44.279025" lon="9.4219317"><ele>16.0</ele><time>2026-04-04T15:54:37.639Z</time></trkpt><trkpt lat="44.2788867" lon="9.4218983"><ele>16.0</ele><time>2026-04-04T15:54:38.639Z</time></trkpt><trkpt lat="44.278765" lon="9.4218567"><ele>16.400000000000002</ele><time>2026-04-04T15:54:39.64Z</time></trkpt><trkpt lat="44.2786467" lon="9.42182"><ele>16.8</ele><time>2026-04-04T15:54:40.639Z</time></trkpt><trkpt lat="44.2785367" lon="9.4217733"><ele>17.200000000000003</ele><time>2026-04-04T15:54:41.639Z</time></trkpt><trkpt lat="44.2784333" lon="9.4217283"><ele>17.6</ele><time>2026-04-04T15:54:42.64Z</time></trkpt><trkpt lat="44.27834" lon="9.4216833"><ele>18.0</ele><time>2026-04-04T15:54:43.639Z</time></trkpt><trkpt lat="44.278255" lon="9.4216417"><ele>18.0</ele><time>2026-04-04T15:54:44.639Z</time></trkpt><trkpt lat="44.2781667" lon="9.421625"><ele>18.0</ele><time>2026-04-04T15:54:45.639Z</time></trkpt><trkpt lat="44.278075" lon="9.4216283"><ele>18.0</ele><time>2026-04-04T15:54:46.639Z</time></trkpt><trkpt lat="44.277985" lon="9.4216317"><ele>18.0</ele><time>2026-04-04T15:54:47.64Z</time></trkpt><trkpt lat="44.2778967" lon="9.4216283"><ele>18.0</ele><time>2026-04-04T15:54:48.639Z</time></trkpt><trkpt lat="44.2777983" lon="9.4216317"><ele>18.0</ele><time>2026-04-04T15:54:49.64Z</time></trkpt><trkpt lat="44.2776983" lon="9.4216233"><ele>18.0</ele><time>2026-04-04T15:54:50.639Z</time></trkpt><trkpt lat="44.2776033" lon="9.4215983"><ele>18.0</ele><time>2026-04-04T15:54:51.64Z</time></trkpt><trkpt lat="44.27751" lon="9.4215617"><ele>18.0</ele><time>2026-04-04T15:54:52.639Z</time></trkpt><trkpt lat="44.27742" lon="9.4215067"><ele>18.0</ele><time>2026-04-04T15:54:53.639Z</time></trkpt><trkpt lat="44.27733" lon="9.4214417"><ele>17.6</ele><time>2026-04-04T15:54:54.639Z</time></trkpt><trkpt lat="44.2772417" lon="9.421355"><ele>17.200000000000003</ele><time>2026-04-04T15:54:55.639Z</time></trkpt><trkpt lat="44.2771567" lon="9.4212733"><ele>16.8</ele><time>2026-04-04T15:54:56.639Z</time></trkpt><trkpt lat="44.2770733" lon="9.4212017"><ele>16.400000000000002</ele><time>2026-04-04T15:54:57.639Z</time></trkpt><trkpt lat="44.2769917" lon="9.42113"><ele>16.0</ele><time>2026-04-04T15:54:58.64Z</time></trkpt><trkpt lat="44.2769167" lon="9.4210717"><ele>16.0</ele><time>2026-04-04T15:54:59.639Z</time></trkpt><trkpt lat="44.2768317" lon="9.421015"><ele>16.0</ele><time>2026-04-04T15:55:00.639Z</time></trkpt><trkpt lat="44.2767467" lon="9.4209667"><ele>16.0</ele><time>2026-04-04T15:55:01.639Z</time></trkpt><trkpt lat="44.2766433" lon="9.42093"><ele>16.0</ele><time>2026-04-04T15:55:02.639Z</time></trkpt><trkpt lat="44.2765367" lon="9.420905"><ele>16.0</ele><time>2026-04-04T15:55:03.64Z</time></trkpt><trkpt lat="44.2764283" lon="9.4208967"><ele>16.25</ele><time>2026-04-04T15:55:04.639Z</time></trkpt><trkpt lat="44.2763183" lon="9.42089"><ele>16.5</ele><time>2026-04-04T15:55:05.64Z</time></trkpt><trkpt lat="44.2762083" lon="9.420905"><ele>16.75</ele><time>2026-04-04T15:55:06.64Z</time></trkpt><trkpt lat="44.276095" lon="9.42092"><ele>17.0</ele><time>2026-04-04T15:55:07.639Z</time></trkpt><trkpt lat="44.2759767" lon="9.420915"><ele>17.0</ele><time>2026-04-04T15:55:08.639Z</time></trkpt><trkpt lat="44.2758567" lon="9.4209333"><ele>17.0</ele><time>2026-04-04T15:55:09.64Z</time></trkpt><trkpt lat="44.2757433" lon="9.42095"><ele>17.0</ele><time>2026-04-04T15:55:10.639Z</time></trkpt><trkpt lat="44.2756317" lon="9.4209667"><ele>17.0</ele><time>2026-04-04T15:55:11.639Z</time></trkpt><trkpt lat="44.2755217" lon="9.420995"><ele>17.0</ele><time>2026-04-04T15:55:12.64Z</time></trkpt><trkpt lat="44.2754133" lon="9.4210067"><ele>17.0</ele><time>2026-04-04T15:55:13.64Z</time></trkpt><trkpt lat="44.27531" lon="9.421015"><ele>17.0</ele><time>2026-04-04T15:55:14.639Z</time></trkpt><trkpt lat="44.2752067" lon="9.4210167"><ele>17.0</ele><time>2026-04-04T15:55:15.639Z</time></trkpt><trkpt lat="44.2751067" lon="9.4210083"><ele>17.0</ele><time>2026-04-04T15:55:16.639Z</time></trkpt><trkpt lat="44.2750033" lon="9.42101"><ele>17.0</ele><time>2026-04-04T15:55:17.639Z</time></trkpt><trkpt lat="44.27491" lon="9.4210067"><ele>17.0</ele><time>2026-04-04T15:55:18.639Z</time></trkpt><trkpt lat="44.27482" lon="9.421005"><ele>17.0</ele><time>2026-04-04T15:55:19.64Z</time></trkpt><trkpt lat="44.2747417" lon="9.4209717"><ele>17.0</ele><time>2026-04-04T15:55:20.64Z</time></trkpt><trkpt lat="44.2746383" lon="9.4209483"><ele>17.0</ele><time>2026-04-04T15:55:21.639Z</time></trkpt><trkpt lat="44.2745433" lon="9.4209533"><ele>16.833333333333336</ele><time>2026-04-04T15:55:22.639Z</time></trkpt><trkpt lat="44.2744383" lon="9.4209733"><ele>16.666666666666668</ele><time>2026-04-04T15:55:23.639Z</time></trkpt><trkpt lat="44.27435" lon="9.4209883"><ele>16.5</ele><time>2026-04-04T15:55:24.64Z</time></trkpt><trkpt lat="44.2742633" lon="9.4209933"><ele>16.333333333333332</ele><time>2026-04-04T15:55:25.64Z</time></trkpt><trkpt lat="44.2741833" lon="9.4209717"><ele>16.166666666666664</ele><time>2026-04-04T15:55:26.64Z</time></trkpt><trkpt lat="44.2741067" lon="9.4209267"><ele>16.0</ele><time>2026-04-04T15:55:27.639Z</time></trkpt><trkpt lat="44.2740367" lon="9.4208567"><ele>16.0</ele><time>2026-04-04T15:55:28.64Z</time></trkpt><trkpt lat="44.2739817" lon="9.4207633"><ele>16.0</ele><time>2026-04-04T15:55:29.639Z</time></trkpt><trkpt lat="44.273935" lon="9.4206517"><ele>16.0</ele><time>2026-04-04T15:55:30.639Z</time></trkpt><trkpt lat="44.27389" lon="9.4205367"><ele>16.0</ele><time>2026-04-04T15:55:31.639Z</time></trkpt><trkpt lat="44.2738317" lon="9.4204133"><ele>16.0</ele><time>2026-04-04T15:55:32.639Z</time></trkpt><trkpt lat="44.273765" lon="9.4202917"><ele>15.8</ele><time>2026-04-04T15:55:33.639Z</time></trkpt><trkpt lat="44.273705" lon="9.420165"><ele>15.600000000000001</ele><time>2026-04-04T15:55:34.64Z</time></trkpt><trkpt lat="44.27365" lon="9.42005"><ele>15.4</ele><time>2026-04-04T15:55:35.639Z</time></trkpt><trkpt lat="44.2735917" lon="9.4199533"><ele>15.2</ele><time>2026-04-04T15:55:36.639Z</time></trkpt><trkpt lat="44.27353" lon="9.4198767"><ele>15.0</ele><time>2026-04-04T15:55:37.639Z</time></trkpt><trkpt lat="44.27346" lon="9.4198167"><ele>15.0</ele><time>2026-04-04T15:55:38.64Z</time></trkpt><trkpt lat="44.2733817" lon="9.4197783"><ele>15.0</ele><time>2026-04-04T15:55:39.64Z</time></trkpt><trkpt lat="44.2732833" lon="9.4197533"><ele>15.0</ele><time>2026-04-04T15:55:40.639Z</time></trkpt><trkpt lat="44.273185" lon="9.4197583"><ele>15.0</ele><time>2026-04-04T15:55:41.639Z</time></trkpt><trkpt lat="44.27308" lon="9.4197733"><ele>15.0</ele><time>2026-04-04T15:55:42.64Z</time></trkpt><trkpt lat="44.2729817" lon="9.4197933"><ele>14.5</ele><time>2026-04-04T15:55:43.64Z</time></trkpt><trkpt lat="44.2728767" lon="9.41983"><ele>14.0</ele><time>2026-04-04T15:55:44.639Z</time></trkpt><trkpt lat="44.2727583" lon="9.4198533"><ele>13.5</ele><time>2026-04-04T15:55:45.639Z</time></trkpt><trkpt lat="44.2726367" lon="9.4198783"><ele>13.0</ele><time>2026-04-04T15:55:46.639Z</time></trkpt><trkpt lat="44.27252" lon="9.419915"><ele>13.0</ele><time>2026-04-04T15:55:47.639Z</time></trkpt><trkpt lat="44.2724083" lon="9.4199417"><ele>13.0</ele><time>2026-04-04T15:55:48.639Z</time></trkpt><trkpt lat="44.2722883" lon="9.419975"><ele>13.0</ele><time>2026-04-04T15:55:49.639Z</time></trkpt><trkpt lat="44.2721867" lon="9.420015"><ele>13.0</ele><time>2026-04-04T15:55:50.64Z</time></trkpt><trkpt lat="44.2721" lon="9.4200783"><ele>13.0</ele><time>2026-04-04T15:55:51.639Z</time></trkpt><trkpt lat="44.2720283" lon="9.4201667"><ele>12.8</ele><time>2026-04-04T15:55:52.639Z</time></trkpt><trkpt lat="44.2719667" lon="9.4202767"><ele>12.600000000000001</ele><time>2026-04-04T15:55:53.639Z</time></trkpt><trkpt lat="44.27192" lon="9.4204083"><ele>12.399999999999999</ele><time>2026-04-04T15:55:54.639Z</time></trkpt><trkpt lat="44.2718833" lon="9.4205533"><ele>12.2</ele><time>2026-04-04T15:55:55.639Z</time></trkpt><trkpt lat="44.2718433" lon="9.4206967"><ele>12.0</ele><time>2026-04-04T15:55:56.639Z</time></trkpt><trkpt lat="44.2717967" lon="9.4208467"><ele>12.0</ele><time>2026-04-04T15:55:57.64Z</time></trkpt><trkpt lat="44.2717467" lon="9.4209983"><ele>12.0</ele><time>2026-04-04T15:55:58.639Z</time></trkpt><trkpt lat="44.2717033" lon="9.42115"><ele>12.0</ele><time>2026-04-04T15:55:59.639Z</time></trkpt><trkpt lat="44.2716617" lon="9.4212917"><ele>12.0</ele><time>2026-04-04T15:56:00.64Z</time></trkpt><trkpt lat="44.2716167" lon="9.4214133"><ele>12.0</ele><time>2026-04-04T15:56:01.639Z</time></trkpt><trkpt lat="44.2715667" lon="9.4215217"><ele>11.833333333333334</ele><time>2026-04-04T15:56:02.64Z</time></trkpt><trkpt lat="44.2715133" lon="9.42162"><ele>11.666666666666666</ele><time>2026-04-04T15:56:03.639Z</time></trkpt><trkpt lat="44.27145" lon="9.4217017"><ele>11.5</ele><time>2026-04-04T15:56:04.639Z</time></trkpt><trkpt lat="44.2713867" lon="9.4217567"><ele>11.333333333333332</ele><time>2026-04-04T15:56:05.639Z</time></trkpt><trkpt lat="44.2713267" lon="9.4218"><ele>11.166666666666666</ele><time>2026-04-04T15:56:06.639Z</time></trkpt><trkpt lat="44.2712017" lon="9.4218267"><ele>11.0</ele><time>2026-04-04T15:56:08.64Z</time></trkpt><trkpt lat="44.2710867" lon="9.421795"><ele>11.0</ele><time>2026-04-04T15:56:10.639Z</time></trkpt><trkpt lat="44.271015" lon="9.4217833"><ele>11.0</ele><time>2026-04-04T15:56:12.639Z</time></trkpt><trkpt lat="44.270995" lon="9.4216467"><ele>11.0</ele><time>2026-04-04T15:56:22.639Z</time></trkpt><trkpt lat="44.2710267" lon="9.4215617"><ele>11.0</ele><time>2026-04-04T15:56:23.639Z</time></trkpt><trkpt lat="44.2710733" lon="9.4214417"><ele>11.0</ele><time>2026-04-04T15:56:24.639Z</time></trkpt><trkpt lat="44.2711267" lon="9.42132"><ele>11.0</ele><time>2026-04-04T15:56:25.639Z</time></trkpt><trkpt lat="44.2711717" lon="9.4212283"><ele>12.0</ele><time>2026-04-04T15:56:26.64Z</time></trkpt><trkpt lat="44.2712117" lon="9.42116"><ele>12.0</ele><time>2026-04-04T15:56:27.64Z</time></trkpt><trkpt lat="44.2712667" lon="9.4210633"><ele>12.0</ele><time>2026-04-04T15:56:29.64Z</time></trkpt><trkpt lat="44.271325" lon="9.42101"><ele>12.0</ele><time>2026-04-04T15:56:32.639Z</time></trkpt></trkseg></trk></gpx>